<?xml version="1.0" encoding="UTF-8" standalone="no" ?>
<gpx xmlns="http://www.topografix.com/GPX/1/1" xmlns:xsi="http://www.w3.org/2001/XMLSchema-instance" xsi:schemaLocation="http://www.topografix.com/GPX/1/1 http://www.topografix.com/GPX/1/1/gpx.xsd" version="1.1" creator="VisuGPX - https://www.visugpx.com">
  <metadata>
    <name>8045425-73kms-6-01</name>
    <desc><![CDATA[
02]]></desc>
  </metadata>
  <trk>
    <name><![CDATA[8045425-73kms-6-01]]></name>
    <trkseg>
      <trkpt lat="46.69912" lon="-1.93386">
        <ele>4</ele>
        <time>2019-12-31T16:44:03Z</time>
      </trkpt>
      <trkpt lat="46.69911" lon="-1.93386">
        <ele>4</ele>
        <time>2019-12-31T16:44:03Z</time>
      </trkpt>
      <trkpt lat="46.69909" lon="-1.93385">
        <ele>4</ele>
        <time>2019-12-31T16:44:04Z</time>
      </trkpt>
      <trkpt lat="46.69908" lon="-1.93383">
        <ele>4</ele>
        <time>2019-12-31T16:44:04Z</time>
      </trkpt>
      <trkpt lat="46.69908" lon="-1.93383">
        <ele>4</ele>
        <time>2019-12-31T16:44:04Z</time>
      </trkpt>
      <trkpt lat="46.69901" lon="-1.93383">
        <ele>5</ele>
        <time>2019-12-31T16:44:05Z</time>
      </trkpt>
      <trkpt lat="46.69898" lon="-1.93383">
        <ele>5</ele>
        <time>2019-12-31T16:44:06Z</time>
      </trkpt>
      <trkpt lat="46.69892" lon="-1.93385">
        <ele>5</ele>
        <time>2019-12-31T16:44:07Z</time>
      </trkpt>
      <trkpt lat="46.69824" lon="-1.93411">
        <ele>5</ele>
        <time>2019-12-31T16:44:19Z</time>
      </trkpt>
      <trkpt lat="46.69806" lon="-1.93419">
        <ele>5</ele>
        <time>2019-12-31T16:44:23Z</time>
      </trkpt>
      <trkpt lat="46.69798" lon="-1.93421">
        <ele>5</ele>
        <time>2019-12-31T16:44:24Z</time>
      </trkpt>
      <trkpt lat="46.69797" lon="-1.93421">
        <ele>5</ele>
        <time>2019-12-31T16:44:24Z</time>
      </trkpt>
      <trkpt lat="46.69793" lon="-1.9342">
        <ele>5</ele>
        <time>2019-12-31T16:44:25Z</time>
      </trkpt>
      <trkpt lat="46.69793" lon="-1.93421">
        <ele>5</ele>
        <time>2019-12-31T16:44:25Z</time>
      </trkpt>
      <trkpt lat="46.69793" lon="-1.93422">
        <ele>5</ele>
        <time>2019-12-31T16:44:25Z</time>
      </trkpt>
      <trkpt lat="46.69793" lon="-1.93423">
        <ele>5</ele>
        <time>2019-12-31T16:44:25Z</time>
      </trkpt>
      <trkpt lat="46.69793" lon="-1.93424">
        <ele>5</ele>
        <time>2019-12-31T16:44:25Z</time>
      </trkpt>
      <trkpt lat="46.69792" lon="-1.93425">
        <ele>5</ele>
        <time>2019-12-31T16:44:26Z</time>
      </trkpt>
      <trkpt lat="46.69792" lon="-1.93426">
        <ele>5</ele>
        <time>2019-12-31T16:44:26Z</time>
      </trkpt>
      <trkpt lat="46.69791" lon="-1.93426">
        <ele>5</ele>
        <time>2019-12-31T16:44:26Z</time>
      </trkpt>
      <trkpt lat="46.69791" lon="-1.93427">
        <ele>5</ele>
        <time>2019-12-31T16:44:26Z</time>
      </trkpt>
      <trkpt lat="46.6979" lon="-1.93427">
        <ele>5</ele>
        <time>2019-12-31T16:44:26Z</time>
      </trkpt>
      <trkpt lat="46.6979" lon="-1.93428">
        <ele>5</ele>
        <time>2019-12-31T16:44:26Z</time>
      </trkpt>
      <trkpt lat="46.69789" lon="-1.93428">
        <ele>5</ele>
        <time>2019-12-31T16:44:27Z</time>
      </trkpt>
      <trkpt lat="46.69788" lon="-1.93428">
        <ele>5</ele>
        <time>2019-12-31T16:44:27Z</time>
      </trkpt>
      <trkpt lat="46.69788" lon="-1.93427">
        <ele>5</ele>
        <time>2019-12-31T16:44:27Z</time>
      </trkpt>
      <trkpt lat="46.69787" lon="-1.93427">
        <ele>5</ele>
        <time>2019-12-31T16:44:27Z</time>
      </trkpt>
      <trkpt lat="46.69787" lon="-1.93426">
        <ele>5</ele>
        <time>2019-12-31T16:44:27Z</time>
      </trkpt>
      <trkpt lat="46.69786" lon="-1.93426">
        <ele>5</ele>
        <time>2019-12-31T16:44:27Z</time>
      </trkpt>
      <trkpt lat="46.69786" lon="-1.93425">
        <ele>5</ele>
        <time>2019-12-31T16:44:27Z</time>
      </trkpt>
      <trkpt lat="46.69786" lon="-1.93424">
        <ele>5</ele>
        <time>2019-12-31T16:44:28Z</time>
      </trkpt>
      <trkpt lat="46.69785" lon="-1.93424">
        <ele>5</ele>
        <time>2019-12-31T16:44:28Z</time>
      </trkpt>
      <trkpt lat="46.69785" lon="-1.93423">
        <ele>5</ele>
        <time>2019-12-31T16:44:28Z</time>
      </trkpt>
      <trkpt lat="46.69785" lon="-1.93422">
        <ele>5</ele>
        <time>2019-12-31T16:44:28Z</time>
      </trkpt>
      <trkpt lat="46.69779" lon="-1.9342">
        <ele>5</ele>
        <time>2019-12-31T16:44:29Z</time>
      </trkpt>
      <trkpt lat="46.69776" lon="-1.9342">
        <ele>5</ele>
        <time>2019-12-31T16:44:30Z</time>
      </trkpt>
      <trkpt lat="46.69772" lon="-1.9342">
        <ele>5</ele>
        <time>2019-12-31T16:44:30Z</time>
      </trkpt>
      <trkpt lat="46.69762" lon="-1.93423">
        <ele>5</ele>
        <time>2019-12-31T16:44:32Z</time>
      </trkpt>
      <trkpt lat="46.69759" lon="-1.93424">
        <ele>5</ele>
        <time>2019-12-31T16:44:33Z</time>
      </trkpt>
      <trkpt lat="46.69721" lon="-1.93434">
        <ele>5</ele>
        <time>2019-12-31T16:44:40Z</time>
      </trkpt>
      <trkpt lat="46.69714" lon="-1.93435">
        <ele>5</ele>
        <time>2019-12-31T16:44:41Z</time>
      </trkpt>
      <trkpt lat="46.69697" lon="-1.93436">
        <ele>5</ele>
        <time>2019-12-31T16:44:44Z</time>
      </trkpt>
      <trkpt lat="46.69685" lon="-1.93435">
        <ele>5</ele>
        <time>2019-12-31T16:44:46Z</time>
      </trkpt>
      <trkpt lat="46.69633" lon="-1.93423">
        <ele>5</ele>
        <time>2019-12-31T16:44:55Z</time>
      </trkpt>
      <trkpt lat="46.69633" lon="-1.93423">
        <ele>5</ele>
        <time>2019-12-31T16:44:55Z</time>
      </trkpt>
      <trkpt lat="46.69633" lon="-1.93424">
        <ele>4</ele>
        <time>2019-12-31T16:44:55Z</time>
      </trkpt>
      <trkpt lat="46.69633" lon="-1.93425">
        <ele>4</ele>
        <time>2019-12-31T16:44:56Z</time>
      </trkpt>
      <trkpt lat="46.69633" lon="-1.93426">
        <ele>4</ele>
        <time>2019-12-31T16:44:56Z</time>
      </trkpt>
      <trkpt lat="46.69633" lon="-1.93427">
        <ele>4</ele>
        <time>2019-12-31T16:44:56Z</time>
      </trkpt>
      <trkpt lat="46.69633" lon="-1.93428">
        <ele>4</ele>
        <time>2019-12-31T16:44:56Z</time>
      </trkpt>
      <trkpt lat="46.69633" lon="-1.93429">
        <ele>4</ele>
        <time>2019-12-31T16:44:56Z</time>
      </trkpt>
      <trkpt lat="46.69633" lon="-1.9343">
        <ele>4</ele>
        <time>2019-12-31T16:44:56Z</time>
      </trkpt>
      <trkpt lat="46.69632" lon="-1.9343">
        <ele>4</ele>
        <time>2019-12-31T16:44:56Z</time>
      </trkpt>
      <trkpt lat="46.69632" lon="-1.93431">
        <ele>4</ele>
        <time>2019-12-31T16:44:57Z</time>
      </trkpt>
      <trkpt lat="46.69632" lon="-1.93432">
        <ele>4</ele>
        <time>2019-12-31T16:44:57Z</time>
      </trkpt>
      <trkpt lat="46.69631" lon="-1.93432">
        <ele>4</ele>
        <time>2019-12-31T16:44:57Z</time>
      </trkpt>
      <trkpt lat="46.69631" lon="-1.93433">
        <ele>4</ele>
        <time>2019-12-31T16:44:57Z</time>
      </trkpt>
      <trkpt lat="46.69631" lon="-1.93434">
        <ele>4</ele>
        <time>2019-12-31T16:44:57Z</time>
      </trkpt>
      <trkpt lat="46.6963" lon="-1.93434">
        <ele>4</ele>
        <time>2019-12-31T16:44:57Z</time>
      </trkpt>
      <trkpt lat="46.6963" lon="-1.93435">
        <ele>4</ele>
        <time>2019-12-31T16:44:57Z</time>
      </trkpt>
      <trkpt lat="46.69629" lon="-1.93435">
        <ele>4</ele>
        <time>2019-12-31T16:44:58Z</time>
      </trkpt>
      <trkpt lat="46.69629" lon="-1.93436">
        <ele>4</ele>
        <time>2019-12-31T16:44:58Z</time>
      </trkpt>
      <trkpt lat="46.69628" lon="-1.93436">
        <ele>4</ele>
        <time>2019-12-31T16:44:58Z</time>
      </trkpt>
      <trkpt lat="46.69627" lon="-1.93436">
        <ele>4</ele>
        <time>2019-12-31T16:44:58Z</time>
      </trkpt>
      <trkpt lat="46.69627" lon="-1.93437">
        <ele>4</ele>
        <time>2019-12-31T16:44:58Z</time>
      </trkpt>
      <trkpt lat="46.69626" lon="-1.93437">
        <ele>4</ele>
        <time>2019-12-31T16:44:58Z</time>
      </trkpt>
      <trkpt lat="46.69625" lon="-1.93437">
        <ele>4</ele>
        <time>2019-12-31T16:44:58Z</time>
      </trkpt>
      <trkpt lat="46.69624" lon="-1.93437">
        <ele>4</ele>
        <time>2019-12-31T16:44:59Z</time>
      </trkpt>
      <trkpt lat="46.69623" lon="-1.93437">
        <ele>4</ele>
        <time>2019-12-31T16:44:59Z</time>
      </trkpt>
      <trkpt lat="46.69622" lon="-1.93436">
        <ele>4</ele>
        <time>2019-12-31T16:44:59Z</time>
      </trkpt>
      <trkpt lat="46.69619" lon="-1.93445">
        <ele>4</ele>
        <time>2019-12-31T16:45:00Z</time>
      </trkpt>
      <trkpt lat="46.69613" lon="-1.93483">
        <ele>4</ele>
        <time>2019-12-31T16:45:05Z</time>
      </trkpt>
      <trkpt lat="46.69606" lon="-1.93531">
        <ele>4</ele>
        <time>2019-12-31T16:45:11Z</time>
      </trkpt>
      <trkpt lat="46.69602" lon="-1.9355">
        <ele>4</ele>
        <time>2019-12-31T16:45:13Z</time>
      </trkpt>
      <trkpt lat="46.696" lon="-1.93576">
        <ele>4</ele>
        <time>2019-12-31T16:45:17Z</time>
      </trkpt>
      <trkpt lat="46.696" lon="-1.93576">
        <ele>4</ele>
        <time>2019-12-31T16:45:17Z</time>
      </trkpt>
      <trkpt lat="46.696" lon="-1.93577">
        <ele>4</ele>
        <time>2019-12-31T16:45:17Z</time>
      </trkpt>
      <trkpt lat="46.69601" lon="-1.93577">
        <ele>4</ele>
        <time>2019-12-31T16:45:17Z</time>
      </trkpt>
      <trkpt lat="46.69601" lon="-1.93578">
        <ele>4</ele>
        <time>2019-12-31T16:45:17Z</time>
      </trkpt>
      <trkpt lat="46.69602" lon="-1.93578">
        <ele>4</ele>
        <time>2019-12-31T16:45:17Z</time>
      </trkpt>
      <trkpt lat="46.69602" lon="-1.93579">
        <ele>4</ele>
        <time>2019-12-31T16:45:17Z</time>
      </trkpt>
      <trkpt lat="46.69603" lon="-1.93579">
        <ele>4</ele>
        <time>2019-12-31T16:45:18Z</time>
      </trkpt>
      <trkpt lat="46.69603" lon="-1.9358">
        <ele>4</ele>
        <time>2019-12-31T16:45:18Z</time>
      </trkpt>
      <trkpt lat="46.69603" lon="-1.93581">
        <ele>4</ele>
        <time>2019-12-31T16:45:18Z</time>
      </trkpt>
      <trkpt lat="46.69604" lon="-1.93581">
        <ele>4</ele>
        <time>2019-12-31T16:45:18Z</time>
      </trkpt>
      <trkpt lat="46.69604" lon="-1.93582">
        <ele>4</ele>
        <time>2019-12-31T16:45:18Z</time>
      </trkpt>
      <trkpt lat="46.69604" lon="-1.93583">
        <ele>4</ele>
        <time>2019-12-31T16:45:18Z</time>
      </trkpt>
      <trkpt lat="46.69604" lon="-1.93584">
        <ele>4</ele>
        <time>2019-12-31T16:45:18Z</time>
      </trkpt>
      <trkpt lat="46.69605" lon="-1.93585">
        <ele>4</ele>
        <time>2019-12-31T16:45:19Z</time>
      </trkpt>
      <trkpt lat="46.69605" lon="-1.93586">
        <ele>4</ele>
        <time>2019-12-31T16:45:19Z</time>
      </trkpt>
      <trkpt lat="46.69605" lon="-1.93587">
        <ele>4</ele>
        <time>2019-12-31T16:45:19Z</time>
      </trkpt>
      <trkpt lat="46.69605" lon="-1.93588">
        <ele>4</ele>
        <time>2019-12-31T16:45:19Z</time>
      </trkpt>
      <trkpt lat="46.69605" lon="-1.93589">
        <ele>4</ele>
        <time>2019-12-31T16:45:19Z</time>
      </trkpt>
      <trkpt lat="46.69604" lon="-1.93589">
        <ele>4</ele>
        <time>2019-12-31T16:45:19Z</time>
      </trkpt>
      <trkpt lat="46.69604" lon="-1.9359">
        <ele>4</ele>
        <time>2019-12-31T16:45:19Z</time>
      </trkpt>
      <trkpt lat="46.69604" lon="-1.93591">
        <ele>4</ele>
        <time>2019-12-31T16:45:19Z</time>
      </trkpt>
      <trkpt lat="46.69604" lon="-1.93592">
        <ele>4</ele>
        <time>2019-12-31T16:45:20Z</time>
      </trkpt>
      <trkpt lat="46.69604" lon="-1.93593">
        <ele>4</ele>
        <time>2019-12-31T16:45:20Z</time>
      </trkpt>
      <trkpt lat="46.69604" lon="-1.93594">
        <ele>4</ele>
        <time>2019-12-31T16:45:20Z</time>
      </trkpt>
      <trkpt lat="46.69604" lon="-1.93595">
        <ele>4</ele>
        <time>2019-12-31T16:45:20Z</time>
      </trkpt>
      <trkpt lat="46.69603" lon="-1.93595">
        <ele>4</ele>
        <time>2019-12-31T16:45:20Z</time>
      </trkpt>
      <trkpt lat="46.69603" lon="-1.93596">
        <ele>4</ele>
        <time>2019-12-31T16:45:20Z</time>
      </trkpt>
      <trkpt lat="46.69603" lon="-1.93597">
        <ele>4</ele>
        <time>2019-12-31T16:45:20Z</time>
      </trkpt>
      <trkpt lat="46.69602" lon="-1.93598">
        <ele>4</ele>
        <time>2019-12-31T16:45:21Z</time>
      </trkpt>
      <trkpt lat="46.69602" lon="-1.93599">
        <ele>4</ele>
        <time>2019-12-31T16:45:21Z</time>
      </trkpt>
      <trkpt lat="46.69601" lon="-1.93599">
        <ele>4</ele>
        <time>2019-12-31T16:45:21Z</time>
      </trkpt>
      <trkpt lat="46.69601" lon="-1.936">
        <ele>4</ele>
        <time>2019-12-31T16:45:21Z</time>
      </trkpt>
      <trkpt lat="46.696" lon="-1.936">
        <ele>4</ele>
        <time>2019-12-31T16:45:21Z</time>
      </trkpt>
      <trkpt lat="46.696" lon="-1.93601">
        <ele>4</ele>
        <time>2019-12-31T16:45:21Z</time>
      </trkpt>
      <trkpt lat="46.69599" lon="-1.93601">
        <ele>4</ele>
        <time>2019-12-31T16:45:21Z</time>
      </trkpt>
      <trkpt lat="46.69599" lon="-1.93602">
        <ele>4</ele>
        <time>2019-12-31T16:45:22Z</time>
      </trkpt>
      <trkpt lat="46.69598" lon="-1.93602">
        <ele>4</ele>
        <time>2019-12-31T16:45:22Z</time>
      </trkpt>
      <trkpt lat="46.69597" lon="-1.93602">
        <ele>4</ele>
        <time>2019-12-31T16:45:22Z</time>
      </trkpt>
      <trkpt lat="46.69596" lon="-1.93602">
        <ele>4</ele>
        <time>2019-12-31T16:45:22Z</time>
      </trkpt>
      <trkpt lat="46.69596" lon="-1.93603">
        <ele>4</ele>
        <time>2019-12-31T16:45:22Z</time>
      </trkpt>
      <trkpt lat="46.69595" lon="-1.93603">
        <ele>4</ele>
        <time>2019-12-31T16:45:22Z</time>
      </trkpt>
      <trkpt lat="46.69594" lon="-1.93602">
        <ele>4</ele>
        <time>2019-12-31T16:45:23Z</time>
      </trkpt>
      <trkpt lat="46.69593" lon="-1.93602">
        <ele>4</ele>
        <time>2019-12-31T16:45:23Z</time>
      </trkpt>
      <trkpt lat="46.69592" lon="-1.93602">
        <ele>4</ele>
        <time>2019-12-31T16:45:23Z</time>
      </trkpt>
      <trkpt lat="46.69592" lon="-1.93601">
        <ele>4</ele>
        <time>2019-12-31T16:45:23Z</time>
      </trkpt>
      <trkpt lat="46.69591" lon="-1.93601">
        <ele>4</ele>
        <time>2019-12-31T16:45:23Z</time>
      </trkpt>
      <trkpt lat="46.6959" lon="-1.936">
        <ele>4</ele>
        <time>2019-12-31T16:45:24Z</time>
      </trkpt>
      <trkpt lat="46.69589" lon="-1.936">
        <ele>4</ele>
        <time>2019-12-31T16:45:24Z</time>
      </trkpt>
      <trkpt lat="46.69589" lon="-1.93599">
        <ele>4</ele>
        <time>2019-12-31T16:45:24Z</time>
      </trkpt>
      <trkpt lat="46.69588" lon="-1.93598">
        <ele>4</ele>
        <time>2019-12-31T16:45:24Z</time>
      </trkpt>
      <trkpt lat="46.69588" lon="-1.93597">
        <ele>4</ele>
        <time>2019-12-31T16:45:24Z</time>
      </trkpt>
      <trkpt lat="46.69587" lon="-1.93597">
        <ele>4</ele>
        <time>2019-12-31T16:45:24Z</time>
      </trkpt>
      <trkpt lat="46.69587" lon="-1.93596">
        <ele>4</ele>
        <time>2019-12-31T16:45:24Z</time>
      </trkpt>
      <trkpt lat="46.69587" lon="-1.93595">
        <ele>4</ele>
        <time>2019-12-31T16:45:25Z</time>
      </trkpt>
      <trkpt lat="46.69586" lon="-1.93595">
        <ele>4</ele>
        <time>2019-12-31T16:45:25Z</time>
      </trkpt>
      <trkpt lat="46.69581" lon="-1.93596">
        <ele>4</ele>
        <time>2019-12-31T16:45:26Z</time>
      </trkpt>
      <trkpt lat="46.69575" lon="-1.93596">
        <ele>4</ele>
        <time>2019-12-31T16:45:27Z</time>
      </trkpt>
      <trkpt lat="46.69564" lon="-1.93594">
        <ele>4</ele>
        <time>2019-12-31T16:45:29Z</time>
      </trkpt>
      <trkpt lat="46.69561" lon="-1.93593">
        <ele>4</ele>
        <time>2019-12-31T16:45:29Z</time>
      </trkpt>
      <trkpt lat="46.69552" lon="-1.93588">
        <ele>4</ele>
        <time>2019-12-31T16:45:31Z</time>
      </trkpt>
      <trkpt lat="46.69542" lon="-1.93584">
        <ele>4</ele>
        <time>2019-12-31T16:45:33Z</time>
      </trkpt>
      <trkpt lat="46.6953" lon="-1.93579">
        <ele>3</ele>
        <time>2019-12-31T16:45:35Z</time>
      </trkpt>
      <trkpt lat="46.69519" lon="-1.93575">
        <ele>3</ele>
        <time>2019-12-31T16:45:37Z</time>
      </trkpt>
      <trkpt lat="46.69514" lon="-1.93574">
        <ele>3</ele>
        <time>2019-12-31T16:45:38Z</time>
      </trkpt>
      <trkpt lat="46.6951" lon="-1.93574">
        <ele>3</ele>
        <time>2019-12-31T16:45:39Z</time>
      </trkpt>
      <trkpt lat="46.69507" lon="-1.93574">
        <ele>3</ele>
        <time>2019-12-31T16:45:39Z</time>
      </trkpt>
      <trkpt lat="46.69498" lon="-1.93578">
        <ele>3</ele>
        <time>2019-12-31T16:45:41Z</time>
      </trkpt>
      <trkpt lat="46.69488" lon="-1.93581">
        <ele>3</ele>
        <time>2019-12-31T16:45:43Z</time>
      </trkpt>
      <trkpt lat="46.69478" lon="-1.93583">
        <ele>2</ele>
        <time>2019-12-31T16:45:44Z</time>
      </trkpt>
      <trkpt lat="46.69455" lon="-1.9359">
        <ele>2</ele>
        <time>2019-12-31T16:45:49Z</time>
      </trkpt>
      <trkpt lat="46.6944" lon="-1.93596">
        <ele>2</ele>
        <time>2019-12-31T16:45:51Z</time>
      </trkpt>
      <trkpt lat="46.69433" lon="-1.93601">
        <ele>2</ele>
        <time>2019-12-31T16:45:53Z</time>
      </trkpt>
      <trkpt lat="46.69428" lon="-1.93608">
        <ele>2</ele>
        <time>2019-12-31T16:45:54Z</time>
      </trkpt>
      <trkpt lat="46.69427" lon="-1.9361">
        <ele>2</ele>
        <time>2019-12-31T16:45:54Z</time>
      </trkpt>
      <trkpt lat="46.69427" lon="-1.93617">
        <ele>2</ele>
        <time>2019-12-31T16:45:55Z</time>
      </trkpt>
      <trkpt lat="46.69426" lon="-1.93624">
        <ele>2</ele>
        <time>2019-12-31T16:45:56Z</time>
      </trkpt>
      <trkpt lat="46.69426" lon="-1.93633">
        <ele>2</ele>
        <time>2019-12-31T16:45:57Z</time>
      </trkpt>
      <trkpt lat="46.69425" lon="-1.9364">
        <ele>2</ele>
        <time>2019-12-31T16:45:58Z</time>
      </trkpt>
      <trkpt lat="46.69426" lon="-1.93647">
        <ele>3</ele>
        <time>2019-12-31T16:45:59Z</time>
      </trkpt>
      <trkpt lat="46.69428" lon="-1.9366">
        <ele>3</ele>
        <time>2019-12-31T16:46:01Z</time>
      </trkpt>
      <trkpt lat="46.69436" lon="-1.93692">
        <ele>3</ele>
        <time>2019-12-31T16:46:05Z</time>
      </trkpt>
      <trkpt lat="46.69442" lon="-1.93715">
        <ele>3</ele>
        <time>2019-12-31T16:46:08Z</time>
      </trkpt>
      <trkpt lat="46.69446" lon="-1.93727">
        <ele>3</ele>
        <time>2019-12-31T16:46:09Z</time>
      </trkpt>
      <trkpt lat="46.69447" lon="-1.93732">
        <ele>3</ele>
        <time>2019-12-31T16:46:10Z</time>
      </trkpt>
      <trkpt lat="46.69449" lon="-1.93738">
        <ele>3</ele>
        <time>2019-12-31T16:46:11Z</time>
      </trkpt>
      <trkpt lat="46.69455" lon="-1.93753">
        <ele>3</ele>
        <time>2019-12-31T16:46:13Z</time>
      </trkpt>
      <trkpt lat="46.69455" lon="-1.93754">
        <ele>3</ele>
        <time>2019-12-31T16:46:13Z</time>
      </trkpt>
      <trkpt lat="46.69463" lon="-1.93773">
        <ele>3</ele>
        <time>2019-12-31T16:46:16Z</time>
      </trkpt>
      <trkpt lat="46.69466" lon="-1.93779">
        <ele>3</ele>
        <time>2019-12-31T16:46:17Z</time>
      </trkpt>
      <trkpt lat="46.69472" lon="-1.93792">
        <ele>3</ele>
        <time>2019-12-31T16:46:19Z</time>
      </trkpt>
      <trkpt lat="46.69493" lon="-1.93837">
        <ele>3</ele>
        <time>2019-12-31T16:46:25Z</time>
      </trkpt>
      <trkpt lat="46.69495" lon="-1.93843">
        <ele>3</ele>
        <time>2019-12-31T16:46:26Z</time>
      </trkpt>
      <trkpt lat="46.69505" lon="-1.93865">
        <ele>4</ele>
        <time>2019-12-31T16:46:29Z</time>
      </trkpt>
      <trkpt lat="46.69507" lon="-1.93869">
        <ele>4</ele>
        <time>2019-12-31T16:46:30Z</time>
      </trkpt>
      <trkpt lat="46.6951" lon="-1.93875">
        <ele>4</ele>
        <time>2019-12-31T16:46:31Z</time>
      </trkpt>
      <trkpt lat="46.69511" lon="-1.93878">
        <ele>4</ele>
        <time>2019-12-31T16:46:31Z</time>
      </trkpt>
      <trkpt lat="46.69522" lon="-1.93898">
        <ele>4</ele>
        <time>2019-12-31T16:46:34Z</time>
      </trkpt>
      <trkpt lat="46.69525" lon="-1.93905">
        <ele>4</ele>
        <time>2019-12-31T16:46:35Z</time>
      </trkpt>
      <trkpt lat="46.69529" lon="-1.93909">
        <ele>4</ele>
        <time>2019-12-31T16:46:36Z</time>
      </trkpt>
      <trkpt lat="46.69536" lon="-1.93928">
        <ele>4</ele>
        <time>2019-12-31T16:46:39Z</time>
      </trkpt>
      <trkpt lat="46.69547" lon="-1.93956">
        <ele>4</ele>
        <time>2019-12-31T16:46:43Z</time>
      </trkpt>
      <trkpt lat="46.69549" lon="-1.93962">
        <ele>4</ele>
        <time>2019-12-31T16:46:44Z</time>
      </trkpt>
      <trkpt lat="46.69554" lon="-1.93974">
        <ele>4</ele>
        <time>2019-12-31T16:46:45Z</time>
      </trkpt>
      <trkpt lat="46.69568" lon="-1.94001">
        <ele>4</ele>
        <time>2019-12-31T16:46:49Z</time>
      </trkpt>
      <trkpt lat="46.69581" lon="-1.94025">
        <ele>4</ele>
        <time>2019-12-31T16:46:53Z</time>
      </trkpt>
      <trkpt lat="46.69583" lon="-1.9403">
        <ele>4</ele>
        <time>2019-12-31T16:46:54Z</time>
      </trkpt>
      <trkpt lat="46.69587" lon="-1.94036">
        <ele>4</ele>
        <time>2019-12-31T16:46:55Z</time>
      </trkpt>
      <trkpt lat="46.6959" lon="-1.94041">
        <ele>3</ele>
        <time>2019-12-31T16:46:56Z</time>
      </trkpt>
      <trkpt lat="46.69593" lon="-1.94042">
        <ele>3</ele>
        <time>2019-12-31T16:46:56Z</time>
      </trkpt>
      <trkpt lat="46.69595" lon="-1.94042">
        <ele>3</ele>
        <time>2019-12-31T16:46:57Z</time>
      </trkpt>
      <trkpt lat="46.69598" lon="-1.94042">
        <ele>3</ele>
        <time>2019-12-31T16:46:57Z</time>
      </trkpt>
      <trkpt lat="46.69602" lon="-1.94042">
        <ele>3</ele>
        <time>2019-12-31T16:46:58Z</time>
      </trkpt>
      <trkpt lat="46.69606" lon="-1.94037">
        <ele>3</ele>
        <time>2019-12-31T16:46:59Z</time>
      </trkpt>
      <trkpt lat="46.69612" lon="-1.94035">
        <ele>3</ele>
        <time>2019-12-31T16:47:00Z</time>
      </trkpt>
      <trkpt lat="46.6962" lon="-1.9403">
        <ele>3</ele>
        <time>2019-12-31T16:47:01Z</time>
      </trkpt>
      <trkpt lat="46.69623" lon="-1.94029">
        <ele>3</ele>
        <time>2019-12-31T16:47:02Z</time>
      </trkpt>
      <trkpt lat="46.69627" lon="-1.94029">
        <ele>3</ele>
        <time>2019-12-31T16:47:03Z</time>
      </trkpt>
      <trkpt lat="46.69629" lon="-1.9403">
        <ele>3</ele>
        <time>2019-12-31T16:47:03Z</time>
      </trkpt>
      <trkpt lat="46.69632" lon="-1.94033">
        <ele>3</ele>
        <time>2019-12-31T16:47:04Z</time>
      </trkpt>
      <trkpt lat="46.69633" lon="-1.94034">
        <ele>3</ele>
        <time>2019-12-31T16:47:04Z</time>
      </trkpt>
      <trkpt lat="46.69634" lon="-1.94038">
        <ele>3</ele>
        <time>2019-12-31T16:47:04Z</time>
      </trkpt>
      <trkpt lat="46.69641" lon="-1.94064">
        <ele>3</ele>
        <time>2019-12-31T16:47:08Z</time>
      </trkpt>
      <trkpt lat="46.69647" lon="-1.94085">
        <ele>2</ele>
        <time>2019-12-31T16:47:11Z</time>
      </trkpt>
      <trkpt lat="46.6965" lon="-1.941">
        <ele>3</ele>
        <time>2019-12-31T16:47:12Z</time>
      </trkpt>
      <trkpt lat="46.69653" lon="-1.9411">
        <ele>3</ele>
        <time>2019-12-31T16:47:14Z</time>
      </trkpt>
      <trkpt lat="46.69658" lon="-1.94132">
        <ele>4</ele>
        <time>2019-12-31T16:47:17Z</time>
      </trkpt>
      <trkpt lat="46.6966" lon="-1.94143">
        <ele>4</ele>
        <time>2019-12-31T16:47:18Z</time>
      </trkpt>
      <trkpt lat="46.69675" lon="-1.94202">
        <ele>5</ele>
        <time>2019-12-31T16:47:26Z</time>
      </trkpt>
      <trkpt lat="46.69688" lon="-1.94251">
        <ele>4</ele>
        <time>2019-12-31T16:47:32Z</time>
      </trkpt>
      <trkpt lat="46.69696" lon="-1.94286">
        <ele>4</ele>
        <time>2019-12-31T16:47:37Z</time>
      </trkpt>
      <trkpt lat="46.697" lon="-1.94303">
        <ele>4</ele>
        <time>2019-12-31T16:47:39Z</time>
      </trkpt>
      <trkpt lat="46.69703" lon="-1.94314">
        <ele>4</ele>
        <time>2019-12-31T16:47:40Z</time>
      </trkpt>
      <trkpt lat="46.69709" lon="-1.94333">
        <ele>4</ele>
        <time>2019-12-31T16:47:43Z</time>
      </trkpt>
      <trkpt lat="46.69718" lon="-1.9436">
        <ele>4</ele>
        <time>2019-12-31T16:47:46Z</time>
      </trkpt>
      <trkpt lat="46.69727" lon="-1.94384">
        <ele>4</ele>
        <time>2019-12-31T16:47:50Z</time>
      </trkpt>
      <trkpt lat="46.69732" lon="-1.944">
        <ele>4</ele>
        <time>2019-12-31T16:47:52Z</time>
      </trkpt>
      <trkpt lat="46.69735" lon="-1.94411">
        <ele>3</ele>
        <time>2019-12-31T16:47:53Z</time>
      </trkpt>
      <trkpt lat="46.69745" lon="-1.9444">
        <ele>2</ele>
        <time>2019-12-31T16:47:57Z</time>
      </trkpt>
      <trkpt lat="46.69748" lon="-1.94448">
        <ele>2</ele>
        <time>2019-12-31T16:47:58Z</time>
      </trkpt>
      <trkpt lat="46.69753" lon="-1.94463">
        <ele>4</ele>
        <time>2019-12-31T16:48:01Z</time>
      </trkpt>
      <trkpt lat="46.69758" lon="-1.94477">
        <ele>4</ele>
        <time>2019-12-31T16:48:02Z</time>
      </trkpt>
      <trkpt lat="46.69765" lon="-1.94496">
        <ele>4</ele>
        <time>2019-12-31T16:48:05Z</time>
      </trkpt>
      <trkpt lat="46.6978" lon="-1.94548">
        <ele>3</ele>
        <time>2019-12-31T16:48:12Z</time>
      </trkpt>
      <trkpt lat="46.69799" lon="-1.94634">
        <ele>4</ele>
        <time>2019-12-31T16:48:23Z</time>
      </trkpt>
      <trkpt lat="46.69805" lon="-1.94657">
        <ele>4</ele>
        <time>2019-12-31T16:48:26Z</time>
      </trkpt>
      <trkpt lat="46.69809" lon="-1.94676">
        <ele>4</ele>
        <time>2019-12-31T16:48:28Z</time>
      </trkpt>
      <trkpt lat="46.69814" lon="-1.94695">
        <ele>4</ele>
        <time>2019-12-31T16:48:31Z</time>
      </trkpt>
      <trkpt lat="46.69819" lon="-1.94712">
        <ele>4</ele>
        <time>2019-12-31T16:48:33Z</time>
      </trkpt>
      <trkpt lat="46.69825" lon="-1.94732">
        <ele>5</ele>
        <time>2019-12-31T16:48:36Z</time>
      </trkpt>
      <trkpt lat="46.69826" lon="-1.94736">
        <ele>5</ele>
        <time>2019-12-31T16:48:36Z</time>
      </trkpt>
      <trkpt lat="46.69828" lon="-1.94745">
        <ele>5</ele>
        <time>2019-12-31T16:48:37Z</time>
      </trkpt>
      <trkpt lat="46.69828" lon="-1.94745">
        <ele>5</ele>
        <time>2019-12-31T16:48:38Z</time>
      </trkpt>
      <trkpt lat="46.69836" lon="-1.94769">
        <ele>5</ele>
        <time>2019-12-31T16:48:41Z</time>
      </trkpt>
      <trkpt lat="46.69848" lon="-1.94802">
        <ele>5</ele>
        <time>2019-12-31T16:48:45Z</time>
      </trkpt>
      <trkpt lat="46.6986" lon="-1.94828">
        <ele>5</ele>
        <time>2019-12-31T16:48:49Z</time>
      </trkpt>
      <trkpt lat="46.69867" lon="-1.94841">
        <ele>5</ele>
        <time>2019-12-31T16:48:51Z</time>
      </trkpt>
      <trkpt lat="46.69874" lon="-1.94856">
        <ele>6</ele>
        <time>2019-12-31T16:48:53Z</time>
      </trkpt>
      <trkpt lat="46.69896" lon="-1.94891">
        <ele>6</ele>
        <time>2019-12-31T16:48:59Z</time>
      </trkpt>
      <trkpt lat="46.69911" lon="-1.94912">
        <ele>7</ele>
        <time>2019-12-31T16:49:03Z</time>
      </trkpt>
      <trkpt lat="46.69918" lon="-1.94924">
        <ele>7</ele>
        <time>2019-12-31T16:49:05Z</time>
      </trkpt>
      <trkpt lat="46.69934" lon="-1.94944">
        <ele>8</ele>
        <time>2019-12-31T16:49:09Z</time>
      </trkpt>
      <trkpt lat="46.69949" lon="-1.94964">
        <ele>8</ele>
        <time>2019-12-31T16:49:12Z</time>
      </trkpt>
      <trkpt lat="46.69963" lon="-1.9498">
        <ele>8</ele>
        <time>2019-12-31T16:49:15Z</time>
      </trkpt>
      <trkpt lat="46.69981" lon="-1.94999">
        <ele>7</ele>
        <time>2019-12-31T16:49:19Z</time>
      </trkpt>
      <trkpt lat="46.69997" lon="-1.95014">
        <ele>7</ele>
        <time>2019-12-31T16:49:23Z</time>
      </trkpt>
      <trkpt lat="46.70007" lon="-1.95023">
        <ele>7</ele>
        <time>2019-12-31T16:49:25Z</time>
      </trkpt>
      <trkpt lat="46.70013" lon="-1.95027">
        <ele>7</ele>
        <time>2019-12-31T16:49:26Z</time>
      </trkpt>
      <trkpt lat="46.70019" lon="-1.9503">
        <ele>7</ele>
        <time>2019-12-31T16:49:27Z</time>
      </trkpt>
      <trkpt lat="46.70034" lon="-1.95036">
        <ele>7</ele>
        <time>2019-12-31T16:49:30Z</time>
      </trkpt>
      <trkpt lat="46.7005" lon="-1.95039">
        <ele>6</ele>
        <time>2019-12-31T16:49:33Z</time>
      </trkpt>
      <trkpt lat="46.70069" lon="-1.95044">
        <ele>6</ele>
        <time>2019-12-31T16:49:36Z</time>
      </trkpt>
      <trkpt lat="46.70103" lon="-1.9505">
        <ele>5</ele>
        <time>2019-12-31T16:49:42Z</time>
      </trkpt>
      <trkpt lat="46.70125" lon="-1.95054">
        <ele>5</ele>
        <time>2019-12-31T16:49:46Z</time>
      </trkpt>
      <trkpt lat="46.70148" lon="-1.95058">
        <ele>5</ele>
        <time>2019-12-31T16:49:50Z</time>
      </trkpt>
      <trkpt lat="46.70148" lon="-1.95058">
        <ele>5</ele>
        <time>2019-12-31T16:49:50Z</time>
      </trkpt>
      <trkpt lat="46.70148" lon="-1.95057">
        <ele>5</ele>
        <time>2019-12-31T16:49:50Z</time>
      </trkpt>
      <trkpt lat="46.70148" lon="-1.95056">
        <ele>5</ele>
        <time>2019-12-31T16:49:51Z</time>
      </trkpt>
      <trkpt lat="46.70148" lon="-1.95055">
        <ele>5</ele>
        <time>2019-12-31T16:49:51Z</time>
      </trkpt>
      <trkpt lat="46.70149" lon="-1.95055">
        <ele>5</ele>
        <time>2019-12-31T16:49:51Z</time>
      </trkpt>
      <trkpt lat="46.70149" lon="-1.95054">
        <ele>5</ele>
        <time>2019-12-31T16:49:51Z</time>
      </trkpt>
      <trkpt lat="46.70149" lon="-1.95053">
        <ele>5</ele>
        <time>2019-12-31T16:49:51Z</time>
      </trkpt>
      <trkpt lat="46.7015" lon="-1.95053">
        <ele>5</ele>
        <time>2019-12-31T16:49:51Z</time>
      </trkpt>
      <trkpt lat="46.7015" lon="-1.95052">
        <ele>5</ele>
        <time>2019-12-31T16:49:51Z</time>
      </trkpt>
      <trkpt lat="46.7015" lon="-1.95051">
        <ele>5</ele>
        <time>2019-12-31T16:49:51Z</time>
      </trkpt>
      <trkpt lat="46.70151" lon="-1.95051">
        <ele>4</ele>
        <time>2019-12-31T16:49:52Z</time>
      </trkpt>
      <trkpt lat="46.70151" lon="-1.9505">
        <ele>4</ele>
        <time>2019-12-31T16:49:52Z</time>
      </trkpt>
      <trkpt lat="46.70152" lon="-1.9505">
        <ele>4</ele>
        <time>2019-12-31T16:49:52Z</time>
      </trkpt>
      <trkpt lat="46.70153" lon="-1.9505">
        <ele>4</ele>
        <time>2019-12-31T16:49:52Z</time>
      </trkpt>
      <trkpt lat="46.70153" lon="-1.95049">
        <ele>4</ele>
        <time>2019-12-31T16:49:52Z</time>
      </trkpt>
      <trkpt lat="46.70154" lon="-1.95049">
        <ele>4</ele>
        <time>2019-12-31T16:49:52Z</time>
      </trkpt>
      <trkpt lat="46.70155" lon="-1.95049">
        <ele>4</ele>
        <time>2019-12-31T16:49:53Z</time>
      </trkpt>
      <trkpt lat="46.70156" lon="-1.95049">
        <ele>4</ele>
        <time>2019-12-31T16:49:53Z</time>
      </trkpt>
      <trkpt lat="46.70157" lon="-1.95049">
        <ele>4</ele>
        <time>2019-12-31T16:49:53Z</time>
      </trkpt>
      <trkpt lat="46.70157" lon="-1.9505">
        <ele>4</ele>
        <time>2019-12-31T16:49:53Z</time>
      </trkpt>
      <trkpt lat="46.70158" lon="-1.9505">
        <ele>4</ele>
        <time>2019-12-31T16:49:53Z</time>
      </trkpt>
      <trkpt lat="46.70159" lon="-1.95051">
        <ele>4</ele>
        <time>2019-12-31T16:49:53Z</time>
      </trkpt>
      <trkpt lat="46.7016" lon="-1.95052">
        <ele>4</ele>
        <time>2019-12-31T16:49:54Z</time>
      </trkpt>
      <trkpt lat="46.7016" lon="-1.95053">
        <ele>4</ele>
        <time>2019-12-31T16:49:54Z</time>
      </trkpt>
      <trkpt lat="46.70161" lon="-1.95053">
        <ele>4</ele>
        <time>2019-12-31T16:49:54Z</time>
      </trkpt>
      <trkpt lat="46.70161" lon="-1.95054">
        <ele>4</ele>
        <time>2019-12-31T16:49:54Z</time>
      </trkpt>
      <trkpt lat="46.70161" lon="-1.95055">
        <ele>4</ele>
        <time>2019-12-31T16:49:54Z</time>
      </trkpt>
      <trkpt lat="46.70161" lon="-1.95056">
        <ele>4</ele>
        <time>2019-12-31T16:49:54Z</time>
      </trkpt>
      <trkpt lat="46.70162" lon="-1.95056">
        <ele>4</ele>
        <time>2019-12-31T16:49:55Z</time>
      </trkpt>
      <trkpt lat="46.70162" lon="-1.95057">
        <ele>4</ele>
        <time>2019-12-31T16:49:55Z</time>
      </trkpt>
      <trkpt lat="46.70162" lon="-1.95058">
        <ele>4</ele>
        <time>2019-12-31T16:49:55Z</time>
      </trkpt>
      <trkpt lat="46.70162" lon="-1.95059">
        <ele>4</ele>
        <time>2019-12-31T16:49:55Z</time>
      </trkpt>
      <trkpt lat="46.70162" lon="-1.9506">
        <ele>5</ele>
        <time>2019-12-31T16:49:55Z</time>
      </trkpt>
      <trkpt lat="46.70162" lon="-1.95061">
        <ele>5</ele>
        <time>2019-12-31T16:49:55Z</time>
      </trkpt>
      <trkpt lat="46.70162" lon="-1.95062">
        <ele>5</ele>
        <time>2019-12-31T16:49:55Z</time>
      </trkpt>
      <trkpt lat="46.70161" lon="-1.95063">
        <ele>5</ele>
        <time>2019-12-31T16:49:56Z</time>
      </trkpt>
      <trkpt lat="46.70161" lon="-1.95064">
        <ele>5</ele>
        <time>2019-12-31T16:49:56Z</time>
      </trkpt>
      <trkpt lat="46.70161" lon="-1.95065">
        <ele>5</ele>
        <time>2019-12-31T16:49:56Z</time>
      </trkpt>
      <trkpt lat="46.7016" lon="-1.95066">
        <ele>5</ele>
        <time>2019-12-31T16:49:56Z</time>
      </trkpt>
      <trkpt lat="46.7016" lon="-1.95067">
        <ele>5</ele>
        <time>2019-12-31T16:49:56Z</time>
      </trkpt>
      <trkpt lat="46.70159" lon="-1.95067">
        <ele>5</ele>
        <time>2019-12-31T16:49:56Z</time>
      </trkpt>
      <trkpt lat="46.70159" lon="-1.95068">
        <ele>5</ele>
        <time>2019-12-31T16:49:56Z</time>
      </trkpt>
      <trkpt lat="46.70158" lon="-1.95068">
        <ele>5</ele>
        <time>2019-12-31T16:49:57Z</time>
      </trkpt>
      <trkpt lat="46.70158" lon="-1.95069">
        <ele>5</ele>
        <time>2019-12-31T16:49:57Z</time>
      </trkpt>
      <trkpt lat="46.70157" lon="-1.95069">
        <ele>5</ele>
        <time>2019-12-31T16:49:57Z</time>
      </trkpt>
      <trkpt lat="46.70156" lon="-1.95069">
        <ele>5</ele>
        <time>2019-12-31T16:49:57Z</time>
      </trkpt>
      <trkpt lat="46.70156" lon="-1.95089">
        <ele>5</ele>
        <time>2019-12-31T16:49:59Z</time>
      </trkpt>
      <trkpt lat="46.70157" lon="-1.95107">
        <ele>5</ele>
        <time>2019-12-31T16:50:02Z</time>
      </trkpt>
      <trkpt lat="46.70158" lon="-1.95126">
        <ele>6</ele>
        <time>2019-12-31T16:50:04Z</time>
      </trkpt>
      <trkpt lat="46.7016" lon="-1.95145">
        <ele>6</ele>
        <time>2019-12-31T16:50:06Z</time>
      </trkpt>
      <trkpt lat="46.70162" lon="-1.95161">
        <ele>6</ele>
        <time>2019-12-31T16:50:08Z</time>
      </trkpt>
      <trkpt lat="46.70166" lon="-1.95179">
        <ele>6</ele>
        <time>2019-12-31T16:50:11Z</time>
      </trkpt>
      <trkpt lat="46.70167" lon="-1.95198">
        <ele>6</ele>
        <time>2019-12-31T16:50:13Z</time>
      </trkpt>
      <trkpt lat="46.70168" lon="-1.95219">
        <ele>5</ele>
        <time>2019-12-31T16:50:16Z</time>
      </trkpt>
      <trkpt lat="46.70167" lon="-1.95226">
        <ele>5</ele>
        <time>2019-12-31T16:50:16Z</time>
      </trkpt>
      <trkpt lat="46.70167" lon="-1.95232">
        <ele>5</ele>
        <time>2019-12-31T16:50:17Z</time>
      </trkpt>
      <trkpt lat="46.70163" lon="-1.95279">
        <ele>6</ele>
        <time>2019-12-31T16:50:23Z</time>
      </trkpt>
      <trkpt lat="46.70147" lon="-1.95382">
        <ele>8</ele>
        <time>2019-12-31T16:50:36Z</time>
      </trkpt>
      <trkpt lat="46.70142" lon="-1.95447">
        <ele>9</ele>
        <time>2019-12-31T16:50:44Z</time>
      </trkpt>
      <trkpt lat="46.70143" lon="-1.95473">
        <ele>9</ele>
        <time>2019-12-31T16:50:47Z</time>
      </trkpt>
      <trkpt lat="46.70153" lon="-1.9555">
        <ele>10</ele>
        <time>2019-12-31T16:50:57Z</time>
      </trkpt>
      <trkpt lat="46.70163" lon="-1.9561">
        <ele>11</ele>
        <time>2019-12-31T16:51:04Z</time>
      </trkpt>
      <trkpt lat="46.70164" lon="-1.95618">
        <ele>11</ele>
        <time>2019-12-31T16:51:05Z</time>
      </trkpt>
      <trkpt lat="46.70165" lon="-1.95628">
        <ele>11</ele>
        <time>2019-12-31T16:51:06Z</time>
      </trkpt>
      <trkpt lat="46.70166" lon="-1.95633">
        <ele>11</ele>
        <time>2019-12-31T16:51:07Z</time>
      </trkpt>
      <trkpt lat="46.70166" lon="-1.95633">
        <ele>11</ele>
        <time>2019-12-31T16:51:07Z</time>
      </trkpt>
      <trkpt lat="46.70167" lon="-1.95633">
        <ele>11</ele>
        <time>2019-12-31T16:51:07Z</time>
      </trkpt>
      <trkpt lat="46.70168" lon="-1.95634">
        <ele>11</ele>
        <time>2019-12-31T16:51:07Z</time>
      </trkpt>
      <trkpt lat="46.70169" lon="-1.95634">
        <ele>11</ele>
        <time>2019-12-31T16:51:08Z</time>
      </trkpt>
      <trkpt lat="46.70169" lon="-1.95635">
        <ele>11</ele>
        <time>2019-12-31T16:51:08Z</time>
      </trkpt>
      <trkpt lat="46.7017" lon="-1.95636">
        <ele>11</ele>
        <time>2019-12-31T16:51:08Z</time>
      </trkpt>
      <trkpt lat="46.7017" lon="-1.95637">
        <ele>11</ele>
        <time>2019-12-31T16:51:08Z</time>
      </trkpt>
      <trkpt lat="46.7017" lon="-1.95638">
        <ele>11</ele>
        <time>2019-12-31T16:51:08Z</time>
      </trkpt>
      <trkpt lat="46.70171" lon="-1.95638">
        <ele>11</ele>
        <time>2019-12-31T16:51:08Z</time>
      </trkpt>
      <trkpt lat="46.70171" lon="-1.95639">
        <ele>11</ele>
        <time>2019-12-31T16:51:08Z</time>
      </trkpt>
      <trkpt lat="46.70171" lon="-1.9564">
        <ele>11</ele>
        <time>2019-12-31T16:51:09Z</time>
      </trkpt>
      <trkpt lat="46.70171" lon="-1.95641">
        <ele>11</ele>
        <time>2019-12-31T16:51:09Z</time>
      </trkpt>
      <trkpt lat="46.70171" lon="-1.95642">
        <ele>11</ele>
        <time>2019-12-31T16:51:09Z</time>
      </trkpt>
      <trkpt lat="46.70171" lon="-1.95643">
        <ele>11</ele>
        <time>2019-12-31T16:51:09Z</time>
      </trkpt>
      <trkpt lat="46.70171" lon="-1.95644">
        <ele>11</ele>
        <time>2019-12-31T16:51:09Z</time>
      </trkpt>
      <trkpt lat="46.70171" lon="-1.95645">
        <ele>11</ele>
        <time>2019-12-31T16:51:09Z</time>
      </trkpt>
      <trkpt lat="46.70171" lon="-1.95646">
        <ele>11</ele>
        <time>2019-12-31T16:51:09Z</time>
      </trkpt>
      <trkpt lat="46.70171" lon="-1.95647">
        <ele>12</ele>
        <time>2019-12-31T16:51:09Z</time>
      </trkpt>
      <trkpt lat="46.70171" lon="-1.95648">
        <ele>12</ele>
        <time>2019-12-31T16:51:09Z</time>
      </trkpt>
      <trkpt lat="46.7017" lon="-1.95648">
        <ele>12</ele>
        <time>2019-12-31T16:51:10Z</time>
      </trkpt>
      <trkpt lat="46.7017" lon="-1.95649">
        <ele>12</ele>
        <time>2019-12-31T16:51:10Z</time>
      </trkpt>
      <trkpt lat="46.70171" lon="-1.95652">
        <ele>12</ele>
        <time>2019-12-31T16:51:10Z</time>
      </trkpt>
      <trkpt lat="46.70173" lon="-1.95667">
        <ele>12</ele>
        <time>2019-12-31T16:51:12Z</time>
      </trkpt>
      <trkpt lat="46.70175" lon="-1.95682">
        <ele>12</ele>
        <time>2019-12-31T16:51:14Z</time>
      </trkpt>
      <trkpt lat="46.70176" lon="-1.95686">
        <ele>12</ele>
        <time>2019-12-31T16:51:14Z</time>
      </trkpt>
      <trkpt lat="46.70181" lon="-1.95706">
        <ele>12</ele>
        <time>2019-12-31T16:51:17Z</time>
      </trkpt>
      <trkpt lat="46.70187" lon="-1.95726">
        <ele>12</ele>
        <time>2019-12-31T16:51:20Z</time>
      </trkpt>
      <trkpt lat="46.70197" lon="-1.95753">
        <ele>13</ele>
        <time>2019-12-31T16:51:23Z</time>
      </trkpt>
      <trkpt lat="46.70208" lon="-1.95777">
        <ele>12</ele>
        <time>2019-12-31T16:51:27Z</time>
      </trkpt>
      <trkpt lat="46.70217" lon="-1.95794">
        <ele>12</ele>
        <time>2019-12-31T16:51:30Z</time>
      </trkpt>
      <trkpt lat="46.70228" lon="-1.95813">
        <ele>12</ele>
        <time>2019-12-31T16:51:33Z</time>
      </trkpt>
      <trkpt lat="46.70241" lon="-1.95834">
        <ele>12</ele>
        <time>2019-12-31T16:51:36Z</time>
      </trkpt>
      <trkpt lat="46.70256" lon="-1.95852">
        <ele>12</ele>
        <time>2019-12-31T16:51:40Z</time>
      </trkpt>
      <trkpt lat="46.70274" lon="-1.95872">
        <ele>13</ele>
        <time>2019-12-31T16:51:44Z</time>
      </trkpt>
      <trkpt lat="46.70296" lon="-1.95894">
        <ele>13</ele>
        <time>2019-12-31T16:51:48Z</time>
      </trkpt>
      <trkpt lat="46.70302" lon="-1.95899">
        <ele>13</ele>
        <time>2019-12-31T16:51:50Z</time>
      </trkpt>
      <trkpt lat="46.70313" lon="-1.9591">
        <ele>14</ele>
        <time>2019-12-31T16:51:52Z</time>
      </trkpt>
      <trkpt lat="46.70333" lon="-1.95927">
        <ele>14</ele>
        <time>2019-12-31T16:51:56Z</time>
      </trkpt>
      <trkpt lat="46.70345" lon="-1.95938">
        <ele>14</ele>
        <time>2019-12-31T16:51:59Z</time>
      </trkpt>
      <trkpt lat="46.70348" lon="-1.95935">
        <ele>14</ele>
        <time>2019-12-31T16:51:59Z</time>
      </trkpt>
      <trkpt lat="46.7035" lon="-1.95934">
        <ele>14</ele>
        <time>2019-12-31T16:52:00Z</time>
      </trkpt>
      <trkpt lat="46.70352" lon="-1.95934">
        <ele>14</ele>
        <time>2019-12-31T16:52:00Z</time>
      </trkpt>
      <trkpt lat="46.70355" lon="-1.95935">
        <ele>14</ele>
        <time>2019-12-31T16:52:00Z</time>
      </trkpt>
      <trkpt lat="46.70358" lon="-1.95938">
        <ele>15</ele>
        <time>2019-12-31T16:52:01Z</time>
      </trkpt>
      <trkpt lat="46.7036" lon="-1.95943">
        <ele>15</ele>
        <time>2019-12-31T16:52:02Z</time>
      </trkpt>
      <trkpt lat="46.7036" lon="-1.95948">
        <ele>15</ele>
        <time>2019-12-31T16:52:02Z</time>
      </trkpt>
      <trkpt lat="46.70369" lon="-1.95955">
        <ele>15</ele>
        <time>2019-12-31T16:52:04Z</time>
      </trkpt>
      <trkpt lat="46.70393" lon="-1.95972">
        <ele>15</ele>
        <time>2019-12-31T16:52:09Z</time>
      </trkpt>
      <trkpt lat="46.70419" lon="-1.95986">
        <ele>16</ele>
        <time>2019-12-31T16:52:14Z</time>
      </trkpt>
      <trkpt lat="46.70447" lon="-1.96003">
        <ele>16</ele>
        <time>2019-12-31T16:52:19Z</time>
      </trkpt>
      <trkpt lat="46.70475" lon="-1.96016">
        <ele>15</ele>
        <time>2019-12-31T16:52:25Z</time>
      </trkpt>
      <trkpt lat="46.70506" lon="-1.96029">
        <ele>15</ele>
        <time>2019-12-31T16:52:30Z</time>
      </trkpt>
      <trkpt lat="46.70533" lon="-1.96039">
        <ele>16</ele>
        <time>2019-12-31T16:52:35Z</time>
      </trkpt>
      <trkpt lat="46.70555" lon="-1.96046">
        <ele>16</ele>
        <time>2019-12-31T16:52:39Z</time>
      </trkpt>
      <trkpt lat="46.70579" lon="-1.96052">
        <ele>16</ele>
        <time>2019-12-31T16:52:44Z</time>
      </trkpt>
      <trkpt lat="46.70615" lon="-1.96059">
        <ele>16</ele>
        <time>2019-12-31T16:52:50Z</time>
      </trkpt>
      <trkpt lat="46.7063" lon="-1.96062">
        <ele>16</ele>
        <time>2019-12-31T16:52:53Z</time>
      </trkpt>
      <trkpt lat="46.70647" lon="-1.96064">
        <ele>16</ele>
        <time>2019-12-31T16:52:56Z</time>
      </trkpt>
      <trkpt lat="46.70684" lon="-1.96067">
        <ele>16</ele>
        <time>2019-12-31T16:53:02Z</time>
      </trkpt>
      <trkpt lat="46.70717" lon="-1.96071">
        <ele>16</ele>
        <time>2019-12-31T16:53:08Z</time>
      </trkpt>
      <trkpt lat="46.70722" lon="-1.96071">
        <ele>16</ele>
        <time>2019-12-31T16:53:09Z</time>
      </trkpt>
      <trkpt lat="46.70763" lon="-1.96074">
        <ele>16</ele>
        <time>2019-12-31T16:53:16Z</time>
      </trkpt>
      <trkpt lat="46.7081" lon="-1.96079">
        <ele>15</ele>
        <time>2019-12-31T16:53:25Z</time>
      </trkpt>
      <trkpt lat="46.70848" lon="-1.96082">
        <ele>15</ele>
        <time>2019-12-31T16:53:32Z</time>
      </trkpt>
      <trkpt lat="46.70896" lon="-1.96087">
        <ele>16</ele>
        <time>2019-12-31T16:53:40Z</time>
      </trkpt>
      <trkpt lat="46.7092" lon="-1.9609">
        <ele>16</ele>
        <time>2019-12-31T16:53:44Z</time>
      </trkpt>
      <trkpt lat="46.70938" lon="-1.96092">
        <ele>16</ele>
        <time>2019-12-31T16:53:48Z</time>
      </trkpt>
      <trkpt lat="46.70954" lon="-1.96093">
        <ele>16</ele>
        <time>2019-12-31T16:53:51Z</time>
      </trkpt>
      <trkpt lat="46.70967" lon="-1.96095">
        <ele>16</ele>
        <time>2019-12-31T16:53:53Z</time>
      </trkpt>
      <trkpt lat="46.70967" lon="-1.96095">
        <ele>16</ele>
        <time>2019-12-31T16:53:53Z</time>
      </trkpt>
      <trkpt lat="46.70968" lon="-1.9609">
        <ele>16</ele>
        <time>2019-12-31T16:53:53Z</time>
      </trkpt>
      <trkpt lat="46.7097" lon="-1.96085">
        <ele>17</ele>
        <time>2019-12-31T16:53:54Z</time>
      </trkpt>
      <trkpt lat="46.70972" lon="-1.96082">
        <ele>17</ele>
        <time>2019-12-31T16:53:55Z</time>
      </trkpt>
      <trkpt lat="46.70975" lon="-1.9608">
        <ele>17</ele>
        <time>2019-12-31T16:53:55Z</time>
      </trkpt>
      <trkpt lat="46.7098" lon="-1.9608">
        <ele>17</ele>
        <time>2019-12-31T16:53:56Z</time>
      </trkpt>
      <trkpt lat="46.70984" lon="-1.96081">
        <ele>17</ele>
        <time>2019-12-31T16:53:57Z</time>
      </trkpt>
      <trkpt lat="46.70987" lon="-1.96084">
        <ele>17</ele>
        <time>2019-12-31T16:53:58Z</time>
      </trkpt>
      <trkpt lat="46.70989" lon="-1.96088">
        <ele>17</ele>
        <time>2019-12-31T16:53:58Z</time>
      </trkpt>
      <trkpt lat="46.70991" lon="-1.96094">
        <ele>16</ele>
        <time>2019-12-31T16:53:59Z</time>
      </trkpt>
      <trkpt lat="46.70991" lon="-1.96098">
        <ele>16</ele>
        <time>2019-12-31T16:53:59Z</time>
      </trkpt>
      <trkpt lat="46.7099" lon="-1.96103">
        <ele>16</ele>
        <time>2019-12-31T16:54:00Z</time>
      </trkpt>
      <trkpt lat="46.70987" lon="-1.96109">
        <ele>16</ele>
        <time>2019-12-31T16:54:01Z</time>
      </trkpt>
      <trkpt lat="46.70984" lon="-1.96112">
        <ele>16</ele>
        <time>2019-12-31T16:54:02Z</time>
      </trkpt>
      <trkpt lat="46.70982" lon="-1.96114">
        <ele>15</ele>
        <time>2019-12-31T16:54:02Z</time>
      </trkpt>
      <trkpt lat="46.70977" lon="-1.96114">
        <ele>15</ele>
        <time>2019-12-31T16:54:03Z</time>
      </trkpt>
      <trkpt lat="46.70976" lon="-1.96124">
        <ele>15</ele>
        <time>2019-12-31T16:54:04Z</time>
      </trkpt>
      <trkpt lat="46.70976" lon="-1.96132">
        <ele>15</ele>
        <time>2019-12-31T16:54:05Z</time>
      </trkpt>
      <trkpt lat="46.70977" lon="-1.96155">
        <ele>14</ele>
        <time>2019-12-31T16:54:08Z</time>
      </trkpt>
      <trkpt lat="46.70978" lon="-1.96188">
        <ele>13</ele>
        <time>2019-12-31T16:54:12Z</time>
      </trkpt>
      <trkpt lat="46.70978" lon="-1.96214">
        <ele>13</ele>
        <time>2019-12-31T16:54:15Z</time>
      </trkpt>
      <trkpt lat="46.70978" lon="-1.96247">
        <ele>13</ele>
        <time>2019-12-31T16:54:19Z</time>
      </trkpt>
      <trkpt lat="46.70979" lon="-1.96277">
        <ele>13</ele>
        <time>2019-12-31T16:54:23Z</time>
      </trkpt>
      <trkpt lat="46.70979" lon="-1.96306">
        <ele>13</ele>
        <time>2019-12-31T16:54:26Z</time>
      </trkpt>
      <trkpt lat="46.70978" lon="-1.9633">
        <ele>13</ele>
        <time>2019-12-31T16:54:29Z</time>
      </trkpt>
      <trkpt lat="46.70976" lon="-1.96356">
        <ele>13</ele>
        <time>2019-12-31T16:54:33Z</time>
      </trkpt>
      <trkpt lat="46.70975" lon="-1.96369">
        <ele>13</ele>
        <time>2019-12-31T16:54:34Z</time>
      </trkpt>
      <trkpt lat="46.70972" lon="-1.96386">
        <ele>13</ele>
        <time>2019-12-31T16:54:36Z</time>
      </trkpt>
      <trkpt lat="46.70969" lon="-1.96404">
        <ele>14</ele>
        <time>2019-12-31T16:54:39Z</time>
      </trkpt>
      <trkpt lat="46.70966" lon="-1.96422">
        <ele>14</ele>
        <time>2019-12-31T16:54:41Z</time>
      </trkpt>
      <trkpt lat="46.70963" lon="-1.96436">
        <ele>14</ele>
        <time>2019-12-31T16:54:43Z</time>
      </trkpt>
      <trkpt lat="46.70959" lon="-1.96453">
        <ele>14</ele>
        <time>2019-12-31T16:54:45Z</time>
      </trkpt>
      <trkpt lat="46.70955" lon="-1.9647">
        <ele>14</ele>
        <time>2019-12-31T16:54:47Z</time>
      </trkpt>
      <trkpt lat="46.7095" lon="-1.96493">
        <ele>14</ele>
        <time>2019-12-31T16:54:50Z</time>
      </trkpt>
      <trkpt lat="46.70946" lon="-1.96512">
        <ele>14</ele>
        <time>2019-12-31T16:54:52Z</time>
      </trkpt>
      <trkpt lat="46.70942" lon="-1.96531">
        <ele>13</ele>
        <time>2019-12-31T16:54:55Z</time>
      </trkpt>
      <trkpt lat="46.7094" lon="-1.96544">
        <ele>13</ele>
        <time>2019-12-31T16:54:56Z</time>
      </trkpt>
      <trkpt lat="46.70938" lon="-1.96557">
        <ele>13</ele>
        <time>2019-12-31T16:54:58Z</time>
      </trkpt>
      <trkpt lat="46.70938" lon="-1.96567">
        <ele>13</ele>
        <time>2019-12-31T16:54:59Z</time>
      </trkpt>
      <trkpt lat="46.70938" lon="-1.96578">
        <ele>13</ele>
        <time>2019-12-31T16:55:01Z</time>
      </trkpt>
      <trkpt lat="46.70939" lon="-1.96593">
        <ele>13</ele>
        <time>2019-12-31T16:55:02Z</time>
      </trkpt>
      <trkpt lat="46.70941" lon="-1.96605">
        <ele>13</ele>
        <time>2019-12-31T16:55:04Z</time>
      </trkpt>
      <trkpt lat="46.70943" lon="-1.96619">
        <ele>13</ele>
        <time>2019-12-31T16:55:06Z</time>
      </trkpt>
      <trkpt lat="46.70947" lon="-1.9663">
        <ele>13</ele>
        <time>2019-12-31T16:55:07Z</time>
      </trkpt>
      <trkpt lat="46.7095" lon="-1.9664">
        <ele>13</ele>
        <time>2019-12-31T16:55:09Z</time>
      </trkpt>
      <trkpt lat="46.70955" lon="-1.96651">
        <ele>13</ele>
        <time>2019-12-31T16:55:10Z</time>
      </trkpt>
      <trkpt lat="46.70963" lon="-1.96669">
        <ele>13</ele>
        <time>2019-12-31T16:55:13Z</time>
      </trkpt>
      <trkpt lat="46.70969" lon="-1.96685">
        <ele>13</ele>
        <time>2019-12-31T16:55:15Z</time>
      </trkpt>
      <trkpt lat="46.70973" lon="-1.96697">
        <ele>13</ele>
        <time>2019-12-31T16:55:17Z</time>
      </trkpt>
      <trkpt lat="46.70976" lon="-1.96705">
        <ele>13</ele>
        <time>2019-12-31T16:55:18Z</time>
      </trkpt>
      <trkpt lat="46.70981" lon="-1.96714">
        <ele>13</ele>
        <time>2019-12-31T16:55:19Z</time>
      </trkpt>
      <trkpt lat="46.70982" lon="-1.96719">
        <ele>13</ele>
        <time>2019-12-31T16:55:20Z</time>
      </trkpt>
      <trkpt lat="46.70988" lon="-1.96726">
        <ele>13</ele>
        <time>2019-12-31T16:55:21Z</time>
      </trkpt>
      <trkpt lat="46.70991" lon="-1.96733">
        <ele>13</ele>
        <time>2019-12-31T16:55:22Z</time>
      </trkpt>
      <trkpt lat="46.70992" lon="-1.96736">
        <ele>13</ele>
        <time>2019-12-31T16:55:23Z</time>
      </trkpt>
      <trkpt lat="46.70995" lon="-1.96741">
        <ele>13</ele>
        <time>2019-12-31T16:55:23Z</time>
      </trkpt>
      <trkpt lat="46.70998" lon="-1.96744">
        <ele>13</ele>
        <time>2019-12-31T16:55:24Z</time>
      </trkpt>
      <trkpt lat="46.71001" lon="-1.96747">
        <ele>13</ele>
        <time>2019-12-31T16:55:25Z</time>
      </trkpt>
      <trkpt lat="46.71001" lon="-1.96747">
        <ele>13</ele>
        <time>2019-12-31T16:55:25Z</time>
      </trkpt>
      <trkpt lat="46.71005" lon="-1.96746">
        <ele>13</ele>
        <time>2019-12-31T16:55:25Z</time>
      </trkpt>
      <trkpt lat="46.71009" lon="-1.96746">
        <ele>13</ele>
        <time>2019-12-31T16:55:26Z</time>
      </trkpt>
      <trkpt lat="46.71013" lon="-1.96746">
        <ele>13</ele>
        <time>2019-12-31T16:55:27Z</time>
      </trkpt>
      <trkpt lat="46.71016" lon="-1.96749">
        <ele>13</ele>
        <time>2019-12-31T16:55:27Z</time>
      </trkpt>
      <trkpt lat="46.71023" lon="-1.96757">
        <ele>13</ele>
        <time>2019-12-31T16:55:29Z</time>
      </trkpt>
      <trkpt lat="46.71029" lon="-1.96761">
        <ele>13</ele>
        <time>2019-12-31T16:55:30Z</time>
      </trkpt>
      <trkpt lat="46.71034" lon="-1.96764">
        <ele>13</ele>
        <time>2019-12-31T16:55:31Z</time>
      </trkpt>
      <trkpt lat="46.71039" lon="-1.96766">
        <ele>13</ele>
        <time>2019-12-31T16:55:32Z</time>
      </trkpt>
      <trkpt lat="46.71065" lon="-1.96766">
        <ele>14</ele>
        <time>2019-12-31T16:55:37Z</time>
      </trkpt>
      <trkpt lat="46.71081" lon="-1.96765">
        <ele>14</ele>
        <time>2019-12-31T16:55:40Z</time>
      </trkpt>
      <trkpt lat="46.71128" lon="-1.96765">
        <ele>14</ele>
        <time>2019-12-31T16:55:48Z</time>
      </trkpt>
      <trkpt lat="46.71179" lon="-1.96765">
        <ele>15</ele>
        <time>2019-12-31T16:55:57Z</time>
      </trkpt>
      <trkpt lat="46.71215" lon="-1.96763">
        <ele>15</ele>
        <time>2019-12-31T16:56:03Z</time>
      </trkpt>
      <trkpt lat="46.71239" lon="-1.96763">
        <ele>15</ele>
        <time>2019-12-31T16:56:08Z</time>
      </trkpt>
      <trkpt lat="46.71248" lon="-1.9676">
        <ele>15</ele>
        <time>2019-12-31T16:56:09Z</time>
      </trkpt>
      <trkpt lat="46.71248" lon="-1.9676">
        <ele>15</ele>
        <time>2019-12-31T16:56:09Z</time>
      </trkpt>
      <trkpt lat="46.71268" lon="-1.96753">
        <ele>15</ele>
        <time>2019-12-31T16:56:13Z</time>
      </trkpt>
      <trkpt lat="46.7128" lon="-1.96751">
        <ele>16</ele>
        <time>2019-12-31T16:56:15Z</time>
      </trkpt>
      <trkpt lat="46.71292" lon="-1.9675">
        <ele>16</ele>
        <time>2019-12-31T16:56:17Z</time>
      </trkpt>
      <trkpt lat="46.713" lon="-1.9675">
        <ele>16</ele>
        <time>2019-12-31T16:56:19Z</time>
      </trkpt>
      <trkpt lat="46.7131" lon="-1.96749">
        <ele>16</ele>
        <time>2019-12-31T16:56:20Z</time>
      </trkpt>
      <trkpt lat="46.7132" lon="-1.9675">
        <ele>17</ele>
        <time>2019-12-31T16:56:22Z</time>
      </trkpt>
      <trkpt lat="46.71332" lon="-1.96753">
        <ele>17</ele>
        <time>2019-12-31T16:56:24Z</time>
      </trkpt>
      <trkpt lat="46.71348" lon="-1.96755">
        <ele>16</ele>
        <time>2019-12-31T16:56:27Z</time>
      </trkpt>
      <trkpt lat="46.71362" lon="-1.96758">
        <ele>16</ele>
        <time>2019-12-31T16:56:30Z</time>
      </trkpt>
      <trkpt lat="46.7137" lon="-1.96762">
        <ele>15</ele>
        <time>2019-12-31T16:56:31Z</time>
      </trkpt>
      <trkpt lat="46.71382" lon="-1.96767">
        <ele>15</ele>
        <time>2019-12-31T16:56:34Z</time>
      </trkpt>
      <trkpt lat="46.71395" lon="-1.96774">
        <ele>14</ele>
        <time>2019-12-31T16:56:36Z</time>
      </trkpt>
      <trkpt lat="46.71403" lon="-1.96777">
        <ele>14</ele>
        <time>2019-12-31T16:56:37Z</time>
      </trkpt>
      <trkpt lat="46.71403" lon="-1.96777">
        <ele>14</ele>
        <time>2019-12-31T16:56:37Z</time>
      </trkpt>
      <trkpt lat="46.71424" lon="-1.96783">
        <ele>13</ele>
        <time>2019-12-31T16:56:41Z</time>
      </trkpt>
      <trkpt lat="46.71442" lon="-1.96789">
        <ele>13</ele>
        <time>2019-12-31T16:56:45Z</time>
      </trkpt>
      <trkpt lat="46.71474" lon="-1.96801">
        <ele>13</ele>
        <time>2019-12-31T16:56:50Z</time>
      </trkpt>
      <trkpt lat="46.71496" lon="-1.96806">
        <ele>13</ele>
        <time>2019-12-31T16:56:54Z</time>
      </trkpt>
      <trkpt lat="46.71528" lon="-1.96807">
        <ele>14</ele>
        <time>2019-12-31T16:57:00Z</time>
      </trkpt>
      <trkpt lat="46.71543" lon="-1.96807">
        <ele>14</ele>
        <time>2019-12-31T16:57:03Z</time>
      </trkpt>
      <trkpt lat="46.71558" lon="-1.96809">
        <ele>14</ele>
        <time>2019-12-31T16:57:05Z</time>
      </trkpt>
      <trkpt lat="46.71571" lon="-1.9681">
        <ele>14</ele>
        <time>2019-12-31T16:57:08Z</time>
      </trkpt>
      <trkpt lat="46.71581" lon="-1.96809">
        <ele>14</ele>
        <time>2019-12-31T16:57:10Z</time>
      </trkpt>
      <trkpt lat="46.71587" lon="-1.96807">
        <ele>14</ele>
        <time>2019-12-31T16:57:11Z</time>
      </trkpt>
      <trkpt lat="46.71593" lon="-1.96805">
        <ele>14</ele>
        <time>2019-12-31T16:57:12Z</time>
      </trkpt>
      <trkpt lat="46.71598" lon="-1.96802">
        <ele>14</ele>
        <time>2019-12-31T16:57:13Z</time>
      </trkpt>
      <trkpt lat="46.71615" lon="-1.96791">
        <ele>14</ele>
        <time>2019-12-31T16:57:16Z</time>
      </trkpt>
      <trkpt lat="46.71634" lon="-1.9678">
        <ele>14</ele>
        <time>2019-12-31T16:57:20Z</time>
      </trkpt>
      <trkpt lat="46.71643" lon="-1.96776">
        <ele>14</ele>
        <time>2019-12-31T16:57:21Z</time>
      </trkpt>
      <trkpt lat="46.7165" lon="-1.96775">
        <ele>14</ele>
        <time>2019-12-31T16:57:23Z</time>
      </trkpt>
      <trkpt lat="46.71657" lon="-1.96774">
        <ele>14</ele>
        <time>2019-12-31T16:57:24Z</time>
      </trkpt>
      <trkpt lat="46.71664" lon="-1.96774">
        <ele>14</ele>
        <time>2019-12-31T16:57:25Z</time>
      </trkpt>
      <trkpt lat="46.71672" lon="-1.96774">
        <ele>14</ele>
        <time>2019-12-31T16:57:26Z</time>
      </trkpt>
      <trkpt lat="46.7168" lon="-1.96777">
        <ele>14</ele>
        <time>2019-12-31T16:57:28Z</time>
      </trkpt>
      <trkpt lat="46.71689" lon="-1.96781">
        <ele>14</ele>
        <time>2019-12-31T16:57:30Z</time>
      </trkpt>
      <trkpt lat="46.71699" lon="-1.96786">
        <ele>13</ele>
        <time>2019-12-31T16:57:32Z</time>
      </trkpt>
      <trkpt lat="46.71712" lon="-1.96794">
        <ele>13</ele>
        <time>2019-12-31T16:57:34Z</time>
      </trkpt>
      <trkpt lat="46.71726" lon="-1.96803">
        <ele>13</ele>
        <time>2019-12-31T16:57:37Z</time>
      </trkpt>
      <trkpt lat="46.71738" lon="-1.96811">
        <ele>13</ele>
        <time>2019-12-31T16:57:39Z</time>
      </trkpt>
      <trkpt lat="46.71747" lon="-1.96817">
        <ele>13</ele>
        <time>2019-12-31T16:57:41Z</time>
      </trkpt>
      <trkpt lat="46.71755" lon="-1.9682">
        <ele>13</ele>
        <time>2019-12-31T16:57:42Z</time>
      </trkpt>
      <trkpt lat="46.71767" lon="-1.96825">
        <ele>13</ele>
        <time>2019-12-31T16:57:45Z</time>
      </trkpt>
      <trkpt lat="46.71781" lon="-1.9683">
        <ele>13</ele>
        <time>2019-12-31T16:57:47Z</time>
      </trkpt>
      <trkpt lat="46.71796" lon="-1.96835">
        <ele>14</ele>
        <time>2019-12-31T16:57:50Z</time>
      </trkpt>
      <trkpt lat="46.71808" lon="-1.96839">
        <ele>14</ele>
        <time>2019-12-31T16:57:52Z</time>
      </trkpt>
      <trkpt lat="46.71812" lon="-1.96843">
        <ele>14</ele>
        <time>2019-12-31T16:57:53Z</time>
      </trkpt>
      <trkpt lat="46.71812" lon="-1.96843">
        <ele>14</ele>
        <time>2019-12-31T16:57:53Z</time>
      </trkpt>
      <trkpt lat="46.71829" lon="-1.96851">
        <ele>14</ele>
        <time>2019-12-31T16:57:56Z</time>
      </trkpt>
      <trkpt lat="46.71835" lon="-1.96855">
        <ele>14</ele>
        <time>2019-12-31T16:57:57Z</time>
      </trkpt>
      <trkpt lat="46.71855" lon="-1.96862">
        <ele>15</ele>
        <time>2019-12-31T16:58:01Z</time>
      </trkpt>
      <trkpt lat="46.71856" lon="-1.96862">
        <ele>15</ele>
        <time>2019-12-31T16:58:01Z</time>
      </trkpt>
      <trkpt lat="46.7186" lon="-1.96864">
        <ele>15</ele>
        <time>2019-12-31T16:58:02Z</time>
      </trkpt>
      <trkpt lat="46.71865" lon="-1.96867">
        <ele>15</ele>
        <time>2019-12-31T16:58:03Z</time>
      </trkpt>
      <trkpt lat="46.71872" lon="-1.96873">
        <ele>15</ele>
        <time>2019-12-31T16:58:04Z</time>
      </trkpt>
      <trkpt lat="46.71883" lon="-1.96894">
        <ele>15</ele>
        <time>2019-12-31T16:58:07Z</time>
      </trkpt>
      <trkpt lat="46.7189" lon="-1.96905">
        <ele>15</ele>
        <time>2019-12-31T16:58:09Z</time>
      </trkpt>
      <trkpt lat="46.71919" lon="-1.96958">
        <ele>15</ele>
        <time>2019-12-31T16:58:18Z</time>
      </trkpt>
      <trkpt lat="46.7193" lon="-1.96978">
        <ele>15</ele>
        <time>2019-12-31T16:58:21Z</time>
      </trkpt>
      <trkpt lat="46.71944" lon="-1.97005">
        <ele>14</ele>
        <time>2019-12-31T16:58:25Z</time>
      </trkpt>
      <trkpt lat="46.71969" lon="-1.97055">
        <ele>13</ele>
        <time>2019-12-31T16:58:32Z</time>
      </trkpt>
      <trkpt lat="46.7199" lon="-1.97098">
        <ele>12</ele>
        <time>2019-12-31T16:58:39Z</time>
      </trkpt>
      <trkpt lat="46.71999" lon="-1.97111">
        <ele>11</ele>
        <time>2019-12-31T16:58:41Z</time>
      </trkpt>
      <trkpt lat="46.72012" lon="-1.97137">
        <ele>11</ele>
        <time>2019-12-31T16:58:45Z</time>
      </trkpt>
      <trkpt lat="46.72045" lon="-1.972">
        <ele>10</ele>
        <time>2019-12-31T16:58:55Z</time>
      </trkpt>
      <trkpt lat="46.72062" lon="-1.97231">
        <ele>10</ele>
        <time>2019-12-31T16:59:00Z</time>
      </trkpt>
      <trkpt lat="46.72092" lon="-1.97285">
        <ele>9</ele>
        <time>2019-12-31T16:59:08Z</time>
      </trkpt>
      <trkpt lat="46.72114" lon="-1.97324">
        <ele>9</ele>
        <time>2019-12-31T16:59:14Z</time>
      </trkpt>
      <trkpt lat="46.72132" lon="-1.97353">
        <ele>10</ele>
        <time>2019-12-31T16:59:19Z</time>
      </trkpt>
      <trkpt lat="46.72144" lon="-1.97376">
        <ele>10</ele>
        <time>2019-12-31T16:59:22Z</time>
      </trkpt>
      <trkpt lat="46.72182" lon="-1.97442">
        <ele>10</ele>
        <time>2019-12-31T16:59:33Z</time>
      </trkpt>
      <trkpt lat="46.72229" lon="-1.97523">
        <ele>11</ele>
        <time>2019-12-31T16:59:46Z</time>
      </trkpt>
      <trkpt lat="46.72252" lon="-1.97565">
        <ele>12</ele>
        <time>2019-12-31T16:59:52Z</time>
      </trkpt>
      <trkpt lat="46.72268" lon="-1.97595">
        <ele>12</ele>
        <time>2019-12-31T16:59:57Z</time>
      </trkpt>
      <trkpt lat="46.72278" lon="-1.97612">
        <ele>12</ele>
        <time>2019-12-31T17:00:00Z</time>
      </trkpt>
      <trkpt lat="46.72306" lon="-1.97664">
        <ele>11</ele>
        <time>2019-12-31T17:00:08Z</time>
      </trkpt>
      <trkpt lat="46.72345" lon="-1.97737">
        <ele>9</ele>
        <time>2019-12-31T17:00:19Z</time>
      </trkpt>
      <trkpt lat="46.72381" lon="-1.97799">
        <ele>8</ele>
        <time>2019-12-31T17:00:29Z</time>
      </trkpt>
      <trkpt lat="46.72387" lon="-1.97802">
        <ele>7</ele>
        <time>2019-12-31T17:00:30Z</time>
      </trkpt>
      <trkpt lat="46.72403" lon="-1.97824">
        <ele>7</ele>
        <time>2019-12-31T17:00:34Z</time>
      </trkpt>
      <trkpt lat="46.72404" lon="-1.97824">
        <ele>7</ele>
        <time>2019-12-31T17:00:34Z</time>
      </trkpt>
      <trkpt lat="46.72405" lon="-1.97824">
        <ele>7</ele>
        <time>2019-12-31T17:00:35Z</time>
      </trkpt>
      <trkpt lat="46.72406" lon="-1.97824">
        <ele>6</ele>
        <time>2019-12-31T17:00:35Z</time>
      </trkpt>
      <trkpt lat="46.72407" lon="-1.97824">
        <ele>6</ele>
        <time>2019-12-31T17:00:35Z</time>
      </trkpt>
      <trkpt lat="46.72407" lon="-1.97825">
        <ele>6</ele>
        <time>2019-12-31T17:00:35Z</time>
      </trkpt>
      <trkpt lat="46.72408" lon="-1.97825">
        <ele>6</ele>
        <time>2019-12-31T17:00:35Z</time>
      </trkpt>
      <trkpt lat="46.72408" lon="-1.97826">
        <ele>6</ele>
        <time>2019-12-31T17:00:35Z</time>
      </trkpt>
      <trkpt lat="46.72409" lon="-1.97826">
        <ele>6</ele>
        <time>2019-12-31T17:00:35Z</time>
      </trkpt>
      <trkpt lat="46.72409" lon="-1.97827">
        <ele>6</ele>
        <time>2019-12-31T17:00:36Z</time>
      </trkpt>
      <trkpt lat="46.7241" lon="-1.97827">
        <ele>6</ele>
        <time>2019-12-31T17:00:36Z</time>
      </trkpt>
      <trkpt lat="46.7241" lon="-1.97828">
        <ele>6</ele>
        <time>2019-12-31T17:00:36Z</time>
      </trkpt>
      <trkpt lat="46.72411" lon="-1.97829">
        <ele>6</ele>
        <time>2019-12-31T17:00:36Z</time>
      </trkpt>
      <trkpt lat="46.72411" lon="-1.9783">
        <ele>6</ele>
        <time>2019-12-31T17:00:36Z</time>
      </trkpt>
      <trkpt lat="46.72412" lon="-1.97831">
        <ele>6</ele>
        <time>2019-12-31T17:00:36Z</time>
      </trkpt>
      <trkpt lat="46.72412" lon="-1.97832">
        <ele>6</ele>
        <time>2019-12-31T17:00:37Z</time>
      </trkpt>
      <trkpt lat="46.72412" lon="-1.97833">
        <ele>6</ele>
        <time>2019-12-31T17:00:37Z</time>
      </trkpt>
      <trkpt lat="46.72412" lon="-1.97834">
        <ele>6</ele>
        <time>2019-12-31T17:00:37Z</time>
      </trkpt>
      <trkpt lat="46.72412" lon="-1.97835">
        <ele>6</ele>
        <time>2019-12-31T17:00:37Z</time>
      </trkpt>
      <trkpt lat="46.72412" lon="-1.97836">
        <ele>6</ele>
        <time>2019-12-31T17:00:37Z</time>
      </trkpt>
      <trkpt lat="46.72412" lon="-1.97837">
        <ele>6</ele>
        <time>2019-12-31T17:00:37Z</time>
      </trkpt>
      <trkpt lat="46.72412" lon="-1.97838">
        <ele>6</ele>
        <time>2019-12-31T17:00:37Z</time>
      </trkpt>
      <trkpt lat="46.72412" lon="-1.97839">
        <ele>6</ele>
        <time>2019-12-31T17:00:37Z</time>
      </trkpt>
      <trkpt lat="46.72412" lon="-1.9784">
        <ele>6</ele>
        <time>2019-12-31T17:00:38Z</time>
      </trkpt>
      <trkpt lat="46.72425" lon="-1.97862">
        <ele>7</ele>
        <time>2019-12-31T17:00:41Z</time>
      </trkpt>
      <trkpt lat="46.72429" lon="-1.97876">
        <ele>7</ele>
        <time>2019-12-31T17:00:43Z</time>
      </trkpt>
      <trkpt lat="46.72432" lon="-1.97882">
        <ele>8</ele>
        <time>2019-12-31T17:00:44Z</time>
      </trkpt>
      <trkpt lat="46.72448" lon="-1.97908">
        <ele>8</ele>
        <time>2019-12-31T17:00:48Z</time>
      </trkpt>
      <trkpt lat="46.7247" lon="-1.97935">
        <ele>8</ele>
        <time>2019-12-31T17:00:53Z</time>
      </trkpt>
      <trkpt lat="46.7248" lon="-1.97945">
        <ele>8</ele>
        <time>2019-12-31T17:00:55Z</time>
      </trkpt>
      <trkpt lat="46.7249" lon="-1.97955">
        <ele>8</ele>
        <time>2019-12-31T17:00:58Z</time>
      </trkpt>
      <trkpt lat="46.72513" lon="-1.97975">
        <ele>8</ele>
        <time>2019-12-31T17:01:02Z</time>
      </trkpt>
      <trkpt lat="46.7254" lon="-1.97993">
        <ele>8</ele>
        <time>2019-12-31T17:01:08Z</time>
      </trkpt>
      <trkpt lat="46.72577" lon="-1.98018">
        <ele>8</ele>
        <time>2019-12-31T17:01:15Z</time>
      </trkpt>
      <trkpt lat="46.72619" lon="-1.98047">
        <ele>9</ele>
        <time>2019-12-31T17:01:23Z</time>
      </trkpt>
      <trkpt lat="46.72667" lon="-1.98081">
        <ele>10</ele>
        <time>2019-12-31T17:01:33Z</time>
      </trkpt>
      <trkpt lat="46.72704" lon="-1.98105">
        <ele>11</ele>
        <time>2019-12-31T17:01:40Z</time>
      </trkpt>
      <trkpt lat="46.72722" lon="-1.98115">
        <ele>11</ele>
        <time>2019-12-31T17:01:43Z</time>
      </trkpt>
      <trkpt lat="46.72738" lon="-1.98124">
        <ele>11</ele>
        <time>2019-12-31T17:01:46Z</time>
      </trkpt>
      <trkpt lat="46.72753" lon="-1.98131">
        <ele>11</ele>
        <time>2019-12-31T17:01:49Z</time>
      </trkpt>
      <trkpt lat="46.72761" lon="-1.98134">
        <ele>11</ele>
        <time>2019-12-31T17:01:51Z</time>
      </trkpt>
      <trkpt lat="46.72778" lon="-1.98142">
        <ele>10</ele>
        <time>2019-12-31T17:01:54Z</time>
      </trkpt>
      <trkpt lat="46.72793" lon="-1.98149">
        <ele>10</ele>
        <time>2019-12-31T17:01:57Z</time>
      </trkpt>
      <trkpt lat="46.72817" lon="-1.98158">
        <ele>9</ele>
        <time>2019-12-31T17:02:01Z</time>
      </trkpt>
      <trkpt lat="46.72862" lon="-1.98176">
        <ele>9</ele>
        <time>2019-12-31T17:02:09Z</time>
      </trkpt>
      <trkpt lat="46.72964" lon="-1.98218">
        <ele>11</ele>
        <time>2019-12-31T17:02:28Z</time>
      </trkpt>
      <trkpt lat="46.73021" lon="-1.98242">
        <ele>10</ele>
        <time>2019-12-31T17:02:39Z</time>
      </trkpt>
      <trkpt lat="46.73054" lon="-1.98256">
        <ele>11</ele>
        <time>2019-12-31T17:02:45Z</time>
      </trkpt>
      <trkpt lat="46.7307" lon="-1.98262">
        <ele>11</ele>
        <time>2019-12-31T17:02:48Z</time>
      </trkpt>
      <trkpt lat="46.73092" lon="-1.98272">
        <ele>11</ele>
        <time>2019-12-31T17:02:52Z</time>
      </trkpt>
      <trkpt lat="46.73108" lon="-1.98278">
        <ele>11</ele>
        <time>2019-12-31T17:02:55Z</time>
      </trkpt>
      <trkpt lat="46.73123" lon="-1.98284">
        <ele>11</ele>
        <time>2019-12-31T17:02:57Z</time>
      </trkpt>
      <trkpt lat="46.73138" lon="-1.98291">
        <ele>12</ele>
        <time>2019-12-31T17:03:00Z</time>
      </trkpt>
      <trkpt lat="46.73152" lon="-1.98299">
        <ele>12</ele>
        <time>2019-12-31T17:03:03Z</time>
      </trkpt>
      <trkpt lat="46.73162" lon="-1.98305">
        <ele>12</ele>
        <time>2019-12-31T17:03:05Z</time>
      </trkpt>
      <trkpt lat="46.73174" lon="-1.98312">
        <ele>12</ele>
        <time>2019-12-31T17:03:07Z</time>
      </trkpt>
      <trkpt lat="46.7319" lon="-1.98325">
        <ele>12</ele>
        <time>2019-12-31T17:03:10Z</time>
      </trkpt>
      <trkpt lat="46.73213" lon="-1.98346">
        <ele>11</ele>
        <time>2019-12-31T17:03:15Z</time>
      </trkpt>
      <trkpt lat="46.73238" lon="-1.9837">
        <ele>11</ele>
        <time>2019-12-31T17:03:21Z</time>
      </trkpt>
      <trkpt lat="46.73263" lon="-1.98394">
        <ele>10</ele>
        <time>2019-12-31T17:03:26Z</time>
      </trkpt>
      <trkpt lat="46.73291" lon="-1.9842">
        <ele>10</ele>
        <time>2019-12-31T17:03:32Z</time>
      </trkpt>
      <trkpt lat="46.73318" lon="-1.98447">
        <ele>10</ele>
        <time>2019-12-31T17:03:38Z</time>
      </trkpt>
      <trkpt lat="46.73336" lon="-1.98466">
        <ele>10</ele>
        <time>2019-12-31T17:03:42Z</time>
      </trkpt>
      <trkpt lat="46.73347" lon="-1.98478">
        <ele>10</ele>
        <time>2019-12-31T17:03:44Z</time>
      </trkpt>
      <trkpt lat="46.73356" lon="-1.9849">
        <ele>9</ele>
        <time>2019-12-31T17:03:46Z</time>
      </trkpt>
      <trkpt lat="46.73362" lon="-1.98501">
        <ele>9</ele>
        <time>2019-12-31T17:03:48Z</time>
      </trkpt>
      <trkpt lat="46.73369" lon="-1.98518">
        <ele>9</ele>
        <time>2019-12-31T17:03:50Z</time>
      </trkpt>
      <trkpt lat="46.73375" lon="-1.98535">
        <ele>9</ele>
        <time>2019-12-31T17:03:53Z</time>
      </trkpt>
      <trkpt lat="46.7338" lon="-1.98549">
        <ele>9</ele>
        <time>2019-12-31T17:03:55Z</time>
      </trkpt>
      <trkpt lat="46.73383" lon="-1.98564">
        <ele>9</ele>
        <time>2019-12-31T17:03:57Z</time>
      </trkpt>
      <trkpt lat="46.73386" lon="-1.98577">
        <ele>9</ele>
        <time>2019-12-31T17:03:58Z</time>
      </trkpt>
      <trkpt lat="46.73387" lon="-1.98593">
        <ele>9</ele>
        <time>2019-12-31T17:04:00Z</time>
      </trkpt>
      <trkpt lat="46.73388" lon="-1.9861">
        <ele>9</ele>
        <time>2019-12-31T17:04:02Z</time>
      </trkpt>
      <trkpt lat="46.73389" lon="-1.98623">
        <ele>9</ele>
        <time>2019-12-31T17:04:04Z</time>
      </trkpt>
      <trkpt lat="46.73389" lon="-1.98633">
        <ele>9</ele>
        <time>2019-12-31T17:04:05Z</time>
      </trkpt>
      <trkpt lat="46.73389" lon="-1.98637">
        <ele>9</ele>
        <time>2019-12-31T17:04:06Z</time>
      </trkpt>
      <trkpt lat="46.73392" lon="-1.98653">
        <ele>9</ele>
        <time>2019-12-31T17:04:08Z</time>
      </trkpt>
      <trkpt lat="46.73393" lon="-1.9866">
        <ele>9</ele>
        <time>2019-12-31T17:04:08Z</time>
      </trkpt>
      <trkpt lat="46.73394" lon="-1.98667">
        <ele>9</ele>
        <time>2019-12-31T17:04:09Z</time>
      </trkpt>
      <trkpt lat="46.73397" lon="-1.98679">
        <ele>9</ele>
        <time>2019-12-31T17:04:11Z</time>
      </trkpt>
      <trkpt lat="46.73401" lon="-1.98693">
        <ele>9</ele>
        <time>2019-12-31T17:04:13Z</time>
      </trkpt>
      <trkpt lat="46.73404" lon="-1.98702">
        <ele>9</ele>
        <time>2019-12-31T17:04:14Z</time>
      </trkpt>
      <trkpt lat="46.73407" lon="-1.98708">
        <ele>9</ele>
        <time>2019-12-31T17:04:15Z</time>
      </trkpt>
      <trkpt lat="46.73414" lon="-1.9872">
        <ele>9</ele>
        <time>2019-12-31T17:04:17Z</time>
      </trkpt>
      <trkpt lat="46.73425" lon="-1.98734">
        <ele>9</ele>
        <time>2019-12-31T17:04:19Z</time>
      </trkpt>
      <trkpt lat="46.73441" lon="-1.98751">
        <ele>8</ele>
        <time>2019-12-31T17:04:23Z</time>
      </trkpt>
      <trkpt lat="46.73447" lon="-1.98757">
        <ele>8</ele>
        <time>2019-12-31T17:04:24Z</time>
      </trkpt>
      <trkpt lat="46.73474" lon="-1.98783">
        <ele>9</ele>
        <time>2019-12-31T17:04:30Z</time>
      </trkpt>
      <trkpt lat="46.73504" lon="-1.98811">
        <ele>8</ele>
        <time>2019-12-31T17:04:36Z</time>
      </trkpt>
      <trkpt lat="46.73528" lon="-1.98834">
        <ele>8</ele>
        <time>2019-12-31T17:04:41Z</time>
      </trkpt>
      <trkpt lat="46.73544" lon="-1.98848">
        <ele>7</ele>
        <time>2019-12-31T17:04:45Z</time>
      </trkpt>
      <trkpt lat="46.73569" lon="-1.98872">
        <ele>7</ele>
        <time>2019-12-31T17:04:50Z</time>
      </trkpt>
      <trkpt lat="46.73597" lon="-1.98901">
        <ele>7</ele>
        <time>2019-12-31T17:04:56Z</time>
      </trkpt>
      <trkpt lat="46.7363" lon="-1.98933">
        <ele>7</ele>
        <time>2019-12-31T17:05:03Z</time>
      </trkpt>
      <trkpt lat="46.7365" lon="-1.98953">
        <ele>8</ele>
        <time>2019-12-31T17:05:07Z</time>
      </trkpt>
      <trkpt lat="46.73663" lon="-1.98965">
        <ele>8</ele>
        <time>2019-12-31T17:05:10Z</time>
      </trkpt>
      <trkpt lat="46.73664" lon="-1.98966">
        <ele>8</ele>
        <time>2019-12-31T17:05:10Z</time>
      </trkpt>
      <trkpt lat="46.73706" lon="-1.99004">
        <ele>9</ele>
        <time>2019-12-31T17:05:19Z</time>
      </trkpt>
      <trkpt lat="46.73719" lon="-1.99017">
        <ele>8</ele>
        <time>2019-12-31T17:05:22Z</time>
      </trkpt>
      <trkpt lat="46.73748" lon="-1.99044">
        <ele>8</ele>
        <time>2019-12-31T17:05:28Z</time>
      </trkpt>
      <trkpt lat="46.73778" lon="-1.99073">
        <ele>8</ele>
        <time>2019-12-31T17:05:35Z</time>
      </trkpt>
      <trkpt lat="46.73818" lon="-1.99114">
        <ele>8</ele>
        <time>2019-12-31T17:05:43Z</time>
      </trkpt>
      <trkpt lat="46.73849" lon="-1.99145">
        <ele>8</ele>
        <time>2019-12-31T17:05:50Z</time>
      </trkpt>
      <trkpt lat="46.73877" lon="-1.99173">
        <ele>7</ele>
        <time>2019-12-31T17:05:56Z</time>
      </trkpt>
      <trkpt lat="46.73916" lon="-1.99212">
        <ele>8</ele>
        <time>2019-12-31T17:06:04Z</time>
      </trkpt>
      <trkpt lat="46.73934" lon="-1.99226">
        <ele>8</ele>
        <time>2019-12-31T17:06:08Z</time>
      </trkpt>
      <trkpt lat="46.73956" lon="-1.9924">
        <ele>9</ele>
        <time>2019-12-31T17:06:12Z</time>
      </trkpt>
      <trkpt lat="46.7397" lon="-1.99247">
        <ele>9</ele>
        <time>2019-12-31T17:06:15Z</time>
      </trkpt>
      <trkpt lat="46.73992" lon="-1.99255">
        <ele>9</ele>
        <time>2019-12-31T17:06:19Z</time>
      </trkpt>
      <trkpt lat="46.74013" lon="-1.99261">
        <ele>8</ele>
        <time>2019-12-31T17:06:23Z</time>
      </trkpt>
      <trkpt lat="46.74037" lon="-1.99265">
        <ele>7</ele>
        <time>2019-12-31T17:06:27Z</time>
      </trkpt>
      <trkpt lat="46.74042" lon="-1.99266">
        <ele>7</ele>
        <time>2019-12-31T17:06:28Z</time>
      </trkpt>
      <trkpt lat="46.74086" lon="-1.9927">
        <ele>5</ele>
        <time>2019-12-31T17:06:36Z</time>
      </trkpt>
      <trkpt lat="46.74115" lon="-1.99274">
        <ele>5</ele>
        <time>2019-12-31T17:06:41Z</time>
      </trkpt>
      <trkpt lat="46.74161" lon="-1.99278">
        <ele>4</ele>
        <time>2019-12-31T17:06:49Z</time>
      </trkpt>
      <trkpt lat="46.74166" lon="-1.99279">
        <ele>4</ele>
        <time>2019-12-31T17:06:50Z</time>
      </trkpt>
      <trkpt lat="46.7417" lon="-1.99281">
        <ele>4</ele>
        <time>2019-12-31T17:06:51Z</time>
      </trkpt>
      <trkpt lat="46.74177" lon="-1.99282">
        <ele>4</ele>
        <time>2019-12-31T17:06:52Z</time>
      </trkpt>
      <trkpt lat="46.74184" lon="-1.99283">
        <ele>4</ele>
        <time>2019-12-31T17:06:53Z</time>
      </trkpt>
      <trkpt lat="46.74184" lon="-1.99283">
        <ele>4</ele>
        <time>2019-12-31T17:06:53Z</time>
      </trkpt>
      <trkpt lat="46.74187" lon="-1.99281">
        <ele>4</ele>
        <time>2019-12-31T17:06:54Z</time>
      </trkpt>
      <trkpt lat="46.74189" lon="-1.99281">
        <ele>4</ele>
        <time>2019-12-31T17:06:54Z</time>
      </trkpt>
      <trkpt lat="46.74192" lon="-1.9928">
        <ele>4</ele>
        <time>2019-12-31T17:06:55Z</time>
      </trkpt>
      <trkpt lat="46.74194" lon="-1.9928">
        <ele>4</ele>
        <time>2019-12-31T17:06:55Z</time>
      </trkpt>
      <trkpt lat="46.74197" lon="-1.99281">
        <ele>4</ele>
        <time>2019-12-31T17:06:56Z</time>
      </trkpt>
      <trkpt lat="46.74199" lon="-1.99283">
        <ele>4</ele>
        <time>2019-12-31T17:06:56Z</time>
      </trkpt>
      <trkpt lat="46.74202" lon="-1.99285">
        <ele>4</ele>
        <time>2019-12-31T17:06:57Z</time>
      </trkpt>
      <trkpt lat="46.74204" lon="-1.99287">
        <ele>4</ele>
        <time>2019-12-31T17:06:57Z</time>
      </trkpt>
      <trkpt lat="46.74205" lon="-1.9929">
        <ele>4</ele>
        <time>2019-12-31T17:06:58Z</time>
      </trkpt>
      <trkpt lat="46.74207" lon="-1.99294">
        <ele>5</ele>
        <time>2019-12-31T17:06:58Z</time>
      </trkpt>
      <trkpt lat="46.74207" lon="-1.99297">
        <ele>5</ele>
        <time>2019-12-31T17:06:59Z</time>
      </trkpt>
      <trkpt lat="46.74208" lon="-1.993">
        <ele>5</ele>
        <time>2019-12-31T17:06:59Z</time>
      </trkpt>
      <trkpt lat="46.74208" lon="-1.99304">
        <ele>5</ele>
        <time>2019-12-31T17:06:59Z</time>
      </trkpt>
      <trkpt lat="46.74207" lon="-1.99308">
        <ele>5</ele>
        <time>2019-12-31T17:07:00Z</time>
      </trkpt>
      <trkpt lat="46.74208" lon="-1.99315">
        <ele>5</ele>
        <time>2019-12-31T17:07:01Z</time>
      </trkpt>
      <trkpt lat="46.74209" lon="-1.99326">
        <ele>5</ele>
        <time>2019-12-31T17:07:02Z</time>
      </trkpt>
      <trkpt lat="46.74212" lon="-1.99342">
        <ele>5</ele>
        <time>2019-12-31T17:07:04Z</time>
      </trkpt>
      <trkpt lat="46.74215" lon="-1.99356">
        <ele>5</ele>
        <time>2019-12-31T17:07:06Z</time>
      </trkpt>
      <trkpt lat="46.74215" lon="-1.99361">
        <ele>5</ele>
        <time>2019-12-31T17:07:07Z</time>
      </trkpt>
      <trkpt lat="46.74216" lon="-1.99379">
        <ele>5</ele>
        <time>2019-12-31T17:07:09Z</time>
      </trkpt>
      <trkpt lat="46.74216" lon="-1.99393">
        <ele>5</ele>
        <time>2019-12-31T17:07:11Z</time>
      </trkpt>
      <trkpt lat="46.74216" lon="-1.99406">
        <ele>4</ele>
        <time>2019-12-31T17:07:12Z</time>
      </trkpt>
      <trkpt lat="46.74211" lon="-1.99436">
        <ele>5</ele>
        <time>2019-12-31T17:07:16Z</time>
      </trkpt>
      <trkpt lat="46.74206" lon="-1.99468">
        <ele>5</ele>
        <time>2019-12-31T17:07:20Z</time>
      </trkpt>
      <trkpt lat="46.74204" lon="-1.99474">
        <ele>5</ele>
        <time>2019-12-31T17:07:21Z</time>
      </trkpt>
      <trkpt lat="46.742" lon="-1.99493">
        <ele>5</ele>
        <time>2019-12-31T17:07:23Z</time>
      </trkpt>
      <trkpt lat="46.74192" lon="-1.99525">
        <ele>6</ele>
        <time>2019-12-31T17:07:27Z</time>
      </trkpt>
      <trkpt lat="46.74182" lon="-1.99559">
        <ele>6</ele>
        <time>2019-12-31T17:07:32Z</time>
      </trkpt>
      <trkpt lat="46.74174" lon="-1.9959">
        <ele>7</ele>
        <time>2019-12-31T17:07:36Z</time>
      </trkpt>
      <trkpt lat="46.74165" lon="-1.99622">
        <ele>6</ele>
        <time>2019-12-31T17:07:40Z</time>
      </trkpt>
      <trkpt lat="46.74162" lon="-1.99638">
        <ele>6</ele>
        <time>2019-12-31T17:07:42Z</time>
      </trkpt>
      <trkpt lat="46.74158" lon="-1.99666">
        <ele>5</ele>
        <time>2019-12-31T17:07:46Z</time>
      </trkpt>
      <trkpt lat="46.74157" lon="-1.99675">
        <ele>5</ele>
        <time>2019-12-31T17:07:47Z</time>
      </trkpt>
      <trkpt lat="46.74155" lon="-1.99686">
        <ele>5</ele>
        <time>2019-12-31T17:07:48Z</time>
      </trkpt>
      <trkpt lat="46.74154" lon="-1.99732">
        <ele>5</ele>
        <time>2019-12-31T17:07:54Z</time>
      </trkpt>
      <trkpt lat="46.74148" lon="-1.99843">
        <ele>7</ele>
        <time>2019-12-31T17:08:07Z</time>
      </trkpt>
      <trkpt lat="46.74143" lon="-1.99924">
        <ele>7</ele>
        <time>2019-12-31T17:08:17Z</time>
      </trkpt>
      <trkpt lat="46.74142" lon="-1.99944">
        <ele>6</ele>
        <time>2019-12-31T17:08:20Z</time>
      </trkpt>
      <trkpt lat="46.74134" lon="-2.0004">
        <ele>6</ele>
        <time>2019-12-31T17:08:31Z</time>
      </trkpt>
      <trkpt lat="46.74127" lon="-2.001">
        <ele>6</ele>
        <time>2019-12-31T17:08:39Z</time>
      </trkpt>
      <trkpt lat="46.74123" lon="-2.00124">
        <ele>6</ele>
        <time>2019-12-31T17:08:42Z</time>
      </trkpt>
      <trkpt lat="46.74119" lon="-2.00146">
        <ele>5</ele>
        <time>2019-12-31T17:08:45Z</time>
      </trkpt>
      <trkpt lat="46.74115" lon="-2.00164">
        <ele>5</ele>
        <time>2019-12-31T17:08:47Z</time>
      </trkpt>
      <trkpt lat="46.7411" lon="-2.00185">
        <ele>5</ele>
        <time>2019-12-31T17:08:50Z</time>
      </trkpt>
      <trkpt lat="46.74088" lon="-2.00267">
        <ele>4</ele>
        <time>2019-12-31T17:09:00Z</time>
      </trkpt>
      <trkpt lat="46.74085" lon="-2.00279">
        <ele>3</ele>
        <time>2019-12-31T17:09:02Z</time>
      </trkpt>
      <trkpt lat="46.74079" lon="-2.00302">
        <ele>3</ele>
        <time>2019-12-31T17:09:05Z</time>
      </trkpt>
      <trkpt lat="46.74075" lon="-2.00318">
        <ele>3</ele>
        <time>2019-12-31T17:09:07Z</time>
      </trkpt>
      <trkpt lat="46.7407" lon="-2.00339">
        <ele>2</ele>
        <time>2019-12-31T17:09:10Z</time>
      </trkpt>
      <trkpt lat="46.74067" lon="-2.00353">
        <ele>3</ele>
        <time>2019-12-31T17:09:12Z</time>
      </trkpt>
      <trkpt lat="46.74065" lon="-2.00368">
        <ele>3</ele>
        <time>2019-12-31T17:09:13Z</time>
      </trkpt>
      <trkpt lat="46.74065" lon="-2.00382">
        <ele>3</ele>
        <time>2019-12-31T17:09:15Z</time>
      </trkpt>
      <trkpt lat="46.74066" lon="-2.00393">
        <ele>3</ele>
        <time>2019-12-31T17:09:16Z</time>
      </trkpt>
      <trkpt lat="46.74067" lon="-2.00404">
        <ele>3</ele>
        <time>2019-12-31T17:09:18Z</time>
      </trkpt>
      <trkpt lat="46.74073" lon="-2.00423">
        <ele>3</ele>
        <time>2019-12-31T17:09:20Z</time>
      </trkpt>
      <trkpt lat="46.74078" lon="-2.00436">
        <ele>3</ele>
        <time>2019-12-31T17:09:22Z</time>
      </trkpt>
      <trkpt lat="46.74085" lon="-2.00458">
        <ele>3</ele>
        <time>2019-12-31T17:09:25Z</time>
      </trkpt>
      <trkpt lat="46.74096" lon="-2.00481">
        <ele>3</ele>
        <time>2019-12-31T17:09:29Z</time>
      </trkpt>
      <trkpt lat="46.74099" lon="-2.00488">
        <ele>3</ele>
        <time>2019-12-31T17:09:30Z</time>
      </trkpt>
      <trkpt lat="46.74103" lon="-2.00497">
        <ele>3</ele>
        <time>2019-12-31T17:09:31Z</time>
      </trkpt>
      <trkpt lat="46.74108" lon="-2.00504">
        <ele>3</ele>
        <time>2019-12-31T17:09:32Z</time>
      </trkpt>
      <trkpt lat="46.74114" lon="-2.00514">
        <ele>3</ele>
        <time>2019-12-31T17:09:34Z</time>
      </trkpt>
      <trkpt lat="46.74117" lon="-2.00519">
        <ele>3</ele>
        <time>2019-12-31T17:09:35Z</time>
      </trkpt>
      <trkpt lat="46.74124" lon="-2.00529">
        <ele>3</ele>
        <time>2019-12-31T17:09:36Z</time>
      </trkpt>
      <trkpt lat="46.74131" lon="-2.0054">
        <ele>3</ele>
        <time>2019-12-31T17:09:38Z</time>
      </trkpt>
      <trkpt lat="46.74143" lon="-2.00558">
        <ele>3</ele>
        <time>2019-12-31T17:09:41Z</time>
      </trkpt>
      <trkpt lat="46.74148" lon="-2.00565">
        <ele>3</ele>
        <time>2019-12-31T17:09:42Z</time>
      </trkpt>
      <trkpt lat="46.74191" lon="-2.00625">
        <ele>3</ele>
        <time>2019-12-31T17:09:53Z</time>
      </trkpt>
      <trkpt lat="46.74235" lon="-2.00689">
        <ele>3</ele>
        <time>2019-12-31T17:10:04Z</time>
      </trkpt>
      <trkpt lat="46.7425" lon="-2.00711">
        <ele>2</ele>
        <time>2019-12-31T17:10:08Z</time>
      </trkpt>
      <trkpt lat="46.7426" lon="-2.00726">
        <ele>2</ele>
        <time>2019-12-31T17:10:10Z</time>
      </trkpt>
      <trkpt lat="46.74275" lon="-2.00753">
        <ele>2</ele>
        <time>2019-12-31T17:10:15Z</time>
      </trkpt>
      <trkpt lat="46.74283" lon="-2.00765">
        <ele>2</ele>
        <time>2019-12-31T17:10:17Z</time>
      </trkpt>
      <trkpt lat="46.74301" lon="-2.00793">
        <ele>2</ele>
        <time>2019-12-31T17:10:21Z</time>
      </trkpt>
      <trkpt lat="46.74308" lon="-2.00805">
        <ele>2</ele>
        <time>2019-12-31T17:10:23Z</time>
      </trkpt>
      <trkpt lat="46.74312" lon="-2.00812">
        <ele>2</ele>
        <time>2019-12-31T17:10:24Z</time>
      </trkpt>
      <trkpt lat="46.74322" lon="-2.0083">
        <ele>3</ele>
        <time>2019-12-31T17:10:27Z</time>
      </trkpt>
      <trkpt lat="46.7433" lon="-2.00843">
        <ele>3</ele>
        <time>2019-12-31T17:10:29Z</time>
      </trkpt>
      <trkpt lat="46.74337" lon="-2.00853">
        <ele>3</ele>
        <time>2019-12-31T17:10:31Z</time>
      </trkpt>
      <trkpt lat="46.74345" lon="-2.00864">
        <ele>3</ele>
        <time>2019-12-31T17:10:33Z</time>
      </trkpt>
      <trkpt lat="46.74361" lon="-2.0088">
        <ele>3</ele>
        <time>2019-12-31T17:10:36Z</time>
      </trkpt>
      <trkpt lat="46.7439" lon="-2.00906">
        <ele>3</ele>
        <time>2019-12-31T17:10:43Z</time>
      </trkpt>
      <trkpt lat="46.74444" lon="-2.00952">
        <ele>4</ele>
        <time>2019-12-31T17:10:54Z</time>
      </trkpt>
      <trkpt lat="46.74463" lon="-2.00969">
        <ele>4</ele>
        <time>2019-12-31T17:10:58Z</time>
      </trkpt>
      <trkpt lat="46.74482" lon="-2.00986">
        <ele>4</ele>
        <time>2019-12-31T17:11:02Z</time>
      </trkpt>
      <trkpt lat="46.74512" lon="-2.01014">
        <ele>5</ele>
        <time>2019-12-31T17:11:08Z</time>
      </trkpt>
      <trkpt lat="46.74532" lon="-2.0103">
        <ele>5</ele>
        <time>2019-12-31T17:11:12Z</time>
      </trkpt>
      <trkpt lat="46.74538" lon="-2.01036">
        <ele>4</ele>
        <time>2019-12-31T17:11:13Z</time>
      </trkpt>
      <trkpt lat="46.74557" lon="-2.01058">
        <ele>4</ele>
        <time>2019-12-31T17:11:18Z</time>
      </trkpt>
      <trkpt lat="46.74564" lon="-2.01068">
        <ele>4</ele>
        <time>2019-12-31T17:11:19Z</time>
      </trkpt>
      <trkpt lat="46.74582" lon="-2.01089">
        <ele>4</ele>
        <time>2019-12-31T17:11:23Z</time>
      </trkpt>
      <trkpt lat="46.74613" lon="-2.01126">
        <ele>7</ele>
        <time>2019-12-31T17:11:31Z</time>
      </trkpt>
      <trkpt lat="46.74638" lon="-2.01154">
        <ele>8</ele>
        <time>2019-12-31T17:11:36Z</time>
      </trkpt>
      <trkpt lat="46.74646" lon="-2.01164">
        <ele>8</ele>
        <time>2019-12-31T17:11:38Z</time>
      </trkpt>
      <trkpt lat="46.74664" lon="-2.01183">
        <ele>8</ele>
        <time>2019-12-31T17:11:42Z</time>
      </trkpt>
      <trkpt lat="46.74682" lon="-2.01198">
        <ele>8</ele>
        <time>2019-12-31T17:11:46Z</time>
      </trkpt>
      <trkpt lat="46.74693" lon="-2.01205">
        <ele>8</ele>
        <time>2019-12-31T17:11:48Z</time>
      </trkpt>
      <trkpt lat="46.74723" lon="-2.01225">
        <ele>7</ele>
        <time>2019-12-31T17:11:54Z</time>
      </trkpt>
      <trkpt lat="46.74747" lon="-2.0124">
        <ele>7</ele>
        <time>2019-12-31T17:11:58Z</time>
      </trkpt>
      <trkpt lat="46.74784" lon="-2.01263">
        <ele>6</ele>
        <time>2019-12-31T17:12:05Z</time>
      </trkpt>
      <trkpt lat="46.74821" lon="-2.01285">
        <ele>6</ele>
        <time>2019-12-31T17:12:13Z</time>
      </trkpt>
      <trkpt lat="46.74863" lon="-2.01308">
        <ele>7</ele>
        <time>2019-12-31T17:12:21Z</time>
      </trkpt>
      <trkpt lat="46.74895" lon="-2.01325">
        <ele>7</ele>
        <time>2019-12-31T17:12:27Z</time>
      </trkpt>
      <trkpt lat="46.74927" lon="-2.01343">
        <ele>7</ele>
        <time>2019-12-31T17:12:33Z</time>
      </trkpt>
      <trkpt lat="46.74944" lon="-2.01355">
        <ele>6</ele>
        <time>2019-12-31T17:12:36Z</time>
      </trkpt>
      <trkpt lat="46.7495" lon="-2.01362">
        <ele>6</ele>
        <time>2019-12-31T17:12:37Z</time>
      </trkpt>
      <trkpt lat="46.74952" lon="-2.01363">
        <ele>6</ele>
        <time>2019-12-31T17:12:38Z</time>
      </trkpt>
      <trkpt lat="46.74958" lon="-2.01372">
        <ele>5</ele>
        <time>2019-12-31T17:12:39Z</time>
      </trkpt>
      <trkpt lat="46.74969" lon="-2.01389">
        <ele>5</ele>
        <time>2019-12-31T17:12:42Z</time>
      </trkpt>
      <trkpt lat="46.74972" lon="-2.01394">
        <ele>5</ele>
        <time>2019-12-31T17:12:43Z</time>
      </trkpt>
      <trkpt lat="46.74993" lon="-2.01431">
        <ele>4</ele>
        <time>2019-12-31T17:12:49Z</time>
      </trkpt>
      <trkpt lat="46.75018" lon="-2.01472">
        <ele>4</ele>
        <time>2019-12-31T17:12:56Z</time>
      </trkpt>
      <trkpt lat="46.75035" lon="-2.01499">
        <ele>4</ele>
        <time>2019-12-31T17:13:00Z</time>
      </trkpt>
      <trkpt lat="46.75037" lon="-2.01501">
        <ele>4</ele>
        <time>2019-12-31T17:13:00Z</time>
      </trkpt>
      <trkpt lat="46.75057" lon="-2.01531">
        <ele>4</ele>
        <time>2019-12-31T17:13:06Z</time>
      </trkpt>
      <trkpt lat="46.75084" lon="-2.01564">
        <ele>4</ele>
        <time>2019-12-31T17:13:12Z</time>
      </trkpt>
      <trkpt lat="46.75096" lon="-2.01579">
        <ele>4</ele>
        <time>2019-12-31T17:13:15Z</time>
      </trkpt>
      <trkpt lat="46.75104" lon="-2.01586">
        <ele>4</ele>
        <time>2019-12-31T17:13:16Z</time>
      </trkpt>
      <trkpt lat="46.75112" lon="-2.0159">
        <ele>3</ele>
        <time>2019-12-31T17:13:18Z</time>
      </trkpt>
      <trkpt lat="46.75114" lon="-2.01589">
        <ele>3</ele>
        <time>2019-12-31T17:13:18Z</time>
      </trkpt>
      <trkpt lat="46.75115" lon="-2.01589">
        <ele>3</ele>
        <time>2019-12-31T17:13:18Z</time>
      </trkpt>
      <trkpt lat="46.75118" lon="-2.01588">
        <ele>3</ele>
        <time>2019-12-31T17:13:19Z</time>
      </trkpt>
      <trkpt lat="46.75122" lon="-2.01589">
        <ele>3</ele>
        <time>2019-12-31T17:13:20Z</time>
      </trkpt>
      <trkpt lat="46.75125" lon="-2.01591">
        <ele>3</ele>
        <time>2019-12-31T17:13:20Z</time>
      </trkpt>
      <trkpt lat="46.75128" lon="-2.01593">
        <ele>3</ele>
        <time>2019-12-31T17:13:21Z</time>
      </trkpt>
      <trkpt lat="46.7513" lon="-2.01596">
        <ele>3</ele>
        <time>2019-12-31T17:13:21Z</time>
      </trkpt>
      <trkpt lat="46.75132" lon="-2.01601">
        <ele>3</ele>
        <time>2019-12-31T17:13:22Z</time>
      </trkpt>
      <trkpt lat="46.75134" lon="-2.01607">
        <ele>3</ele>
        <time>2019-12-31T17:13:23Z</time>
      </trkpt>
      <trkpt lat="46.75134" lon="-2.0161">
        <ele>3</ele>
        <time>2019-12-31T17:13:23Z</time>
      </trkpt>
      <trkpt lat="46.75134" lon="-2.01615">
        <ele>3</ele>
        <time>2019-12-31T17:13:24Z</time>
      </trkpt>
      <trkpt lat="46.75133" lon="-2.0162">
        <ele>4</ele>
        <time>2019-12-31T17:13:24Z</time>
      </trkpt>
      <trkpt lat="46.75135" lon="-2.01625">
        <ele>4</ele>
        <time>2019-12-31T17:13:25Z</time>
      </trkpt>
      <trkpt lat="46.7514" lon="-2.0164">
        <ele>4</ele>
        <time>2019-12-31T17:13:27Z</time>
      </trkpt>
      <trkpt lat="46.75163" lon="-2.01681">
        <ele>4</ele>
        <time>2019-12-31T17:13:34Z</time>
      </trkpt>
      <trkpt lat="46.75167" lon="-2.01688">
        <ele>4</ele>
        <time>2019-12-31T17:13:35Z</time>
      </trkpt>
      <trkpt lat="46.75196" lon="-2.01732">
        <ele>3</ele>
        <time>2019-12-31T17:13:42Z</time>
      </trkpt>
      <trkpt lat="46.752" lon="-2.01737">
        <ele>3</ele>
        <time>2019-12-31T17:13:43Z</time>
      </trkpt>
      <trkpt lat="46.7522" lon="-2.01766">
        <ele>3</ele>
        <time>2019-12-31T17:13:48Z</time>
      </trkpt>
      <trkpt lat="46.7525" lon="-2.01807">
        <ele>2</ele>
        <time>2019-12-31T17:13:55Z</time>
      </trkpt>
      <trkpt lat="46.75262" lon="-2.01823">
        <ele>2</ele>
        <time>2019-12-31T17:13:58Z</time>
      </trkpt>
      <trkpt lat="46.75285" lon="-2.01854">
        <ele>2</ele>
        <time>2019-12-31T17:14:04Z</time>
      </trkpt>
      <trkpt lat="46.75312" lon="-2.01896">
        <ele>3</ele>
        <time>2019-12-31T17:14:11Z</time>
      </trkpt>
      <trkpt lat="46.75332" lon="-2.01929">
        <ele>3</ele>
        <time>2019-12-31T17:14:16Z</time>
      </trkpt>
      <trkpt lat="46.75345" lon="-2.01949">
        <ele>3</ele>
        <time>2019-12-31T17:14:20Z</time>
      </trkpt>
      <trkpt lat="46.75348" lon="-2.01954">
        <ele>3</ele>
        <time>2019-12-31T17:14:20Z</time>
      </trkpt>
      <trkpt lat="46.75354" lon="-2.01964">
        <ele>3</ele>
        <time>2019-12-31T17:14:22Z</time>
      </trkpt>
      <trkpt lat="46.75375" lon="-2.01991">
        <ele>2</ele>
        <time>2019-12-31T17:14:27Z</time>
      </trkpt>
      <trkpt lat="46.75389" lon="-2.02007">
        <ele>2</ele>
        <time>2019-12-31T17:14:30Z</time>
      </trkpt>
      <trkpt lat="46.75404" lon="-2.02024">
        <ele>2</ele>
        <time>2019-12-31T17:14:34Z</time>
      </trkpt>
      <trkpt lat="46.75417" lon="-2.0204">
        <ele>2</ele>
        <time>2019-12-31T17:14:37Z</time>
      </trkpt>
      <trkpt lat="46.75428" lon="-2.02053">
        <ele>2</ele>
        <time>2019-12-31T17:14:39Z</time>
      </trkpt>
      <trkpt lat="46.75435" lon="-2.02063">
        <ele>2</ele>
        <time>2019-12-31T17:14:41Z</time>
      </trkpt>
      <trkpt lat="46.75445" lon="-2.02076">
        <ele>3</ele>
        <time>2019-12-31T17:14:43Z</time>
      </trkpt>
      <trkpt lat="46.75449" lon="-2.02083">
        <ele>3</ele>
        <time>2019-12-31T17:14:44Z</time>
      </trkpt>
      <trkpt lat="46.75453" lon="-2.02089">
        <ele>3</ele>
        <time>2019-12-31T17:14:45Z</time>
      </trkpt>
      <trkpt lat="46.75454" lon="-2.02092">
        <ele>3</ele>
        <time>2019-12-31T17:14:46Z</time>
      </trkpt>
      <trkpt lat="46.75459" lon="-2.021">
        <ele>3</ele>
        <time>2019-12-31T17:14:47Z</time>
      </trkpt>
      <trkpt lat="46.75466" lon="-2.02113">
        <ele>3</ele>
        <time>2019-12-31T17:14:49Z</time>
      </trkpt>
      <trkpt lat="46.7547" lon="-2.02123">
        <ele>3</ele>
        <time>2019-12-31T17:14:51Z</time>
      </trkpt>
      <trkpt lat="46.75474" lon="-2.02131">
        <ele>2</ele>
        <time>2019-12-31T17:14:52Z</time>
      </trkpt>
      <trkpt lat="46.75479" lon="-2.02148">
        <ele>2</ele>
        <time>2019-12-31T17:14:54Z</time>
      </trkpt>
      <trkpt lat="46.75484" lon="-2.02161">
        <ele>2</ele>
        <time>2019-12-31T17:14:56Z</time>
      </trkpt>
      <trkpt lat="46.75489" lon="-2.02176">
        <ele>2</ele>
        <time>2019-12-31T17:14:58Z</time>
      </trkpt>
      <trkpt lat="46.75493" lon="-2.0219">
        <ele>2</ele>
        <time>2019-12-31T17:15:00Z</time>
      </trkpt>
      <trkpt lat="46.75494" lon="-2.02195">
        <ele>2</ele>
        <time>2019-12-31T17:15:00Z</time>
      </trkpt>
      <trkpt lat="46.75498" lon="-2.02207">
        <ele>2</ele>
        <time>2019-12-31T17:15:02Z</time>
      </trkpt>
      <trkpt lat="46.75501" lon="-2.02214">
        <ele>1</ele>
        <time>2019-12-31T17:15:03Z</time>
      </trkpt>
      <trkpt lat="46.75503" lon="-2.02221">
        <ele>1</ele>
        <time>2019-12-31T17:15:04Z</time>
      </trkpt>
      <trkpt lat="46.75506" lon="-2.02226">
        <ele>1</ele>
        <time>2019-12-31T17:15:05Z</time>
      </trkpt>
      <trkpt lat="46.75509" lon="-2.02232">
        <ele>1</ele>
        <time>2019-12-31T17:15:06Z</time>
      </trkpt>
      <trkpt lat="46.75514" lon="-2.02239">
        <ele>1</ele>
        <time>2019-12-31T17:15:07Z</time>
      </trkpt>
      <trkpt lat="46.75519" lon="-2.02246">
        <ele>1</ele>
        <time>2019-12-31T17:15:08Z</time>
      </trkpt>
      <trkpt lat="46.75524" lon="-2.02253">
        <ele>1</ele>
        <time>2019-12-31T17:15:09Z</time>
      </trkpt>
      <trkpt lat="46.75543" lon="-2.0227">
        <ele>1</ele>
        <time>2019-12-31T17:15:13Z</time>
      </trkpt>
      <trkpt lat="46.75568" lon="-2.02289">
        <ele>1</ele>
        <time>2019-12-31T17:15:18Z</time>
      </trkpt>
      <trkpt lat="46.75594" lon="-2.02308">
        <ele>1</ele>
        <time>2019-12-31T17:15:24Z</time>
      </trkpt>
      <trkpt lat="46.7562" lon="-2.0233">
        <ele>3</ele>
        <time>2019-12-31T17:15:29Z</time>
      </trkpt>
      <trkpt lat="46.75642" lon="-2.02347">
        <ele>4</ele>
        <time>2019-12-31T17:15:33Z</time>
      </trkpt>
      <trkpt lat="46.75663" lon="-2.02374">
        <ele>4</ele>
        <time>2019-12-31T17:15:38Z</time>
      </trkpt>
      <trkpt lat="46.75683" lon="-2.02399">
        <ele>4</ele>
        <time>2019-12-31T17:15:43Z</time>
      </trkpt>
      <trkpt lat="46.75697" lon="-2.0242">
        <ele>4</ele>
        <time>2019-12-31T17:15:47Z</time>
      </trkpt>
      <trkpt lat="46.75704" lon="-2.02428">
        <ele>4</ele>
        <time>2019-12-31T17:15:48Z</time>
      </trkpt>
      <trkpt lat="46.75706" lon="-2.02431">
        <ele>4</ele>
        <time>2019-12-31T17:15:49Z</time>
      </trkpt>
      <trkpt lat="46.75709" lon="-2.02434">
        <ele>4</ele>
        <time>2019-12-31T17:15:49Z</time>
      </trkpt>
      <trkpt lat="46.75712" lon="-2.02438">
        <ele>4</ele>
        <time>2019-12-31T17:15:50Z</time>
      </trkpt>
      <trkpt lat="46.75717" lon="-2.02444">
        <ele>4</ele>
        <time>2019-12-31T17:15:51Z</time>
      </trkpt>
      <trkpt lat="46.75722" lon="-2.02449">
        <ele>4</ele>
        <time>2019-12-31T17:15:52Z</time>
      </trkpt>
      <trkpt lat="46.75728" lon="-2.02453">
        <ele>4</ele>
        <time>2019-12-31T17:15:53Z</time>
      </trkpt>
      <trkpt lat="46.75733" lon="-2.02456">
        <ele>4</ele>
        <time>2019-12-31T17:15:54Z</time>
      </trkpt>
      <trkpt lat="46.75738" lon="-2.02459">
        <ele>5</ele>
        <time>2019-12-31T17:15:55Z</time>
      </trkpt>
      <trkpt lat="46.75741" lon="-2.0246">
        <ele>5</ele>
        <time>2019-12-31T17:15:56Z</time>
      </trkpt>
      <trkpt lat="46.7575" lon="-2.02463">
        <ele>5</ele>
        <time>2019-12-31T17:15:57Z</time>
      </trkpt>
      <trkpt lat="46.75775" lon="-2.02468">
        <ele>5</ele>
        <time>2019-12-31T17:16:02Z</time>
      </trkpt>
      <trkpt lat="46.7578" lon="-2.02469">
        <ele>5</ele>
        <time>2019-12-31T17:16:03Z</time>
      </trkpt>
      <trkpt lat="46.75784" lon="-2.0247">
        <ele>5</ele>
        <time>2019-12-31T17:16:04Z</time>
      </trkpt>
      <trkpt lat="46.75788" lon="-2.02472">
        <ele>5</ele>
        <time>2019-12-31T17:16:04Z</time>
      </trkpt>
      <trkpt lat="46.75795" lon="-2.02474">
        <ele>5</ele>
        <time>2019-12-31T17:16:06Z</time>
      </trkpt>
      <trkpt lat="46.75795" lon="-2.02473">
        <ele>5</ele>
        <time>2019-12-31T17:16:06Z</time>
      </trkpt>
      <trkpt lat="46.75796" lon="-2.02473">
        <ele>5</ele>
        <time>2019-12-31T17:16:06Z</time>
      </trkpt>
      <trkpt lat="46.75796" lon="-2.02472">
        <ele>5</ele>
        <time>2019-12-31T17:16:06Z</time>
      </trkpt>
      <trkpt lat="46.75796" lon="-2.02471">
        <ele>5</ele>
        <time>2019-12-31T17:16:06Z</time>
      </trkpt>
      <trkpt lat="46.75797" lon="-2.02471">
        <ele>5</ele>
        <time>2019-12-31T17:16:06Z</time>
      </trkpt>
      <trkpt lat="46.75797" lon="-2.0247">
        <ele>5</ele>
        <time>2019-12-31T17:16:06Z</time>
      </trkpt>
      <trkpt lat="46.75797" lon="-2.02469">
        <ele>5</ele>
        <time>2019-12-31T17:16:07Z</time>
      </trkpt>
      <trkpt lat="46.75798" lon="-2.02469">
        <ele>5</ele>
        <time>2019-12-31T17:16:07Z</time>
      </trkpt>
      <trkpt lat="46.75799" lon="-2.02469">
        <ele>5</ele>
        <time>2019-12-31T17:16:07Z</time>
      </trkpt>
      <trkpt lat="46.75799" lon="-2.02468">
        <ele>5</ele>
        <time>2019-12-31T17:16:07Z</time>
      </trkpt>
      <trkpt lat="46.758" lon="-2.02468">
        <ele>5</ele>
        <time>2019-12-31T17:16:07Z</time>
      </trkpt>
      <trkpt lat="46.75801" lon="-2.02468">
        <ele>5</ele>
        <time>2019-12-31T17:16:07Z</time>
      </trkpt>
      <trkpt lat="46.75802" lon="-2.02468">
        <ele>5</ele>
        <time>2019-12-31T17:16:08Z</time>
      </trkpt>
      <trkpt lat="46.75802" lon="-2.02469">
        <ele>5</ele>
        <time>2019-12-31T17:16:08Z</time>
      </trkpt>
      <trkpt lat="46.75803" lon="-2.02469">
        <ele>6</ele>
        <time>2019-12-31T17:16:08Z</time>
      </trkpt>
      <trkpt lat="46.75804" lon="-2.0247">
        <ele>6</ele>
        <time>2019-12-31T17:16:08Z</time>
      </trkpt>
      <trkpt lat="46.75804" lon="-2.02471">
        <ele>6</ele>
        <time>2019-12-31T17:16:08Z</time>
      </trkpt>
      <trkpt lat="46.75805" lon="-2.02471">
        <ele>6</ele>
        <time>2019-12-31T17:16:08Z</time>
      </trkpt>
      <trkpt lat="46.75805" lon="-2.02472">
        <ele>6</ele>
        <time>2019-12-31T17:16:09Z</time>
      </trkpt>
      <trkpt lat="46.75805" lon="-2.02473">
        <ele>6</ele>
        <time>2019-12-31T17:16:09Z</time>
      </trkpt>
      <trkpt lat="46.75805" lon="-2.02474">
        <ele>6</ele>
        <time>2019-12-31T17:16:09Z</time>
      </trkpt>
      <trkpt lat="46.75806" lon="-2.02474">
        <ele>6</ele>
        <time>2019-12-31T17:16:09Z</time>
      </trkpt>
      <trkpt lat="46.75806" lon="-2.02475">
        <ele>6</ele>
        <time>2019-12-31T17:16:09Z</time>
      </trkpt>
      <trkpt lat="46.75816" lon="-2.02473">
        <ele>6</ele>
        <time>2019-12-31T17:16:11Z</time>
      </trkpt>
      <trkpt lat="46.75821" lon="-2.02474">
        <ele>6</ele>
        <time>2019-12-31T17:16:12Z</time>
      </trkpt>
      <trkpt lat="46.75847" lon="-2.02478">
        <ele>6</ele>
        <time>2019-12-31T17:16:16Z</time>
      </trkpt>
      <trkpt lat="46.75865" lon="-2.02483">
        <ele>6</ele>
        <time>2019-12-31T17:16:20Z</time>
      </trkpt>
      <trkpt lat="46.75884" lon="-2.0249">
        <ele>6</ele>
        <time>2019-12-31T17:16:23Z</time>
      </trkpt>
      <trkpt lat="46.75887" lon="-2.0249">
        <ele>6</ele>
        <time>2019-12-31T17:16:24Z</time>
      </trkpt>
      <trkpt lat="46.75893" lon="-2.02493">
        <ele>6</ele>
        <time>2019-12-31T17:16:25Z</time>
      </trkpt>
      <trkpt lat="46.75907" lon="-2.02498">
        <ele>6</ele>
        <time>2019-12-31T17:16:27Z</time>
      </trkpt>
      <trkpt lat="46.75922" lon="-2.02504">
        <ele>6</ele>
        <time>2019-12-31T17:16:30Z</time>
      </trkpt>
      <trkpt lat="46.75924" lon="-2.02505">
        <ele>6</ele>
        <time>2019-12-31T17:16:31Z</time>
      </trkpt>
      <trkpt lat="46.75937" lon="-2.02514">
        <ele>6</ele>
        <time>2019-12-31T17:16:33Z</time>
      </trkpt>
      <trkpt lat="46.75953" lon="-2.02526">
        <ele>6</ele>
        <time>2019-12-31T17:16:36Z</time>
      </trkpt>
      <trkpt lat="46.75958" lon="-2.02529">
        <ele>6</ele>
        <time>2019-12-31T17:16:37Z</time>
      </trkpt>
      <trkpt lat="46.7597" lon="-2.02541">
        <ele>6</ele>
        <time>2019-12-31T17:16:40Z</time>
      </trkpt>
      <trkpt lat="46.75972" lon="-2.02545">
        <ele>6</ele>
        <time>2019-12-31T17:16:40Z</time>
      </trkpt>
      <trkpt lat="46.75973" lon="-2.02544">
        <ele>6</ele>
        <time>2019-12-31T17:16:41Z</time>
      </trkpt>
      <trkpt lat="46.75974" lon="-2.02543">
        <ele>6</ele>
        <time>2019-12-31T17:16:41Z</time>
      </trkpt>
      <trkpt lat="46.75975" lon="-2.02542">
        <ele>6</ele>
        <time>2019-12-31T17:16:41Z</time>
      </trkpt>
      <trkpt lat="46.75977" lon="-2.02542">
        <ele>6</ele>
        <time>2019-12-31T17:16:41Z</time>
      </trkpt>
      <trkpt lat="46.75978" lon="-2.02542">
        <ele>6</ele>
        <time>2019-12-31T17:16:42Z</time>
      </trkpt>
      <trkpt lat="46.75979" lon="-2.02542">
        <ele>6</ele>
        <time>2019-12-31T17:16:42Z</time>
      </trkpt>
      <trkpt lat="46.7598" lon="-2.02543">
        <ele>6</ele>
        <time>2019-12-31T17:16:42Z</time>
      </trkpt>
      <trkpt lat="46.75981" lon="-2.02545">
        <ele>6</ele>
        <time>2019-12-31T17:16:42Z</time>
      </trkpt>
      <trkpt lat="46.75982" lon="-2.02546">
        <ele>6</ele>
        <time>2019-12-31T17:16:43Z</time>
      </trkpt>
      <trkpt lat="46.75982" lon="-2.02547">
        <ele>6</ele>
        <time>2019-12-31T17:16:43Z</time>
      </trkpt>
      <trkpt lat="46.75983" lon="-2.02549">
        <ele>6</ele>
        <time>2019-12-31T17:16:43Z</time>
      </trkpt>
      <trkpt lat="46.75983" lon="-2.0255">
        <ele>6</ele>
        <time>2019-12-31T17:16:43Z</time>
      </trkpt>
      <trkpt lat="46.75983" lon="-2.02553">
        <ele>6</ele>
        <time>2019-12-31T17:16:43Z</time>
      </trkpt>
      <trkpt lat="46.75982" lon="-2.02555">
        <ele>6</ele>
        <time>2019-12-31T17:16:44Z</time>
      </trkpt>
      <trkpt lat="46.75982" lon="-2.02556">
        <ele>6</ele>
        <time>2019-12-31T17:16:44Z</time>
      </trkpt>
      <trkpt lat="46.75985" lon="-2.0256">
        <ele>6</ele>
        <time>2019-12-31T17:16:45Z</time>
      </trkpt>
      <trkpt lat="46.76004" lon="-2.02584">
        <ele>6</ele>
        <time>2019-12-31T17:16:49Z</time>
      </trkpt>
      <trkpt lat="46.76015" lon="-2.02602">
        <ele>6</ele>
        <time>2019-12-31T17:16:52Z</time>
      </trkpt>
      <trkpt lat="46.76035" lon="-2.02631">
        <ele>6</ele>
        <time>2019-12-31T17:16:57Z</time>
      </trkpt>
      <trkpt lat="46.76045" lon="-2.02644">
        <ele>7</ele>
        <time>2019-12-31T17:16:59Z</time>
      </trkpt>
      <trkpt lat="46.76049" lon="-2.02649">
        <ele>7</ele>
        <time>2019-12-31T17:17:00Z</time>
      </trkpt>
      <trkpt lat="46.76054" lon="-2.02655">
        <ele>7</ele>
        <time>2019-12-31T17:17:02Z</time>
      </trkpt>
      <trkpt lat="46.76064" lon="-2.02665">
        <ele>7</ele>
        <time>2019-12-31T17:17:04Z</time>
      </trkpt>
      <trkpt lat="46.76072" lon="-2.02672">
        <ele>7</ele>
        <time>2019-12-31T17:17:05Z</time>
      </trkpt>
      <trkpt lat="46.7608" lon="-2.02679">
        <ele>8</ele>
        <time>2019-12-31T17:17:07Z</time>
      </trkpt>
      <trkpt lat="46.76087" lon="-2.02684">
        <ele>8</ele>
        <time>2019-12-31T17:17:08Z</time>
      </trkpt>
      <trkpt lat="46.76094" lon="-2.0269">
        <ele>8</ele>
        <time>2019-12-31T17:17:10Z</time>
      </trkpt>
      <trkpt lat="46.76103" lon="-2.02696">
        <ele>8</ele>
        <time>2019-12-31T17:17:12Z</time>
      </trkpt>
      <trkpt lat="46.76115" lon="-2.02706">
        <ele>9</ele>
        <time>2019-12-31T17:17:14Z</time>
      </trkpt>
      <trkpt lat="46.76142" lon="-2.02727">
        <ele>10</ele>
        <time>2019-12-31T17:17:19Z</time>
      </trkpt>
      <trkpt lat="46.76152" lon="-2.02735">
        <ele>10</ele>
        <time>2019-12-31T17:17:22Z</time>
      </trkpt>
      <trkpt lat="46.76153" lon="-2.02736">
        <ele>10</ele>
        <time>2019-12-31T17:17:22Z</time>
      </trkpt>
      <trkpt lat="46.76193" lon="-2.02769">
        <ele>9</ele>
        <time>2019-12-31T17:17:30Z</time>
      </trkpt>
      <trkpt lat="46.7621" lon="-2.02785">
        <ele>8</ele>
        <time>2019-12-31T17:17:34Z</time>
      </trkpt>
      <trkpt lat="46.76226" lon="-2.02802">
        <ele>8</ele>
        <time>2019-12-31T17:17:37Z</time>
      </trkpt>
      <trkpt lat="46.76248" lon="-2.02831">
        <ele>7</ele>
        <time>2019-12-31T17:17:42Z</time>
      </trkpt>
      <trkpt lat="46.76249" lon="-2.02833">
        <ele>7</ele>
        <time>2019-12-31T17:17:43Z</time>
      </trkpt>
      <trkpt lat="46.76263" lon="-2.02847">
        <ele>8</ele>
        <time>2019-12-31T17:17:46Z</time>
      </trkpt>
      <trkpt lat="46.7627" lon="-2.02853">
        <ele>8</ele>
        <time>2019-12-31T17:17:47Z</time>
      </trkpt>
      <trkpt lat="46.7628" lon="-2.0286">
        <ele>8</ele>
        <time>2019-12-31T17:17:49Z</time>
      </trkpt>
      <trkpt lat="46.76289" lon="-2.02868">
        <ele>8</ele>
        <time>2019-12-31T17:17:51Z</time>
      </trkpt>
      <trkpt lat="46.76295" lon="-2.02871">
        <ele>8</ele>
        <time>2019-12-31T17:17:52Z</time>
      </trkpt>
      <trkpt lat="46.76302" lon="-2.02876">
        <ele>8</ele>
        <time>2019-12-31T17:17:53Z</time>
      </trkpt>
      <trkpt lat="46.76311" lon="-2.02881">
        <ele>8</ele>
        <time>2019-12-31T17:17:55Z</time>
      </trkpt>
      <trkpt lat="46.7632" lon="-2.02886">
        <ele>8</ele>
        <time>2019-12-31T17:17:57Z</time>
      </trkpt>
      <trkpt lat="46.76325" lon="-2.0289">
        <ele>8</ele>
        <time>2019-12-31T17:17:58Z</time>
      </trkpt>
      <trkpt lat="46.76333" lon="-2.02896">
        <ele>9</ele>
        <time>2019-12-31T17:17:59Z</time>
      </trkpt>
      <trkpt lat="46.76339" lon="-2.02903">
        <ele>9</ele>
        <time>2019-12-31T17:18:01Z</time>
      </trkpt>
      <trkpt lat="46.76345" lon="-2.02911">
        <ele>9</ele>
        <time>2019-12-31T17:18:02Z</time>
      </trkpt>
      <trkpt lat="46.7635" lon="-2.0292">
        <ele>9</ele>
        <time>2019-12-31T17:18:04Z</time>
      </trkpt>
      <trkpt lat="46.76354" lon="-2.02927">
        <ele>9</ele>
        <time>2019-12-31T17:18:05Z</time>
      </trkpt>
      <trkpt lat="46.76357" lon="-2.02936">
        <ele>9</ele>
        <time>2019-12-31T17:18:06Z</time>
      </trkpt>
      <trkpt lat="46.76363" lon="-2.0295">
        <ele>9</ele>
        <time>2019-12-31T17:18:08Z</time>
      </trkpt>
      <trkpt lat="46.76367" lon="-2.02964">
        <ele>9</ele>
        <time>2019-12-31T17:18:10Z</time>
      </trkpt>
      <trkpt lat="46.76369" lon="-2.02974">
        <ele>9</ele>
        <time>2019-12-31T17:18:11Z</time>
      </trkpt>
      <trkpt lat="46.76371" lon="-2.02981">
        <ele>9</ele>
        <time>2019-12-31T17:18:12Z</time>
      </trkpt>
      <trkpt lat="46.76372" lon="-2.02988">
        <ele>9</ele>
        <time>2019-12-31T17:18:13Z</time>
      </trkpt>
      <trkpt lat="46.76374" lon="-2.02995">
        <ele>9</ele>
        <time>2019-12-31T17:18:14Z</time>
      </trkpt>
      <trkpt lat="46.76374" lon="-2.02998">
        <ele>9</ele>
        <time>2019-12-31T17:18:14Z</time>
      </trkpt>
      <trkpt lat="46.76375" lon="-2.03002">
        <ele>8</ele>
        <time>2019-12-31T17:18:15Z</time>
      </trkpt>
      <trkpt lat="46.76375" lon="-2.03006">
        <ele>8</ele>
        <time>2019-12-31T17:18:15Z</time>
      </trkpt>
      <trkpt lat="46.76376" lon="-2.03017">
        <ele>8</ele>
        <time>2019-12-31T17:18:17Z</time>
      </trkpt>
      <trkpt lat="46.76377" lon="-2.03027">
        <ele>8</ele>
        <time>2019-12-31T17:18:18Z</time>
      </trkpt>
      <trkpt lat="46.76378" lon="-2.03049">
        <ele>8</ele>
        <time>2019-12-31T17:18:21Z</time>
      </trkpt>
      <trkpt lat="46.76378" lon="-2.03065">
        <ele>8</ele>
        <time>2019-12-31T17:18:22Z</time>
      </trkpt>
      <trkpt lat="46.76378" lon="-2.03082">
        <ele>8</ele>
        <time>2019-12-31T17:18:25Z</time>
      </trkpt>
      <trkpt lat="46.76379" lon="-2.0309">
        <ele>8</ele>
        <time>2019-12-31T17:18:26Z</time>
      </trkpt>
      <trkpt lat="46.76379" lon="-2.03097">
        <ele>8</ele>
        <time>2019-12-31T17:18:26Z</time>
      </trkpt>
      <trkpt lat="46.7638" lon="-2.03102">
        <ele>8</ele>
        <time>2019-12-31T17:18:27Z</time>
      </trkpt>
      <trkpt lat="46.76381" lon="-2.03108">
        <ele>8</ele>
        <time>2019-12-31T17:18:28Z</time>
      </trkpt>
      <trkpt lat="46.76382" lon="-2.03114">
        <ele>8</ele>
        <time>2019-12-31T17:18:29Z</time>
      </trkpt>
      <trkpt lat="46.76383" lon="-2.03123">
        <ele>8</ele>
        <time>2019-12-31T17:18:30Z</time>
      </trkpt>
      <trkpt lat="46.76385" lon="-2.03132">
        <ele>8</ele>
        <time>2019-12-31T17:18:31Z</time>
      </trkpt>
      <trkpt lat="46.76388" lon="-2.03139">
        <ele>8</ele>
        <time>2019-12-31T17:18:32Z</time>
      </trkpt>
      <trkpt lat="46.7639" lon="-2.03145">
        <ele>8</ele>
        <time>2019-12-31T17:18:33Z</time>
      </trkpt>
      <trkpt lat="46.76393" lon="-2.03152">
        <ele>8</ele>
        <time>2019-12-31T17:18:34Z</time>
      </trkpt>
      <trkpt lat="46.76417" lon="-2.03201">
        <ele>8</ele>
        <time>2019-12-31T17:18:41Z</time>
      </trkpt>
      <trkpt lat="46.76443" lon="-2.03252">
        <ele>8</ele>
        <time>2019-12-31T17:18:49Z</time>
      </trkpt>
      <trkpt lat="46.76444" lon="-2.03253">
        <ele>8</ele>
        <time>2019-12-31T17:18:49Z</time>
      </trkpt>
      <trkpt lat="46.76463" lon="-2.0329">
        <ele>7</ele>
        <time>2019-12-31T17:18:55Z</time>
      </trkpt>
      <trkpt lat="46.76476" lon="-2.03317">
        <ele>7</ele>
        <time>2019-12-31T17:18:59Z</time>
      </trkpt>
      <trkpt lat="46.76479" lon="-2.03323">
        <ele>6</ele>
        <time>2019-12-31T17:18:59Z</time>
      </trkpt>
      <trkpt lat="46.76481" lon="-2.03332">
        <ele>6</ele>
        <time>2019-12-31T17:19:01Z</time>
      </trkpt>
      <trkpt lat="46.76488" lon="-2.03352">
        <ele>7</ele>
        <time>2019-12-31T17:19:03Z</time>
      </trkpt>
      <trkpt lat="46.76491" lon="-2.03363">
        <ele>7</ele>
        <time>2019-12-31T17:19:05Z</time>
      </trkpt>
      <trkpt lat="46.765" lon="-2.03393">
        <ele>7</ele>
        <time>2019-12-31T17:19:09Z</time>
      </trkpt>
      <trkpt lat="46.76501" lon="-2.03396">
        <ele>8</ele>
        <time>2019-12-31T17:19:09Z</time>
      </trkpt>
      <trkpt lat="46.76504" lon="-2.03405">
        <ele>8</ele>
        <time>2019-12-31T17:19:10Z</time>
      </trkpt>
      <trkpt lat="46.76511" lon="-2.03423">
        <ele>8</ele>
        <time>2019-12-31T17:19:13Z</time>
      </trkpt>
      <trkpt lat="46.76518" lon="-2.0344">
        <ele>8</ele>
        <time>2019-12-31T17:19:15Z</time>
      </trkpt>
      <trkpt lat="46.76528" lon="-2.0346">
        <ele>9</ele>
        <time>2019-12-31T17:19:18Z</time>
      </trkpt>
      <trkpt lat="46.76542" lon="-2.03482">
        <ele>9</ele>
        <time>2019-12-31T17:19:22Z</time>
      </trkpt>
      <trkpt lat="46.76555" lon="-2.03501">
        <ele>9</ele>
        <time>2019-12-31T17:19:25Z</time>
      </trkpt>
      <trkpt lat="46.76555" lon="-2.03501">
        <ele>9</ele>
        <time>2019-12-31T17:19:25Z</time>
      </trkpt>
      <trkpt lat="46.76566" lon="-2.03511">
        <ele>9</ele>
        <time>2019-12-31T17:19:28Z</time>
      </trkpt>
      <trkpt lat="46.76569" lon="-2.03526">
        <ele>10</ele>
        <time>2019-12-31T17:19:30Z</time>
      </trkpt>
      <trkpt lat="46.76569" lon="-2.03528">
        <ele>10</ele>
        <time>2019-12-31T17:19:30Z</time>
      </trkpt>
      <trkpt lat="46.76576" lon="-2.03554">
        <ele>10</ele>
        <time>2019-12-31T17:19:33Z</time>
      </trkpt>
      <trkpt lat="46.76575" lon="-2.03559">
        <ele>10</ele>
        <time>2019-12-31T17:19:34Z</time>
      </trkpt>
      <trkpt lat="46.76588" lon="-2.03603">
        <ele>11</ele>
        <time>2019-12-31T17:19:40Z</time>
      </trkpt>
      <trkpt lat="46.76596" lon="-2.03635">
        <ele>12</ele>
        <time>2019-12-31T17:19:44Z</time>
      </trkpt>
      <trkpt lat="46.76604" lon="-2.03666">
        <ele>13</ele>
        <time>2019-12-31T17:19:48Z</time>
      </trkpt>
      <trkpt lat="46.76609" lon="-2.03696">
        <ele>13</ele>
        <time>2019-12-31T17:19:52Z</time>
      </trkpt>
      <trkpt lat="46.76613" lon="-2.03723">
        <ele>13</ele>
        <time>2019-12-31T17:19:55Z</time>
      </trkpt>
      <trkpt lat="46.76616" lon="-2.03767">
        <ele>12</ele>
        <time>2019-12-31T17:20:00Z</time>
      </trkpt>
      <trkpt lat="46.76617" lon="-2.03808">
        <ele>11</ele>
        <time>2019-12-31T17:20:05Z</time>
      </trkpt>
      <trkpt lat="46.76618" lon="-2.03859">
        <ele>9</ele>
        <time>2019-12-31T17:20:12Z</time>
      </trkpt>
      <trkpt lat="46.76619" lon="-2.03884">
        <ele>8</ele>
        <time>2019-12-31T17:20:15Z</time>
      </trkpt>
      <trkpt lat="46.76622" lon="-2.03922">
        <ele>7</ele>
        <time>2019-12-31T17:20:19Z</time>
      </trkpt>
      <trkpt lat="46.76625" lon="-2.03949">
        <ele>7</ele>
        <time>2019-12-31T17:20:23Z</time>
      </trkpt>
      <trkpt lat="46.76629" lon="-2.03967">
        <ele>6</ele>
        <time>2019-12-31T17:20:25Z</time>
      </trkpt>
      <trkpt lat="46.76633" lon="-2.03981">
        <ele>6</ele>
        <time>2019-12-31T17:20:27Z</time>
      </trkpt>
      <trkpt lat="46.76634" lon="-2.03987">
        <ele>6</ele>
        <time>2019-12-31T17:20:28Z</time>
      </trkpt>
      <trkpt lat="46.76642" lon="-2.04007">
        <ele>6</ele>
        <time>2019-12-31T17:20:30Z</time>
      </trkpt>
      <trkpt lat="46.76655" lon="-2.04042">
        <ele>5</ele>
        <time>2019-12-31T17:20:35Z</time>
      </trkpt>
      <trkpt lat="46.76682" lon="-2.04112">
        <ele>5</ele>
        <time>2019-12-31T17:20:45Z</time>
      </trkpt>
      <trkpt lat="46.76705" lon="-2.04172">
        <ele>4</ele>
        <time>2019-12-31T17:20:53Z</time>
      </trkpt>
      <trkpt lat="46.76713" lon="-2.04193">
        <ele>3</ele>
        <time>2019-12-31T17:20:56Z</time>
      </trkpt>
      <trkpt lat="46.76729" lon="-2.04227">
        <ele>3</ele>
        <time>2019-12-31T17:21:01Z</time>
      </trkpt>
      <trkpt lat="46.76743" lon="-2.04247">
        <ele>3</ele>
        <time>2019-12-31T17:21:05Z</time>
      </trkpt>
      <trkpt lat="46.76746" lon="-2.04252">
        <ele>3</ele>
        <time>2019-12-31T17:21:06Z</time>
      </trkpt>
      <trkpt lat="46.76758" lon="-2.04267">
        <ele>3</ele>
        <time>2019-12-31T17:21:08Z</time>
      </trkpt>
      <trkpt lat="46.76773" lon="-2.04285">
        <ele>3</ele>
        <time>2019-12-31T17:21:12Z</time>
      </trkpt>
      <trkpt lat="46.76794" lon="-2.04306">
        <ele>2</ele>
        <time>2019-12-31T17:21:16Z</time>
      </trkpt>
      <trkpt lat="46.76819" lon="-2.0433">
        <ele>2</ele>
        <time>2019-12-31T17:21:22Z</time>
      </trkpt>
      <trkpt lat="46.76826" lon="-2.04336">
        <ele>2</ele>
        <time>2019-12-31T17:21:23Z</time>
      </trkpt>
      <trkpt lat="46.7686" lon="-2.04368">
        <ele>3</ele>
        <time>2019-12-31T17:21:30Z</time>
      </trkpt>
      <trkpt lat="46.7687" lon="-2.04378">
        <ele>3</ele>
        <time>2019-12-31T17:21:33Z</time>
      </trkpt>
      <trkpt lat="46.76884" lon="-2.04394">
        <ele>3</ele>
        <time>2019-12-31T17:21:36Z</time>
      </trkpt>
      <trkpt lat="46.76892" lon="-2.04404">
        <ele>3</ele>
        <time>2019-12-31T17:21:38Z</time>
      </trkpt>
      <trkpt lat="46.76911" lon="-2.04432">
        <ele>3</ele>
        <time>2019-12-31T17:21:42Z</time>
      </trkpt>
      <trkpt lat="46.76944" lon="-2.04482">
        <ele>4</ele>
        <time>2019-12-31T17:21:51Z</time>
      </trkpt>
      <trkpt lat="46.76982" lon="-2.04541">
        <ele>4</ele>
        <time>2019-12-31T17:22:01Z</time>
      </trkpt>
      <trkpt lat="46.77025" lon="-2.04607">
        <ele>3</ele>
        <time>2019-12-31T17:22:12Z</time>
      </trkpt>
      <trkpt lat="46.7704" lon="-2.04635">
        <ele>3</ele>
        <time>2019-12-31T17:22:16Z</time>
      </trkpt>
      <trkpt lat="46.77046" lon="-2.04646">
        <ele>3</ele>
        <time>2019-12-31T17:22:18Z</time>
      </trkpt>
      <trkpt lat="46.77052" lon="-2.0466">
        <ele>3</ele>
        <time>2019-12-31T17:22:20Z</time>
      </trkpt>
      <trkpt lat="46.77058" lon="-2.04675">
        <ele>1</ele>
        <time>2019-12-31T17:22:22Z</time>
      </trkpt>
      <trkpt lat="46.77078" lon="-2.04728">
        <ele>1</ele>
        <time>2019-12-31T17:22:29Z</time>
      </trkpt>
      <trkpt lat="46.771" lon="-2.04786">
        <ele>3</ele>
        <time>2019-12-31T17:22:37Z</time>
      </trkpt>
      <trkpt lat="46.77114" lon="-2.04822">
        <ele>3</ele>
        <time>2019-12-31T17:22:43Z</time>
      </trkpt>
      <trkpt lat="46.77122" lon="-2.04838">
        <ele>4</ele>
        <time>2019-12-31T17:22:45Z</time>
      </trkpt>
      <trkpt lat="46.77126" lon="-2.04843">
        <ele>3</ele>
        <time>2019-12-31T17:22:46Z</time>
      </trkpt>
      <trkpt lat="46.77136" lon="-2.04851">
        <ele>3</ele>
        <time>2019-12-31T17:22:48Z</time>
      </trkpt>
      <trkpt lat="46.77143" lon="-2.04856">
        <ele>3</ele>
        <time>2019-12-31T17:22:49Z</time>
      </trkpt>
      <trkpt lat="46.77154" lon="-2.0486">
        <ele>3</ele>
        <time>2019-12-31T17:22:51Z</time>
      </trkpt>
      <trkpt lat="46.77154" lon="-2.0486">
        <ele>3</ele>
        <time>2019-12-31T17:22:51Z</time>
      </trkpt>
      <trkpt lat="46.77156" lon="-2.04858">
        <ele>3</ele>
        <time>2019-12-31T17:22:52Z</time>
      </trkpt>
      <trkpt lat="46.77158" lon="-2.04857">
        <ele>3</ele>
        <time>2019-12-31T17:22:52Z</time>
      </trkpt>
      <trkpt lat="46.7716" lon="-2.04857">
        <ele>3</ele>
        <time>2019-12-31T17:22:52Z</time>
      </trkpt>
      <trkpt lat="46.77163" lon="-2.04857">
        <ele>3</ele>
        <time>2019-12-31T17:22:53Z</time>
      </trkpt>
      <trkpt lat="46.77165" lon="-2.04857">
        <ele>3</ele>
        <time>2019-12-31T17:22:53Z</time>
      </trkpt>
      <trkpt lat="46.77167" lon="-2.04857">
        <ele>3</ele>
        <time>2019-12-31T17:22:54Z</time>
      </trkpt>
      <trkpt lat="46.77169" lon="-2.04858">
        <ele>3</ele>
        <time>2019-12-31T17:22:54Z</time>
      </trkpt>
      <trkpt lat="46.77171" lon="-2.04859">
        <ele>3</ele>
        <time>2019-12-31T17:22:54Z</time>
      </trkpt>
      <trkpt lat="46.77173" lon="-2.0486">
        <ele>3</ele>
        <time>2019-12-31T17:22:55Z</time>
      </trkpt>
      <trkpt lat="46.77175" lon="-2.04862">
        <ele>3</ele>
        <time>2019-12-31T17:22:55Z</time>
      </trkpt>
      <trkpt lat="46.77177" lon="-2.04864">
        <ele>3</ele>
        <time>2019-12-31T17:22:56Z</time>
      </trkpt>
      <trkpt lat="46.77178" lon="-2.04866">
        <ele>3</ele>
        <time>2019-12-31T17:22:56Z</time>
      </trkpt>
      <trkpt lat="46.7718" lon="-2.04868">
        <ele>3</ele>
        <time>2019-12-31T17:22:56Z</time>
      </trkpt>
      <trkpt lat="46.77181" lon="-2.04871">
        <ele>3</ele>
        <time>2019-12-31T17:22:57Z</time>
      </trkpt>
      <trkpt lat="46.77182" lon="-2.04874">
        <ele>3</ele>
        <time>2019-12-31T17:22:57Z</time>
      </trkpt>
      <trkpt lat="46.77183" lon="-2.04877">
        <ele>3</ele>
        <time>2019-12-31T17:22:58Z</time>
      </trkpt>
      <trkpt lat="46.77183" lon="-2.0488">
        <ele>3</ele>
        <time>2019-12-31T17:22:58Z</time>
      </trkpt>
      <trkpt lat="46.77184" lon="-2.04883">
        <ele>3</ele>
        <time>2019-12-31T17:22:58Z</time>
      </trkpt>
      <trkpt lat="46.77184" lon="-2.04886">
        <ele>3</ele>
        <time>2019-12-31T17:22:59Z</time>
      </trkpt>
      <trkpt lat="46.77184" lon="-2.04889">
        <ele>3</ele>
        <time>2019-12-31T17:22:59Z</time>
      </trkpt>
      <trkpt lat="46.77184" lon="-2.04892">
        <ele>3</ele>
        <time>2019-12-31T17:23:00Z</time>
      </trkpt>
      <trkpt lat="46.77183" lon="-2.04898">
        <ele>3</ele>
        <time>2019-12-31T17:23:00Z</time>
      </trkpt>
      <trkpt lat="46.77182" lon="-2.04899">
        <ele>3</ele>
        <time>2019-12-31T17:23:00Z</time>
      </trkpt>
      <trkpt lat="46.77181" lon="-2.04901">
        <ele>3</ele>
        <time>2019-12-31T17:23:01Z</time>
      </trkpt>
      <trkpt lat="46.77181" lon="-2.04903">
        <ele>3</ele>
        <time>2019-12-31T17:23:01Z</time>
      </trkpt>
      <trkpt lat="46.7718" lon="-2.04904">
        <ele>3</ele>
        <time>2019-12-31T17:23:01Z</time>
      </trkpt>
      <trkpt lat="46.77179" lon="-2.04905">
        <ele>3</ele>
        <time>2019-12-31T17:23:01Z</time>
      </trkpt>
      <trkpt lat="46.77179" lon="-2.04907">
        <ele>3</ele>
        <time>2019-12-31T17:23:02Z</time>
      </trkpt>
      <trkpt lat="46.77178" lon="-2.04908">
        <ele>3</ele>
        <time>2019-12-31T17:23:02Z</time>
      </trkpt>
      <trkpt lat="46.77177" lon="-2.0491">
        <ele>3</ele>
        <time>2019-12-31T17:23:02Z</time>
      </trkpt>
      <trkpt lat="46.77176" lon="-2.04911">
        <ele>3</ele>
        <time>2019-12-31T17:23:02Z</time>
      </trkpt>
      <trkpt lat="46.77176" lon="-2.04912">
        <ele>3</ele>
        <time>2019-12-31T17:23:03Z</time>
      </trkpt>
      <trkpt lat="46.77175" lon="-2.04912">
        <ele>3</ele>
        <time>2019-12-31T17:23:03Z</time>
      </trkpt>
      <trkpt lat="46.77175" lon="-2.04913">
        <ele>3</ele>
        <time>2019-12-31T17:23:03Z</time>
      </trkpt>
      <trkpt lat="46.77174" lon="-2.04914">
        <ele>3</ele>
        <time>2019-12-31T17:23:03Z</time>
      </trkpt>
      <trkpt lat="46.77173" lon="-2.04915">
        <ele>3</ele>
        <time>2019-12-31T17:23:03Z</time>
      </trkpt>
      <trkpt lat="46.77172" lon="-2.04916">
        <ele>3</ele>
        <time>2019-12-31T17:23:04Z</time>
      </trkpt>
      <trkpt lat="46.77171" lon="-2.04917">
        <ele>3</ele>
        <time>2019-12-31T17:23:04Z</time>
      </trkpt>
      <trkpt lat="46.7717" lon="-2.04918">
        <ele>3</ele>
        <time>2019-12-31T17:23:04Z</time>
      </trkpt>
      <trkpt lat="46.77169" lon="-2.04918">
        <ele>3</ele>
        <time>2019-12-31T17:23:04Z</time>
      </trkpt>
      <trkpt lat="46.77168" lon="-2.04919">
        <ele>3</ele>
        <time>2019-12-31T17:23:04Z</time>
      </trkpt>
      <trkpt lat="46.77167" lon="-2.04919">
        <ele>3</ele>
        <time>2019-12-31T17:23:05Z</time>
      </trkpt>
      <trkpt lat="46.77165" lon="-2.04926">
        <ele>3</ele>
        <time>2019-12-31T17:23:05Z</time>
      </trkpt>
      <trkpt lat="46.77162" lon="-2.04935">
        <ele>3</ele>
        <time>2019-12-31T17:23:07Z</time>
      </trkpt>
      <trkpt lat="46.77158" lon="-2.04942">
        <ele>4</ele>
        <time>2019-12-31T17:23:08Z</time>
      </trkpt>
      <trkpt lat="46.77156" lon="-2.04949">
        <ele>4</ele>
        <time>2019-12-31T17:23:09Z</time>
      </trkpt>
      <trkpt lat="46.77151" lon="-2.0496">
        <ele>4</ele>
        <time>2019-12-31T17:23:10Z</time>
      </trkpt>
      <trkpt lat="46.7715" lon="-2.0496">
        <ele>4</ele>
        <time>2019-12-31T17:23:10Z</time>
      </trkpt>
      <trkpt lat="46.77145" lon="-2.04979">
        <ele>4</ele>
        <time>2019-12-31T17:23:13Z</time>
      </trkpt>
      <trkpt lat="46.7714" lon="-2.04997">
        <ele>4</ele>
        <time>2019-12-31T17:23:15Z</time>
      </trkpt>
      <trkpt lat="46.77137" lon="-2.05011">
        <ele>5</ele>
        <time>2019-12-31T17:23:17Z</time>
      </trkpt>
      <trkpt lat="46.77133" lon="-2.05024">
        <ele>5</ele>
        <time>2019-12-31T17:23:19Z</time>
      </trkpt>
      <trkpt lat="46.77129" lon="-2.05033">
        <ele>5</ele>
        <time>2019-12-31T17:23:20Z</time>
      </trkpt>
      <trkpt lat="46.77126" lon="-2.05044">
        <ele>5</ele>
        <time>2019-12-31T17:23:22Z</time>
      </trkpt>
      <trkpt lat="46.77116" lon="-2.05066">
        <ele>6</ele>
        <time>2019-12-31T17:23:25Z</time>
      </trkpt>
      <trkpt lat="46.77108" lon="-2.05085">
        <ele>7</ele>
        <time>2019-12-31T17:23:28Z</time>
      </trkpt>
      <trkpt lat="46.77099" lon="-2.05109">
        <ele>7</ele>
        <time>2019-12-31T17:23:31Z</time>
      </trkpt>
      <trkpt lat="46.77094" lon="-2.05121">
        <ele>8</ele>
        <time>2019-12-31T17:23:33Z</time>
      </trkpt>
      <trkpt lat="46.77093" lon="-2.05124">
        <ele>8</ele>
        <time>2019-12-31T17:23:33Z</time>
      </trkpt>
      <trkpt lat="46.77087" lon="-2.05153">
        <ele>9</ele>
        <time>2019-12-31T17:23:37Z</time>
      </trkpt>
      <trkpt lat="46.77087" lon="-2.05153">
        <ele>9</ele>
        <time>2019-12-31T17:23:37Z</time>
      </trkpt>
      <trkpt lat="46.77088" lon="-2.05154">
        <ele>9</ele>
        <time>2019-12-31T17:23:37Z</time>
      </trkpt>
      <trkpt lat="46.77088" lon="-2.05155">
        <ele>9</ele>
        <time>2019-12-31T17:23:37Z</time>
      </trkpt>
      <trkpt lat="46.77088" lon="-2.05156">
        <ele>9</ele>
        <time>2019-12-31T17:23:37Z</time>
      </trkpt>
      <trkpt lat="46.77089" lon="-2.05156">
        <ele>9</ele>
        <time>2019-12-31T17:23:37Z</time>
      </trkpt>
      <trkpt lat="46.77089" lon="-2.05157">
        <ele>9</ele>
        <time>2019-12-31T17:23:37Z</time>
      </trkpt>
      <trkpt lat="46.77089" lon="-2.05158">
        <ele>9</ele>
        <time>2019-12-31T17:23:38Z</time>
      </trkpt>
      <trkpt lat="46.77089" lon="-2.05159">
        <ele>9</ele>
        <time>2019-12-31T17:23:38Z</time>
      </trkpt>
      <trkpt lat="46.77089" lon="-2.0516">
        <ele>9</ele>
        <time>2019-12-31T17:23:38Z</time>
      </trkpt>
      <trkpt lat="46.77089" lon="-2.05161">
        <ele>9</ele>
        <time>2019-12-31T17:23:38Z</time>
      </trkpt>
      <trkpt lat="46.77089" lon="-2.05162">
        <ele>9</ele>
        <time>2019-12-31T17:23:38Z</time>
      </trkpt>
      <trkpt lat="46.77089" lon="-2.05163">
        <ele>9</ele>
        <time>2019-12-31T17:23:38Z</time>
      </trkpt>
      <trkpt lat="46.77089" lon="-2.05164">
        <ele>9</ele>
        <time>2019-12-31T17:23:38Z</time>
      </trkpt>
      <trkpt lat="46.77089" lon="-2.05165">
        <ele>9</ele>
        <time>2019-12-31T17:23:38Z</time>
      </trkpt>
      <trkpt lat="46.77089" lon="-2.05166">
        <ele>9</ele>
        <time>2019-12-31T17:23:39Z</time>
      </trkpt>
      <trkpt lat="46.77089" lon="-2.05167">
        <ele>9</ele>
        <time>2019-12-31T17:23:39Z</time>
      </trkpt>
      <trkpt lat="46.77089" lon="-2.05168">
        <ele>9</ele>
        <time>2019-12-31T17:23:39Z</time>
      </trkpt>
      <trkpt lat="46.77088" lon="-2.05169">
        <ele>9</ele>
        <time>2019-12-31T17:23:39Z</time>
      </trkpt>
      <trkpt lat="46.77088" lon="-2.0517">
        <ele>9</ele>
        <time>2019-12-31T17:23:39Z</time>
      </trkpt>
      <trkpt lat="46.77087" lon="-2.05171">
        <ele>9</ele>
        <time>2019-12-31T17:23:39Z</time>
      </trkpt>
      <trkpt lat="46.77087" lon="-2.05172">
        <ele>9</ele>
        <time>2019-12-31T17:23:39Z</time>
      </trkpt>
      <trkpt lat="46.77086" lon="-2.05172">
        <ele>9</ele>
        <time>2019-12-31T17:23:40Z</time>
      </trkpt>
      <trkpt lat="46.77086" lon="-2.05173">
        <ele>9</ele>
        <time>2019-12-31T17:23:40Z</time>
      </trkpt>
      <trkpt lat="46.77091" lon="-2.05183">
        <ele>8</ele>
        <time>2019-12-31T17:23:41Z</time>
      </trkpt>
      <trkpt lat="46.77146" lon="-2.05259">
        <ele>7</ele>
        <time>2019-12-31T17:23:55Z</time>
      </trkpt>
      <trkpt lat="46.77147" lon="-2.05259">
        <ele>7</ele>
        <time>2019-12-31T17:23:55Z</time>
      </trkpt>
      <trkpt lat="46.77148" lon="-2.05259">
        <ele>7</ele>
        <time>2019-12-31T17:23:55Z</time>
      </trkpt>
      <trkpt lat="46.77149" lon="-2.0526">
        <ele>7</ele>
        <time>2019-12-31T17:23:55Z</time>
      </trkpt>
      <trkpt lat="46.7715" lon="-2.0526">
        <ele>7</ele>
        <time>2019-12-31T17:23:56Z</time>
      </trkpt>
      <trkpt lat="46.77151" lon="-2.05261">
        <ele>7</ele>
        <time>2019-12-31T17:23:56Z</time>
      </trkpt>
      <trkpt lat="46.77152" lon="-2.05261">
        <ele>7</ele>
        <time>2019-12-31T17:23:56Z</time>
      </trkpt>
      <trkpt lat="46.77152" lon="-2.05262">
        <ele>7</ele>
        <time>2019-12-31T17:23:56Z</time>
      </trkpt>
      <trkpt lat="46.77153" lon="-2.05262">
        <ele>7</ele>
        <time>2019-12-31T17:23:56Z</time>
      </trkpt>
      <trkpt lat="46.77153" lon="-2.05263">
        <ele>7</ele>
        <time>2019-12-31T17:23:56Z</time>
      </trkpt>
      <trkpt lat="46.77154" lon="-2.05264">
        <ele>7</ele>
        <time>2019-12-31T17:23:57Z</time>
      </trkpt>
      <trkpt lat="46.77154" lon="-2.05265">
        <ele>7</ele>
        <time>2019-12-31T17:23:57Z</time>
      </trkpt>
      <trkpt lat="46.77154" lon="-2.05266">
        <ele>7</ele>
        <time>2019-12-31T17:23:57Z</time>
      </trkpt>
      <trkpt lat="46.77155" lon="-2.05267">
        <ele>7</ele>
        <time>2019-12-31T17:23:57Z</time>
      </trkpt>
      <trkpt lat="46.77155" lon="-2.05268">
        <ele>7</ele>
        <time>2019-12-31T17:23:57Z</time>
      </trkpt>
      <trkpt lat="46.77155" lon="-2.05269">
        <ele>7</ele>
        <time>2019-12-31T17:23:57Z</time>
      </trkpt>
      <trkpt lat="46.77155" lon="-2.0527">
        <ele>7</ele>
        <time>2019-12-31T17:23:57Z</time>
      </trkpt>
      <trkpt lat="46.77155" lon="-2.05271">
        <ele>7</ele>
        <time>2019-12-31T17:23:57Z</time>
      </trkpt>
      <trkpt lat="46.77178" lon="-2.053">
        <ele>6</ele>
        <time>2019-12-31T17:24:03Z</time>
      </trkpt>
      <trkpt lat="46.77209" lon="-2.05342">
        <ele>5</ele>
        <time>2019-12-31T17:24:10Z</time>
      </trkpt>
      <trkpt lat="46.77231" lon="-2.05371">
        <ele>6</ele>
        <time>2019-12-31T17:24:16Z</time>
      </trkpt>
      <trkpt lat="46.77249" lon="-2.05396">
        <ele>7</ele>
        <time>2019-12-31T17:24:20Z</time>
      </trkpt>
      <trkpt lat="46.77252" lon="-2.05397">
        <ele>7</ele>
        <time>2019-12-31T17:24:21Z</time>
      </trkpt>
      <trkpt lat="46.77253" lon="-2.05397">
        <ele>7</ele>
        <time>2019-12-31T17:24:21Z</time>
      </trkpt>
      <trkpt lat="46.77253" lon="-2.05398">
        <ele>7</ele>
        <time>2019-12-31T17:24:21Z</time>
      </trkpt>
      <trkpt lat="46.77254" lon="-2.05398">
        <ele>7</ele>
        <time>2019-12-31T17:24:21Z</time>
      </trkpt>
      <trkpt lat="46.77254" lon="-2.05399">
        <ele>7</ele>
        <time>2019-12-31T17:24:21Z</time>
      </trkpt>
      <trkpt lat="46.77255" lon="-2.05399">
        <ele>7</ele>
        <time>2019-12-31T17:24:21Z</time>
      </trkpt>
      <trkpt lat="46.77255" lon="-2.054">
        <ele>7</ele>
        <time>2019-12-31T17:24:22Z</time>
      </trkpt>
      <trkpt lat="46.77256" lon="-2.05401">
        <ele>7</ele>
        <time>2019-12-31T17:24:22Z</time>
      </trkpt>
      <trkpt lat="46.77256" lon="-2.05402">
        <ele>7</ele>
        <time>2019-12-31T17:24:22Z</time>
      </trkpt>
      <trkpt lat="46.77257" lon="-2.05403">
        <ele>7</ele>
        <time>2019-12-31T17:24:22Z</time>
      </trkpt>
      <trkpt lat="46.77257" lon="-2.05404">
        <ele>7</ele>
        <time>2019-12-31T17:24:22Z</time>
      </trkpt>
      <trkpt lat="46.77257" lon="-2.05405">
        <ele>7</ele>
        <time>2019-12-31T17:24:22Z</time>
      </trkpt>
      <trkpt lat="46.77257" lon="-2.05406">
        <ele>7</ele>
        <time>2019-12-31T17:24:22Z</time>
      </trkpt>
      <trkpt lat="46.77257" lon="-2.05407">
        <ele>7</ele>
        <time>2019-12-31T17:24:23Z</time>
      </trkpt>
      <trkpt lat="46.77258" lon="-2.05407">
        <ele>7</ele>
        <time>2019-12-31T17:24:23Z</time>
      </trkpt>
      <trkpt lat="46.77258" lon="-2.05408">
        <ele>7</ele>
        <time>2019-12-31T17:24:23Z</time>
      </trkpt>
      <trkpt lat="46.77258" lon="-2.05409">
        <ele>7</ele>
        <time>2019-12-31T17:24:23Z</time>
      </trkpt>
      <trkpt lat="46.77281" lon="-2.05442">
        <ele>8</ele>
        <time>2019-12-31T17:24:29Z</time>
      </trkpt>
      <trkpt lat="46.77309" lon="-2.05483">
        <ele>10</ele>
        <time>2019-12-31T17:24:36Z</time>
      </trkpt>
      <trkpt lat="46.77309" lon="-2.05483">
        <ele>10</ele>
        <time>2019-12-31T17:24:36Z</time>
      </trkpt>
      <trkpt lat="46.77314" lon="-2.05484">
        <ele>10</ele>
        <time>2019-12-31T17:24:37Z</time>
      </trkpt>
      <trkpt lat="46.77317" lon="-2.05486">
        <ele>11</ele>
        <time>2019-12-31T17:24:37Z</time>
      </trkpt>
      <trkpt lat="46.77319" lon="-2.05489">
        <ele>11</ele>
        <time>2019-12-31T17:24:38Z</time>
      </trkpt>
      <trkpt lat="46.7732" lon="-2.05492">
        <ele>11</ele>
        <time>2019-12-31T17:24:38Z</time>
      </trkpt>
      <trkpt lat="46.7732" lon="-2.05497">
        <ele>11</ele>
        <time>2019-12-31T17:24:39Z</time>
      </trkpt>
      <trkpt lat="46.7732" lon="-2.055">
        <ele>11</ele>
        <time>2019-12-31T17:24:39Z</time>
      </trkpt>
      <trkpt lat="46.77319" lon="-2.05503">
        <ele>11</ele>
        <time>2019-12-31T17:24:40Z</time>
      </trkpt>
      <trkpt lat="46.77319" lon="-2.05504">
        <ele>11</ele>
        <time>2019-12-31T17:24:40Z</time>
      </trkpt>
      <trkpt lat="46.77319" lon="-2.0551">
        <ele>11</ele>
        <time>2019-12-31T17:24:40Z</time>
      </trkpt>
      <trkpt lat="46.77319" lon="-2.05513">
        <ele>10</ele>
        <time>2019-12-31T17:24:41Z</time>
      </trkpt>
      <trkpt lat="46.77319" lon="-2.05519">
        <ele>10</ele>
        <time>2019-12-31T17:24:42Z</time>
      </trkpt>
      <trkpt lat="46.77319" lon="-2.05524">
        <ele>9</ele>
        <time>2019-12-31T17:24:42Z</time>
      </trkpt>
      <trkpt lat="46.77321" lon="-2.05526">
        <ele>10</ele>
        <time>2019-12-31T17:24:43Z</time>
      </trkpt>
      <trkpt lat="46.77349" lon="-2.05565">
        <ele>8</ele>
        <time>2019-12-31T17:24:49Z</time>
      </trkpt>
      <trkpt lat="46.77354" lon="-2.05573">
        <ele>8</ele>
        <time>2019-12-31T17:24:51Z</time>
      </trkpt>
      <trkpt lat="46.77361" lon="-2.05578">
        <ele>8</ele>
        <time>2019-12-31T17:24:52Z</time>
      </trkpt>
      <trkpt lat="46.77366" lon="-2.05582">
        <ele>8</ele>
        <time>2019-12-31T17:24:53Z</time>
      </trkpt>
      <trkpt lat="46.77372" lon="-2.05588">
        <ele>8</ele>
        <time>2019-12-31T17:24:54Z</time>
      </trkpt>
      <trkpt lat="46.77383" lon="-2.05599">
        <ele>8</ele>
        <time>2019-12-31T17:24:57Z</time>
      </trkpt>
      <trkpt lat="46.77393" lon="-2.05613">
        <ele>8</ele>
        <time>2019-12-31T17:24:59Z</time>
      </trkpt>
      <trkpt lat="46.77402" lon="-2.05628">
        <ele>7</ele>
        <time>2019-12-31T17:25:02Z</time>
      </trkpt>
      <trkpt lat="46.77409" lon="-2.05643">
        <ele>7</ele>
        <time>2019-12-31T17:25:04Z</time>
      </trkpt>
      <trkpt lat="46.77414" lon="-2.05654">
        <ele>6</ele>
        <time>2019-12-31T17:25:06Z</time>
      </trkpt>
      <trkpt lat="46.77422" lon="-2.05664">
        <ele>6</ele>
        <time>2019-12-31T17:25:07Z</time>
      </trkpt>
      <trkpt lat="46.77433" lon="-2.05678">
        <ele>6</ele>
        <time>2019-12-31T17:25:10Z</time>
      </trkpt>
      <trkpt lat="46.77436" lon="-2.05682">
        <ele>6</ele>
        <time>2019-12-31T17:25:11Z</time>
      </trkpt>
      <trkpt lat="46.7744" lon="-2.05685">
        <ele>6</ele>
        <time>2019-12-31T17:25:12Z</time>
      </trkpt>
      <trkpt lat="46.77444" lon="-2.05688">
        <ele>7</ele>
        <time>2019-12-31T17:25:12Z</time>
      </trkpt>
      <trkpt lat="46.77448" lon="-2.05688">
        <ele>7</ele>
        <time>2019-12-31T17:25:13Z</time>
      </trkpt>
      <trkpt lat="46.7745" lon="-2.05688">
        <ele>7</ele>
        <time>2019-12-31T17:25:13Z</time>
      </trkpt>
      <trkpt lat="46.77452" lon="-2.05688">
        <ele>7</ele>
        <time>2019-12-31T17:25:14Z</time>
      </trkpt>
      <trkpt lat="46.77452" lon="-2.05688">
        <ele>7</ele>
        <time>2019-12-31T17:25:14Z</time>
      </trkpt>
      <trkpt lat="46.77452" lon="-2.05687">
        <ele>7</ele>
        <time>2019-12-31T17:25:14Z</time>
      </trkpt>
      <trkpt lat="46.77453" lon="-2.05684">
        <ele>7</ele>
        <time>2019-12-31T17:25:14Z</time>
      </trkpt>
      <trkpt lat="46.77455" lon="-2.05681">
        <ele>8</ele>
        <time>2019-12-31T17:25:15Z</time>
      </trkpt>
      <trkpt lat="46.77457" lon="-2.05678">
        <ele>8</ele>
        <time>2019-12-31T17:25:15Z</time>
      </trkpt>
      <trkpt lat="46.7746" lon="-2.05676">
        <ele>8</ele>
        <time>2019-12-31T17:25:16Z</time>
      </trkpt>
      <trkpt lat="46.77464" lon="-2.05677">
        <ele>8</ele>
        <time>2019-12-31T17:25:17Z</time>
      </trkpt>
      <trkpt lat="46.77468" lon="-2.05678">
        <ele>9</ele>
        <time>2019-12-31T17:25:17Z</time>
      </trkpt>
      <trkpt lat="46.77472" lon="-2.05682">
        <ele>9</ele>
        <time>2019-12-31T17:25:18Z</time>
      </trkpt>
      <trkpt lat="46.77474" lon="-2.05687">
        <ele>9</ele>
        <time>2019-12-31T17:25:19Z</time>
      </trkpt>
      <trkpt lat="46.77475" lon="-2.05693">
        <ele>9</ele>
        <time>2019-12-31T17:25:20Z</time>
      </trkpt>
      <trkpt lat="46.77484" lon="-2.05706">
        <ele>9</ele>
        <time>2019-12-31T17:25:22Z</time>
      </trkpt>
      <trkpt lat="46.77489" lon="-2.05715">
        <ele>10</ele>
        <time>2019-12-31T17:25:23Z</time>
      </trkpt>
      <trkpt lat="46.77571" lon="-2.05843">
        <ele>7</ele>
        <time>2019-12-31T17:25:45Z</time>
      </trkpt>
      <trkpt lat="46.77576" lon="-2.05849">
        <ele>7</ele>
        <time>2019-12-31T17:25:46Z</time>
      </trkpt>
      <trkpt lat="46.77582" lon="-2.05861">
        <ele>7</ele>
        <time>2019-12-31T17:25:48Z</time>
      </trkpt>
      <trkpt lat="46.77585" lon="-2.0586">
        <ele>7</ele>
        <time>2019-12-31T17:25:48Z</time>
      </trkpt>
      <trkpt lat="46.77588" lon="-2.05861">
        <ele>7</ele>
        <time>2019-12-31T17:25:49Z</time>
      </trkpt>
      <trkpt lat="46.77589" lon="-2.05862">
        <ele>7</ele>
        <time>2019-12-31T17:25:49Z</time>
      </trkpt>
      <trkpt lat="46.77591" lon="-2.05863">
        <ele>6</ele>
        <time>2019-12-31T17:25:49Z</time>
      </trkpt>
      <trkpt lat="46.77592" lon="-2.05866">
        <ele>6</ele>
        <time>2019-12-31T17:25:50Z</time>
      </trkpt>
      <trkpt lat="46.77593" lon="-2.05868">
        <ele>6</ele>
        <time>2019-12-31T17:25:50Z</time>
      </trkpt>
      <trkpt lat="46.77594" lon="-2.0587">
        <ele>6</ele>
        <time>2019-12-31T17:25:50Z</time>
      </trkpt>
      <trkpt lat="46.77594" lon="-2.05872">
        <ele>6</ele>
        <time>2019-12-31T17:25:51Z</time>
      </trkpt>
      <trkpt lat="46.77594" lon="-2.05874">
        <ele>6</ele>
        <time>2019-12-31T17:25:51Z</time>
      </trkpt>
      <trkpt lat="46.77593" lon="-2.05876">
        <ele>6</ele>
        <time>2019-12-31T17:25:51Z</time>
      </trkpt>
      <trkpt lat="46.776" lon="-2.05885">
        <ele>6</ele>
        <time>2019-12-31T17:25:53Z</time>
      </trkpt>
      <trkpt lat="46.77607" lon="-2.05895">
        <ele>6</ele>
        <time>2019-12-31T17:25:55Z</time>
      </trkpt>
      <trkpt lat="46.77611" lon="-2.05903">
        <ele>6</ele>
        <time>2019-12-31T17:25:56Z</time>
      </trkpt>
      <trkpt lat="46.77628" lon="-2.05927">
        <ele>6</ele>
        <time>2019-12-31T17:26:00Z</time>
      </trkpt>
      <trkpt lat="46.77667" lon="-2.05987">
        <ele>8</ele>
        <time>2019-12-31T17:26:10Z</time>
      </trkpt>
      <trkpt lat="46.77695" lon="-2.06032">
        <ele>6</ele>
        <time>2019-12-31T17:26:17Z</time>
      </trkpt>
      <trkpt lat="46.77697" lon="-2.06036">
        <ele>6</ele>
        <time>2019-12-31T17:26:18Z</time>
      </trkpt>
      <trkpt lat="46.777" lon="-2.06037">
        <ele>6</ele>
        <time>2019-12-31T17:26:19Z</time>
      </trkpt>
      <trkpt lat="46.77707" lon="-2.06046">
        <ele>6</ele>
        <time>2019-12-31T17:26:20Z</time>
      </trkpt>
      <trkpt lat="46.7771" lon="-2.06046">
        <ele>7</ele>
        <time>2019-12-31T17:26:21Z</time>
      </trkpt>
      <trkpt lat="46.77712" lon="-2.06046">
        <ele>7</ele>
        <time>2019-12-31T17:26:21Z</time>
      </trkpt>
      <trkpt lat="46.77714" lon="-2.06048">
        <ele>7</ele>
        <time>2019-12-31T17:26:22Z</time>
      </trkpt>
      <trkpt lat="46.77716" lon="-2.0605">
        <ele>7</ele>
        <time>2019-12-31T17:26:22Z</time>
      </trkpt>
      <trkpt lat="46.77719" lon="-2.06054">
        <ele>7</ele>
        <time>2019-12-31T17:26:23Z</time>
      </trkpt>
      <trkpt lat="46.7772" lon="-2.06059">
        <ele>7</ele>
        <time>2019-12-31T17:26:23Z</time>
      </trkpt>
      <trkpt lat="46.7772" lon="-2.0606">
        <ele>7</ele>
        <time>2019-12-31T17:26:24Z</time>
      </trkpt>
      <trkpt lat="46.7772" lon="-2.06065">
        <ele>7</ele>
        <time>2019-12-31T17:26:24Z</time>
      </trkpt>
      <trkpt lat="46.77733" lon="-2.06086">
        <ele>9</ele>
        <time>2019-12-31T17:26:28Z</time>
      </trkpt>
      <trkpt lat="46.77736" lon="-2.06094">
        <ele>9</ele>
        <time>2019-12-31T17:26:29Z</time>
      </trkpt>
      <trkpt lat="46.7775" lon="-2.06121">
        <ele>10</ele>
        <time>2019-12-31T17:26:33Z</time>
      </trkpt>
      <trkpt lat="46.77775" lon="-2.06166">
        <ele>9</ele>
        <time>2019-12-31T17:26:40Z</time>
      </trkpt>
      <trkpt lat="46.7778" lon="-2.06169">
        <ele>9</ele>
        <time>2019-12-31T17:26:41Z</time>
      </trkpt>
      <trkpt lat="46.77782" lon="-2.06172">
        <ele>9</ele>
        <time>2019-12-31T17:26:41Z</time>
      </trkpt>
      <trkpt lat="46.77791" lon="-2.0619">
        <ele>9</ele>
        <time>2019-12-31T17:26:44Z</time>
      </trkpt>
      <trkpt lat="46.77795" lon="-2.06199">
        <ele>9</ele>
        <time>2019-12-31T17:26:45Z</time>
      </trkpt>
      <trkpt lat="46.77796" lon="-2.062">
        <ele>9</ele>
        <time>2019-12-31T17:26:46Z</time>
      </trkpt>
      <trkpt lat="46.77797" lon="-2.062">
        <ele>9</ele>
        <time>2019-12-31T17:26:46Z</time>
      </trkpt>
      <trkpt lat="46.77797" lon="-2.06201">
        <ele>9</ele>
        <time>2019-12-31T17:26:46Z</time>
      </trkpt>
      <trkpt lat="46.77798" lon="-2.06201">
        <ele>9</ele>
        <time>2019-12-31T17:26:46Z</time>
      </trkpt>
      <trkpt lat="46.77799" lon="-2.06202">
        <ele>9</ele>
        <time>2019-12-31T17:26:46Z</time>
      </trkpt>
      <trkpt lat="46.77799" lon="-2.06203">
        <ele>9</ele>
        <time>2019-12-31T17:26:46Z</time>
      </trkpt>
      <trkpt lat="46.778" lon="-2.06203">
        <ele>9</ele>
        <time>2019-12-31T17:26:47Z</time>
      </trkpt>
      <trkpt lat="46.778" lon="-2.06204">
        <ele>9</ele>
        <time>2019-12-31T17:26:47Z</time>
      </trkpt>
      <trkpt lat="46.77801" lon="-2.06205">
        <ele>9</ele>
        <time>2019-12-31T17:26:47Z</time>
      </trkpt>
      <trkpt lat="46.77801" lon="-2.06206">
        <ele>9</ele>
        <time>2019-12-31T17:26:47Z</time>
      </trkpt>
      <trkpt lat="46.77801" lon="-2.06207">
        <ele>9</ele>
        <time>2019-12-31T17:26:47Z</time>
      </trkpt>
      <trkpt lat="46.77802" lon="-2.06208">
        <ele>9</ele>
        <time>2019-12-31T17:26:47Z</time>
      </trkpt>
      <trkpt lat="46.77802" lon="-2.06209">
        <ele>9</ele>
        <time>2019-12-31T17:26:48Z</time>
      </trkpt>
      <trkpt lat="46.77802" lon="-2.0621">
        <ele>9</ele>
        <time>2019-12-31T17:26:48Z</time>
      </trkpt>
      <trkpt lat="46.77802" lon="-2.06211">
        <ele>9</ele>
        <time>2019-12-31T17:26:48Z</time>
      </trkpt>
      <trkpt lat="46.77802" lon="-2.06212">
        <ele>9</ele>
        <time>2019-12-31T17:26:48Z</time>
      </trkpt>
      <trkpt lat="46.77802" lon="-2.06213">
        <ele>9</ele>
        <time>2019-12-31T17:26:48Z</time>
      </trkpt>
      <trkpt lat="46.77802" lon="-2.06214">
        <ele>9</ele>
        <time>2019-12-31T17:26:48Z</time>
      </trkpt>
      <trkpt lat="46.77812" lon="-2.06227">
        <ele>9</ele>
        <time>2019-12-31T17:26:50Z</time>
      </trkpt>
      <trkpt lat="46.77818" lon="-2.06234">
        <ele>10</ele>
        <time>2019-12-31T17:26:52Z</time>
      </trkpt>
      <trkpt lat="46.77819" lon="-2.06236">
        <ele>10</ele>
        <time>2019-12-31T17:26:52Z</time>
      </trkpt>
      <trkpt lat="46.77823" lon="-2.06245">
        <ele>10</ele>
        <time>2019-12-31T17:26:53Z</time>
      </trkpt>
      <trkpt lat="46.7787" lon="-2.06326">
        <ele>8</ele>
        <time>2019-12-31T17:27:06Z</time>
      </trkpt>
      <trkpt lat="46.77872" lon="-2.06329">
        <ele>8</ele>
        <time>2019-12-31T17:27:07Z</time>
      </trkpt>
      <trkpt lat="46.77876" lon="-2.06335">
        <ele>8</ele>
        <time>2019-12-31T17:27:08Z</time>
      </trkpt>
      <trkpt lat="46.77879" lon="-2.06338">
        <ele>8</ele>
        <time>2019-12-31T17:27:09Z</time>
      </trkpt>
      <trkpt lat="46.77885" lon="-2.06342">
        <ele>8</ele>
        <time>2019-12-31T17:27:10Z</time>
      </trkpt>
      <trkpt lat="46.7789" lon="-2.06347">
        <ele>8</ele>
        <time>2019-12-31T17:27:11Z</time>
      </trkpt>
      <trkpt lat="46.77894" lon="-2.06349">
        <ele>8</ele>
        <time>2019-12-31T17:27:12Z</time>
      </trkpt>
      <trkpt lat="46.77912" lon="-2.06356">
        <ele>9</ele>
        <time>2019-12-31T17:27:15Z</time>
      </trkpt>
      <trkpt lat="46.7792" lon="-2.06361">
        <ele>9</ele>
        <time>2019-12-31T17:27:16Z</time>
      </trkpt>
      <trkpt lat="46.77926" lon="-2.06366">
        <ele>9</ele>
        <time>2019-12-31T17:27:18Z</time>
      </trkpt>
      <trkpt lat="46.77933" lon="-2.06375">
        <ele>10</ele>
        <time>2019-12-31T17:27:19Z</time>
      </trkpt>
      <trkpt lat="46.77933" lon="-2.06375">
        <ele>10</ele>
        <time>2019-12-31T17:27:19Z</time>
      </trkpt>
      <trkpt lat="46.77934" lon="-2.06374">
        <ele>9</ele>
        <time>2019-12-31T17:27:20Z</time>
      </trkpt>
      <trkpt lat="46.77934" lon="-2.06373">
        <ele>9</ele>
        <time>2019-12-31T17:27:20Z</time>
      </trkpt>
      <trkpt lat="46.77935" lon="-2.06373">
        <ele>9</ele>
        <time>2019-12-31T17:27:20Z</time>
      </trkpt>
      <trkpt lat="46.77935" lon="-2.06372">
        <ele>9</ele>
        <time>2019-12-31T17:27:20Z</time>
      </trkpt>
      <trkpt lat="46.77936" lon="-2.06372">
        <ele>9</ele>
        <time>2019-12-31T17:27:20Z</time>
      </trkpt>
      <trkpt lat="46.77937" lon="-2.06372">
        <ele>9</ele>
        <time>2019-12-31T17:27:20Z</time>
      </trkpt>
      <trkpt lat="46.77937" lon="-2.06371">
        <ele>9</ele>
        <time>2019-12-31T17:27:20Z</time>
      </trkpt>
      <trkpt lat="46.77938" lon="-2.06371">
        <ele>9</ele>
        <time>2019-12-31T17:27:21Z</time>
      </trkpt>
      <trkpt lat="46.77939" lon="-2.06371">
        <ele>9</ele>
        <time>2019-12-31T17:27:21Z</time>
      </trkpt>
      <trkpt lat="46.7794" lon="-2.06371">
        <ele>9</ele>
        <time>2019-12-31T17:27:21Z</time>
      </trkpt>
      <trkpt lat="46.7794" lon="-2.06372">
        <ele>9</ele>
        <time>2019-12-31T17:27:21Z</time>
      </trkpt>
      <trkpt lat="46.77941" lon="-2.06372">
        <ele>9</ele>
        <time>2019-12-31T17:27:21Z</time>
      </trkpt>
      <trkpt lat="46.77942" lon="-2.06372">
        <ele>9</ele>
        <time>2019-12-31T17:27:21Z</time>
      </trkpt>
      <trkpt lat="46.77942" lon="-2.06373">
        <ele>9</ele>
        <time>2019-12-31T17:27:22Z</time>
      </trkpt>
      <trkpt lat="46.77943" lon="-2.06373">
        <ele>9</ele>
        <time>2019-12-31T17:27:22Z</time>
      </trkpt>
      <trkpt lat="46.77943" lon="-2.06374">
        <ele>9</ele>
        <time>2019-12-31T17:27:22Z</time>
      </trkpt>
      <trkpt lat="46.77944" lon="-2.06374">
        <ele>9</ele>
        <time>2019-12-31T17:27:22Z</time>
      </trkpt>
      <trkpt lat="46.77944" lon="-2.06375">
        <ele>10</ele>
        <time>2019-12-31T17:27:22Z</time>
      </trkpt>
      <trkpt lat="46.77945" lon="-2.06376">
        <ele>10</ele>
        <time>2019-12-31T17:27:22Z</time>
      </trkpt>
      <trkpt lat="46.77945" lon="-2.06377">
        <ele>10</ele>
        <time>2019-12-31T17:27:23Z</time>
      </trkpt>
      <trkpt lat="46.77945" lon="-2.06378">
        <ele>10</ele>
        <time>2019-12-31T17:27:23Z</time>
      </trkpt>
      <trkpt lat="46.77946" lon="-2.06378">
        <ele>10</ele>
        <time>2019-12-31T17:27:23Z</time>
      </trkpt>
      <trkpt lat="46.77946" lon="-2.06379">
        <ele>10</ele>
        <time>2019-12-31T17:27:23Z</time>
      </trkpt>
      <trkpt lat="46.77946" lon="-2.0638">
        <ele>10</ele>
        <time>2019-12-31T17:27:23Z</time>
      </trkpt>
      <trkpt lat="46.77946" lon="-2.06381">
        <ele>10</ele>
        <time>2019-12-31T17:27:23Z</time>
      </trkpt>
      <trkpt lat="46.77946" lon="-2.06382">
        <ele>10</ele>
        <time>2019-12-31T17:27:23Z</time>
      </trkpt>
      <trkpt lat="46.77946" lon="-2.06383">
        <ele>10</ele>
        <time>2019-12-31T17:27:23Z</time>
      </trkpt>
      <trkpt lat="46.77946" lon="-2.06384">
        <ele>10</ele>
        <time>2019-12-31T17:27:24Z</time>
      </trkpt>
      <trkpt lat="46.77946" lon="-2.06385">
        <ele>10</ele>
        <time>2019-12-31T17:27:24Z</time>
      </trkpt>
      <trkpt lat="46.77945" lon="-2.06386">
        <ele>10</ele>
        <time>2019-12-31T17:27:24Z</time>
      </trkpt>
      <trkpt lat="46.77945" lon="-2.06387">
        <ele>10</ele>
        <time>2019-12-31T17:27:24Z</time>
      </trkpt>
      <trkpt lat="46.77945" lon="-2.06388">
        <ele>10</ele>
        <time>2019-12-31T17:27:24Z</time>
      </trkpt>
      <trkpt lat="46.77944" lon="-2.06388">
        <ele>10</ele>
        <time>2019-12-31T17:27:24Z</time>
      </trkpt>
      <trkpt lat="46.77944" lon="-2.06389">
        <ele>10</ele>
        <time>2019-12-31T17:27:24Z</time>
      </trkpt>
      <trkpt lat="46.77944" lon="-2.0639">
        <ele>10</ele>
        <time>2019-12-31T17:27:25Z</time>
      </trkpt>
      <trkpt lat="46.77943" lon="-2.0639">
        <ele>10</ele>
        <time>2019-12-31T17:27:25Z</time>
      </trkpt>
      <trkpt lat="46.77943" lon="-2.06391">
        <ele>10</ele>
        <time>2019-12-31T17:27:25Z</time>
      </trkpt>
      <trkpt lat="46.77947" lon="-2.06401">
        <ele>10</ele>
        <time>2019-12-31T17:27:26Z</time>
      </trkpt>
      <trkpt lat="46.77948" lon="-2.06406">
        <ele>10</ele>
        <time>2019-12-31T17:27:27Z</time>
      </trkpt>
      <trkpt lat="46.77949" lon="-2.06414">
        <ele>11</ele>
        <time>2019-12-31T17:27:28Z</time>
      </trkpt>
      <trkpt lat="46.77951" lon="-2.06435">
        <ele>11</ele>
        <time>2019-12-31T17:27:30Z</time>
      </trkpt>
      <trkpt lat="46.77951" lon="-2.0645">
        <ele>11</ele>
        <time>2019-12-31T17:27:32Z</time>
      </trkpt>
      <trkpt lat="46.77952" lon="-2.0646">
        <ele>11</ele>
        <time>2019-12-31T17:27:34Z</time>
      </trkpt>
      <trkpt lat="46.77954" lon="-2.06467">
        <ele>11</ele>
        <time>2019-12-31T17:27:34Z</time>
      </trkpt>
      <trkpt lat="46.77957" lon="-2.0648">
        <ele>11</ele>
        <time>2019-12-31T17:27:36Z</time>
      </trkpt>
      <trkpt lat="46.77961" lon="-2.06489">
        <ele>12</ele>
        <time>2019-12-31T17:27:37Z</time>
      </trkpt>
      <trkpt lat="46.77971" lon="-2.06505">
        <ele>12</ele>
        <time>2019-12-31T17:27:40Z</time>
      </trkpt>
      <trkpt lat="46.77978" lon="-2.06513">
        <ele>12</ele>
        <time>2019-12-31T17:27:42Z</time>
      </trkpt>
      <trkpt lat="46.77986" lon="-2.06521">
        <ele>13</ele>
        <time>2019-12-31T17:27:43Z</time>
      </trkpt>
      <trkpt lat="46.78014" lon="-2.06553">
        <ele>12</ele>
        <time>2019-12-31T17:27:50Z</time>
      </trkpt>
      <trkpt lat="46.78028" lon="-2.06576">
        <ele>11</ele>
        <time>2019-12-31T17:27:53Z</time>
      </trkpt>
      <trkpt lat="46.78059" lon="-2.06635">
        <ele>11</ele>
        <time>2019-12-31T17:28:03Z</time>
      </trkpt>
      <trkpt lat="46.78061" lon="-2.0664">
        <ele>12</ele>
        <time>2019-12-31T17:28:03Z</time>
      </trkpt>
      <trkpt lat="46.78064" lon="-2.06651">
        <ele>12</ele>
        <time>2019-12-31T17:28:05Z</time>
      </trkpt>
      <trkpt lat="46.78069" lon="-2.0667">
        <ele>12</ele>
        <time>2019-12-31T17:28:07Z</time>
      </trkpt>
      <trkpt lat="46.78072" lon="-2.06678">
        <ele>12</ele>
        <time>2019-12-31T17:28:08Z</time>
      </trkpt>
      <trkpt lat="46.78074" lon="-2.06682">
        <ele>12</ele>
        <time>2019-12-31T17:28:09Z</time>
      </trkpt>
      <trkpt lat="46.78088" lon="-2.06704">
        <ele>11</ele>
        <time>2019-12-31T17:28:13Z</time>
      </trkpt>
      <trkpt lat="46.7811" lon="-2.0674">
        <ele>7</ele>
        <time>2019-12-31T17:28:18Z</time>
      </trkpt>
      <trkpt lat="46.78112" lon="-2.06743">
        <ele>7</ele>
        <time>2019-12-31T17:28:19Z</time>
      </trkpt>
      <trkpt lat="46.78121" lon="-2.06757">
        <ele>6</ele>
        <time>2019-12-31T17:28:21Z</time>
      </trkpt>
      <trkpt lat="46.78126" lon="-2.06763">
        <ele>6</ele>
        <time>2019-12-31T17:28:22Z</time>
      </trkpt>
      <trkpt lat="46.78131" lon="-2.0677">
        <ele>6</ele>
        <time>2019-12-31T17:28:24Z</time>
      </trkpt>
      <trkpt lat="46.78137" lon="-2.06777">
        <ele>6</ele>
        <time>2019-12-31T17:28:25Z</time>
      </trkpt>
      <trkpt lat="46.78141" lon="-2.06778">
        <ele>6</ele>
        <time>2019-12-31T17:28:26Z</time>
      </trkpt>
      <trkpt lat="46.78145" lon="-2.06781">
        <ele>6</ele>
        <time>2019-12-31T17:28:27Z</time>
      </trkpt>
      <trkpt lat="46.78149" lon="-2.06784">
        <ele>6</ele>
        <time>2019-12-31T17:28:27Z</time>
      </trkpt>
      <trkpt lat="46.78154" lon="-2.06788">
        <ele>6</ele>
        <time>2019-12-31T17:28:28Z</time>
      </trkpt>
      <trkpt lat="46.78154" lon="-2.06788">
        <ele>6</ele>
        <time>2019-12-31T17:28:28Z</time>
      </trkpt>
      <trkpt lat="46.78157" lon="-2.06788">
        <ele>6</ele>
        <time>2019-12-31T17:28:29Z</time>
      </trkpt>
      <trkpt lat="46.78161" lon="-2.06788">
        <ele>6</ele>
        <time>2019-12-31T17:28:30Z</time>
      </trkpt>
      <trkpt lat="46.78163" lon="-2.06789">
        <ele>6</ele>
        <time>2019-12-31T17:28:30Z</time>
      </trkpt>
      <trkpt lat="46.78164" lon="-2.06791">
        <ele>6</ele>
        <time>2019-12-31T17:28:30Z</time>
      </trkpt>
      <trkpt lat="46.78165" lon="-2.06793">
        <ele>6</ele>
        <time>2019-12-31T17:28:31Z</time>
      </trkpt>
      <trkpt lat="46.78166" lon="-2.06796">
        <ele>7</ele>
        <time>2019-12-31T17:28:31Z</time>
      </trkpt>
      <trkpt lat="46.78167" lon="-2.068">
        <ele>7</ele>
        <time>2019-12-31T17:28:31Z</time>
      </trkpt>
      <trkpt lat="46.78167" lon="-2.06803">
        <ele>7</ele>
        <time>2019-12-31T17:28:32Z</time>
      </trkpt>
      <trkpt lat="46.78167" lon="-2.06806">
        <ele>7</ele>
        <time>2019-12-31T17:28:32Z</time>
      </trkpt>
      <trkpt lat="46.78166" lon="-2.06809">
        <ele>7</ele>
        <time>2019-12-31T17:28:33Z</time>
      </trkpt>
      <trkpt lat="46.78164" lon="-2.06811">
        <ele>7</ele>
        <time>2019-12-31T17:28:33Z</time>
      </trkpt>
      <trkpt lat="46.78167" lon="-2.06821">
        <ele>7</ele>
        <time>2019-12-31T17:28:34Z</time>
      </trkpt>
      <trkpt lat="46.78168" lon="-2.06827">
        <ele>7</ele>
        <time>2019-12-31T17:28:35Z</time>
      </trkpt>
      <trkpt lat="46.7817" lon="-2.06833">
        <ele>7</ele>
        <time>2019-12-31T17:28:36Z</time>
      </trkpt>
      <trkpt lat="46.78174" lon="-2.06843">
        <ele>7</ele>
        <time>2019-12-31T17:28:37Z</time>
      </trkpt>
      <trkpt lat="46.78181" lon="-2.06857">
        <ele>6</ele>
        <time>2019-12-31T17:28:39Z</time>
      </trkpt>
      <trkpt lat="46.78182" lon="-2.06864">
        <ele>6</ele>
        <time>2019-12-31T17:28:40Z</time>
      </trkpt>
      <trkpt lat="46.78294" lon="-2.07068">
        <ele>6</ele>
        <time>2019-12-31T17:29:12Z</time>
      </trkpt>
      <trkpt lat="46.78316" lon="-2.07111">
        <ele>6</ele>
        <time>2019-12-31T17:29:19Z</time>
      </trkpt>
      <trkpt lat="46.78346" lon="-2.07167">
        <ele>7</ele>
        <time>2019-12-31T17:29:27Z</time>
      </trkpt>
      <trkpt lat="46.78348" lon="-2.07166">
        <ele>7</ele>
        <time>2019-12-31T17:29:28Z</time>
      </trkpt>
      <trkpt lat="46.78351" lon="-2.07166">
        <ele>7</ele>
        <time>2019-12-31T17:29:28Z</time>
      </trkpt>
      <trkpt lat="46.78354" lon="-2.07167">
        <ele>7</ele>
        <time>2019-12-31T17:29:29Z</time>
      </trkpt>
      <trkpt lat="46.78355" lon="-2.07168">
        <ele>7</ele>
        <time>2019-12-31T17:29:29Z</time>
      </trkpt>
      <trkpt lat="46.78357" lon="-2.07171">
        <ele>7</ele>
        <time>2019-12-31T17:29:30Z</time>
      </trkpt>
      <trkpt lat="46.78358" lon="-2.07173">
        <ele>7</ele>
        <time>2019-12-31T17:29:30Z</time>
      </trkpt>
      <trkpt lat="46.78359" lon="-2.07176">
        <ele>7</ele>
        <time>2019-12-31T17:29:30Z</time>
      </trkpt>
      <trkpt lat="46.78359" lon="-2.0718">
        <ele>7</ele>
        <time>2019-12-31T17:29:31Z</time>
      </trkpt>
      <trkpt lat="46.78358" lon="-2.07184">
        <ele>7</ele>
        <time>2019-12-31T17:29:31Z</time>
      </trkpt>
      <trkpt lat="46.78357" lon="-2.07186">
        <ele>7</ele>
        <time>2019-12-31T17:29:32Z</time>
      </trkpt>
      <trkpt lat="46.78355" lon="-2.07189">
        <ele>7</ele>
        <time>2019-12-31T17:29:32Z</time>
      </trkpt>
      <trkpt lat="46.78392" lon="-2.07277">
        <ele>7</ele>
        <time>2019-12-31T17:29:45Z</time>
      </trkpt>
      <trkpt lat="46.78429" lon="-2.07353">
        <ele>6</ele>
        <time>2019-12-31T17:29:56Z</time>
      </trkpt>
      <trkpt lat="46.78438" lon="-2.07372">
        <ele>6</ele>
        <time>2019-12-31T17:29:59Z</time>
      </trkpt>
      <trkpt lat="46.78443" lon="-2.07383">
        <ele>6</ele>
        <time>2019-12-31T17:30:00Z</time>
      </trkpt>
      <trkpt lat="46.78445" lon="-2.07389">
        <ele>6</ele>
        <time>2019-12-31T17:30:01Z</time>
      </trkpt>
      <trkpt lat="46.78446" lon="-2.07393">
        <ele>6</ele>
        <time>2019-12-31T17:30:02Z</time>
      </trkpt>
      <trkpt lat="46.78448" lon="-2.07394">
        <ele>6</ele>
        <time>2019-12-31T17:30:02Z</time>
      </trkpt>
      <trkpt lat="46.7845" lon="-2.07395">
        <ele>6</ele>
        <time>2019-12-31T17:30:03Z</time>
      </trkpt>
      <trkpt lat="46.78451" lon="-2.07396">
        <ele>6</ele>
        <time>2019-12-31T17:30:03Z</time>
      </trkpt>
      <trkpt lat="46.78452" lon="-2.07399">
        <ele>6</ele>
        <time>2019-12-31T17:30:03Z</time>
      </trkpt>
      <trkpt lat="46.78453" lon="-2.07401">
        <ele>6</ele>
        <time>2019-12-31T17:30:03Z</time>
      </trkpt>
      <trkpt lat="46.78453" lon="-2.07403">
        <ele>6</ele>
        <time>2019-12-31T17:30:04Z</time>
      </trkpt>
      <trkpt lat="46.78453" lon="-2.07405">
        <ele>5</ele>
        <time>2019-12-31T17:30:04Z</time>
      </trkpt>
      <trkpt lat="46.78452" lon="-2.07408">
        <ele>5</ele>
        <time>2019-12-31T17:30:04Z</time>
      </trkpt>
      <trkpt lat="46.78476" lon="-2.0747">
        <ele>6</ele>
        <time>2019-12-31T17:30:13Z</time>
      </trkpt>
      <trkpt lat="46.78481" lon="-2.07485">
        <ele>7</ele>
        <time>2019-12-31T17:30:15Z</time>
      </trkpt>
      <trkpt lat="46.78488" lon="-2.07503">
        <ele>8</ele>
        <time>2019-12-31T17:30:18Z</time>
      </trkpt>
      <trkpt lat="46.78504" lon="-2.07538">
        <ele>8</ele>
        <time>2019-12-31T17:30:23Z</time>
      </trkpt>
      <trkpt lat="46.78526" lon="-2.07584">
        <ele>8</ele>
        <time>2019-12-31T17:30:30Z</time>
      </trkpt>
      <trkpt lat="46.78531" lon="-2.07597">
        <ele>8</ele>
        <time>2019-12-31T17:30:31Z</time>
      </trkpt>
      <trkpt lat="46.78537" lon="-2.07613">
        <ele>8</ele>
        <time>2019-12-31T17:30:34Z</time>
      </trkpt>
      <trkpt lat="46.78539" lon="-2.07614">
        <ele>8</ele>
        <time>2019-12-31T17:30:34Z</time>
      </trkpt>
      <trkpt lat="46.78541" lon="-2.07615">
        <ele>8</ele>
        <time>2019-12-31T17:30:34Z</time>
      </trkpt>
      <trkpt lat="46.78542" lon="-2.07617">
        <ele>8</ele>
        <time>2019-12-31T17:30:35Z</time>
      </trkpt>
      <trkpt lat="46.78544" lon="-2.07619">
        <ele>8</ele>
        <time>2019-12-31T17:30:35Z</time>
      </trkpt>
      <trkpt lat="46.78544" lon="-2.07622">
        <ele>8</ele>
        <time>2019-12-31T17:30:35Z</time>
      </trkpt>
      <trkpt lat="46.78544" lon="-2.07625">
        <ele>8</ele>
        <time>2019-12-31T17:30:36Z</time>
      </trkpt>
      <trkpt lat="46.78544" lon="-2.07629">
        <ele>8</ele>
        <time>2019-12-31T17:30:36Z</time>
      </trkpt>
      <trkpt lat="46.78542" lon="-2.07632">
        <ele>7</ele>
        <time>2019-12-31T17:30:37Z</time>
      </trkpt>
      <trkpt lat="46.78547" lon="-2.0764">
        <ele>8</ele>
        <time>2019-12-31T17:30:38Z</time>
      </trkpt>
      <trkpt lat="46.7855" lon="-2.07645">
        <ele>8</ele>
        <time>2019-12-31T17:30:39Z</time>
      </trkpt>
      <trkpt lat="46.78643" lon="-2.07859">
        <ele>5</ele>
        <time>2019-12-31T17:31:10Z</time>
      </trkpt>
      <trkpt lat="46.78645" lon="-2.07867">
        <ele>5</ele>
        <time>2019-12-31T17:31:11Z</time>
      </trkpt>
      <trkpt lat="46.78648" lon="-2.07877">
        <ele>5</ele>
        <time>2019-12-31T17:31:12Z</time>
      </trkpt>
      <trkpt lat="46.78649" lon="-2.07885">
        <ele>6</ele>
        <time>2019-12-31T17:31:13Z</time>
      </trkpt>
      <trkpt lat="46.78649" lon="-2.07885">
        <ele>6</ele>
        <time>2019-12-31T17:31:13Z</time>
      </trkpt>
      <trkpt lat="46.7865" lon="-2.07885">
        <ele>6</ele>
        <time>2019-12-31T17:31:13Z</time>
      </trkpt>
      <trkpt lat="46.78651" lon="-2.07885">
        <ele>6</ele>
        <time>2019-12-31T17:31:14Z</time>
      </trkpt>
      <trkpt lat="46.78652" lon="-2.07885">
        <ele>6</ele>
        <time>2019-12-31T17:31:14Z</time>
      </trkpt>
      <trkpt lat="46.78653" lon="-2.07885">
        <ele>6</ele>
        <time>2019-12-31T17:31:14Z</time>
      </trkpt>
      <trkpt lat="46.78653" lon="-2.07886">
        <ele>6</ele>
        <time>2019-12-31T17:31:14Z</time>
      </trkpt>
      <trkpt lat="46.78654" lon="-2.07886">
        <ele>6</ele>
        <time>2019-12-31T17:31:14Z</time>
      </trkpt>
      <trkpt lat="46.78655" lon="-2.07886">
        <ele>6</ele>
        <time>2019-12-31T17:31:14Z</time>
      </trkpt>
      <trkpt lat="46.78655" lon="-2.07887">
        <ele>6</ele>
        <time>2019-12-31T17:31:15Z</time>
      </trkpt>
      <trkpt lat="46.78655" lon="-2.07888">
        <ele>6</ele>
        <time>2019-12-31T17:31:15Z</time>
      </trkpt>
      <trkpt lat="46.78656" lon="-2.07888">
        <ele>6</ele>
        <time>2019-12-31T17:31:15Z</time>
      </trkpt>
      <trkpt lat="46.78656" lon="-2.07889">
        <ele>6</ele>
        <time>2019-12-31T17:31:15Z</time>
      </trkpt>
      <trkpt lat="46.78657" lon="-2.0789">
        <ele>6</ele>
        <time>2019-12-31T17:31:15Z</time>
      </trkpt>
      <trkpt lat="46.78657" lon="-2.07891">
        <ele>6</ele>
        <time>2019-12-31T17:31:15Z</time>
      </trkpt>
      <trkpt lat="46.78657" lon="-2.07892">
        <ele>6</ele>
        <time>2019-12-31T17:31:15Z</time>
      </trkpt>
      <trkpt lat="46.78657" lon="-2.07893">
        <ele>6</ele>
        <time>2019-12-31T17:31:16Z</time>
      </trkpt>
      <trkpt lat="46.78657" lon="-2.07894">
        <ele>6</ele>
        <time>2019-12-31T17:31:16Z</time>
      </trkpt>
      <trkpt lat="46.78657" lon="-2.07895">
        <ele>6</ele>
        <time>2019-12-31T17:31:16Z</time>
      </trkpt>
      <trkpt lat="46.78657" lon="-2.07896">
        <ele>6</ele>
        <time>2019-12-31T17:31:16Z</time>
      </trkpt>
      <trkpt lat="46.78661" lon="-2.07901">
        <ele>6</ele>
        <time>2019-12-31T17:31:17Z</time>
      </trkpt>
      <trkpt lat="46.78665" lon="-2.07909">
        <ele>7</ele>
        <time>2019-12-31T17:31:18Z</time>
      </trkpt>
      <trkpt lat="46.78676" lon="-2.07934">
        <ele>7</ele>
        <time>2019-12-31T17:31:22Z</time>
      </trkpt>
      <trkpt lat="46.78685" lon="-2.07952">
        <ele>8</ele>
        <time>2019-12-31T17:31:24Z</time>
      </trkpt>
      <trkpt lat="46.78691" lon="-2.07966">
        <ele>8</ele>
        <time>2019-12-31T17:31:26Z</time>
      </trkpt>
      <trkpt lat="46.787" lon="-2.07979">
        <ele>8</ele>
        <time>2019-12-31T17:31:29Z</time>
      </trkpt>
      <trkpt lat="46.78709" lon="-2.07991">
        <ele>8</ele>
        <time>2019-12-31T17:31:31Z</time>
      </trkpt>
      <trkpt lat="46.78718" lon="-2.08001">
        <ele>9</ele>
        <time>2019-12-31T17:31:33Z</time>
      </trkpt>
      <trkpt lat="46.78732" lon="-2.08012">
        <ele>9</ele>
        <time>2019-12-31T17:31:36Z</time>
      </trkpt>
      <trkpt lat="46.78741" lon="-2.08018">
        <ele>9</ele>
        <time>2019-12-31T17:31:37Z</time>
      </trkpt>
      <trkpt lat="46.78744" lon="-2.0802">
        <ele>9</ele>
        <time>2019-12-31T17:31:38Z</time>
      </trkpt>
      <trkpt lat="46.78758" lon="-2.08026">
        <ele>9</ele>
        <time>2019-12-31T17:31:41Z</time>
      </trkpt>
      <trkpt lat="46.78769" lon="-2.0803">
        <ele>8</ele>
        <time>2019-12-31T17:31:43Z</time>
      </trkpt>
      <trkpt lat="46.7878" lon="-2.08031">
        <ele>7</ele>
        <time>2019-12-31T17:31:45Z</time>
      </trkpt>
      <trkpt lat="46.78791" lon="-2.08031">
        <ele>7</ele>
        <time>2019-12-31T17:31:47Z</time>
      </trkpt>
      <trkpt lat="46.78805" lon="-2.0803">
        <ele>6</ele>
        <time>2019-12-31T17:31:49Z</time>
      </trkpt>
      <trkpt lat="46.78816" lon="-2.08027">
        <ele>6</ele>
        <time>2019-12-31T17:31:51Z</time>
      </trkpt>
      <trkpt lat="46.78843" lon="-2.08017">
        <ele>4</ele>
        <time>2019-12-31T17:31:56Z</time>
      </trkpt>
      <trkpt lat="46.78915" lon="-2.07991">
        <ele>5</ele>
        <time>2019-12-31T17:32:09Z</time>
      </trkpt>
      <trkpt lat="46.78931" lon="-2.07985">
        <ele>5</ele>
        <time>2019-12-31T17:32:12Z</time>
      </trkpt>
      <trkpt lat="46.78941" lon="-2.0798">
        <ele>5</ele>
        <time>2019-12-31T17:32:14Z</time>
      </trkpt>
      <trkpt lat="46.78952" lon="-2.07973">
        <ele>4</ele>
        <time>2019-12-31T17:32:16Z</time>
      </trkpt>
      <trkpt lat="46.78964" lon="-2.07962">
        <ele>4</ele>
        <time>2019-12-31T17:32:19Z</time>
      </trkpt>
      <trkpt lat="46.78964" lon="-2.07962">
        <ele>4</ele>
        <time>2019-12-31T17:32:19Z</time>
      </trkpt>
      <trkpt lat="46.78966" lon="-2.07957">
        <ele>4</ele>
        <time>2019-12-31T17:32:19Z</time>
      </trkpt>
      <trkpt lat="46.7897" lon="-2.07951">
        <ele>4</ele>
        <time>2019-12-31T17:32:20Z</time>
      </trkpt>
      <trkpt lat="46.78975" lon="-2.07946">
        <ele>4</ele>
        <time>2019-12-31T17:32:21Z</time>
      </trkpt>
      <trkpt lat="46.7898" lon="-2.07942">
        <ele>4</ele>
        <time>2019-12-31T17:32:22Z</time>
      </trkpt>
      <trkpt lat="46.78987" lon="-2.0794">
        <ele>4</ele>
        <time>2019-12-31T17:32:24Z</time>
      </trkpt>
      <trkpt lat="46.78993" lon="-2.0794">
        <ele>4</ele>
        <time>2019-12-31T17:32:25Z</time>
      </trkpt>
      <trkpt lat="46.78998" lon="-2.07941">
        <ele>4</ele>
        <time>2019-12-31T17:32:26Z</time>
      </trkpt>
      <trkpt lat="46.79002" lon="-2.07943">
        <ele>4</ele>
        <time>2019-12-31T17:32:26Z</time>
      </trkpt>
      <trkpt lat="46.79008" lon="-2.07947">
        <ele>4</ele>
        <time>2019-12-31T17:32:28Z</time>
      </trkpt>
      <trkpt lat="46.79014" lon="-2.07954">
        <ele>4</ele>
        <time>2019-12-31T17:32:29Z</time>
      </trkpt>
      <trkpt lat="46.79016" lon="-2.07958">
        <ele>4</ele>
        <time>2019-12-31T17:32:30Z</time>
      </trkpt>
      <trkpt lat="46.79018" lon="-2.07962">
        <ele>5</ele>
        <time>2019-12-31T17:32:30Z</time>
      </trkpt>
      <trkpt lat="46.79021" lon="-2.07971">
        <ele>5</ele>
        <time>2019-12-31T17:32:31Z</time>
      </trkpt>
      <trkpt lat="46.79023" lon="-2.07977">
        <ele>5</ele>
        <time>2019-12-31T17:32:32Z</time>
      </trkpt>
      <trkpt lat="46.79029" lon="-2.07985">
        <ele>5</ele>
        <time>2019-12-31T17:32:34Z</time>
      </trkpt>
      <trkpt lat="46.79048" lon="-2.08014">
        <ele>5</ele>
        <time>2019-12-31T17:32:39Z</time>
      </trkpt>
      <trkpt lat="46.79061" lon="-2.08031">
        <ele>5</ele>
        <time>2019-12-31T17:32:42Z</time>
      </trkpt>
      <trkpt lat="46.79164" lon="-2.08132">
        <ele>5</ele>
        <time>2019-12-31T17:33:04Z</time>
      </trkpt>
      <trkpt lat="46.79164" lon="-2.08132">
        <ele>5</ele>
        <time>2019-12-31T17:33:04Z</time>
      </trkpt>
      <trkpt lat="46.79181" lon="-2.08098">
        <ele>5</ele>
        <time>2019-12-31T17:33:09Z</time>
      </trkpt>
      <trkpt lat="46.79191" lon="-2.08085">
        <ele>5</ele>
        <time>2019-12-31T17:33:11Z</time>
      </trkpt>
      <trkpt lat="46.79206" lon="-2.08071">
        <ele>5</ele>
        <time>2019-12-31T17:33:14Z</time>
      </trkpt>
      <trkpt lat="46.79235" lon="-2.08047">
        <ele>6</ele>
        <time>2019-12-31T17:33:20Z</time>
      </trkpt>
      <trkpt lat="46.79243" lon="-2.08041">
        <ele>6</ele>
        <time>2019-12-31T17:33:22Z</time>
      </trkpt>
      <trkpt lat="46.79246" lon="-2.08039">
        <ele>6</ele>
        <time>2019-12-31T17:33:23Z</time>
      </trkpt>
      <trkpt lat="46.79254" lon="-2.08031">
        <ele>6</ele>
        <time>2019-12-31T17:33:24Z</time>
      </trkpt>
      <trkpt lat="46.79279" lon="-2.08001">
        <ele>6</ele>
        <time>2019-12-31T17:33:30Z</time>
      </trkpt>
      <trkpt lat="46.79288" lon="-2.07988">
        <ele>7</ele>
        <time>2019-12-31T17:33:32Z</time>
      </trkpt>
      <trkpt lat="46.79288" lon="-2.07988">
        <ele>7</ele>
        <time>2019-12-31T17:33:32Z</time>
      </trkpt>
      <trkpt lat="46.79332" lon="-2.07927">
        <ele>8</ele>
        <time>2019-12-31T17:33:43Z</time>
      </trkpt>
      <trkpt lat="46.79364" lon="-2.07886">
        <ele>8</ele>
        <time>2019-12-31T17:33:51Z</time>
      </trkpt>
      <trkpt lat="46.79386" lon="-2.0786">
        <ele>8</ele>
        <time>2019-12-31T17:33:56Z</time>
      </trkpt>
      <trkpt lat="46.79392" lon="-2.07853">
        <ele>8</ele>
        <time>2019-12-31T17:33:57Z</time>
      </trkpt>
      <trkpt lat="46.79418" lon="-2.07821">
        <ele>8</ele>
        <time>2019-12-31T17:34:03Z</time>
      </trkpt>
      <trkpt lat="46.79451" lon="-2.07781">
        <ele>11</ele>
        <time>2019-12-31T17:34:11Z</time>
      </trkpt>
      <trkpt lat="46.79471" lon="-2.0776">
        <ele>12</ele>
        <time>2019-12-31T17:34:15Z</time>
      </trkpt>
      <trkpt lat="46.79489" lon="-2.07748">
        <ele>13</ele>
        <time>2019-12-31T17:34:19Z</time>
      </trkpt>
      <trkpt lat="46.7951" lon="-2.07737">
        <ele>15</ele>
        <time>2019-12-31T17:34:23Z</time>
      </trkpt>
      <trkpt lat="46.79553" lon="-2.07723">
        <ele>17</ele>
        <time>2019-12-31T17:34:30Z</time>
      </trkpt>
      <trkpt lat="46.79618" lon="-2.07705">
        <ele>18</ele>
        <time>2019-12-31T17:34:42Z</time>
      </trkpt>
      <trkpt lat="46.7964" lon="-2.07696">
        <ele>18</ele>
        <time>2019-12-31T17:34:46Z</time>
      </trkpt>
      <trkpt lat="46.79665" lon="-2.07681">
        <ele>17</ele>
        <time>2019-12-31T17:34:51Z</time>
      </trkpt>
      <trkpt lat="46.79704" lon="-2.07654">
        <ele>16</ele>
        <time>2019-12-31T17:34:59Z</time>
      </trkpt>
      <trkpt lat="46.79717" lon="-2.07649">
        <ele>16</ele>
        <time>2019-12-31T17:35:01Z</time>
      </trkpt>
      <trkpt lat="46.79726" lon="-2.07646">
        <ele>16</ele>
        <time>2019-12-31T17:35:03Z</time>
      </trkpt>
      <trkpt lat="46.79735" lon="-2.07645">
        <ele>15</ele>
        <time>2019-12-31T17:35:04Z</time>
      </trkpt>
      <trkpt lat="46.79749" lon="-2.07646">
        <ele>15</ele>
        <time>2019-12-31T17:35:07Z</time>
      </trkpt>
      <trkpt lat="46.79761" lon="-2.07648">
        <ele>15</ele>
        <time>2019-12-31T17:35:09Z</time>
      </trkpt>
      <trkpt lat="46.7977" lon="-2.0765">
        <ele>14</ele>
        <time>2019-12-31T17:35:11Z</time>
      </trkpt>
      <trkpt lat="46.79778" lon="-2.07654">
        <ele>14</ele>
        <time>2019-12-31T17:35:12Z</time>
      </trkpt>
      <trkpt lat="46.79813" lon="-2.07674">
        <ele>12</ele>
        <time>2019-12-31T17:35:19Z</time>
      </trkpt>
      <trkpt lat="46.79819" lon="-2.07676">
        <ele>11</ele>
        <time>2019-12-31T17:35:20Z</time>
      </trkpt>
      <trkpt lat="46.79823" lon="-2.07677">
        <ele>11</ele>
        <time>2019-12-31T17:35:21Z</time>
      </trkpt>
      <trkpt lat="46.7983" lon="-2.07677">
        <ele>11</ele>
        <time>2019-12-31T17:35:22Z</time>
      </trkpt>
      <trkpt lat="46.7983" lon="-2.07677">
        <ele>11</ele>
        <time>2019-12-31T17:35:22Z</time>
      </trkpt>
      <trkpt lat="46.79845" lon="-2.07722">
        <ele>12</ele>
        <time>2019-12-31T17:35:28Z</time>
      </trkpt>
      <trkpt lat="46.79845" lon="-2.07722">
        <ele>12</ele>
        <time>2019-12-31T17:35:28Z</time>
      </trkpt>
      <trkpt lat="46.79865" lon="-2.07701">
        <ele>10</ele>
        <time>2019-12-31T17:35:32Z</time>
      </trkpt>
      <trkpt lat="46.79885" lon="-2.07682">
        <ele>8</ele>
        <time>2019-12-31T17:35:37Z</time>
      </trkpt>
      <trkpt lat="46.79901" lon="-2.07669">
        <ele>7</ele>
        <time>2019-12-31T17:35:40Z</time>
      </trkpt>
      <trkpt lat="46.79914" lon="-2.07661">
        <ele>6</ele>
        <time>2019-12-31T17:35:42Z</time>
      </trkpt>
      <trkpt lat="46.79953" lon="-2.0764">
        <ele>4</ele>
        <time>2019-12-31T17:35:50Z</time>
      </trkpt>
      <trkpt lat="46.79966" lon="-2.07635">
        <ele>3</ele>
        <time>2019-12-31T17:35:52Z</time>
      </trkpt>
      <trkpt lat="46.79966" lon="-2.07635">
        <ele>3</ele>
        <time>2019-12-31T17:35:52Z</time>
      </trkpt>
      <trkpt lat="46.80056" lon="-2.07589">
        <ele>1</ele>
        <time>2019-12-31T17:36:09Z</time>
      </trkpt>
      <trkpt lat="46.80062" lon="-2.07587">
        <ele>1</ele>
        <time>2019-12-31T17:36:10Z</time>
      </trkpt>
      <trkpt lat="46.80069" lon="-2.07584">
        <ele>1</ele>
        <time>2019-12-31T17:36:12Z</time>
      </trkpt>
      <trkpt lat="46.8012" lon="-2.07568">
        <ele>1</ele>
        <time>2019-12-31T17:36:21Z</time>
      </trkpt>
      <trkpt lat="46.8012" lon="-2.07568">
        <ele>1</ele>
        <time>2019-12-31T17:36:21Z</time>
      </trkpt>
      <trkpt lat="46.80125" lon="-2.076">
        <ele>1.5</ele>
        <time>2019-12-31T17:36:25Z</time>
      </trkpt>
      <trkpt lat="46.80132" lon="-2.07657">
        <ele>1.7</ele>
        <time>2019-12-31T17:36:32Z</time>
      </trkpt>
      <trkpt lat="46.80138" lon="-2.07719">
        <ele>1</ele>
        <time>2019-12-31T17:36:39Z</time>
      </trkpt>
      <trkpt lat="46.80142" lon="-2.07752">
        <ele>1</ele>
        <time>2019-12-31T17:36:44Z</time>
      </trkpt>
      <trkpt lat="46.80146" lon="-2.07771">
        <ele>1</ele>
        <time>2019-12-31T17:36:46Z</time>
      </trkpt>
      <trkpt lat="46.80155" lon="-2.07807">
        <ele>1.4</ele>
        <time>2019-12-31T17:36:51Z</time>
      </trkpt>
      <trkpt lat="46.80166" lon="-2.07841">
        <ele>2</ele>
        <time>2019-12-31T17:36:55Z</time>
      </trkpt>
      <trkpt lat="46.80182" lon="-2.07883">
        <ele>1</ele>
        <time>2019-12-31T17:37:01Z</time>
      </trkpt>
      <trkpt lat="46.80197" lon="-2.07922">
        <ele>1</ele>
        <time>2019-12-31T17:37:07Z</time>
      </trkpt>
      <trkpt lat="46.80206" lon="-2.07944">
        <ele>1</ele>
        <time>2019-12-31T17:37:10Z</time>
      </trkpt>
      <trkpt lat="46.80214" lon="-2.07957">
        <ele>1</ele>
        <time>2019-12-31T17:37:12Z</time>
      </trkpt>
      <trkpt lat="46.8022" lon="-2.07968">
        <ele>1</ele>
        <time>2019-12-31T17:37:14Z</time>
      </trkpt>
      <trkpt lat="46.80224" lon="-2.07975">
        <ele>1</ele>
        <time>2019-12-31T17:37:15Z</time>
      </trkpt>
      <trkpt lat="46.80231" lon="-2.07988">
        <ele>1</ele>
        <time>2019-12-31T17:37:17Z</time>
      </trkpt>
      <trkpt lat="46.80239" lon="-2.08005">
        <ele>2</ele>
        <time>2019-12-31T17:37:19Z</time>
      </trkpt>
      <trkpt lat="46.80243" lon="-2.08016">
        <ele>2</ele>
        <time>2019-12-31T17:37:21Z</time>
      </trkpt>
      <trkpt lat="46.80245" lon="-2.08027">
        <ele>2</ele>
        <time>2019-12-31T17:37:22Z</time>
      </trkpt>
      <trkpt lat="46.80247" lon="-2.08034">
        <ele>2</ele>
        <time>2019-12-31T17:37:23Z</time>
      </trkpt>
      <trkpt lat="46.80248" lon="-2.08044">
        <ele>2</ele>
        <time>2019-12-31T17:37:24Z</time>
      </trkpt>
      <trkpt lat="46.80249" lon="-2.08061">
        <ele>2</ele>
        <time>2019-12-31T17:37:26Z</time>
      </trkpt>
      <trkpt lat="46.8025" lon="-2.08104">
        <ele>2</ele>
        <time>2019-12-31T17:37:32Z</time>
      </trkpt>
      <trkpt lat="46.80252" lon="-2.08115">
        <ele>1.9</ele>
        <time>2019-12-31T17:37:33Z</time>
      </trkpt>
      <trkpt lat="46.80254" lon="-2.08125">
        <ele>1.5</ele>
        <time>2019-12-31T17:37:34Z</time>
      </trkpt>
      <trkpt lat="46.80256" lon="-2.08131">
        <ele>1</ele>
        <time>2019-12-31T17:37:35Z</time>
      </trkpt>
      <trkpt lat="46.8026" lon="-2.0814">
        <ele>1</ele>
        <time>2019-12-31T17:37:36Z</time>
      </trkpt>
      <trkpt lat="46.80274" lon="-2.08164">
        <ele>1</ele>
        <time>2019-12-31T17:37:40Z</time>
      </trkpt>
      <trkpt lat="46.8029" lon="-2.0819">
        <ele>1</ele>
        <time>2019-12-31T17:37:44Z</time>
      </trkpt>
      <trkpt lat="46.80296" lon="-2.08205">
        <ele>1</ele>
        <time>2019-12-31T17:37:47Z</time>
      </trkpt>
      <trkpt lat="46.80303" lon="-2.08225">
        <ele>2</ele>
        <time>2019-12-31T17:37:49Z</time>
      </trkpt>
      <trkpt lat="46.80306" lon="-2.08241">
        <ele>2</ele>
        <time>2019-12-31T17:37:51Z</time>
      </trkpt>
      <trkpt lat="46.80308" lon="-2.08256">
        <ele>2</ele>
        <time>2019-12-31T17:37:53Z</time>
      </trkpt>
      <trkpt lat="46.8031" lon="-2.08272">
        <ele>2</ele>
        <time>2019-12-31T17:37:55Z</time>
      </trkpt>
      <trkpt lat="46.80313" lon="-2.08306">
        <ele>2</ele>
        <time>2019-12-31T17:37:59Z</time>
      </trkpt>
      <trkpt lat="46.80316" lon="-2.08332">
        <ele>2</ele>
        <time>2019-12-31T17:38:03Z</time>
      </trkpt>
      <trkpt lat="46.80319" lon="-2.08352">
        <ele>2</ele>
        <time>2019-12-31T17:38:05Z</time>
      </trkpt>
      <trkpt lat="46.80324" lon="-2.08373">
        <ele>2</ele>
        <time>2019-12-31T17:38:08Z</time>
      </trkpt>
      <trkpt lat="46.80338" lon="-2.08432">
        <ele>2</ele>
        <time>2019-12-31T17:38:15Z</time>
      </trkpt>
      <trkpt lat="46.8034" lon="-2.08447">
        <ele>2</ele>
        <time>2019-12-31T17:38:17Z</time>
      </trkpt>
      <trkpt lat="46.80342" lon="-2.08457">
        <ele>2</ele>
        <time>2019-12-31T17:38:18Z</time>
      </trkpt>
      <trkpt lat="46.80342" lon="-2.08469">
        <ele>2</ele>
        <time>2019-12-31T17:38:20Z</time>
      </trkpt>
      <trkpt lat="46.80342" lon="-2.08485">
        <ele>2</ele>
        <time>2019-12-31T17:38:22Z</time>
      </trkpt>
      <trkpt lat="46.80342" lon="-2.08501">
        <ele>2</ele>
        <time>2019-12-31T17:38:24Z</time>
      </trkpt>
      <trkpt lat="46.80341" lon="-2.0851">
        <ele>2</ele>
        <time>2019-12-31T17:38:25Z</time>
      </trkpt>
      <trkpt lat="46.80344" lon="-2.08557">
        <ele>2</ele>
        <time>2019-12-31T17:38:31Z</time>
      </trkpt>
      <trkpt lat="46.80348" lon="-2.08583">
        <ele>2</ele>
        <time>2019-12-31T17:38:34Z</time>
      </trkpt>
      <trkpt lat="46.80352" lon="-2.08607">
        <ele>2</ele>
        <time>2019-12-31T17:38:37Z</time>
      </trkpt>
      <trkpt lat="46.80369" lon="-2.08698">
        <ele>2</ele>
        <time>2019-12-31T17:38:48Z</time>
      </trkpt>
      <trkpt lat="46.80371" lon="-2.08712">
        <ele>2</ele>
        <time>2019-12-31T17:38:50Z</time>
      </trkpt>
      <trkpt lat="46.80371" lon="-2.08722">
        <ele>2</ele>
        <time>2019-12-31T17:38:51Z</time>
      </trkpt>
      <trkpt lat="46.80371" lon="-2.08734">
        <ele>2</ele>
        <time>2019-12-31T17:38:53Z</time>
      </trkpt>
      <trkpt lat="46.80371" lon="-2.08747">
        <ele>2</ele>
        <time>2019-12-31T17:38:54Z</time>
      </trkpt>
      <trkpt lat="46.80369" lon="-2.08758">
        <ele>2</ele>
        <time>2019-12-31T17:38:56Z</time>
      </trkpt>
      <trkpt lat="46.80362" lon="-2.08791">
        <ele>2</ele>
        <time>2019-12-31T17:39:00Z</time>
      </trkpt>
      <trkpt lat="46.80361" lon="-2.08815">
        <ele>2</ele>
        <time>2019-12-31T17:39:03Z</time>
      </trkpt>
      <trkpt lat="46.80361" lon="-2.08826">
        <ele>2</ele>
        <time>2019-12-31T17:39:04Z</time>
      </trkpt>
      <trkpt lat="46.80363" lon="-2.08836">
        <ele>2</ele>
        <time>2019-12-31T17:39:06Z</time>
      </trkpt>
      <trkpt lat="46.80365" lon="-2.08849">
        <ele>2</ele>
        <time>2019-12-31T17:39:07Z</time>
      </trkpt>
      <trkpt lat="46.80368" lon="-2.08858">
        <ele>3</ele>
        <time>2019-12-31T17:39:08Z</time>
      </trkpt>
      <trkpt lat="46.80373" lon="-2.08871">
        <ele>3</ele>
        <time>2019-12-31T17:39:10Z</time>
      </trkpt>
      <trkpt lat="46.80379" lon="-2.08884">
        <ele>3</ele>
        <time>2019-12-31T17:39:12Z</time>
      </trkpt>
      <trkpt lat="46.80383" lon="-2.08894">
        <ele>3</ele>
        <time>2019-12-31T17:39:14Z</time>
      </trkpt>
      <trkpt lat="46.80386" lon="-2.08906">
        <ele>3</ele>
        <time>2019-12-31T17:39:15Z</time>
      </trkpt>
      <trkpt lat="46.80387" lon="-2.08918">
        <ele>3</ele>
        <time>2019-12-31T17:39:17Z</time>
      </trkpt>
      <trkpt lat="46.80389" lon="-2.08934">
        <ele>3</ele>
        <time>2019-12-31T17:39:19Z</time>
      </trkpt>
      <trkpt lat="46.80391" lon="-2.08958">
        <ele>3</ele>
        <time>2019-12-31T17:39:21Z</time>
      </trkpt>
      <trkpt lat="46.80393" lon="-2.08976">
        <ele>2</ele>
        <time>2019-12-31T17:39:24Z</time>
      </trkpt>
      <trkpt lat="46.80396" lon="-2.08988">
        <ele>2</ele>
        <time>2019-12-31T17:39:25Z</time>
      </trkpt>
      <trkpt lat="46.80408" lon="-2.09028">
        <ele>2</ele>
        <time>2019-12-31T17:39:31Z</time>
      </trkpt>
      <trkpt lat="46.80423" lon="-2.09072">
        <ele>2</ele>
        <time>2019-12-31T17:39:37Z</time>
      </trkpt>
      <trkpt lat="46.80448" lon="-2.09144">
        <ele>2</ele>
        <time>2019-12-31T17:39:46Z</time>
      </trkpt>
      <trkpt lat="46.80475" lon="-2.09205">
        <ele>2</ele>
        <time>2019-12-31T17:39:55Z</time>
      </trkpt>
      <trkpt lat="46.80519" lon="-2.09297">
        <ele>2</ele>
        <time>2019-12-31T17:40:09Z</time>
      </trkpt>
      <trkpt lat="46.80554" lon="-2.09372">
        <ele>2</ele>
        <time>2019-12-31T17:40:20Z</time>
      </trkpt>
      <trkpt lat="46.80588" lon="-2.09438">
        <ele>2</ele>
        <time>2019-12-31T17:40:30Z</time>
      </trkpt>
      <trkpt lat="46.80588" lon="-2.09438">
        <ele>2</ele>
        <time>2019-12-31T17:40:30Z</time>
      </trkpt>
      <trkpt lat="46.80595" lon="-2.09435">
        <ele>2</ele>
        <time>2019-12-31T17:40:31Z</time>
      </trkpt>
      <trkpt lat="46.80595" lon="-2.09435">
        <ele>2</ele>
        <time>2019-12-31T17:40:31Z</time>
      </trkpt>
      <trkpt lat="46.806" lon="-2.09444">
        <ele>2</ele>
        <time>2019-12-31T17:40:33Z</time>
      </trkpt>
      <trkpt lat="46.80621" lon="-2.09479">
        <ele>2</ele>
        <time>2019-12-31T17:40:38Z</time>
      </trkpt>
      <trkpt lat="46.80634" lon="-2.09501">
        <ele>2</ele>
        <time>2019-12-31T17:40:42Z</time>
      </trkpt>
      <trkpt lat="46.8066" lon="-2.09528">
        <ele>2</ele>
        <time>2019-12-31T17:40:48Z</time>
      </trkpt>
      <trkpt lat="46.80682" lon="-2.09549">
        <ele>1</ele>
        <time>2019-12-31T17:40:52Z</time>
      </trkpt>
      <trkpt lat="46.80693" lon="-2.09565">
        <ele>1</ele>
        <time>2019-12-31T17:40:55Z</time>
      </trkpt>
      <trkpt lat="46.80695" lon="-2.09568">
        <ele>1</ele>
        <time>2019-12-31T17:40:56Z</time>
      </trkpt>
      <trkpt lat="46.80716" lon="-2.09614">
        <ele>1</ele>
        <time>2019-12-31T17:41:02Z</time>
      </trkpt>
      <trkpt lat="46.80743" lon="-2.09668">
        <ele>1</ele>
        <time>2019-12-31T17:41:10Z</time>
      </trkpt>
      <trkpt lat="46.80778" lon="-2.0974">
        <ele>2</ele>
        <time>2019-12-31T17:41:21Z</time>
      </trkpt>
      <trkpt lat="46.80818" lon="-2.0982">
        <ele>1</ele>
        <time>2019-12-31T17:41:33Z</time>
      </trkpt>
      <trkpt lat="46.80849" lon="-2.09877">
        <ele>1.8</ele>
        <time>2019-12-31T17:41:42Z</time>
      </trkpt>
      <trkpt lat="46.80862" lon="-2.09906">
        <ele>2</ele>
        <time>2019-12-31T17:41:46Z</time>
      </trkpt>
      <trkpt lat="46.80885" lon="-2.09965">
        <ele>1</ele>
        <time>2019-12-31T17:41:55Z</time>
      </trkpt>
      <trkpt lat="46.80896" lon="-2.09992">
        <ele>2</ele>
        <time>2019-12-31T17:41:58Z</time>
      </trkpt>
      <trkpt lat="46.80925" lon="-2.10049">
        <ele>1</ele>
        <time>2019-12-31T17:42:07Z</time>
      </trkpt>
      <trkpt lat="46.80947" lon="-2.10089">
        <ele>1</ele>
        <time>2019-12-31T17:42:13Z</time>
      </trkpt>
      <trkpt lat="46.80973" lon="-2.10139">
        <ele>1</ele>
        <time>2019-12-31T17:42:21Z</time>
      </trkpt>
      <trkpt lat="46.80988" lon="-2.10167">
        <ele>1</ele>
        <time>2019-12-31T17:42:25Z</time>
      </trkpt>
      <trkpt lat="46.80999" lon="-2.10184">
        <ele>1</ele>
        <time>2019-12-31T17:42:28Z</time>
      </trkpt>
      <trkpt lat="46.81015" lon="-2.10203">
        <ele>1</ele>
        <time>2019-12-31T17:42:32Z</time>
      </trkpt>
      <trkpt lat="46.81034" lon="-2.10222">
        <ele>1</ele>
        <time>2019-12-31T17:42:36Z</time>
      </trkpt>
      <trkpt lat="46.81048" lon="-2.10241">
        <ele>1</ele>
        <time>2019-12-31T17:42:39Z</time>
      </trkpt>
      <trkpt lat="46.81056" lon="-2.10261">
        <ele>1</ele>
        <time>2019-12-31T17:42:42Z</time>
      </trkpt>
      <trkpt lat="46.81064" lon="-2.10284">
        <ele>1</ele>
        <time>2019-12-31T17:42:45Z</time>
      </trkpt>
      <trkpt lat="46.81071" lon="-2.10311">
        <ele>2</ele>
        <time>2019-12-31T17:42:49Z</time>
      </trkpt>
      <trkpt lat="46.81082" lon="-2.10346">
        <ele>2</ele>
        <time>2019-12-31T17:42:53Z</time>
      </trkpt>
      <trkpt lat="46.81095" lon="-2.10383">
        <ele>2</ele>
        <time>2019-12-31T17:42:59Z</time>
      </trkpt>
      <trkpt lat="46.81114" lon="-2.10421">
        <ele>2</ele>
        <time>2019-12-31T17:43:04Z</time>
      </trkpt>
      <trkpt lat="46.81142" lon="-2.10473">
        <ele>1</ele>
        <time>2019-12-31T17:43:12Z</time>
      </trkpt>
      <trkpt lat="46.81159" lon="-2.10507">
        <ele>1</ele>
        <time>2019-12-31T17:43:17Z</time>
      </trkpt>
      <trkpt lat="46.81171" lon="-2.10527">
        <ele>1</ele>
        <time>2019-12-31T17:43:21Z</time>
      </trkpt>
      <trkpt lat="46.81189" lon="-2.10551">
        <ele>2</ele>
        <time>2019-12-31T17:43:25Z</time>
      </trkpt>
      <trkpt lat="46.81226" lon="-2.10589">
        <ele>2</ele>
        <time>2019-12-31T17:43:33Z</time>
      </trkpt>
      <trkpt lat="46.81247" lon="-2.10609">
        <ele>1</ele>
        <time>2019-12-31T17:43:38Z</time>
      </trkpt>
      <trkpt lat="46.8127" lon="-2.10627">
        <ele>1</ele>
        <time>2019-12-31T17:43:42Z</time>
      </trkpt>
      <trkpt lat="46.81293" lon="-2.10644">
        <ele>1</ele>
        <time>2019-12-31T17:43:47Z</time>
      </trkpt>
      <trkpt lat="46.81321" lon="-2.10667">
        <ele>2</ele>
        <time>2019-12-31T17:43:52Z</time>
      </trkpt>
      <trkpt lat="46.81341" lon="-2.10681">
        <ele>2</ele>
        <time>2019-12-31T17:43:56Z</time>
      </trkpt>
      <trkpt lat="46.81344" lon="-2.10684">
        <ele>2</ele>
        <time>2019-12-31T17:43:57Z</time>
      </trkpt>
      <trkpt lat="46.81358" lon="-2.10694">
        <ele>2</ele>
        <time>2019-12-31T17:44:00Z</time>
      </trkpt>
      <trkpt lat="46.81369" lon="-2.10702">
        <ele>2</ele>
        <time>2019-12-31T17:44:02Z</time>
      </trkpt>
      <trkpt lat="46.81388" lon="-2.10717">
        <ele>1</ele>
        <time>2019-12-31T17:44:06Z</time>
      </trkpt>
      <trkpt lat="46.81404" lon="-2.1073">
        <ele>1</ele>
        <time>2019-12-31T17:44:09Z</time>
      </trkpt>
      <trkpt lat="46.81422" lon="-2.10745">
        <ele>1</ele>
        <time>2019-12-31T17:44:13Z</time>
      </trkpt>
      <trkpt lat="46.81425" lon="-2.10747">
        <ele>1</ele>
        <time>2019-12-31T17:44:13Z</time>
      </trkpt>
      <trkpt lat="46.81437" lon="-2.10757">
        <ele>1</ele>
        <time>2019-12-31T17:44:16Z</time>
      </trkpt>
      <trkpt lat="46.81452" lon="-2.10773">
        <ele>1.7</ele>
        <time>2019-12-31T17:44:19Z</time>
      </trkpt>
      <trkpt lat="46.81463" lon="-2.10788">
        <ele>1.5</ele>
        <time>2019-12-31T17:44:22Z</time>
      </trkpt>
      <trkpt lat="46.81473" lon="-2.10802">
        <ele>1.9</ele>
        <time>2019-12-31T17:44:24Z</time>
      </trkpt>
      <trkpt lat="46.81482" lon="-2.10816">
        <ele>2</ele>
        <time>2019-12-31T17:44:27Z</time>
      </trkpt>
      <trkpt lat="46.81495" lon="-2.10831">
        <ele>2</ele>
        <time>2019-12-31T17:44:30Z</time>
      </trkpt>
      <trkpt lat="46.81509" lon="-2.10843">
        <ele>2</ele>
        <time>2019-12-31T17:44:33Z</time>
      </trkpt>
      <trkpt lat="46.81526" lon="-2.10852">
        <ele>2</ele>
        <time>2019-12-31T17:44:36Z</time>
      </trkpt>
      <trkpt lat="46.8154" lon="-2.10858">
        <ele>2</ele>
        <time>2019-12-31T17:44:38Z</time>
      </trkpt>
      <trkpt lat="46.81556" lon="-2.10867">
        <ele>1.8</ele>
        <time>2019-12-31T17:44:41Z</time>
      </trkpt>
      <trkpt lat="46.8157" lon="-2.10878">
        <ele>1.5</ele>
        <time>2019-12-31T17:44:44Z</time>
      </trkpt>
      <trkpt lat="46.81581" lon="-2.10893">
        <ele>1.9</ele>
        <time>2019-12-31T17:44:47Z</time>
      </trkpt>
      <trkpt lat="46.81591" lon="-2.10913">
        <ele>2</ele>
        <time>2019-12-31T17:44:50Z</time>
      </trkpt>
      <trkpt lat="46.81601" lon="-2.10939">
        <ele>2</ele>
        <time>2019-12-31T17:44:54Z</time>
      </trkpt>
      <trkpt lat="46.81612" lon="-2.10962">
        <ele>1</ele>
        <time>2019-12-31T17:44:57Z</time>
      </trkpt>
      <trkpt lat="46.81623" lon="-2.10984">
        <ele>1</ele>
        <time>2019-12-31T17:45:00Z</time>
      </trkpt>
      <trkpt lat="46.8163" lon="-2.10997">
        <ele>1</ele>
        <time>2019-12-31T17:45:02Z</time>
      </trkpt>
      <trkpt lat="46.81643" lon="-2.11017">
        <ele>1</ele>
        <time>2019-12-31T17:45:06Z</time>
      </trkpt>
      <trkpt lat="46.81652" lon="-2.11032">
        <ele>1</ele>
        <time>2019-12-31T17:45:08Z</time>
      </trkpt>
      <trkpt lat="46.81664" lon="-2.11054">
        <ele>1.9</ele>
        <time>2019-12-31T17:45:11Z</time>
      </trkpt>
      <trkpt lat="46.81676" lon="-2.11076">
        <ele>1.4</ele>
        <time>2019-12-31T17:45:15Z</time>
      </trkpt>
      <trkpt lat="46.81686" lon="-2.11093">
        <ele>1.8</ele>
        <time>2019-12-31T17:45:18Z</time>
      </trkpt>
      <trkpt lat="46.81703" lon="-2.11109">
        <ele>1</ele>
        <time>2019-12-31T17:45:21Z</time>
      </trkpt>
      <trkpt lat="46.81712" lon="-2.11121">
        <ele>1</ele>
        <time>2019-12-31T17:45:23Z</time>
      </trkpt>
      <trkpt lat="46.81724" lon="-2.11139">
        <ele>1</ele>
        <time>2019-12-31T17:45:26Z</time>
      </trkpt>
      <trkpt lat="46.81731" lon="-2.1115">
        <ele>1</ele>
        <time>2019-12-31T17:45:28Z</time>
      </trkpt>
      <trkpt lat="46.81735" lon="-2.1116">
        <ele>2</ele>
        <time>2019-12-31T17:45:30Z</time>
      </trkpt>
      <trkpt lat="46.81737" lon="-2.11166">
        <ele>2</ele>
        <time>2019-12-31T17:45:31Z</time>
      </trkpt>
      <trkpt lat="46.81738" lon="-2.11173">
        <ele>2</ele>
        <time>2019-12-31T17:45:31Z</time>
      </trkpt>
      <trkpt lat="46.8174" lon="-2.1118">
        <ele>2</ele>
        <time>2019-12-31T17:45:32Z</time>
      </trkpt>
      <trkpt lat="46.81741" lon="-2.11189">
        <ele>2</ele>
        <time>2019-12-31T17:45:33Z</time>
      </trkpt>
      <trkpt lat="46.81743" lon="-2.11209">
        <ele>1</ele>
        <time>2019-12-31T17:45:36Z</time>
      </trkpt>
      <trkpt lat="46.81743" lon="-2.11209">
        <ele>1</ele>
        <time>2019-12-31T17:45:36Z</time>
      </trkpt>
      <trkpt lat="46.8175" lon="-2.11214">
        <ele>1</ele>
        <time>2019-12-31T17:45:37Z</time>
      </trkpt>
      <trkpt lat="46.81761" lon="-2.11222">
        <ele>1</ele>
        <time>2019-12-31T17:45:39Z</time>
      </trkpt>
      <trkpt lat="46.81775" lon="-2.11235">
        <ele>1</ele>
        <time>2019-12-31T17:45:42Z</time>
      </trkpt>
      <trkpt lat="46.81783" lon="-2.11249">
        <ele>1</ele>
        <time>2019-12-31T17:45:45Z</time>
      </trkpt>
      <trkpt lat="46.81787" lon="-2.11254">
        <ele>1</ele>
        <time>2019-12-31T17:45:46Z</time>
      </trkpt>
      <trkpt lat="46.81791" lon="-2.11268">
        <ele>1</ele>
        <time>2019-12-31T17:45:47Z</time>
      </trkpt>
      <trkpt lat="46.81791" lon="-2.11268">
        <ele>1</ele>
        <time>2019-12-31T17:45:47Z</time>
      </trkpt>
      <trkpt lat="46.81806" lon="-2.11266">
        <ele>1</ele>
        <time>2019-12-31T17:45:50Z</time>
      </trkpt>
      <trkpt lat="46.81815" lon="-2.11264">
        <ele>1</ele>
        <time>2019-12-31T17:45:52Z</time>
      </trkpt>
      <trkpt lat="46.81823" lon="-2.11261">
        <ele>1</ele>
        <time>2019-12-31T17:45:53Z</time>
      </trkpt>
      <trkpt lat="46.81847" lon="-2.11252">
        <ele>1</ele>
        <time>2019-12-31T17:45:58Z</time>
      </trkpt>
      <trkpt lat="46.81854" lon="-2.1125">
        <ele>1</ele>
        <time>2019-12-31T17:45:59Z</time>
      </trkpt>
      <trkpt lat="46.81865" lon="-2.11247">
        <ele>1</ele>
        <time>2019-12-31T17:46:01Z</time>
      </trkpt>
      <trkpt lat="46.81882" lon="-2.11242">
        <ele>1</ele>
        <time>2019-12-31T17:46:04Z</time>
      </trkpt>
      <trkpt lat="46.81889" lon="-2.11238">
        <ele>1</ele>
        <time>2019-12-31T17:46:05Z</time>
      </trkpt>
      <trkpt lat="46.81899" lon="-2.11231">
        <ele>1</ele>
        <time>2019-12-31T17:46:07Z</time>
      </trkpt>
      <trkpt lat="46.81908" lon="-2.11218">
        <ele>1</ele>
        <time>2019-12-31T17:46:09Z</time>
      </trkpt>
      <trkpt lat="46.81916" lon="-2.11203">
        <ele>1</ele>
        <time>2019-12-31T17:46:12Z</time>
      </trkpt>
      <trkpt lat="46.81923" lon="-2.11188">
        <ele>1</ele>
        <time>2019-12-31T17:46:14Z</time>
      </trkpt>
      <trkpt lat="46.81931" lon="-2.11168">
        <ele>1</ele>
        <time>2019-12-31T17:46:17Z</time>
      </trkpt>
      <trkpt lat="46.81941" lon="-2.1115">
        <ele>1</ele>
        <time>2019-12-31T17:46:20Z</time>
      </trkpt>
      <trkpt lat="46.81955" lon="-2.11137">
        <ele>1</ele>
        <time>2019-12-31T17:46:23Z</time>
      </trkpt>
      <trkpt lat="46.81972" lon="-2.11126">
        <ele>2</ele>
        <time>2019-12-31T17:46:26Z</time>
      </trkpt>
      <trkpt lat="46.81995" lon="-2.11112">
        <ele>2</ele>
        <time>2019-12-31T17:46:30Z</time>
      </trkpt>
      <trkpt lat="46.82015" lon="-2.11099">
        <ele>1.8</ele>
        <time>2019-12-31T17:46:34Z</time>
      </trkpt>
      <trkpt lat="46.8204" lon="-2.11088">
        <ele>1</ele>
        <time>2019-12-31T17:46:39Z</time>
      </trkpt>
      <trkpt lat="46.82056" lon="-2.11084">
        <ele>1</ele>
        <time>2019-12-31T17:46:42Z</time>
      </trkpt>
      <trkpt lat="46.8207" lon="-2.11082">
        <ele>1</ele>
        <time>2019-12-31T17:46:44Z</time>
      </trkpt>
      <trkpt lat="46.82079" lon="-2.11079">
        <ele>1</ele>
        <time>2019-12-31T17:46:46Z</time>
      </trkpt>
      <trkpt lat="46.82084" lon="-2.11075">
        <ele>1</ele>
        <time>2019-12-31T17:46:47Z</time>
      </trkpt>
      <trkpt lat="46.8209" lon="-2.11072">
        <ele>1</ele>
        <time>2019-12-31T17:46:48Z</time>
      </trkpt>
      <trkpt lat="46.82091" lon="-2.1107">
        <ele>1</ele>
        <time>2019-12-31T17:46:48Z</time>
      </trkpt>
      <trkpt lat="46.82099" lon="-2.11061">
        <ele>1</ele>
        <time>2019-12-31T17:46:50Z</time>
      </trkpt>
      <trkpt lat="46.82107" lon="-2.1105">
        <ele>1</ele>
        <time>2019-12-31T17:46:52Z</time>
      </trkpt>
      <trkpt lat="46.82115" lon="-2.11036">
        <ele>1</ele>
        <time>2019-12-31T17:46:54Z</time>
      </trkpt>
      <trkpt lat="46.82116" lon="-2.11033">
        <ele>1</ele>
        <time>2019-12-31T17:46:55Z</time>
      </trkpt>
      <trkpt lat="46.82122" lon="-2.11023">
        <ele>1</ele>
        <time>2019-12-31T17:46:56Z</time>
      </trkpt>
      <trkpt lat="46.8213" lon="-2.11014">
        <ele>1</ele>
        <time>2019-12-31T17:46:58Z</time>
      </trkpt>
      <trkpt lat="46.82133" lon="-2.1101">
        <ele>1</ele>
        <time>2019-12-31T17:46:59Z</time>
      </trkpt>
      <trkpt lat="46.82142" lon="-2.11006">
        <ele>1</ele>
        <time>2019-12-31T17:47:01Z</time>
      </trkpt>
      <trkpt lat="46.82146" lon="-2.11005">
        <ele>1</ele>
        <time>2019-12-31T17:47:01Z</time>
      </trkpt>
      <trkpt lat="46.82146" lon="-2.11005">
        <ele>1</ele>
        <time>2019-12-31T17:47:01Z</time>
      </trkpt>
      <trkpt lat="46.82152" lon="-2.11003">
        <ele>1</ele>
        <time>2019-12-31T17:47:02Z</time>
      </trkpt>
      <trkpt lat="46.82165" lon="-2.11001">
        <ele>1</ele>
        <time>2019-12-31T17:47:05Z</time>
      </trkpt>
      <trkpt lat="46.8218" lon="-2.11001">
        <ele>1</ele>
        <time>2019-12-31T17:47:07Z</time>
      </trkpt>
      <trkpt lat="46.82196" lon="-2.11001">
        <ele>1</ele>
        <time>2019-12-31T17:47:10Z</time>
      </trkpt>
      <trkpt lat="46.82209" lon="-2.10999">
        <ele>1</ele>
        <time>2019-12-31T17:47:13Z</time>
      </trkpt>
      <trkpt lat="46.82219" lon="-2.10992">
        <ele>1</ele>
        <time>2019-12-31T17:47:15Z</time>
      </trkpt>
      <trkpt lat="46.82225" lon="-2.10987">
        <ele>1</ele>
        <time>2019-12-31T17:47:16Z</time>
      </trkpt>
      <trkpt lat="46.82231" lon="-2.10978">
        <ele>1</ele>
        <time>2019-12-31T17:47:17Z</time>
      </trkpt>
      <trkpt lat="46.82239" lon="-2.10965">
        <ele>1</ele>
        <time>2019-12-31T17:47:19Z</time>
      </trkpt>
      <trkpt lat="46.82248" lon="-2.10953">
        <ele>1.7</ele>
        <time>2019-12-31T17:47:22Z</time>
      </trkpt>
      <trkpt lat="46.82259" lon="-2.10943">
        <ele>1.7</ele>
        <time>2019-12-31T17:47:24Z</time>
      </trkpt>
      <trkpt lat="46.82269" lon="-2.10934">
        <ele>1.3</ele>
        <time>2019-12-31T17:47:26Z</time>
      </trkpt>
      <trkpt lat="46.82285" lon="-2.10922">
        <ele>1.3</ele>
        <time>2019-12-31T17:47:29Z</time>
      </trkpt>
      <trkpt lat="46.82301" lon="-2.10912">
        <ele>1.9</ele>
        <time>2019-12-31T17:47:32Z</time>
      </trkpt>
      <trkpt lat="46.82319" lon="-2.10905">
        <ele>1.8</ele>
        <time>2019-12-31T17:47:36Z</time>
      </trkpt>
      <trkpt lat="46.82339" lon="-2.10897">
        <ele>1.4</ele>
        <time>2019-12-31T17:47:39Z</time>
      </trkpt>
      <trkpt lat="46.82363" lon="-2.10889">
        <ele>2</ele>
        <time>2019-12-31T17:47:44Z</time>
      </trkpt>
      <trkpt lat="46.82388" lon="-2.1088">
        <ele>2</ele>
        <time>2019-12-31T17:47:48Z</time>
      </trkpt>
      <trkpt lat="46.8242" lon="-2.10869">
        <ele>1</ele>
        <time>2019-12-31T17:47:54Z</time>
      </trkpt>
      <trkpt lat="46.8245" lon="-2.10858">
        <ele>1</ele>
        <time>2019-12-31T17:48:00Z</time>
      </trkpt>
      <trkpt lat="46.82466" lon="-2.10848">
        <ele>1</ele>
        <time>2019-12-31T17:48:03Z</time>
      </trkpt>
      <trkpt lat="46.82477" lon="-2.10837">
        <ele>1</ele>
        <time>2019-12-31T17:48:05Z</time>
      </trkpt>
      <trkpt lat="46.82488" lon="-2.10827">
        <ele>1</ele>
        <time>2019-12-31T17:48:07Z</time>
      </trkpt>
      <trkpt lat="46.82495" lon="-2.10824">
        <ele>1</ele>
        <time>2019-12-31T17:48:09Z</time>
      </trkpt>
      <trkpt lat="46.82502" lon="-2.10823">
        <ele>1</ele>
        <time>2019-12-31T17:48:10Z</time>
      </trkpt>
      <trkpt lat="46.8251" lon="-2.10826">
        <ele>1</ele>
        <time>2019-12-31T17:48:11Z</time>
      </trkpt>
      <trkpt lat="46.82519" lon="-2.1083">
        <ele>1</ele>
        <time>2019-12-31T17:48:13Z</time>
      </trkpt>
      <trkpt lat="46.82532" lon="-2.10833">
        <ele>1</ele>
        <time>2019-12-31T17:48:15Z</time>
      </trkpt>
      <trkpt lat="46.82545" lon="-2.10832">
        <ele>1</ele>
        <time>2019-12-31T17:48:18Z</time>
      </trkpt>
      <trkpt lat="46.82558" lon="-2.10828">
        <ele>1</ele>
        <time>2019-12-31T17:48:20Z</time>
      </trkpt>
      <trkpt lat="46.82576" lon="-2.10814">
        <ele>1</ele>
        <time>2019-12-31T17:48:24Z</time>
      </trkpt>
      <trkpt lat="46.82589" lon="-2.10799">
        <ele>1</ele>
        <time>2019-12-31T17:48:27Z</time>
      </trkpt>
      <trkpt lat="46.826" lon="-2.10781">
        <ele>1</ele>
        <time>2019-12-31T17:48:30Z</time>
      </trkpt>
      <trkpt lat="46.82611" lon="-2.10765">
        <ele>1</ele>
        <time>2019-12-31T17:48:32Z</time>
      </trkpt>
      <trkpt lat="46.82616" lon="-2.1076">
        <ele>1</ele>
        <time>2019-12-31T17:48:33Z</time>
      </trkpt>
      <trkpt lat="46.8262" lon="-2.10756">
        <ele>1</ele>
        <time>2019-12-31T17:48:34Z</time>
      </trkpt>
      <trkpt lat="46.82627" lon="-2.10753">
        <ele>2</ele>
        <time>2019-12-31T17:48:36Z</time>
      </trkpt>
      <trkpt lat="46.8264" lon="-2.1075">
        <ele>2</ele>
        <time>2019-12-31T17:48:38Z</time>
      </trkpt>
      <trkpt lat="46.82655" lon="-2.10749">
        <ele>2</ele>
        <time>2019-12-31T17:48:41Z</time>
      </trkpt>
      <trkpt lat="46.8267" lon="-2.1075">
        <ele>1.9</ele>
        <time>2019-12-31T17:48:43Z</time>
      </trkpt>
      <trkpt lat="46.82673" lon="-2.10749">
        <ele>1.8</ele>
        <time>2019-12-31T17:48:44Z</time>
      </trkpt>
      <trkpt lat="46.82679" lon="-2.10748">
        <ele>1.6</ele>
        <time>2019-12-31T17:48:45Z</time>
      </trkpt>
      <trkpt lat="46.82685" lon="-2.10742">
        <ele>1.5</ele>
        <time>2019-12-31T17:48:46Z</time>
      </trkpt>
      <trkpt lat="46.82699" lon="-2.10728">
        <ele>1.8</ele>
        <time>2019-12-31T17:48:49Z</time>
      </trkpt>
      <trkpt lat="46.82722" lon="-2.10701">
        <ele>2</ele>
        <time>2019-12-31T17:48:54Z</time>
      </trkpt>
      <trkpt lat="46.8275" lon="-2.1067">
        <ele>2</ele>
        <time>2019-12-31T17:49:01Z</time>
      </trkpt>
      <trkpt lat="46.8278" lon="-2.10637">
        <ele>2</ele>
        <time>2019-12-31T17:49:07Z</time>
      </trkpt>
      <trkpt lat="46.82803" lon="-2.10612">
        <ele>2</ele>
        <time>2019-12-31T17:49:12Z</time>
      </trkpt>
      <trkpt lat="46.8282" lon="-2.10596">
        <ele>2</ele>
        <time>2019-12-31T17:49:16Z</time>
      </trkpt>
      <trkpt lat="46.82824" lon="-2.10592">
        <ele>2</ele>
        <time>2019-12-31T17:49:17Z</time>
      </trkpt>
      <trkpt lat="46.82831" lon="-2.1059">
        <ele>2</ele>
        <time>2019-12-31T17:49:18Z</time>
      </trkpt>
      <trkpt lat="46.8284" lon="-2.1059">
        <ele>2</ele>
        <time>2019-12-31T17:49:20Z</time>
      </trkpt>
      <trkpt lat="46.82851" lon="-2.10592">
        <ele>2</ele>
        <time>2019-12-31T17:49:22Z</time>
      </trkpt>
      <trkpt lat="46.82862" lon="-2.10597">
        <ele>2</ele>
        <time>2019-12-31T17:49:24Z</time>
      </trkpt>
      <trkpt lat="46.82873" lon="-2.10602">
        <ele>1.9</ele>
        <time>2019-12-31T17:49:26Z</time>
      </trkpt>
      <trkpt lat="46.8289" lon="-2.10605">
        <ele>1.8</ele>
        <time>2019-12-31T17:49:29Z</time>
      </trkpt>
      <trkpt lat="46.82906" lon="-2.10604">
        <ele>1.9</ele>
        <time>2019-12-31T17:49:32Z</time>
      </trkpt>
      <trkpt lat="46.8292" lon="-2.10601">
        <ele>1.9</ele>
        <time>2019-12-31T17:49:34Z</time>
      </trkpt>
      <trkpt lat="46.82937" lon="-2.10592">
        <ele>1.8</ele>
        <time>2019-12-31T17:49:38Z</time>
      </trkpt>
      <trkpt lat="46.82945" lon="-2.10585">
        <ele>1.9</ele>
        <time>2019-12-31T17:49:39Z</time>
      </trkpt>
      <trkpt lat="46.82953" lon="-2.10572">
        <ele>1</ele>
        <time>2019-12-31T17:49:41Z</time>
      </trkpt>
      <trkpt lat="46.82968" lon="-2.10551">
        <ele>1</ele>
        <time>2019-12-31T17:49:45Z</time>
      </trkpt>
      <trkpt lat="46.82984" lon="-2.10534">
        <ele>2</ele>
        <time>2019-12-31T17:49:49Z</time>
      </trkpt>
      <trkpt lat="46.82994" lon="-2.10526">
        <ele>2</ele>
        <time>2019-12-31T17:49:51Z</time>
      </trkpt>
      <trkpt lat="46.83001" lon="-2.1052">
        <ele>2</ele>
        <time>2019-12-31T17:49:52Z</time>
      </trkpt>
      <trkpt lat="46.83002" lon="-2.1052">
        <ele>2</ele>
        <time>2019-12-31T17:49:52Z</time>
      </trkpt>
      <trkpt lat="46.83023" lon="-2.10507">
        <ele>2</ele>
        <time>2019-12-31T17:49:56Z</time>
      </trkpt>
      <trkpt lat="46.83038" lon="-2.10498">
        <ele>2</ele>
        <time>2019-12-31T17:49:59Z</time>
      </trkpt>
      <trkpt lat="46.83044" lon="-2.10496">
        <ele>1</ele>
        <time>2019-12-31T17:50:00Z</time>
      </trkpt>
      <trkpt lat="46.83051" lon="-2.10492">
        <ele>1</ele>
        <time>2019-12-31T17:50:02Z</time>
      </trkpt>
      <trkpt lat="46.83061" lon="-2.10489">
        <ele>1</ele>
        <time>2019-12-31T17:50:03Z</time>
      </trkpt>
      <trkpt lat="46.83076" lon="-2.10485">
        <ele>1</ele>
        <time>2019-12-31T17:50:06Z</time>
      </trkpt>
      <trkpt lat="46.83096" lon="-2.10477">
        <ele>1</ele>
        <time>2019-12-31T17:50:10Z</time>
      </trkpt>
      <trkpt lat="46.83107" lon="-2.1047">
        <ele>1</ele>
        <time>2019-12-31T17:50:12Z</time>
      </trkpt>
      <trkpt lat="46.83115" lon="-2.10465">
        <ele>1</ele>
        <time>2019-12-31T17:50:13Z</time>
      </trkpt>
      <trkpt lat="46.83124" lon="-2.10459">
        <ele>1</ele>
        <time>2019-12-31T17:50:15Z</time>
      </trkpt>
      <trkpt lat="46.83157" lon="-2.10432">
        <ele>2</ele>
        <time>2019-12-31T17:50:22Z</time>
      </trkpt>
      <trkpt lat="46.83195" lon="-2.10398">
        <ele>2</ele>
        <time>2019-12-31T17:50:30Z</time>
      </trkpt>
      <trkpt lat="46.83224" lon="-2.10371">
        <ele>1</ele>
        <time>2019-12-31T17:50:36Z</time>
      </trkpt>
      <trkpt lat="46.83238" lon="-2.10358">
        <ele>1</ele>
        <time>2019-12-31T17:50:39Z</time>
      </trkpt>
      <trkpt lat="46.83283" lon="-2.10318">
        <ele>1</ele>
        <time>2019-12-31T17:50:48Z</time>
      </trkpt>
      <trkpt lat="46.83342" lon="-2.10273">
        <ele>2</ele>
        <time>2019-12-31T17:51:00Z</time>
      </trkpt>
      <trkpt lat="46.83379" lon="-2.10252">
        <ele>1</ele>
        <time>2019-12-31T17:51:07Z</time>
      </trkpt>
      <trkpt lat="46.8339" lon="-2.10244">
        <ele>1</ele>
        <time>2019-12-31T17:51:09Z</time>
      </trkpt>
      <trkpt lat="46.83408" lon="-2.10233">
        <ele>1</ele>
        <time>2019-12-31T17:51:13Z</time>
      </trkpt>
      <trkpt lat="46.83414" lon="-2.10225">
        <ele>1</ele>
        <time>2019-12-31T17:51:14Z</time>
      </trkpt>
      <trkpt lat="46.83434" lon="-2.10206">
        <ele>1</ele>
        <time>2019-12-31T17:51:19Z</time>
      </trkpt>
      <trkpt lat="46.83467" lon="-2.10172">
        <ele>1</ele>
        <time>2019-12-31T17:51:26Z</time>
      </trkpt>
      <trkpt lat="46.8348" lon="-2.10159">
        <ele>1</ele>
        <time>2019-12-31T17:51:29Z</time>
      </trkpt>
      <trkpt lat="46.83503" lon="-2.10137">
        <ele>1</ele>
        <time>2019-12-31T17:51:33Z</time>
      </trkpt>
      <trkpt lat="46.83516" lon="-2.10126">
        <ele>1.8</ele>
        <time>2019-12-31T17:51:36Z</time>
      </trkpt>
      <trkpt lat="46.83545" lon="-2.10099">
        <ele>2</ele>
        <time>2019-12-31T17:51:42Z</time>
      </trkpt>
      <trkpt lat="46.83576" lon="-2.10071">
        <ele>1.6</ele>
        <time>2019-12-31T17:51:49Z</time>
      </trkpt>
      <trkpt lat="46.83588" lon="-2.10059">
        <ele>1.9</ele>
        <time>2019-12-31T17:51:51Z</time>
      </trkpt>
      <trkpt lat="46.83603" lon="-2.10045">
        <ele>1</ele>
        <time>2019-12-31T17:51:54Z</time>
      </trkpt>
      <trkpt lat="46.83626" lon="-2.10021">
        <ele>1</ele>
        <time>2019-12-31T17:51:59Z</time>
      </trkpt>
      <trkpt lat="46.83649" lon="-2.09991">
        <ele>1</ele>
        <time>2019-12-31T17:52:05Z</time>
      </trkpt>
      <trkpt lat="46.83677" lon="-2.09954">
        <ele>1</ele>
        <time>2019-12-31T17:52:12Z</time>
      </trkpt>
      <trkpt lat="46.83688" lon="-2.09937">
        <ele>1</ele>
        <time>2019-12-31T17:52:15Z</time>
      </trkpt>
      <trkpt lat="46.83701" lon="-2.09924">
        <ele>1</ele>
        <time>2019-12-31T17:52:17Z</time>
      </trkpt>
      <trkpt lat="46.83701" lon="-2.09924">
        <ele>1</ele>
        <time>2019-12-31T17:52:17Z</time>
      </trkpt>
      <trkpt lat="46.83703" lon="-2.09925">
        <ele>1</ele>
        <time>2019-12-31T17:52:18Z</time>
      </trkpt>
      <trkpt lat="46.83708" lon="-2.09928">
        <ele>1</ele>
        <time>2019-12-31T17:52:19Z</time>
      </trkpt>
      <trkpt lat="46.83715" lon="-2.09931">
        <ele>1</ele>
        <time>2019-12-31T17:52:20Z</time>
      </trkpt>
      <trkpt lat="46.83739" lon="-2.09942">
        <ele>2</ele>
        <time>2019-12-31T17:52:24Z</time>
      </trkpt>
      <trkpt lat="46.83739" lon="-2.09942">
        <ele>2</ele>
        <time>2019-12-31T17:52:24Z</time>
      </trkpt>
      <trkpt lat="46.83748" lon="-2.09936">
        <ele>2</ele>
        <time>2019-12-31T17:52:26Z</time>
      </trkpt>
      <trkpt lat="46.83761" lon="-2.09927">
        <ele>3</ele>
        <time>2019-12-31T17:52:29Z</time>
      </trkpt>
      <trkpt lat="46.83773" lon="-2.09903">
        <ele>3</ele>
        <time>2019-12-31T17:52:32Z</time>
      </trkpt>
      <trkpt lat="46.83779" lon="-2.09897">
        <ele>3</ele>
        <time>2019-12-31T17:52:34Z</time>
      </trkpt>
      <trkpt lat="46.83784" lon="-2.09892">
        <ele>4</ele>
        <time>2019-12-31T17:52:35Z</time>
      </trkpt>
      <trkpt lat="46.83789" lon="-2.09887">
        <ele>4</ele>
        <time>2019-12-31T17:52:36Z</time>
      </trkpt>
      <trkpt lat="46.83803" lon="-2.09877">
        <ele>4</ele>
        <time>2019-12-31T17:52:39Z</time>
      </trkpt>
      <trkpt lat="46.83826" lon="-2.09864">
        <ele>4</ele>
        <time>2019-12-31T17:52:43Z</time>
      </trkpt>
      <trkpt lat="46.83846" lon="-2.09855">
        <ele>3</ele>
        <time>2019-12-31T17:52:47Z</time>
      </trkpt>
      <trkpt lat="46.83859" lon="-2.09849">
        <ele>3</ele>
        <time>2019-12-31T17:52:49Z</time>
      </trkpt>
      <trkpt lat="46.83859" lon="-2.09849">
        <ele>3</ele>
        <time>2019-12-31T17:52:49Z</time>
      </trkpt>
      <trkpt lat="46.83875" lon="-2.0984">
        <ele>2</ele>
        <time>2019-12-31T17:52:52Z</time>
      </trkpt>
      <trkpt lat="46.83891" lon="-2.09831">
        <ele>2</ele>
        <time>2019-12-31T17:52:55Z</time>
      </trkpt>
      <trkpt lat="46.83903" lon="-2.09827">
        <ele>2</ele>
        <time>2019-12-31T17:52:57Z</time>
      </trkpt>
      <trkpt lat="46.83919" lon="-2.09821">
        <ele>2</ele>
        <time>2019-12-31T17:53:00Z</time>
      </trkpt>
      <trkpt lat="46.8393" lon="-2.09814">
        <ele>1</ele>
        <time>2019-12-31T17:53:03Z</time>
      </trkpt>
      <trkpt lat="46.83941" lon="-2.09806">
        <ele>1</ele>
        <time>2019-12-31T17:53:05Z</time>
      </trkpt>
      <trkpt lat="46.83951" lon="-2.09794">
        <ele>1</ele>
        <time>2019-12-31T17:53:07Z</time>
      </trkpt>
      <trkpt lat="46.83964" lon="-2.09781">
        <ele>1</ele>
        <time>2019-12-31T17:53:10Z</time>
      </trkpt>
      <trkpt lat="46.83979" lon="-2.0977">
        <ele>1.8</ele>
        <time>2019-12-31T17:53:13Z</time>
      </trkpt>
      <trkpt lat="46.83999" lon="-2.09757">
        <ele>2</ele>
        <time>2019-12-31T17:53:17Z</time>
      </trkpt>
      <trkpt lat="46.84021" lon="-2.09743">
        <ele>2</ele>
        <time>2019-12-31T17:53:21Z</time>
      </trkpt>
      <trkpt lat="46.84047" lon="-2.09727">
        <ele>2</ele>
        <time>2019-12-31T17:53:26Z</time>
      </trkpt>
      <trkpt lat="46.84067" lon="-2.09715">
        <ele>1.7</ele>
        <time>2019-12-31T17:53:30Z</time>
      </trkpt>
      <trkpt lat="46.84083" lon="-2.09702">
        <ele>1.7</ele>
        <time>2019-12-31T17:53:33Z</time>
      </trkpt>
      <trkpt lat="46.84091" lon="-2.09692">
        <ele>1.9</ele>
        <time>2019-12-31T17:53:35Z</time>
      </trkpt>
      <trkpt lat="46.84093" lon="-2.09689">
        <ele>1.9</ele>
        <time>2019-12-31T17:53:35Z</time>
      </trkpt>
      <trkpt lat="46.84093" lon="-2.09689">
        <ele>1.9</ele>
        <time>2019-12-31T17:53:35Z</time>
      </trkpt>
      <trkpt lat="46.841" lon="-2.09675">
        <ele>1.7</ele>
        <time>2019-12-31T17:53:38Z</time>
      </trkpt>
      <trkpt lat="46.84109" lon="-2.09659">
        <ele>1.7</ele>
        <time>2019-12-31T17:53:40Z</time>
      </trkpt>
      <trkpt lat="46.84117" lon="-2.09651">
        <ele>1.4</ele>
        <time>2019-12-31T17:53:42Z</time>
      </trkpt>
      <trkpt lat="46.84131" lon="-2.09642">
        <ele>1</ele>
        <time>2019-12-31T17:53:45Z</time>
      </trkpt>
      <trkpt lat="46.84147" lon="-2.09635">
        <ele>1</ele>
        <time>2019-12-31T17:53:48Z</time>
      </trkpt>
      <trkpt lat="46.84171" lon="-2.09624">
        <ele>1</ele>
        <time>2019-12-31T17:53:52Z</time>
      </trkpt>
      <trkpt lat="46.84179" lon="-2.0962">
        <ele>1</ele>
        <time>2019-12-31T17:53:53Z</time>
      </trkpt>
      <trkpt lat="46.84207" lon="-2.0961">
        <ele>1</ele>
        <time>2019-12-31T17:53:59Z</time>
      </trkpt>
      <trkpt lat="46.84235" lon="-2.09602">
        <ele>1.5</ele>
        <time>2019-12-31T17:54:04Z</time>
      </trkpt>
      <trkpt lat="46.84262" lon="-2.09599">
        <ele>2</ele>
        <time>2019-12-31T17:54:09Z</time>
      </trkpt>
      <trkpt lat="46.84286" lon="-2.09595">
        <ele>2</ele>
        <time>2019-12-31T17:54:13Z</time>
      </trkpt>
      <trkpt lat="46.84324" lon="-2.09591">
        <ele>1.5</ele>
        <time>2019-12-31T17:54:20Z</time>
      </trkpt>
      <trkpt lat="46.84352" lon="-2.09589">
        <ele>1.7</ele>
        <time>2019-12-31T17:54:25Z</time>
      </trkpt>
      <trkpt lat="46.8438" lon="-2.09584">
        <ele>2</ele>
        <time>2019-12-31T17:54:30Z</time>
      </trkpt>
      <trkpt lat="46.84404" lon="-2.09582">
        <ele>2</ele>
        <time>2019-12-31T17:54:34Z</time>
      </trkpt>
      <trkpt lat="46.84408" lon="-2.09582">
        <ele>2</ele>
        <time>2019-12-31T17:54:35Z</time>
      </trkpt>
      <trkpt lat="46.84412" lon="-2.09581">
        <ele>1.9</ele>
        <time>2019-12-31T17:54:35Z</time>
      </trkpt>
      <trkpt lat="46.84425" lon="-2.0958">
        <ele>1.9</ele>
        <time>2019-12-31T17:54:38Z</time>
      </trkpt>
      <trkpt lat="46.84437" lon="-2.09577">
        <ele>1.9</ele>
        <time>2019-12-31T17:54:40Z</time>
      </trkpt>
      <trkpt lat="46.84468" lon="-2.09569">
        <ele>2</ele>
        <time>2019-12-31T17:54:45Z</time>
      </trkpt>
      <trkpt lat="46.8447" lon="-2.09568">
        <ele>2</ele>
        <time>2019-12-31T17:54:46Z</time>
      </trkpt>
      <trkpt lat="46.84485" lon="-2.09562">
        <ele>1.6</ele>
        <time>2019-12-31T17:54:49Z</time>
      </trkpt>
      <trkpt lat="46.84496" lon="-2.09558">
        <ele>1.2</ele>
        <time>2019-12-31T17:54:51Z</time>
      </trkpt>
      <trkpt lat="46.8453" lon="-2.09546">
        <ele>1.3</ele>
        <time>2019-12-31T17:54:57Z</time>
      </trkpt>
      <trkpt lat="46.84568" lon="-2.09532">
        <ele>1.9</ele>
        <time>2019-12-31T17:55:04Z</time>
      </trkpt>
      <trkpt lat="46.84594" lon="-2.09523">
        <ele>2</ele>
        <time>2019-12-31T17:55:09Z</time>
      </trkpt>
      <trkpt lat="46.84614" lon="-2.09517">
        <ele>1.9</ele>
        <time>2019-12-31T17:55:12Z</time>
      </trkpt>
      <trkpt lat="46.84627" lon="-2.09511">
        <ele>1.4</ele>
        <time>2019-12-31T17:55:15Z</time>
      </trkpt>
      <trkpt lat="46.84638" lon="-2.09505">
        <ele>1</ele>
        <time>2019-12-31T17:55:17Z</time>
      </trkpt>
      <trkpt lat="46.84649" lon="-2.09495">
        <ele>1.5</ele>
        <time>2019-12-31T17:55:19Z</time>
      </trkpt>
      <trkpt lat="46.84666" lon="-2.09473">
        <ele>2</ele>
        <time>2019-12-31T17:55:23Z</time>
      </trkpt>
      <trkpt lat="46.84683" lon="-2.09447">
        <ele>1.6</ele>
        <time>2019-12-31T17:55:27Z</time>
      </trkpt>
      <trkpt lat="46.84701" lon="-2.09424">
        <ele>1.8</ele>
        <time>2019-12-31T17:55:32Z</time>
      </trkpt>
      <trkpt lat="46.84723" lon="-2.09391">
        <ele>1</ele>
        <time>2019-12-31T17:55:37Z</time>
      </trkpt>
      <trkpt lat="46.84746" lon="-2.09354">
        <ele>1.1</ele>
        <time>2019-12-31T17:55:43Z</time>
      </trkpt>
      <trkpt lat="46.84763" lon="-2.0932">
        <ele>1.5</ele>
        <time>2019-12-31T17:55:48Z</time>
      </trkpt>
      <trkpt lat="46.8478" lon="-2.09282">
        <ele>1.2</ele>
        <time>2019-12-31T17:55:54Z</time>
      </trkpt>
      <trkpt lat="46.84789" lon="-2.09265">
        <ele>1.7</ele>
        <time>2019-12-31T17:55:57Z</time>
      </trkpt>
      <trkpt lat="46.84802" lon="-2.09245">
        <ele>2</ele>
        <time>2019-12-31T17:56:00Z</time>
      </trkpt>
      <trkpt lat="46.84815" lon="-2.09234">
        <ele>2</ele>
        <time>2019-12-31T17:56:03Z</time>
      </trkpt>
      <trkpt lat="46.8483" lon="-2.09225">
        <ele>2</ele>
        <time>2019-12-31T17:56:06Z</time>
      </trkpt>
      <trkpt lat="46.84844" lon="-2.09217">
        <ele>1.6</ele>
        <time>2019-12-31T17:56:08Z</time>
      </trkpt>
      <trkpt lat="46.84856" lon="-2.09209">
        <ele>1.5</ele>
        <time>2019-12-31T17:56:11Z</time>
      </trkpt>
      <trkpt lat="46.84856" lon="-2.09209">
        <ele>1.5</ele>
        <time>2019-12-31T17:56:11Z</time>
      </trkpt>
      <trkpt lat="46.84872" lon="-2.09201">
        <ele>1.6</ele>
        <time>2019-12-31T17:56:14Z</time>
      </trkpt>
      <trkpt lat="46.84888" lon="-2.09192">
        <ele>1.1</ele>
        <time>2019-12-31T17:56:17Z</time>
      </trkpt>
      <trkpt lat="46.84902" lon="-2.09187">
        <ele>1.6</ele>
        <time>2019-12-31T17:56:19Z</time>
      </trkpt>
      <trkpt lat="46.84915" lon="-2.09185">
        <ele>2</ele>
        <time>2019-12-31T17:56:21Z</time>
      </trkpt>
      <trkpt lat="46.84931" lon="-2.09185">
        <ele>2</ele>
        <time>2019-12-31T17:56:24Z</time>
      </trkpt>
      <trkpt lat="46.8495" lon="-2.09192">
        <ele>2</ele>
        <time>2019-12-31T17:56:28Z</time>
      </trkpt>
      <trkpt lat="46.84971" lon="-2.092">
        <ele>2</ele>
        <time>2019-12-31T17:56:32Z</time>
      </trkpt>
      <trkpt lat="46.84994" lon="-2.09203">
        <ele>1.8</ele>
        <time>2019-12-31T17:56:36Z</time>
      </trkpt>
      <trkpt lat="46.85012" lon="-2.09202">
        <ele>1.4</ele>
        <time>2019-12-31T17:56:39Z</time>
      </trkpt>
      <trkpt lat="46.8503" lon="-2.09201">
        <ele>1</ele>
        <time>2019-12-31T17:56:42Z</time>
      </trkpt>
      <trkpt lat="46.85051" lon="-2.09197">
        <ele>1.1</ele>
        <time>2019-12-31T17:56:46Z</time>
      </trkpt>
      <trkpt lat="46.85051" lon="-2.09197">
        <ele>1.1</ele>
        <time>2019-12-31T17:56:46Z</time>
      </trkpt>
      <trkpt lat="46.85058" lon="-2.09196">
        <ele>1.1</ele>
        <time>2019-12-31T17:56:47Z</time>
      </trkpt>
      <trkpt lat="46.85066" lon="-2.09194">
        <ele>1.4</ele>
        <time>2019-12-31T17:56:49Z</time>
      </trkpt>
      <trkpt lat="46.85077" lon="-2.09188">
        <ele>1.8</ele>
        <time>2019-12-31T17:56:51Z</time>
      </trkpt>
      <trkpt lat="46.85092" lon="-2.09175">
        <ele>2</ele>
        <time>2019-12-31T17:56:54Z</time>
      </trkpt>
      <trkpt lat="46.8511" lon="-2.09158">
        <ele>2</ele>
        <time>2019-12-31T17:56:58Z</time>
      </trkpt>
      <trkpt lat="46.85127" lon="-2.09141">
        <ele>1</ele>
        <time>2019-12-31T17:57:01Z</time>
      </trkpt>
      <trkpt lat="46.85143" lon="-2.09123">
        <ele>1</ele>
        <time>2019-12-31T17:57:05Z</time>
      </trkpt>
      <trkpt lat="46.85154" lon="-2.09104">
        <ele>1</ele>
        <time>2019-12-31T17:57:08Z</time>
      </trkpt>
      <trkpt lat="46.85158" lon="-2.09091">
        <ele>1</ele>
        <time>2019-12-31T17:57:10Z</time>
      </trkpt>
      <trkpt lat="46.85164" lon="-2.09065">
        <ele>1</ele>
        <time>2019-12-31T17:57:13Z</time>
      </trkpt>
      <trkpt lat="46.85176" lon="-2.09037">
        <ele>1</ele>
        <time>2019-12-31T17:57:17Z</time>
      </trkpt>
      <trkpt lat="46.85186" lon="-2.09016">
        <ele>1</ele>
        <time>2019-12-31T17:57:20Z</time>
      </trkpt>
      <trkpt lat="46.85197" lon="-2.08997">
        <ele>1.2</ele>
        <time>2019-12-31T17:57:23Z</time>
      </trkpt>
      <trkpt lat="46.85203" lon="-2.0899">
        <ele>1.4</ele>
        <time>2019-12-31T17:57:25Z</time>
      </trkpt>
      <trkpt lat="46.8521" lon="-2.08985">
        <ele>1.5</ele>
        <time>2019-12-31T17:57:26Z</time>
      </trkpt>
      <trkpt lat="46.85216" lon="-2.08981">
        <ele>1.4</ele>
        <time>2019-12-31T17:57:27Z</time>
      </trkpt>
      <trkpt lat="46.85228" lon="-2.08975">
        <ele>1.3</ele>
        <time>2019-12-31T17:57:29Z</time>
      </trkpt>
      <trkpt lat="46.85242" lon="-2.08969">
        <ele>1.7</ele>
        <time>2019-12-31T17:57:32Z</time>
      </trkpt>
      <trkpt lat="46.85251" lon="-2.08966">
        <ele>1.8</ele>
        <time>2019-12-31T17:57:34Z</time>
      </trkpt>
      <trkpt lat="46.85259" lon="-2.08962">
        <ele>1.5</ele>
        <time>2019-12-31T17:57:35Z</time>
      </trkpt>
      <trkpt lat="46.85272" lon="-2.08954">
        <ele>1.6</ele>
        <time>2019-12-31T17:57:38Z</time>
      </trkpt>
      <trkpt lat="46.85289" lon="-2.08944">
        <ele>2</ele>
        <time>2019-12-31T17:57:41Z</time>
      </trkpt>
      <trkpt lat="46.85301" lon="-2.08934">
        <ele>1.7</ele>
        <time>2019-12-31T17:57:43Z</time>
      </trkpt>
      <trkpt lat="46.85311" lon="-2.08922">
        <ele>1.2</ele>
        <time>2019-12-31T17:57:46Z</time>
      </trkpt>
      <trkpt lat="46.85326" lon="-2.089">
        <ele>1.6</ele>
        <time>2019-12-31T17:57:49Z</time>
      </trkpt>
      <trkpt lat="46.85337" lon="-2.0888">
        <ele>2</ele>
        <time>2019-12-31T17:57:53Z</time>
      </trkpt>
      <trkpt lat="46.85349" lon="-2.08858">
        <ele>2</ele>
        <time>2019-12-31T17:57:56Z</time>
      </trkpt>
      <trkpt lat="46.85363" lon="-2.08831">
        <ele>2</ele>
        <time>2019-12-31T17:58:00Z</time>
      </trkpt>
      <trkpt lat="46.85374" lon="-2.08811">
        <ele>2</ele>
        <time>2019-12-31T17:58:03Z</time>
      </trkpt>
      <trkpt lat="46.85384" lon="-2.088">
        <ele>2</ele>
        <time>2019-12-31T17:58:05Z</time>
      </trkpt>
      <trkpt lat="46.85394" lon="-2.08792">
        <ele>2</ele>
        <time>2019-12-31T17:58:07Z</time>
      </trkpt>
      <trkpt lat="46.85408" lon="-2.08781">
        <ele>2</ele>
        <time>2019-12-31T17:58:10Z</time>
      </trkpt>
      <trkpt lat="46.85424" lon="-2.08769">
        <ele>2</ele>
        <time>2019-12-31T17:58:13Z</time>
      </trkpt>
      <trkpt lat="46.85438" lon="-2.08756">
        <ele>2</ele>
        <time>2019-12-31T17:58:16Z</time>
      </trkpt>
      <trkpt lat="46.85451" lon="-2.08739">
        <ele>2</ele>
        <time>2019-12-31T17:58:20Z</time>
      </trkpt>
      <trkpt lat="46.85464" lon="-2.08717">
        <ele>2</ele>
        <time>2019-12-31T17:58:23Z</time>
      </trkpt>
      <trkpt lat="46.85478" lon="-2.08692">
        <ele>2</ele>
        <time>2019-12-31T17:58:27Z</time>
      </trkpt>
      <trkpt lat="46.85491" lon="-2.0867">
        <ele>2</ele>
        <time>2019-12-31T17:58:31Z</time>
      </trkpt>
      <trkpt lat="46.85502" lon="-2.08652">
        <ele>2</ele>
        <time>2019-12-31T17:58:33Z</time>
      </trkpt>
      <trkpt lat="46.85513" lon="-2.0864">
        <ele>2</ele>
        <time>2019-12-31T17:58:36Z</time>
      </trkpt>
      <trkpt lat="46.85521" lon="-2.08633">
        <ele>2</ele>
        <time>2019-12-31T17:58:38Z</time>
      </trkpt>
      <trkpt lat="46.85529" lon="-2.08628">
        <ele>2</ele>
        <time>2019-12-31T17:58:39Z</time>
      </trkpt>
      <trkpt lat="46.85533" lon="-2.08626">
        <ele>2</ele>
        <time>2019-12-31T17:58:40Z</time>
      </trkpt>
      <trkpt lat="46.85544" lon="-2.08623">
        <ele>2</ele>
        <time>2019-12-31T17:58:42Z</time>
      </trkpt>
      <trkpt lat="46.85551" lon="-2.08622">
        <ele>2</ele>
        <time>2019-12-31T17:58:43Z</time>
      </trkpt>
      <trkpt lat="46.85551" lon="-2.08622">
        <ele>2</ele>
        <time>2019-12-31T17:58:43Z</time>
      </trkpt>
      <trkpt lat="46.85556" lon="-2.08621">
        <ele>2</ele>
        <time>2019-12-31T17:58:44Z</time>
      </trkpt>
      <trkpt lat="46.85566" lon="-2.0862">
        <ele>1.7</ele>
        <time>2019-12-31T17:58:46Z</time>
      </trkpt>
      <trkpt lat="46.85582" lon="-2.08616">
        <ele>1.2</ele>
        <time>2019-12-31T17:58:49Z</time>
      </trkpt>
      <trkpt lat="46.85592" lon="-2.08611">
        <ele>1.3</ele>
        <time>2019-12-31T17:58:51Z</time>
      </trkpt>
      <trkpt lat="46.85593" lon="-2.0861">
        <ele>1.4</ele>
        <time>2019-12-31T17:58:51Z</time>
      </trkpt>
      <trkpt lat="46.85596" lon="-2.08607">
        <ele>1</ele>
        <time>2019-12-31T17:58:51Z</time>
      </trkpt>
      <trkpt lat="46.85605" lon="-2.08601">
        <ele>1</ele>
        <time>2019-12-31T17:58:53Z</time>
      </trkpt>
      <trkpt lat="46.85618" lon="-2.08594">
        <ele>1</ele>
        <time>2019-12-31T17:58:56Z</time>
      </trkpt>
      <trkpt lat="46.85625" lon="-2.0859">
        <ele>1</ele>
        <time>2019-12-31T17:58:57Z</time>
      </trkpt>
      <trkpt lat="46.85636" lon="-2.08586">
        <ele>1</ele>
        <time>2019-12-31T17:58:59Z</time>
      </trkpt>
      <trkpt lat="46.85649" lon="-2.08581">
        <ele>2</ele>
        <time>2019-12-31T17:59:01Z</time>
      </trkpt>
      <trkpt lat="46.85659" lon="-2.08577">
        <ele>2</ele>
        <time>2019-12-31T17:59:03Z</time>
      </trkpt>
      <trkpt lat="46.85665" lon="-2.08571">
        <ele>2</ele>
        <time>2019-12-31T17:59:05Z</time>
      </trkpt>
      <trkpt lat="46.85671" lon="-2.08563">
        <ele>2</ele>
        <time>2019-12-31T17:59:06Z</time>
      </trkpt>
      <trkpt lat="46.85683" lon="-2.08542">
        <ele>2</ele>
        <time>2019-12-31T17:59:09Z</time>
      </trkpt>
      <trkpt lat="46.85685" lon="-2.08538">
        <ele>2</ele>
        <time>2019-12-31T17:59:10Z</time>
      </trkpt>
      <trkpt lat="46.85687" lon="-2.08536">
        <ele>2</ele>
        <time>2019-12-31T17:59:10Z</time>
      </trkpt>
      <trkpt lat="46.85692" lon="-2.0853">
        <ele>1</ele>
        <time>2019-12-31T17:59:12Z</time>
      </trkpt>
      <trkpt lat="46.85697" lon="-2.08522">
        <ele>1</ele>
        <time>2019-12-31T17:59:13Z</time>
      </trkpt>
      <trkpt lat="46.85703" lon="-2.08514">
        <ele>1</ele>
        <time>2019-12-31T17:59:14Z</time>
      </trkpt>
      <trkpt lat="46.85716" lon="-2.08499">
        <ele>1</ele>
        <time>2019-12-31T17:59:17Z</time>
      </trkpt>
      <trkpt lat="46.85731" lon="-2.08485">
        <ele>2</ele>
        <time>2019-12-31T17:59:20Z</time>
      </trkpt>
      <trkpt lat="46.8574" lon="-2.08476">
        <ele>2</ele>
        <time>2019-12-31T17:59:22Z</time>
      </trkpt>
      <trkpt lat="46.85746" lon="-2.08469">
        <ele>2</ele>
        <time>2019-12-31T17:59:24Z</time>
      </trkpt>
      <trkpt lat="46.85754" lon="-2.08459">
        <ele>1.9</ele>
        <time>2019-12-31T17:59:26Z</time>
      </trkpt>
      <trkpt lat="46.85759" lon="-2.08447">
        <ele>1.7</ele>
        <time>2019-12-31T17:59:27Z</time>
      </trkpt>
      <trkpt lat="46.85767" lon="-2.08421">
        <ele>1.6</ele>
        <time>2019-12-31T17:59:31Z</time>
      </trkpt>
      <trkpt lat="46.85773" lon="-2.08399">
        <ele>1.8</ele>
        <time>2019-12-31T17:59:34Z</time>
      </trkpt>
      <trkpt lat="46.85778" lon="-2.08387">
        <ele>2</ele>
        <time>2019-12-31T17:59:35Z</time>
      </trkpt>
      <trkpt lat="46.85784" lon="-2.08375">
        <ele>2</ele>
        <time>2019-12-31T17:59:37Z</time>
      </trkpt>
      <trkpt lat="46.85792" lon="-2.08365">
        <ele>2</ele>
        <time>2019-12-31T17:59:39Z</time>
      </trkpt>
      <trkpt lat="46.85792" lon="-2.08365">
        <ele>2</ele>
        <time>2019-12-31T17:59:39Z</time>
      </trkpt>
      <trkpt lat="46.8581" lon="-2.08348">
        <ele>2</ele>
        <time>2019-12-31T17:59:43Z</time>
      </trkpt>
      <trkpt lat="46.85824" lon="-2.08335">
        <ele>2</ele>
        <time>2019-12-31T17:59:46Z</time>
      </trkpt>
      <trkpt lat="46.85834" lon="-2.08325">
        <ele>1.7</ele>
        <time>2019-12-31T17:59:48Z</time>
      </trkpt>
      <trkpt lat="46.85849" lon="-2.08307">
        <ele>1.6</ele>
        <time>2019-12-31T17:59:51Z</time>
      </trkpt>
      <trkpt lat="46.8589" lon="-2.08254">
        <ele>1</ele>
        <time>2019-12-31T18:00:01Z</time>
      </trkpt>
      <trkpt lat="46.85902" lon="-2.08237">
        <ele>1</ele>
        <time>2019-12-31T18:00:04Z</time>
      </trkpt>
      <trkpt lat="46.85928" lon="-2.08204">
        <ele>1</ele>
        <time>2019-12-31T18:00:10Z</time>
      </trkpt>
      <trkpt lat="46.85959" lon="-2.08164">
        <ele>2</ele>
        <time>2019-12-31T18:00:18Z</time>
      </trkpt>
      <trkpt lat="46.85978" lon="-2.08136">
        <ele>2</ele>
        <time>2019-12-31T18:00:22Z</time>
      </trkpt>
      <trkpt lat="46.85991" lon="-2.08115">
        <ele>2</ele>
        <time>2019-12-31T18:00:26Z</time>
      </trkpt>
      <trkpt lat="46.86007" lon="-2.08084">
        <ele>1.3</ele>
        <time>2019-12-31T18:00:31Z</time>
      </trkpt>
      <trkpt lat="46.86024" lon="-2.08053">
        <ele>2</ele>
        <time>2019-12-31T18:00:35Z</time>
      </trkpt>
      <trkpt lat="46.86038" lon="-2.08032">
        <ele>1.9</ele>
        <time>2019-12-31T18:00:39Z</time>
      </trkpt>
      <trkpt lat="46.86057" lon="-2.08007">
        <ele>2.7</ele>
        <time>2019-12-31T18:00:44Z</time>
      </trkpt>
      <trkpt lat="46.86074" lon="-2.07983">
        <ele>1</ele>
        <time>2019-12-31T18:00:48Z</time>
      </trkpt>
      <trkpt lat="46.86078" lon="-2.07973">
        <ele>1</ele>
        <time>2019-12-31T18:00:49Z</time>
      </trkpt>
      <trkpt lat="46.86083" lon="-2.07964">
        <ele>1</ele>
        <time>2019-12-31T18:00:51Z</time>
      </trkpt>
      <trkpt lat="46.86083" lon="-2.07964">
        <ele>1</ele>
        <time>2019-12-31T18:00:51Z</time>
      </trkpt>
      <trkpt lat="46.86093" lon="-2.07946">
        <ele>1</ele>
        <time>2019-12-31T18:00:53Z</time>
      </trkpt>
      <trkpt lat="46.86098" lon="-2.0794">
        <ele>1</ele>
        <time>2019-12-31T18:00:55Z</time>
      </trkpt>
      <trkpt lat="46.86106" lon="-2.0793">
        <ele>1</ele>
        <time>2019-12-31T18:00:56Z</time>
      </trkpt>
      <trkpt lat="46.86129" lon="-2.07917">
        <ele>1</ele>
        <time>2019-12-31T18:01:01Z</time>
      </trkpt>
      <trkpt lat="46.86151" lon="-2.07906">
        <ele>1</ele>
        <time>2019-12-31T18:01:05Z</time>
      </trkpt>
      <trkpt lat="46.86162" lon="-2.07899">
        <ele>1</ele>
        <time>2019-12-31T18:01:07Z</time>
      </trkpt>
      <trkpt lat="46.86169" lon="-2.07892">
        <ele>1</ele>
        <time>2019-12-31T18:01:09Z</time>
      </trkpt>
      <trkpt lat="46.86178" lon="-2.07884">
        <ele>1</ele>
        <time>2019-12-31T18:01:10Z</time>
      </trkpt>
      <trkpt lat="46.86202" lon="-2.07852">
        <ele>1</ele>
        <time>2019-12-31T18:01:16Z</time>
      </trkpt>
      <trkpt lat="46.8623" lon="-2.07811">
        <ele>1</ele>
        <time>2019-12-31T18:01:23Z</time>
      </trkpt>
      <trkpt lat="46.86256" lon="-2.07774">
        <ele>1</ele>
        <time>2019-12-31T18:01:30Z</time>
      </trkpt>
      <trkpt lat="46.86256" lon="-2.07774">
        <ele>1</ele>
        <time>2019-12-31T18:01:30Z</time>
      </trkpt>
      <trkpt lat="46.86227" lon="-2.07708">
        <ele>2</ele>
        <time>2019-12-31T18:01:39Z</time>
      </trkpt>
      <trkpt lat="46.86202" lon="-2.07645">
        <ele>2</ele>
        <time>2019-12-31T18:01:48Z</time>
      </trkpt>
      <trkpt lat="46.86174" lon="-2.07579">
        <ele>2</ele>
        <time>2019-12-31T18:01:58Z</time>
      </trkpt>
      <trkpt lat="46.8616" lon="-2.07548">
        <ele>2</ele>
        <time>2019-12-31T18:02:02Z</time>
      </trkpt>
      <trkpt lat="46.86148" lon="-2.07516">
        <ele>2</ele>
        <time>2019-12-31T18:02:07Z</time>
      </trkpt>
      <trkpt lat="46.86138" lon="-2.07491">
        <ele>2</ele>
        <time>2019-12-31T18:02:10Z</time>
      </trkpt>
      <trkpt lat="46.86132" lon="-2.0747">
        <ele>2</ele>
        <time>2019-12-31T18:02:13Z</time>
      </trkpt>
      <trkpt lat="46.8613" lon="-2.07444">
        <ele>2</ele>
        <time>2019-12-31T18:02:16Z</time>
      </trkpt>
      <trkpt lat="46.86132" lon="-2.0741">
        <ele>2</ele>
        <time>2019-12-31T18:02:20Z</time>
      </trkpt>
      <trkpt lat="46.86143" lon="-2.0735">
        <ele>2</ele>
        <time>2019-12-31T18:02:28Z</time>
      </trkpt>
      <trkpt lat="46.86157" lon="-2.07283">
        <ele>2</ele>
        <time>2019-12-31T18:02:36Z</time>
      </trkpt>
      <trkpt lat="46.86165" lon="-2.07257">
        <ele>2</ele>
        <time>2019-12-31T18:02:40Z</time>
      </trkpt>
      <trkpt lat="46.86176" lon="-2.07231">
        <ele>2</ele>
        <time>2019-12-31T18:02:43Z</time>
      </trkpt>
      <trkpt lat="46.86189" lon="-2.072">
        <ele>2</ele>
        <time>2019-12-31T18:02:48Z</time>
      </trkpt>
      <trkpt lat="46.86197" lon="-2.07172">
        <ele>2</ele>
        <time>2019-12-31T18:02:52Z</time>
      </trkpt>
      <trkpt lat="46.86209" lon="-2.07123">
        <ele>2</ele>
        <time>2019-12-31T18:02:58Z</time>
      </trkpt>
      <trkpt lat="46.86215" lon="-2.07088">
        <ele>2</ele>
        <time>2019-12-31T18:03:02Z</time>
      </trkpt>
      <trkpt lat="46.86215" lon="-2.07088">
        <ele>2</ele>
        <time>2019-12-31T18:03:02Z</time>
      </trkpt>
      <trkpt lat="46.86225" lon="-2.07039">
        <ele>2</ele>
        <time>2019-12-31T18:03:08Z</time>
      </trkpt>
      <trkpt lat="46.8623" lon="-2.07023">
        <ele>2</ele>
        <time>2019-12-31T18:03:11Z</time>
      </trkpt>
      <trkpt lat="46.86236" lon="-2.07006">
        <ele>2</ele>
        <time>2019-12-31T18:03:13Z</time>
      </trkpt>
      <trkpt lat="46.86246" lon="-2.06984">
        <ele>2</ele>
        <time>2019-12-31T18:03:16Z</time>
      </trkpt>
      <trkpt lat="46.86256" lon="-2.06965">
        <ele>1</ele>
        <time>2019-12-31T18:03:19Z</time>
      </trkpt>
      <trkpt lat="46.86266" lon="-2.06937">
        <ele>1</ele>
        <time>2019-12-31T18:03:23Z</time>
      </trkpt>
      <trkpt lat="46.86275" lon="-2.06911">
        <ele>1</ele>
        <time>2019-12-31T18:03:26Z</time>
      </trkpt>
      <trkpt lat="46.86301" lon="-2.06853">
        <ele>1</ele>
        <time>2019-12-31T18:03:35Z</time>
      </trkpt>
      <trkpt lat="46.86308" lon="-2.06824">
        <ele>1</ele>
        <time>2019-12-31T18:03:39Z</time>
      </trkpt>
      <trkpt lat="46.8631" lon="-2.06801">
        <ele>2</ele>
        <time>2019-12-31T18:03:41Z</time>
      </trkpt>
      <trkpt lat="46.8631" lon="-2.06771">
        <ele>2</ele>
        <time>2019-12-31T18:03:45Z</time>
      </trkpt>
      <trkpt lat="46.8631" lon="-2.06737">
        <ele>2</ele>
        <time>2019-12-31T18:03:49Z</time>
      </trkpt>
      <trkpt lat="46.86316" lon="-2.06706">
        <ele>2</ele>
        <time>2019-12-31T18:03:53Z</time>
      </trkpt>
      <trkpt lat="46.8632" lon="-2.06689">
        <ele>1</ele>
        <time>2019-12-31T18:03:55Z</time>
      </trkpt>
      <trkpt lat="46.86327" lon="-2.0667">
        <ele>1</ele>
        <time>2019-12-31T18:03:58Z</time>
      </trkpt>
      <trkpt lat="46.86327" lon="-2.0667">
        <ele>1</ele>
        <time>2019-12-31T18:03:58Z</time>
      </trkpt>
      <trkpt lat="46.86348" lon="-2.06612">
        <ele>2</ele>
        <time>2019-12-31T18:04:06Z</time>
      </trkpt>
      <trkpt lat="46.8637" lon="-2.06555">
        <ele>2</ele>
        <time>2019-12-31T18:04:14Z</time>
      </trkpt>
      <trkpt lat="46.8639" lon="-2.06499">
        <ele>2</ele>
        <time>2019-12-31T18:04:22Z</time>
      </trkpt>
      <trkpt lat="46.864" lon="-2.0647">
        <ele>2</ele>
        <time>2019-12-31T18:04:26Z</time>
      </trkpt>
      <trkpt lat="46.86404" lon="-2.0645">
        <ele>2</ele>
        <time>2019-12-31T18:04:28Z</time>
      </trkpt>
      <trkpt lat="46.86406" lon="-2.06445">
        <ele>2</ele>
        <time>2019-12-31T18:04:29Z</time>
      </trkpt>
      <trkpt lat="46.86412" lon="-2.06405">
        <ele>1</ele>
        <time>2019-12-31T18:04:34Z</time>
      </trkpt>
      <trkpt lat="46.8642" lon="-2.06346">
        <ele>2</ele>
        <time>2019-12-31T18:04:41Z</time>
      </trkpt>
      <trkpt lat="46.86428" lon="-2.06293">
        <ele>2</ele>
        <time>2019-12-31T18:04:48Z</time>
      </trkpt>
      <trkpt lat="46.86441" lon="-2.06228">
        <ele>2</ele>
        <time>2019-12-31T18:04:56Z</time>
      </trkpt>
      <trkpt lat="46.86451" lon="-2.06178">
        <ele>2</ele>
        <time>2019-12-31T18:05:02Z</time>
      </trkpt>
      <trkpt lat="46.86461" lon="-2.06129">
        <ele>1</ele>
        <time>2019-12-31T18:05:09Z</time>
      </trkpt>
      <trkpt lat="46.86471" lon="-2.06083">
        <ele>1</ele>
        <time>2019-12-31T18:05:14Z</time>
      </trkpt>
      <trkpt lat="46.86481" lon="-2.06041">
        <ele>2</ele>
        <time>2019-12-31T18:05:20Z</time>
      </trkpt>
      <trkpt lat="46.86493" lon="-2.06006">
        <ele>2.2</ele>
        <time>2019-12-31T18:05:25Z</time>
      </trkpt>
      <trkpt lat="46.86493" lon="-2.06006">
        <ele>2.2</ele>
        <time>2019-12-31T18:05:25Z</time>
      </trkpt>
      <trkpt lat="46.86497" lon="-2.06007">
        <ele>2.1</ele>
        <time>2019-12-31T18:05:25Z</time>
      </trkpt>
      <trkpt lat="46.86503" lon="-2.06008">
        <ele>2</ele>
        <time>2019-12-31T18:05:26Z</time>
      </trkpt>
      <trkpt lat="46.86503" lon="-2.06008">
        <ele>2</ele>
        <time>2019-12-31T18:05:26Z</time>
      </trkpt>
      <trkpt lat="46.86509" lon="-2.05995">
        <ele>2</ele>
        <time>2019-12-31T18:05:28Z</time>
      </trkpt>
      <trkpt lat="46.86513" lon="-2.05985">
        <ele>2</ele>
        <time>2019-12-31T18:05:30Z</time>
      </trkpt>
      <trkpt lat="46.8653" lon="-2.05964">
        <ele>2</ele>
        <time>2019-12-31T18:05:34Z</time>
      </trkpt>
      <trkpt lat="46.86559" lon="-2.05932">
        <ele>1</ele>
        <time>2019-12-31T18:05:40Z</time>
      </trkpt>
      <trkpt lat="46.86601" lon="-2.05885">
        <ele>1</ele>
        <time>2019-12-31T18:05:50Z</time>
      </trkpt>
      <trkpt lat="46.86621" lon="-2.0586">
        <ele>1</ele>
        <time>2019-12-31T18:05:54Z</time>
      </trkpt>
      <trkpt lat="46.8664" lon="-2.05828">
        <ele>2</ele>
        <time>2019-12-31T18:05:59Z</time>
      </trkpt>
      <trkpt lat="46.86663" lon="-2.05779">
        <ele>1</ele>
        <time>2019-12-31T18:06:07Z</time>
      </trkpt>
      <trkpt lat="46.86684" lon="-2.05731">
        <ele>2</ele>
        <time>2019-12-31T18:06:14Z</time>
      </trkpt>
      <trkpt lat="46.867" lon="-2.0568">
        <ele>2</ele>
        <time>2019-12-31T18:06:20Z</time>
      </trkpt>
      <trkpt lat="46.86705" lon="-2.05656">
        <ele>2</ele>
        <time>2019-12-31T18:06:23Z</time>
      </trkpt>
      <trkpt lat="46.86707" lon="-2.05627">
        <ele>2</ele>
        <time>2019-12-31T18:06:27Z</time>
      </trkpt>
      <trkpt lat="46.8671" lon="-2.05517">
        <ele>2</ele>
        <time>2019-12-31T18:06:40Z</time>
      </trkpt>
      <trkpt lat="46.86711" lon="-2.055">
        <ele>2</ele>
        <time>2019-12-31T18:06:42Z</time>
      </trkpt>
      <trkpt lat="46.86713" lon="-2.05488">
        <ele>2</ele>
        <time>2019-12-31T18:06:44Z</time>
      </trkpt>
      <trkpt lat="46.8672" lon="-2.05461">
        <ele>2</ele>
        <time>2019-12-31T18:06:47Z</time>
      </trkpt>
      <trkpt lat="46.86735" lon="-2.05428">
        <ele>1</ele>
        <time>2019-12-31T18:06:52Z</time>
      </trkpt>
      <trkpt lat="46.86757" lon="-2.0539">
        <ele>1</ele>
        <time>2019-12-31T18:06:58Z</time>
      </trkpt>
      <trkpt lat="46.8677" lon="-2.05369">
        <ele>1</ele>
        <time>2019-12-31T18:07:02Z</time>
      </trkpt>
      <trkpt lat="46.86774" lon="-2.05361">
        <ele>1</ele>
        <time>2019-12-31T18:07:03Z</time>
      </trkpt>
      <trkpt lat="46.86783" lon="-2.05345">
        <ele>2</ele>
        <time>2019-12-31T18:07:05Z</time>
      </trkpt>
      <trkpt lat="46.86783" lon="-2.05345">
        <ele>2</ele>
        <time>2019-12-31T18:07:05Z</time>
      </trkpt>
      <trkpt lat="46.8679" lon="-2.05325">
        <ele>1</ele>
        <time>2019-12-31T18:07:08Z</time>
      </trkpt>
      <trkpt lat="46.86794" lon="-2.05307">
        <ele>1</ele>
        <time>2019-12-31T18:07:11Z</time>
      </trkpt>
      <trkpt lat="46.86796" lon="-2.0528">
        <ele>1</ele>
        <time>2019-12-31T18:07:14Z</time>
      </trkpt>
      <trkpt lat="46.86795" lon="-2.05231">
        <ele>1</ele>
        <time>2019-12-31T18:07:20Z</time>
      </trkpt>
      <trkpt lat="46.86793" lon="-2.05201">
        <ele>1</ele>
        <time>2019-12-31T18:07:23Z</time>
      </trkpt>
      <trkpt lat="46.86794" lon="-2.05172">
        <ele>1</ele>
        <time>2019-12-31T18:07:27Z</time>
      </trkpt>
      <trkpt lat="46.86795" lon="-2.05155">
        <ele>2</ele>
        <time>2019-12-31T18:07:29Z</time>
      </trkpt>
      <trkpt lat="46.868" lon="-2.05125">
        <ele>2</ele>
        <time>2019-12-31T18:07:33Z</time>
      </trkpt>
      <trkpt lat="46.86806" lon="-2.05095">
        <ele>2</ele>
        <time>2019-12-31T18:07:37Z</time>
      </trkpt>
      <trkpt lat="46.86818" lon="-2.05035">
        <ele>1</ele>
        <time>2019-12-31T18:07:44Z</time>
      </trkpt>
      <trkpt lat="46.86828" lon="-2.04994">
        <ele>2.2</ele>
        <time>2019-12-31T18:07:50Z</time>
      </trkpt>
      <trkpt lat="46.86843" lon="-2.0492">
        <ele>2</ele>
        <time>2019-12-31T18:07:59Z</time>
      </trkpt>
      <trkpt lat="46.86862" lon="-2.04824">
        <ele>1</ele>
        <time>2019-12-31T18:08:11Z</time>
      </trkpt>
      <trkpt lat="46.86871" lon="-2.04782">
        <ele>1</ele>
        <time>2019-12-31T18:08:16Z</time>
      </trkpt>
      <trkpt lat="46.8688" lon="-2.04751">
        <ele>1</ele>
        <time>2019-12-31T18:08:21Z</time>
      </trkpt>
      <trkpt lat="46.8689" lon="-2.04727">
        <ele>1</ele>
        <time>2019-12-31T18:08:24Z</time>
      </trkpt>
      <trkpt lat="46.86905" lon="-2.04694">
        <ele>1</ele>
        <time>2019-12-31T18:08:29Z</time>
      </trkpt>
      <trkpt lat="46.86921" lon="-2.0466">
        <ele>2</ele>
        <time>2019-12-31T18:08:34Z</time>
      </trkpt>
      <trkpt lat="46.86938" lon="-2.04624">
        <ele>1</ele>
        <time>2019-12-31T18:08:39Z</time>
      </trkpt>
      <trkpt lat="46.86942" lon="-2.04616">
        <ele>1</ele>
        <time>2019-12-31T18:08:40Z</time>
      </trkpt>
      <trkpt lat="46.86942" lon="-2.04616">
        <ele>1</ele>
        <time>2019-12-31T18:08:40Z</time>
      </trkpt>
      <trkpt lat="46.86947" lon="-2.04605">
        <ele>1</ele>
        <time>2019-12-31T18:08:42Z</time>
      </trkpt>
      <trkpt lat="46.86979" lon="-2.04539">
        <ele>1</ele>
        <time>2019-12-31T18:08:52Z</time>
      </trkpt>
      <trkpt lat="46.86996" lon="-2.04496">
        <ele>1</ele>
        <time>2019-12-31T18:08:58Z</time>
      </trkpt>
      <trkpt lat="46.87005" lon="-2.04465">
        <ele>1</ele>
        <time>2019-12-31T18:09:02Z</time>
      </trkpt>
      <trkpt lat="46.87012" lon="-2.04428">
        <ele>1</ele>
        <time>2019-12-31T18:09:07Z</time>
      </trkpt>
      <trkpt lat="46.87018" lon="-2.04381">
        <ele>1</ele>
        <time>2019-12-31T18:09:12Z</time>
      </trkpt>
      <trkpt lat="46.87024" lon="-2.04323">
        <ele>2</ele>
        <time>2019-12-31T18:09:20Z</time>
      </trkpt>
      <trkpt lat="46.8703" lon="-2.04261">
        <ele>1</ele>
        <time>2019-12-31T18:09:27Z</time>
      </trkpt>
      <trkpt lat="46.87038" lon="-2.04176">
        <ele>1.4</ele>
        <time>2019-12-31T18:09:38Z</time>
      </trkpt>
      <trkpt lat="46.87047" lon="-2.04087">
        <ele>1</ele>
        <time>2019-12-31T18:09:49Z</time>
      </trkpt>
      <trkpt lat="46.87054" lon="-2.04024">
        <ele>1</ele>
        <time>2019-12-31T18:09:56Z</time>
      </trkpt>
      <trkpt lat="46.87059" lon="-2.03988">
        <ele>1</ele>
        <time>2019-12-31T18:10:01Z</time>
      </trkpt>
      <trkpt lat="46.87059" lon="-2.03988">
        <ele>1</ele>
        <time>2019-12-31T18:10:01Z</time>
      </trkpt>
      <trkpt lat="46.87089" lon="-2.03888">
        <ele>1</ele>
        <time>2019-12-31T18:10:14Z</time>
      </trkpt>
      <trkpt lat="46.87113" lon="-2.03808">
        <ele>1</ele>
        <time>2019-12-31T18:10:25Z</time>
      </trkpt>
      <trkpt lat="46.87131" lon="-2.03754">
        <ele>1</ele>
        <time>2019-12-31T18:10:32Z</time>
      </trkpt>
      <trkpt lat="46.87138" lon="-2.03739">
        <ele>1</ele>
        <time>2019-12-31T18:10:34Z</time>
      </trkpt>
      <trkpt lat="46.87145" lon="-2.03726">
        <ele>1</ele>
        <time>2019-12-31T18:10:36Z</time>
      </trkpt>
      <trkpt lat="46.87155" lon="-2.03711">
        <ele>1</ele>
        <time>2019-12-31T18:10:39Z</time>
      </trkpt>
      <trkpt lat="46.87175" lon="-2.03688">
        <ele>1</ele>
        <time>2019-12-31T18:10:43Z</time>
      </trkpt>
      <trkpt lat="46.87198" lon="-2.03666">
        <ele>1</ele>
        <time>2019-12-31T18:10:48Z</time>
      </trkpt>
      <trkpt lat="46.87219" lon="-2.03646">
        <ele>1</ele>
        <time>2019-12-31T18:10:53Z</time>
      </trkpt>
      <trkpt lat="46.87238" lon="-2.03628">
        <ele>1</ele>
        <time>2019-12-31T18:10:57Z</time>
      </trkpt>
      <trkpt lat="46.87244" lon="-2.03621">
        <ele>1.9</ele>
        <time>2019-12-31T18:10:58Z</time>
      </trkpt>
      <trkpt lat="46.87257" lon="-2.03606">
        <ele>2</ele>
        <time>2019-12-31T18:11:01Z</time>
      </trkpt>
      <trkpt lat="46.87257" lon="-2.03606">
        <ele>2</ele>
        <time>2019-12-31T18:11:01Z</time>
      </trkpt>
      <trkpt lat="46.87255" lon="-2.03579">
        <ele>1.9</ele>
        <time>2019-12-31T18:11:04Z</time>
      </trkpt>
      <trkpt lat="46.87253" lon="-2.03551">
        <ele>1.3</ele>
        <time>2019-12-31T18:11:08Z</time>
      </trkpt>
      <trkpt lat="46.87252" lon="-2.03515">
        <ele>2</ele>
        <time>2019-12-31T18:11:12Z</time>
      </trkpt>
      <trkpt lat="46.87251" lon="-2.03495">
        <ele>2</ele>
        <time>2019-12-31T18:11:15Z</time>
      </trkpt>
      <trkpt lat="46.87251" lon="-2.03487">
        <ele>2</ele>
        <time>2019-12-31T18:11:16Z</time>
      </trkpt>
      <trkpt lat="46.87252" lon="-2.03479">
        <ele>2</ele>
        <time>2019-12-31T18:11:16Z</time>
      </trkpt>
      <trkpt lat="46.87254" lon="-2.03467">
        <ele>1.8</ele>
        <time>2019-12-31T18:11:18Z</time>
      </trkpt>
      <trkpt lat="46.87256" lon="-2.03457">
        <ele>1.6</ele>
        <time>2019-12-31T18:11:19Z</time>
      </trkpt>
      <trkpt lat="46.87259" lon="-2.03449">
        <ele>1.4</ele>
        <time>2019-12-31T18:11:20Z</time>
      </trkpt>
      <trkpt lat="46.87263" lon="-2.03439">
        <ele>1.6</ele>
        <time>2019-12-31T18:11:22Z</time>
      </trkpt>
      <trkpt lat="46.87268" lon="-2.03429">
        <ele>1.8</ele>
        <time>2019-12-31T18:11:23Z</time>
      </trkpt>
      <trkpt lat="46.87274" lon="-2.0342">
        <ele>2</ele>
        <time>2019-12-31T18:11:25Z</time>
      </trkpt>
      <trkpt lat="46.87298" lon="-2.03385">
        <ele>1.8</ele>
        <time>2019-12-31T18:11:31Z</time>
      </trkpt>
      <trkpt lat="46.8732" lon="-2.03352">
        <ele>2</ele>
        <time>2019-12-31T18:11:36Z</time>
      </trkpt>
      <trkpt lat="46.87332" lon="-2.03334">
        <ele>2</ele>
        <time>2019-12-31T18:11:40Z</time>
      </trkpt>
      <trkpt lat="46.87346" lon="-2.0331">
        <ele>2</ele>
        <time>2019-12-31T18:11:43Z</time>
      </trkpt>
      <trkpt lat="46.87353" lon="-2.03297">
        <ele>2</ele>
        <time>2019-12-31T18:11:45Z</time>
      </trkpt>
      <trkpt lat="46.8736" lon="-2.03279">
        <ele>2</ele>
        <time>2019-12-31T18:11:48Z</time>
      </trkpt>
      <trkpt lat="46.87364" lon="-2.03269">
        <ele>2</ele>
        <time>2019-12-31T18:11:49Z</time>
      </trkpt>
      <trkpt lat="46.87372" lon="-2.03245">
        <ele>2</ele>
        <time>2019-12-31T18:11:53Z</time>
      </trkpt>
      <trkpt lat="46.87376" lon="-2.03231">
        <ele>2</ele>
        <time>2019-12-31T18:11:54Z</time>
      </trkpt>
      <trkpt lat="46.87395" lon="-2.03169">
        <ele>2</ele>
        <time>2019-12-31T18:12:03Z</time>
      </trkpt>
      <trkpt lat="46.87411" lon="-2.03114">
        <ele>2</ele>
        <time>2019-12-31T18:12:10Z</time>
      </trkpt>
      <trkpt lat="46.87426" lon="-2.0306">
        <ele>2</ele>
        <time>2019-12-31T18:12:17Z</time>
      </trkpt>
      <trkpt lat="46.87443" lon="-2.02997">
        <ele>1</ele>
        <time>2019-12-31T18:12:25Z</time>
      </trkpt>
      <trkpt lat="46.87453" lon="-2.02958">
        <ele>1</ele>
        <time>2019-12-31T18:12:30Z</time>
      </trkpt>
      <trkpt lat="46.8746" lon="-2.02911">
        <ele>1</ele>
        <time>2019-12-31T18:12:36Z</time>
      </trkpt>
      <trkpt lat="46.8747" lon="-2.02848">
        <ele>1</ele>
        <time>2019-12-31T18:12:44Z</time>
      </trkpt>
      <trkpt lat="46.87475" lon="-2.02816">
        <ele>1</ele>
        <time>2019-12-31T18:12:48Z</time>
      </trkpt>
      <trkpt lat="46.87476" lon="-2.02802">
        <ele>1</ele>
        <time>2019-12-31T18:12:50Z</time>
      </trkpt>
      <trkpt lat="46.87479" lon="-2.02777">
        <ele>1</ele>
        <time>2019-12-31T18:12:53Z</time>
      </trkpt>
      <trkpt lat="46.87482" lon="-2.02762">
        <ele>1</ele>
        <time>2019-12-31T18:12:55Z</time>
      </trkpt>
      <trkpt lat="46.87487" lon="-2.02747">
        <ele>2.1</ele>
        <time>2019-12-31T18:12:57Z</time>
      </trkpt>
      <trkpt lat="46.87493" lon="-2.0273">
        <ele>2.5</ele>
        <time>2019-12-31T18:12:59Z</time>
      </trkpt>
      <trkpt lat="46.87503" lon="-2.02713">
        <ele>2.5</ele>
        <time>2019-12-31T18:13:02Z</time>
      </trkpt>
      <trkpt lat="46.87511" lon="-2.027">
        <ele>1.7</ele>
        <time>2019-12-31T18:13:04Z</time>
      </trkpt>
      <trkpt lat="46.87514" lon="-2.02696">
        <ele>1.5</ele>
        <time>2019-12-31T18:13:05Z</time>
      </trkpt>
      <trkpt lat="46.87535" lon="-2.02662">
        <ele>1.6</ele>
        <time>2019-12-31T18:13:10Z</time>
      </trkpt>
      <trkpt lat="46.87549" lon="-2.02638">
        <ele>1</ele>
        <time>2019-12-31T18:13:14Z</time>
      </trkpt>
      <trkpt lat="46.87562" lon="-2.02615">
        <ele>1</ele>
        <time>2019-12-31T18:13:18Z</time>
      </trkpt>
      <trkpt lat="46.87575" lon="-2.02591">
        <ele>1.5</ele>
        <time>2019-12-31T18:13:21Z</time>
      </trkpt>
      <trkpt lat="46.87584" lon="-2.02568">
        <ele>2</ele>
        <time>2019-12-31T18:13:25Z</time>
      </trkpt>
      <trkpt lat="46.87593" lon="-2.02532">
        <ele>1</ele>
        <time>2019-12-31T18:13:29Z</time>
      </trkpt>
      <trkpt lat="46.87599" lon="-2.02489">
        <ele>1</ele>
        <time>2019-12-31T18:13:35Z</time>
      </trkpt>
      <trkpt lat="46.87607" lon="-2.02427">
        <ele>1.9</ele>
        <time>2019-12-31T18:13:42Z</time>
      </trkpt>
      <trkpt lat="46.87615" lon="-2.02366">
        <ele>2</ele>
        <time>2019-12-31T18:13:50Z</time>
      </trkpt>
      <trkpt lat="46.87627" lon="-2.02272">
        <ele>1</ele>
        <time>2019-12-31T18:14:02Z</time>
      </trkpt>
      <trkpt lat="46.87633" lon="-2.02227">
        <ele>1</ele>
        <time>2019-12-31T18:14:07Z</time>
      </trkpt>
      <trkpt lat="46.87642" lon="-2.0219">
        <ele>2.1</ele>
        <time>2019-12-31T18:14:12Z</time>
      </trkpt>
      <trkpt lat="46.87651" lon="-2.02162">
        <ele>2</ele>
        <time>2019-12-31T18:14:16Z</time>
      </trkpt>
      <trkpt lat="46.87671" lon="-2.021">
        <ele>2</ele>
        <time>2019-12-31T18:14:24Z</time>
      </trkpt>
      <trkpt lat="46.87686" lon="-2.02052">
        <ele>1</ele>
        <time>2019-12-31T18:14:30Z</time>
      </trkpt>
      <trkpt lat="46.87692" lon="-2.02026">
        <ele>1</ele>
        <time>2019-12-31T18:14:34Z</time>
      </trkpt>
      <trkpt lat="46.87695" lon="-2.0201">
        <ele>1</ele>
        <time>2019-12-31T18:14:36Z</time>
      </trkpt>
      <trkpt lat="46.87696" lon="-2.02">
        <ele>2</ele>
        <time>2019-12-31T18:14:37Z</time>
      </trkpt>
      <trkpt lat="46.87697" lon="-2.01994">
        <ele>2</ele>
        <time>2019-12-31T18:14:38Z</time>
      </trkpt>
      <trkpt lat="46.87702" lon="-2.01938">
        <ele>1</ele>
        <time>2019-12-31T18:14:45Z</time>
      </trkpt>
      <trkpt lat="46.87702" lon="-2.01936">
        <ele>1</ele>
        <time>2019-12-31T18:14:45Z</time>
      </trkpt>
      <trkpt lat="46.87707" lon="-2.01896">
        <ele>2</ele>
        <time>2019-12-31T18:14:50Z</time>
      </trkpt>
      <trkpt lat="46.8771" lon="-2.01857">
        <ele>2</ele>
        <time>2019-12-31T18:14:55Z</time>
      </trkpt>
      <trkpt lat="46.87708" lon="-2.01827">
        <ele>2</ele>
        <time>2019-12-31T18:14:58Z</time>
      </trkpt>
      <trkpt lat="46.87706" lon="-2.01799">
        <ele>2</ele>
        <time>2019-12-31T18:15:02Z</time>
      </trkpt>
      <trkpt lat="46.87701" lon="-2.01765">
        <ele>2</ele>
        <time>2019-12-31T18:15:06Z</time>
      </trkpt>
      <trkpt lat="46.87697" lon="-2.01729">
        <ele>2</ele>
        <time>2019-12-31T18:15:10Z</time>
      </trkpt>
      <trkpt lat="46.87695" lon="-2.017">
        <ele>2</ele>
        <time>2019-12-31T18:15:14Z</time>
      </trkpt>
      <trkpt lat="46.87694" lon="-2.01673">
        <ele>2</ele>
        <time>2019-12-31T18:15:17Z</time>
      </trkpt>
      <trkpt lat="46.87694" lon="-2.01662">
        <ele>2</ele>
        <time>2019-12-31T18:15:18Z</time>
      </trkpt>
      <trkpt lat="46.87694" lon="-2.01647">
        <ele>2</ele>
        <time>2019-12-31T18:15:20Z</time>
      </trkpt>
      <trkpt lat="46.87694" lon="-2.01624">
        <ele>2</ele>
        <time>2019-12-31T18:15:23Z</time>
      </trkpt>
      <trkpt lat="46.87696" lon="-2.01592">
        <ele>2</ele>
        <time>2019-12-31T18:15:27Z</time>
      </trkpt>
      <trkpt lat="46.87696" lon="-2.01567">
        <ele>2</ele>
        <time>2019-12-31T18:15:30Z</time>
      </trkpt>
      <trkpt lat="46.87694" lon="-2.01542">
        <ele>2</ele>
        <time>2019-12-31T18:15:33Z</time>
      </trkpt>
      <trkpt lat="46.87693" lon="-2.01535">
        <ele>2</ele>
        <time>2019-12-31T18:15:34Z</time>
      </trkpt>
      <trkpt lat="46.87691" lon="-2.01516">
        <ele>2</ele>
        <time>2019-12-31T18:15:36Z</time>
      </trkpt>
      <trkpt lat="46.87687" lon="-2.01486">
        <ele>2</ele>
        <time>2019-12-31T18:15:40Z</time>
      </trkpt>
      <trkpt lat="46.87687" lon="-2.01483">
        <ele>2</ele>
        <time>2019-12-31T18:15:40Z</time>
      </trkpt>
      <trkpt lat="46.87681" lon="-2.01453">
        <ele>1</ele>
        <time>2019-12-31T18:15:44Z</time>
      </trkpt>
      <trkpt lat="46.87675" lon="-2.01412">
        <ele>1</ele>
        <time>2019-12-31T18:15:49Z</time>
      </trkpt>
      <trkpt lat="46.87669" lon="-2.01385">
        <ele>1</ele>
        <time>2019-12-31T18:15:53Z</time>
      </trkpt>
      <trkpt lat="46.87662" lon="-2.01355">
        <ele>1</ele>
        <time>2019-12-31T18:15:57Z</time>
      </trkpt>
      <trkpt lat="46.87662" lon="-2.01354">
        <ele>1</ele>
        <time>2019-12-31T18:15:57Z</time>
      </trkpt>
      <trkpt lat="46.87658" lon="-2.01335">
        <ele>1</ele>
        <time>2019-12-31T18:15:59Z</time>
      </trkpt>
      <trkpt lat="46.87652" lon="-2.01305">
        <ele>2</ele>
        <time>2019-12-31T18:16:03Z</time>
      </trkpt>
      <trkpt lat="46.87649" lon="-2.0128">
        <ele>2</ele>
        <time>2019-12-31T18:16:06Z</time>
      </trkpt>
      <trkpt lat="46.87647" lon="-2.0126">
        <ele>3</ele>
        <time>2019-12-31T18:16:08Z</time>
      </trkpt>
      <trkpt lat="46.87647" lon="-2.0124">
        <ele>3</ele>
        <time>2019-12-31T18:16:11Z</time>
      </trkpt>
      <trkpt lat="46.87649" lon="-2.01219">
        <ele>3</ele>
        <time>2019-12-31T18:16:14Z</time>
      </trkpt>
      <trkpt lat="46.87651" lon="-2.01192">
        <ele>3</ele>
        <time>2019-12-31T18:16:17Z</time>
      </trkpt>
      <trkpt lat="46.87652" lon="-2.01179">
        <ele>3</ele>
        <time>2019-12-31T18:16:18Z</time>
      </trkpt>
      <trkpt lat="46.87654" lon="-2.01163">
        <ele>3</ele>
        <time>2019-12-31T18:16:20Z</time>
      </trkpt>
      <trkpt lat="46.87658" lon="-2.01124">
        <ele>3</ele>
        <time>2019-12-31T18:16:25Z</time>
      </trkpt>
      <trkpt lat="46.8766" lon="-2.01097">
        <ele>2</ele>
        <time>2019-12-31T18:16:28Z</time>
      </trkpt>
      <trkpt lat="46.87661" lon="-2.0109">
        <ele>2</ele>
        <time>2019-12-31T18:16:29Z</time>
      </trkpt>
      <trkpt lat="46.87664" lon="-2.01054">
        <ele>2</ele>
        <time>2019-12-31T18:16:34Z</time>
      </trkpt>
      <trkpt lat="46.87668" lon="-2.01008">
        <ele>2</ele>
        <time>2019-12-31T18:16:39Z</time>
      </trkpt>
      <trkpt lat="46.87671" lon="-2.00968">
        <ele>2</ele>
        <time>2019-12-31T18:16:44Z</time>
      </trkpt>
      <trkpt lat="46.87671" lon="-2.00948">
        <ele>3</ele>
        <time>2019-12-31T18:16:47Z</time>
      </trkpt>
      <trkpt lat="46.8767" lon="-2.00937">
        <ele>3</ele>
        <time>2019-12-31T18:16:48Z</time>
      </trkpt>
      <trkpt lat="46.8767" lon="-2.00937">
        <ele>3</ele>
        <time>2019-12-31T18:16:48Z</time>
      </trkpt>
      <trkpt lat="46.87669" lon="-2.00937">
        <ele>3</ele>
        <time>2019-12-31T18:16:48Z</time>
      </trkpt>
      <trkpt lat="46.87669" lon="-2.00938">
        <ele>3</ele>
        <time>2019-12-31T18:16:48Z</time>
      </trkpt>
      <trkpt lat="46.87668" lon="-2.00938">
        <ele>3</ele>
        <time>2019-12-31T18:16:49Z</time>
      </trkpt>
      <trkpt lat="46.87667" lon="-2.00938">
        <ele>3</ele>
        <time>2019-12-31T18:16:49Z</time>
      </trkpt>
      <trkpt lat="46.87666" lon="-2.00938">
        <ele>3</ele>
        <time>2019-12-31T18:16:49Z</time>
      </trkpt>
      <trkpt lat="46.87666" lon="-2.00937">
        <ele>3</ele>
        <time>2019-12-31T18:16:49Z</time>
      </trkpt>
      <trkpt lat="46.87665" lon="-2.00937">
        <ele>3</ele>
        <time>2019-12-31T18:16:49Z</time>
      </trkpt>
      <trkpt lat="46.87665" lon="-2.00936">
        <ele>3</ele>
        <time>2019-12-31T18:16:49Z</time>
      </trkpt>
      <trkpt lat="46.87664" lon="-2.00936">
        <ele>3</ele>
        <time>2019-12-31T18:16:50Z</time>
      </trkpt>
      <trkpt lat="46.87664" lon="-2.00935">
        <ele>3</ele>
        <time>2019-12-31T18:16:50Z</time>
      </trkpt>
      <trkpt lat="46.87663" lon="-2.00935">
        <ele>3</ele>
        <time>2019-12-31T18:16:50Z</time>
      </trkpt>
      <trkpt lat="46.87663" lon="-2.00934">
        <ele>3</ele>
        <time>2019-12-31T18:16:50Z</time>
      </trkpt>
      <trkpt lat="46.87663" lon="-2.00933">
        <ele>3</ele>
        <time>2019-12-31T18:16:50Z</time>
      </trkpt>
      <trkpt lat="46.87662" lon="-2.00933">
        <ele>3</ele>
        <time>2019-12-31T18:16:50Z</time>
      </trkpt>
      <trkpt lat="46.87662" lon="-2.00932">
        <ele>3</ele>
        <time>2019-12-31T18:16:50Z</time>
      </trkpt>
      <trkpt lat="46.87662" lon="-2.00931">
        <ele>3</ele>
        <time>2019-12-31T18:16:50Z</time>
      </trkpt>
      <trkpt lat="46.87662" lon="-2.0093">
        <ele>3</ele>
        <time>2019-12-31T18:16:51Z</time>
      </trkpt>
      <trkpt lat="46.87662" lon="-2.00929">
        <ele>3</ele>
        <time>2019-12-31T18:16:51Z</time>
      </trkpt>
      <trkpt lat="46.87662" lon="-2.00928">
        <ele>3</ele>
        <time>2019-12-31T18:16:51Z</time>
      </trkpt>
      <trkpt lat="46.87662" lon="-2.00927">
        <ele>3</ele>
        <time>2019-12-31T18:16:51Z</time>
      </trkpt>
      <trkpt lat="46.87662" lon="-2.00926">
        <ele>3</ele>
        <time>2019-12-31T18:16:51Z</time>
      </trkpt>
      <trkpt lat="46.87663" lon="-2.00926">
        <ele>3</ele>
        <time>2019-12-31T18:16:51Z</time>
      </trkpt>
      <trkpt lat="46.87663" lon="-2.00925">
        <ele>3</ele>
        <time>2019-12-31T18:16:51Z</time>
      </trkpt>
      <trkpt lat="46.87663" lon="-2.00924">
        <ele>3</ele>
        <time>2019-12-31T18:16:51Z</time>
      </trkpt>
      <trkpt lat="46.87664" lon="-2.00924">
        <ele>3</ele>
        <time>2019-12-31T18:16:52Z</time>
      </trkpt>
      <trkpt lat="46.87664" lon="-2.00923">
        <ele>3</ele>
        <time>2019-12-31T18:16:52Z</time>
      </trkpt>
      <trkpt lat="46.87664" lon="-2.00922">
        <ele>3</ele>
        <time>2019-12-31T18:16:52Z</time>
      </trkpt>
      <trkpt lat="46.87665" lon="-2.00922">
        <ele>3</ele>
        <time>2019-12-31T18:16:52Z</time>
      </trkpt>
      <trkpt lat="46.87666" lon="-2.00922">
        <ele>3</ele>
        <time>2019-12-31T18:16:52Z</time>
      </trkpt>
      <trkpt lat="46.87666" lon="-2.00921">
        <ele>3</ele>
        <time>2019-12-31T18:16:52Z</time>
      </trkpt>
      <trkpt lat="46.87659" lon="-2.00911">
        <ele>3</ele>
        <time>2019-12-31T18:16:54Z</time>
      </trkpt>
      <trkpt lat="46.87645" lon="-2.00894">
        <ele>3</ele>
        <time>2019-12-31T18:16:57Z</time>
      </trkpt>
      <trkpt lat="46.8763" lon="-2.0088">
        <ele>3</ele>
        <time>2019-12-31T18:17:01Z</time>
      </trkpt>
      <trkpt lat="46.87613" lon="-2.00868">
        <ele>2</ele>
        <time>2019-12-31T18:17:04Z</time>
      </trkpt>
      <trkpt lat="46.87602" lon="-2.00858">
        <ele>2</ele>
        <time>2019-12-31T18:17:06Z</time>
      </trkpt>
      <trkpt lat="46.87595" lon="-2.0085">
        <ele>2</ele>
        <time>2019-12-31T18:17:08Z</time>
      </trkpt>
      <trkpt lat="46.87593" lon="-2.00845">
        <ele>2</ele>
        <time>2019-12-31T18:17:08Z</time>
      </trkpt>
      <trkpt lat="46.87592" lon="-2.00838">
        <ele>2</ele>
        <time>2019-12-31T18:17:09Z</time>
      </trkpt>
      <trkpt lat="46.87591" lon="-2.00818">
        <ele>2</ele>
        <time>2019-12-31T18:17:12Z</time>
      </trkpt>
      <trkpt lat="46.87592" lon="-2.0081">
        <ele>2</ele>
        <time>2019-12-31T18:17:13Z</time>
      </trkpt>
      <trkpt lat="46.87592" lon="-2.00787">
        <ele>2</ele>
        <time>2019-12-31T18:17:16Z</time>
      </trkpt>
      <trkpt lat="46.87592" lon="-2.0078">
        <ele>3</ele>
        <time>2019-12-31T18:17:16Z</time>
      </trkpt>
      <trkpt lat="46.87592" lon="-2.00776">
        <ele>3</ele>
        <time>2019-12-31T18:17:17Z</time>
      </trkpt>
      <trkpt lat="46.8759" lon="-2.00762">
        <ele>3</ele>
        <time>2019-12-31T18:17:19Z</time>
      </trkpt>
      <trkpt lat="46.87589" lon="-2.00754">
        <ele>3</ele>
        <time>2019-12-31T18:17:20Z</time>
      </trkpt>
      <trkpt lat="46.87587" lon="-2.00749">
        <ele>3</ele>
        <time>2019-12-31T18:17:20Z</time>
      </trkpt>
      <trkpt lat="46.87584" lon="-2.00745">
        <ele>3</ele>
        <time>2019-12-31T18:17:21Z</time>
      </trkpt>
      <trkpt lat="46.87583" lon="-2.00744">
        <ele>3</ele>
        <time>2019-12-31T18:17:21Z</time>
      </trkpt>
      <trkpt lat="46.87577" lon="-2.00743">
        <ele>3</ele>
        <time>2019-12-31T18:17:22Z</time>
      </trkpt>
      <trkpt lat="46.87567" lon="-2.00744">
        <ele>3</ele>
        <time>2019-12-31T18:17:24Z</time>
      </trkpt>
      <trkpt lat="46.87558" lon="-2.00746">
        <ele>3</ele>
        <time>2019-12-31T18:17:26Z</time>
      </trkpt>
      <trkpt lat="46.87554" lon="-2.00746">
        <ele>3</ele>
        <time>2019-12-31T18:17:26Z</time>
      </trkpt>
      <trkpt lat="46.87553" lon="-2.00746">
        <ele>3</ele>
        <time>2019-12-31T18:17:27Z</time>
      </trkpt>
      <trkpt lat="46.87549" lon="-2.00745">
        <ele>3</ele>
        <time>2019-12-31T18:17:27Z</time>
      </trkpt>
      <trkpt lat="46.87529" lon="-2.00733">
        <ele>2</ele>
        <time>2019-12-31T18:17:31Z</time>
      </trkpt>
      <trkpt lat="46.87528" lon="-2.00733">
        <ele>2</ele>
        <time>2019-12-31T18:17:31Z</time>
      </trkpt>
      <trkpt lat="46.87515" lon="-2.00726">
        <ele>2</ele>
        <time>2019-12-31T18:17:34Z</time>
      </trkpt>
      <trkpt lat="46.87515" lon="-2.00725">
        <ele>2</ele>
        <time>2019-12-31T18:17:34Z</time>
      </trkpt>
      <trkpt lat="46.87503" lon="-2.0072">
        <ele>2</ele>
        <time>2019-12-31T18:17:36Z</time>
      </trkpt>
      <trkpt lat="46.87484" lon="-2.00717">
        <ele>2</ele>
        <time>2019-12-31T18:17:40Z</time>
      </trkpt>
      <trkpt lat="46.87465" lon="-2.00717">
        <ele>2</ele>
        <time>2019-12-31T18:17:43Z</time>
      </trkpt>
      <trkpt lat="46.87451" lon="-2.00717">
        <ele>1</ele>
        <time>2019-12-31T18:17:45Z</time>
      </trkpt>
      <trkpt lat="46.87447" lon="-2.00716">
        <ele>1</ele>
        <time>2019-12-31T18:17:46Z</time>
      </trkpt>
      <trkpt lat="46.87438" lon="-2.0071">
        <ele>1</ele>
        <time>2019-12-31T18:17:48Z</time>
      </trkpt>
      <trkpt lat="46.87438" lon="-2.0071">
        <ele>1</ele>
        <time>2019-12-31T18:17:48Z</time>
      </trkpt>
      <trkpt lat="46.87442" lon="-2.00689">
        <ele>1</ele>
        <time>2019-12-31T18:17:51Z</time>
      </trkpt>
      <trkpt lat="46.8745" lon="-2.00659">
        <ele>1</ele>
        <time>2019-12-31T18:17:55Z</time>
      </trkpt>
      <trkpt lat="46.87458" lon="-2.00626">
        <ele>1</ele>
        <time>2019-12-31T18:17:59Z</time>
      </trkpt>
      <trkpt lat="46.87467" lon="-2.00594">
        <ele>1</ele>
        <time>2019-12-31T18:18:03Z</time>
      </trkpt>
      <trkpt lat="46.87474" lon="-2.00568">
        <ele>1</ele>
        <time>2019-12-31T18:18:06Z</time>
      </trkpt>
      <trkpt lat="46.87482" lon="-2.00544">
        <ele>1</ele>
        <time>2019-12-31T18:18:10Z</time>
      </trkpt>
      <trkpt lat="46.87489" lon="-2.00525">
        <ele>2.4</ele>
        <time>2019-12-31T18:18:12Z</time>
      </trkpt>
      <trkpt lat="46.87501" lon="-2.0049">
        <ele>2</ele>
        <time>2019-12-31T18:18:17Z</time>
      </trkpt>
      <trkpt lat="46.87508" lon="-2.00468">
        <ele>2.2</ele>
        <time>2019-12-31T18:18:20Z</time>
      </trkpt>
      <trkpt lat="46.87523" lon="-2.0042">
        <ele>2</ele>
        <time>2019-12-31T18:18:26Z</time>
      </trkpt>
      <trkpt lat="46.87535" lon="-2.00386">
        <ele>1.3</ele>
        <time>2019-12-31T18:18:31Z</time>
      </trkpt>
      <trkpt lat="46.87548" lon="-2.00349">
        <ele>1.9</ele>
        <time>2019-12-31T18:18:36Z</time>
      </trkpt>
      <trkpt lat="46.87557" lon="-2.00329">
        <ele>2</ele>
        <time>2019-12-31T18:18:39Z</time>
      </trkpt>
      <trkpt lat="46.87558" lon="-2.00327">
        <ele>2</ele>
        <time>2019-12-31T18:18:39Z</time>
      </trkpt>
      <trkpt lat="46.87569" lon="-2.00314">
        <ele>2</ele>
        <time>2019-12-31T18:18:42Z</time>
      </trkpt>
      <trkpt lat="46.87582" lon="-2.00294">
        <ele>2</ele>
        <time>2019-12-31T18:18:45Z</time>
      </trkpt>
      <trkpt lat="46.876" lon="-2.00269">
        <ele>2.2</ele>
        <time>2019-12-31T18:18:50Z</time>
      </trkpt>
      <trkpt lat="46.87618" lon="-2.00239">
        <ele>1</ele>
        <time>2019-12-31T18:18:54Z</time>
      </trkpt>
      <trkpt lat="46.87641" lon="-2.00201">
        <ele>2</ele>
        <time>2019-12-31T18:19:01Z</time>
      </trkpt>
      <trkpt lat="46.87668" lon="-2.00154">
        <ele>3</ele>
        <time>2019-12-31T18:19:08Z</time>
      </trkpt>
      <trkpt lat="46.87693" lon="-2.00112">
        <ele>4</ele>
        <time>2019-12-31T18:19:15Z</time>
      </trkpt>
      <trkpt lat="46.87713" lon="-2.00078">
        <ele>5</ele>
        <time>2019-12-31T18:19:20Z</time>
      </trkpt>
      <trkpt lat="46.87744" lon="-2.00026">
        <ele>6</ele>
        <time>2019-12-31T18:19:29Z</time>
      </trkpt>
      <trkpt lat="46.87745" lon="-2.00024">
        <ele>6</ele>
        <time>2019-12-31T18:19:29Z</time>
      </trkpt>
      <trkpt lat="46.87759" lon="-2.00004">
        <ele>6</ele>
        <time>2019-12-31T18:19:33Z</time>
      </trkpt>
      <trkpt lat="46.87786" lon="-1.99964">
        <ele>7</ele>
        <time>2019-12-31T18:19:39Z</time>
      </trkpt>
      <trkpt lat="46.87811" lon="-1.99928">
        <ele>8</ele>
        <time>2019-12-31T18:19:46Z</time>
      </trkpt>
      <trkpt lat="46.87818" lon="-1.99913">
        <ele>8</ele>
        <time>2019-12-31T18:19:48Z</time>
      </trkpt>
      <trkpt lat="46.87823" lon="-1.999">
        <ele>8</ele>
        <time>2019-12-31T18:19:50Z</time>
      </trkpt>
      <trkpt lat="46.87826" lon="-1.9989">
        <ele>8</ele>
        <time>2019-12-31T18:19:51Z</time>
      </trkpt>
      <trkpt lat="46.87828" lon="-1.99872">
        <ele>8</ele>
        <time>2019-12-31T18:19:53Z</time>
      </trkpt>
      <trkpt lat="46.87826" lon="-1.9986">
        <ele>8</ele>
        <time>2019-12-31T18:19:55Z</time>
      </trkpt>
      <trkpt lat="46.87824" lon="-1.9985">
        <ele>8</ele>
        <time>2019-12-31T18:19:56Z</time>
      </trkpt>
      <trkpt lat="46.87815" lon="-1.99828">
        <ele>8</ele>
        <time>2019-12-31T18:19:59Z</time>
      </trkpt>
      <trkpt lat="46.87797" lon="-1.99796">
        <ele>7</ele>
        <time>2019-12-31T18:20:04Z</time>
      </trkpt>
      <trkpt lat="46.87776" lon="-1.99761">
        <ele>7</ele>
        <time>2019-12-31T18:20:10Z</time>
      </trkpt>
      <trkpt lat="46.87755" lon="-1.99726">
        <ele>6</ele>
        <time>2019-12-31T18:20:15Z</time>
      </trkpt>
      <trkpt lat="46.87733" lon="-1.9969">
        <ele>6</ele>
        <time>2019-12-31T18:20:21Z</time>
      </trkpt>
      <trkpt lat="46.87724" lon="-1.99674">
        <ele>5</ele>
        <time>2019-12-31T18:20:24Z</time>
      </trkpt>
      <trkpt lat="46.87716" lon="-1.99661">
        <ele>5</ele>
        <time>2019-12-31T18:20:26Z</time>
      </trkpt>
      <trkpt lat="46.87699" lon="-1.99634">
        <ele>5</ele>
        <time>2019-12-31T18:20:30Z</time>
      </trkpt>
      <trkpt lat="46.87678" lon="-1.99607">
        <ele>4</ele>
        <time>2019-12-31T18:20:35Z</time>
      </trkpt>
      <trkpt lat="46.87653" lon="-1.99578">
        <ele>3</ele>
        <time>2019-12-31T18:20:41Z</time>
      </trkpt>
      <trkpt lat="46.87631" lon="-1.99551">
        <ele>2</ele>
        <time>2019-12-31T18:20:46Z</time>
      </trkpt>
      <trkpt lat="46.87612" lon="-1.9953">
        <ele>1</ele>
        <time>2019-12-31T18:20:50Z</time>
      </trkpt>
      <trkpt lat="46.87606" lon="-1.99524">
        <ele>1</ele>
        <time>2019-12-31T18:20:52Z</time>
      </trkpt>
      <trkpt lat="46.87598" lon="-1.99516">
        <ele>1</ele>
        <time>2019-12-31T18:20:53Z</time>
      </trkpt>
      <trkpt lat="46.87577" lon="-1.99491">
        <ele>1</ele>
        <time>2019-12-31T18:20:58Z</time>
      </trkpt>
      <trkpt lat="46.87559" lon="-1.9947">
        <ele>1</ele>
        <time>2019-12-31T18:21:02Z</time>
      </trkpt>
      <trkpt lat="46.87544" lon="-1.99453">
        <ele>2</ele>
        <time>2019-12-31T18:21:06Z</time>
      </trkpt>
      <trkpt lat="46.8752" lon="-1.99424">
        <ele>2</ele>
        <time>2019-12-31T18:21:11Z</time>
      </trkpt>
      <trkpt lat="46.87502" lon="-1.994">
        <ele>2</ele>
        <time>2019-12-31T18:21:16Z</time>
      </trkpt>
      <trkpt lat="46.87501" lon="-1.99399">
        <ele>2</ele>
        <time>2019-12-31T18:21:16Z</time>
      </trkpt>
      <trkpt lat="46.87487" lon="-1.99372">
        <ele>3</ele>
        <time>2019-12-31T18:21:20Z</time>
      </trkpt>
      <trkpt lat="46.87475" lon="-1.99348">
        <ele>3</ele>
        <time>2019-12-31T18:21:24Z</time>
      </trkpt>
      <trkpt lat="46.87439" lon="-1.99277">
        <ele>5</ele>
        <time>2019-12-31T18:21:34Z</time>
      </trkpt>
      <trkpt lat="46.87417" lon="-1.99233">
        <ele>6</ele>
        <time>2019-12-31T18:21:41Z</time>
      </trkpt>
      <trkpt lat="46.87405" lon="-1.99211">
        <ele>5</ele>
        <time>2019-12-31T18:21:44Z</time>
      </trkpt>
      <trkpt lat="46.87396" lon="-1.99198">
        <ele>5</ele>
        <time>2019-12-31T18:21:47Z</time>
      </trkpt>
      <trkpt lat="46.87388" lon="-1.99187">
        <ele>5</ele>
        <time>2019-12-31T18:21:49Z</time>
      </trkpt>
      <trkpt lat="46.87378" lon="-1.99177">
        <ele>5</ele>
        <time>2019-12-31T18:21:51Z</time>
      </trkpt>
      <trkpt lat="46.8737" lon="-1.99169">
        <ele>5</ele>
        <time>2019-12-31T18:21:52Z</time>
      </trkpt>
      <trkpt lat="46.87361" lon="-1.99162">
        <ele>5</ele>
        <time>2019-12-31T18:21:54Z</time>
      </trkpt>
      <trkpt lat="46.87344" lon="-1.99149">
        <ele>5</ele>
        <time>2019-12-31T18:21:58Z</time>
      </trkpt>
      <trkpt lat="46.87312" lon="-1.99124">
        <ele>5</ele>
        <time>2019-12-31T18:22:04Z</time>
      </trkpt>
      <trkpt lat="46.87298" lon="-1.9911">
        <ele>5</ele>
        <time>2019-12-31T18:22:07Z</time>
      </trkpt>
      <trkpt lat="46.87288" lon="-1.99098">
        <ele>4</ele>
        <time>2019-12-31T18:22:09Z</time>
      </trkpt>
      <trkpt lat="46.87279" lon="-1.99087">
        <ele>4</ele>
        <time>2019-12-31T18:22:12Z</time>
      </trkpt>
      <trkpt lat="46.87269" lon="-1.99074">
        <ele>4</ele>
        <time>2019-12-31T18:22:14Z</time>
      </trkpt>
      <trkpt lat="46.87259" lon="-1.99061">
        <ele>4</ele>
        <time>2019-12-31T18:22:16Z</time>
      </trkpt>
      <trkpt lat="46.87248" lon="-1.99044">
        <ele>4</ele>
        <time>2019-12-31T18:22:19Z</time>
      </trkpt>
      <trkpt lat="46.87235" lon="-1.99025">
        <ele>4</ele>
        <time>2019-12-31T18:22:22Z</time>
      </trkpt>
      <trkpt lat="46.87207" lon="-1.98986">
        <ele>4</ele>
        <time>2019-12-31T18:22:29Z</time>
      </trkpt>
      <trkpt lat="46.87179" lon="-1.98943">
        <ele>4</ele>
        <time>2019-12-31T18:22:37Z</time>
      </trkpt>
      <trkpt lat="46.87136" lon="-1.98882">
        <ele>4</ele>
        <time>2019-12-31T18:22:47Z</time>
      </trkpt>
      <trkpt lat="46.87094" lon="-1.9882">
        <ele>3</ele>
        <time>2019-12-31T18:22:58Z</time>
      </trkpt>
      <trkpt lat="46.8705" lon="-1.98757">
        <ele>3</ele>
        <time>2019-12-31T18:23:09Z</time>
      </trkpt>
      <trkpt lat="46.8703" lon="-1.98728">
        <ele>3</ele>
        <time>2019-12-31T18:23:14Z</time>
      </trkpt>
      <trkpt lat="46.87019" lon="-1.9871">
        <ele>3</ele>
        <time>2019-12-31T18:23:17Z</time>
      </trkpt>
      <trkpt lat="46.8701" lon="-1.98693">
        <ele>3</ele>
        <time>2019-12-31T18:23:19Z</time>
      </trkpt>
      <trkpt lat="46.87009" lon="-1.98692">
        <ele>3</ele>
        <time>2019-12-31T18:23:20Z</time>
      </trkpt>
      <trkpt lat="46.86992" lon="-1.98657">
        <ele>4</ele>
        <time>2019-12-31T18:23:25Z</time>
      </trkpt>
      <trkpt lat="46.86974" lon="-1.98617">
        <ele>3</ele>
        <time>2019-12-31T18:23:31Z</time>
      </trkpt>
      <trkpt lat="46.86973" lon="-1.98614">
        <ele>3</ele>
        <time>2019-12-31T18:23:31Z</time>
      </trkpt>
      <trkpt lat="46.86965" lon="-1.98596">
        <ele>3</ele>
        <time>2019-12-31T18:23:34Z</time>
      </trkpt>
      <trkpt lat="46.86952" lon="-1.98566">
        <ele>3</ele>
        <time>2019-12-31T18:23:38Z</time>
      </trkpt>
      <trkpt lat="46.86935" lon="-1.98527">
        <ele>2</ele>
        <time>2019-12-31T18:23:44Z</time>
      </trkpt>
      <trkpt lat="46.86929" lon="-1.98511">
        <ele>2</ele>
        <time>2019-12-31T18:23:46Z</time>
      </trkpt>
      <trkpt lat="46.86922" lon="-1.98498">
        <ele>2</ele>
        <time>2019-12-31T18:23:48Z</time>
      </trkpt>
      <trkpt lat="46.86913" lon="-1.98483">
        <ele>2</ele>
        <time>2019-12-31T18:23:50Z</time>
      </trkpt>
      <trkpt lat="46.8689" lon="-1.98452">
        <ele>1</ele>
        <time>2019-12-31T18:23:56Z</time>
      </trkpt>
      <trkpt lat="46.8688" lon="-1.98436">
        <ele>1</ele>
        <time>2019-12-31T18:23:58Z</time>
      </trkpt>
      <trkpt lat="46.86873" lon="-1.98421">
        <ele>1</ele>
        <time>2019-12-31T18:24:01Z</time>
      </trkpt>
      <trkpt lat="46.86872" lon="-1.9842">
        <ele>1</ele>
        <time>2019-12-31T18:24:01Z</time>
      </trkpt>
      <trkpt lat="46.8687" lon="-1.98412">
        <ele>1</ele>
        <time>2019-12-31T18:24:02Z</time>
      </trkpt>
      <trkpt lat="46.86867" lon="-1.98401">
        <ele>1</ele>
        <time>2019-12-31T18:24:03Z</time>
      </trkpt>
      <trkpt lat="46.86863" lon="-1.98384">
        <ele>1</ele>
        <time>2019-12-31T18:24:05Z</time>
      </trkpt>
      <trkpt lat="46.8686" lon="-1.98366">
        <ele>1</ele>
        <time>2019-12-31T18:24:08Z</time>
      </trkpt>
      <trkpt lat="46.86855" lon="-1.98326">
        <ele>1</ele>
        <time>2019-12-31T18:24:13Z</time>
      </trkpt>
      <trkpt lat="46.86848" lon="-1.98288">
        <ele>1</ele>
        <time>2019-12-31T18:24:17Z</time>
      </trkpt>
      <trkpt lat="46.86845" lon="-1.98268">
        <ele>1</ele>
        <time>2019-12-31T18:24:20Z</time>
      </trkpt>
      <trkpt lat="46.86841" lon="-1.9825">
        <ele>1</ele>
        <time>2019-12-31T18:24:22Z</time>
      </trkpt>
      <trkpt lat="46.86839" lon="-1.98242">
        <ele>1</ele>
        <time>2019-12-31T18:24:23Z</time>
      </trkpt>
      <trkpt lat="46.86835" lon="-1.98231">
        <ele>1</ele>
        <time>2019-12-31T18:24:25Z</time>
      </trkpt>
      <trkpt lat="46.86829" lon="-1.98212">
        <ele>1</ele>
        <time>2019-12-31T18:24:27Z</time>
      </trkpt>
      <trkpt lat="46.8682" lon="-1.98191">
        <ele>1</ele>
        <time>2019-12-31T18:24:30Z</time>
      </trkpt>
      <trkpt lat="46.86777" lon="-1.98082">
        <ele>1</ele>
        <time>2019-12-31T18:24:46Z</time>
      </trkpt>
      <trkpt lat="46.86736" lon="-1.97973">
        <ele>1</ele>
        <time>2019-12-31T18:25:01Z</time>
      </trkpt>
      <trkpt lat="46.86704" lon="-1.97887">
        <ele>1</ele>
        <time>2019-12-31T18:25:13Z</time>
      </trkpt>
      <trkpt lat="46.86676" lon="-1.97811">
        <ele>2</ele>
        <time>2019-12-31T18:25:23Z</time>
      </trkpt>
      <trkpt lat="46.86664" lon="-1.97778">
        <ele>2</ele>
        <time>2019-12-31T18:25:28Z</time>
      </trkpt>
      <trkpt lat="46.86662" lon="-1.97771">
        <ele>2</ele>
        <time>2019-12-31T18:25:29Z</time>
      </trkpt>
      <trkpt lat="46.86655" lon="-1.97747">
        <ele>2</ele>
        <time>2019-12-31T18:25:32Z</time>
      </trkpt>
      <trkpt lat="46.86652" lon="-1.97731">
        <ele>2</ele>
        <time>2019-12-31T18:25:34Z</time>
      </trkpt>
      <trkpt lat="46.86649" lon="-1.97714">
        <ele>2</ele>
        <time>2019-12-31T18:25:36Z</time>
      </trkpt>
      <trkpt lat="46.86648" lon="-1.97698">
        <ele>2</ele>
        <time>2019-12-31T18:25:38Z</time>
      </trkpt>
      <trkpt lat="46.86647" lon="-1.97677">
        <ele>3</ele>
        <time>2019-12-31T18:25:41Z</time>
      </trkpt>
      <trkpt lat="46.86648" lon="-1.97653">
        <ele>3</ele>
        <time>2019-12-31T18:25:43Z</time>
      </trkpt>
      <trkpt lat="46.86648" lon="-1.97641">
        <ele>3</ele>
        <time>2019-12-31T18:25:45Z</time>
      </trkpt>
      <trkpt lat="46.8665" lon="-1.97615">
        <ele>3</ele>
        <time>2019-12-31T18:25:48Z</time>
      </trkpt>
      <trkpt lat="46.86656" lon="-1.97536">
        <ele>3</ele>
        <time>2019-12-31T18:25:58Z</time>
      </trkpt>
      <trkpt lat="46.86657" lon="-1.97509">
        <ele>3</ele>
        <time>2019-12-31T18:26:01Z</time>
      </trkpt>
      <trkpt lat="46.86661" lon="-1.97448">
        <ele>3</ele>
        <time>2019-12-31T18:26:09Z</time>
      </trkpt>
      <trkpt lat="46.86663" lon="-1.97408">
        <ele>3</ele>
        <time>2019-12-31T18:26:13Z</time>
      </trkpt>
      <trkpt lat="46.86666" lon="-1.9737">
        <ele>3</ele>
        <time>2019-12-31T18:26:18Z</time>
      </trkpt>
      <trkpt lat="46.86667" lon="-1.9734">
        <ele>3</ele>
        <time>2019-12-31T18:26:22Z</time>
      </trkpt>
      <trkpt lat="46.86668" lon="-1.97312">
        <ele>4</ele>
        <time>2019-12-31T18:26:25Z</time>
      </trkpt>
      <trkpt lat="46.86669" lon="-1.97295">
        <ele>4</ele>
        <time>2019-12-31T18:26:27Z</time>
      </trkpt>
      <trkpt lat="46.86669" lon="-1.97275">
        <ele>4</ele>
        <time>2019-12-31T18:26:30Z</time>
      </trkpt>
      <trkpt lat="46.86668" lon="-1.97255">
        <ele>5</ele>
        <time>2019-12-31T18:26:32Z</time>
      </trkpt>
      <trkpt lat="46.86667" lon="-1.97239">
        <ele>5</ele>
        <time>2019-12-31T18:26:34Z</time>
      </trkpt>
      <trkpt lat="46.86666" lon="-1.97229">
        <ele>5</ele>
        <time>2019-12-31T18:26:35Z</time>
      </trkpt>
      <trkpt lat="46.86664" lon="-1.9722">
        <ele>5</ele>
        <time>2019-12-31T18:26:36Z</time>
      </trkpt>
      <trkpt lat="46.86662" lon="-1.97201">
        <ele>5</ele>
        <time>2019-12-31T18:26:39Z</time>
      </trkpt>
      <trkpt lat="46.86655" lon="-1.97159">
        <ele>5</ele>
        <time>2019-12-31T18:26:44Z</time>
      </trkpt>
      <trkpt lat="46.8665" lon="-1.97135">
        <ele>4</ele>
        <time>2019-12-31T18:26:47Z</time>
      </trkpt>
      <trkpt lat="46.86644" lon="-1.9711">
        <ele>3</ele>
        <time>2019-12-31T18:26:50Z</time>
      </trkpt>
      <trkpt lat="46.86639" lon="-1.97072">
        <ele>3</ele>
        <time>2019-12-31T18:26:55Z</time>
      </trkpt>
      <trkpt lat="46.86637" lon="-1.97024">
        <ele>2</ele>
        <time>2019-12-31T18:27:01Z</time>
      </trkpt>
      <trkpt lat="46.86637" lon="-1.96992">
        <ele>2</ele>
        <time>2019-12-31T18:27:05Z</time>
      </trkpt>
      <trkpt lat="46.86637" lon="-1.96956">
        <ele>2</ele>
        <time>2019-12-31T18:27:09Z</time>
      </trkpt>
      <trkpt lat="46.86635" lon="-1.96923">
        <ele>2</ele>
        <time>2019-12-31T18:27:13Z</time>
      </trkpt>
      <trkpt lat="46.86634" lon="-1.96902">
        <ele>2</ele>
        <time>2019-12-31T18:27:16Z</time>
      </trkpt>
      <trkpt lat="46.86632" lon="-1.96887">
        <ele>2</ele>
        <time>2019-12-31T18:27:18Z</time>
      </trkpt>
      <trkpt lat="46.86624" lon="-1.96857">
        <ele>2</ele>
        <time>2019-12-31T18:27:21Z</time>
      </trkpt>
      <trkpt lat="46.86618" lon="-1.96839">
        <ele>2</ele>
        <time>2019-12-31T18:27:24Z</time>
      </trkpt>
      <trkpt lat="46.86612" lon="-1.96826">
        <ele>2</ele>
        <time>2019-12-31T18:27:26Z</time>
      </trkpt>
      <trkpt lat="46.86604" lon="-1.96814">
        <ele>2</ele>
        <time>2019-12-31T18:27:28Z</time>
      </trkpt>
      <trkpt lat="46.86598" lon="-1.96805">
        <ele>2</ele>
        <time>2019-12-31T18:27:29Z</time>
      </trkpt>
      <trkpt lat="46.86577" lon="-1.96779">
        <ele>1</ele>
        <time>2019-12-31T18:27:34Z</time>
      </trkpt>
      <trkpt lat="46.86527" lon="-1.96715">
        <ele>2</ele>
        <time>2019-12-31T18:27:46Z</time>
      </trkpt>
      <trkpt lat="46.86459" lon="-1.96627">
        <ele>1.5</ele>
        <time>2019-12-31T18:28:02Z</time>
      </trkpt>
      <trkpt lat="46.86386" lon="-1.96532">
        <ele>2</ele>
        <time>2019-12-31T18:28:20Z</time>
      </trkpt>
      <trkpt lat="46.86311" lon="-1.96434">
        <ele>1.9</ele>
        <time>2019-12-31T18:28:38Z</time>
      </trkpt>
      <trkpt lat="46.86234" lon="-1.96334">
        <ele>2</ele>
        <time>2019-12-31T18:28:56Z</time>
      </trkpt>
      <trkpt lat="46.86153" lon="-1.96228">
        <ele>1</ele>
        <time>2019-12-31T18:29:15Z</time>
      </trkpt>
      <trkpt lat="46.86107" lon="-1.96166">
        <ele>1</ele>
        <time>2019-12-31T18:29:26Z</time>
      </trkpt>
      <trkpt lat="46.86093" lon="-1.9615">
        <ele>1</ele>
        <time>2019-12-31T18:29:29Z</time>
      </trkpt>
      <trkpt lat="46.86062" lon="-1.9611">
        <ele>2</ele>
        <time>2019-12-31T18:29:37Z</time>
      </trkpt>
      <trkpt lat="46.86029" lon="-1.96065">
        <ele>3</ele>
        <time>2019-12-31T18:29:45Z</time>
      </trkpt>
      <trkpt lat="46.86018" lon="-1.9605">
        <ele>3</ele>
        <time>2019-12-31T18:29:48Z</time>
      </trkpt>
      <trkpt lat="46.86013" lon="-1.96044">
        <ele>3</ele>
        <time>2019-12-31T18:29:49Z</time>
      </trkpt>
      <trkpt lat="46.86013" lon="-1.96044">
        <ele>3</ele>
        <time>2019-12-31T18:29:49Z</time>
      </trkpt>
      <trkpt lat="46.8601" lon="-1.96041">
        <ele>3</ele>
        <time>2019-12-31T18:29:49Z</time>
      </trkpt>
      <trkpt lat="46.86001" lon="-1.96031">
        <ele>4</ele>
        <time>2019-12-31T18:29:51Z</time>
      </trkpt>
      <trkpt lat="46.85996" lon="-1.96027">
        <ele>4</ele>
        <time>2019-12-31T18:29:52Z</time>
      </trkpt>
      <trkpt lat="46.8598" lon="-1.96019">
        <ele>4</ele>
        <time>2019-12-31T18:29:55Z</time>
      </trkpt>
      <trkpt lat="46.85972" lon="-1.96012">
        <ele>4</ele>
        <time>2019-12-31T18:29:57Z</time>
      </trkpt>
      <trkpt lat="46.85971" lon="-1.9601">
        <ele>4</ele>
        <time>2019-12-31T18:29:57Z</time>
      </trkpt>
      <trkpt lat="46.85966" lon="-1.96005">
        <ele>4</ele>
        <time>2019-12-31T18:29:58Z</time>
      </trkpt>
      <trkpt lat="46.85962" lon="-1.95995">
        <ele>4</ele>
        <time>2019-12-31T18:30:00Z</time>
      </trkpt>
      <trkpt lat="46.85958" lon="-1.95984">
        <ele>3</ele>
        <time>2019-12-31T18:30:01Z</time>
      </trkpt>
      <trkpt lat="46.85956" lon="-1.95973">
        <ele>3</ele>
        <time>2019-12-31T18:30:03Z</time>
      </trkpt>
      <trkpt lat="46.85953" lon="-1.95939">
        <ele>3</ele>
        <time>2019-12-31T18:30:07Z</time>
      </trkpt>
      <trkpt lat="46.85949" lon="-1.9591">
        <ele>3</ele>
        <time>2019-12-31T18:30:10Z</time>
      </trkpt>
      <trkpt lat="46.85947" lon="-1.95899">
        <ele>3</ele>
        <time>2019-12-31T18:30:12Z</time>
      </trkpt>
      <trkpt lat="46.85945" lon="-1.95889">
        <ele>4</ele>
        <time>2019-12-31T18:30:13Z</time>
      </trkpt>
      <trkpt lat="46.85942" lon="-1.95878">
        <ele>4</ele>
        <time>2019-12-31T18:30:15Z</time>
      </trkpt>
      <trkpt lat="46.85942" lon="-1.95878">
        <ele>4</ele>
        <time>2019-12-31T18:30:15Z</time>
      </trkpt>
      <trkpt lat="46.85928" lon="-1.95893">
        <ele>4</ele>
        <time>2019-12-31T18:30:18Z</time>
      </trkpt>
      <trkpt lat="46.85923" lon="-1.95901">
        <ele>4</ele>
        <time>2019-12-31T18:30:19Z</time>
      </trkpt>
      <trkpt lat="46.85909" lon="-1.95921">
        <ele>4</ele>
        <time>2019-12-31T18:30:22Z</time>
      </trkpt>
      <trkpt lat="46.8589" lon="-1.95949">
        <ele>3</ele>
        <time>2019-12-31T18:30:27Z</time>
      </trkpt>
      <trkpt lat="46.85887" lon="-1.95952">
        <ele>3</ele>
        <time>2019-12-31T18:30:28Z</time>
      </trkpt>
      <trkpt lat="46.85878" lon="-1.95966">
        <ele>3</ele>
        <time>2019-12-31T18:30:30Z</time>
      </trkpt>
      <trkpt lat="46.85875" lon="-1.9597">
        <ele>3</ele>
        <time>2019-12-31T18:30:31Z</time>
      </trkpt>
      <trkpt lat="46.85867" lon="-1.95981">
        <ele>3</ele>
        <time>2019-12-31T18:30:33Z</time>
      </trkpt>
      <trkpt lat="46.85857" lon="-1.95996">
        <ele>2</ele>
        <time>2019-12-31T18:30:36Z</time>
      </trkpt>
      <trkpt lat="46.85847" lon="-1.9601">
        <ele>2</ele>
        <time>2019-12-31T18:30:38Z</time>
      </trkpt>
      <trkpt lat="46.85844" lon="-1.96015">
        <ele>2</ele>
        <time>2019-12-31T18:30:39Z</time>
      </trkpt>
      <trkpt lat="46.8584" lon="-1.9602">
        <ele>2</ele>
        <time>2019-12-31T18:30:40Z</time>
      </trkpt>
      <trkpt lat="46.85833" lon="-1.96032">
        <ele>2</ele>
        <time>2019-12-31T18:30:42Z</time>
      </trkpt>
      <trkpt lat="46.85825" lon="-1.96046">
        <ele>2</ele>
        <time>2019-12-31T18:30:44Z</time>
      </trkpt>
      <trkpt lat="46.85816" lon="-1.96064">
        <ele>2</ele>
        <time>2019-12-31T18:30:47Z</time>
      </trkpt>
      <trkpt lat="46.85812" lon="-1.96072">
        <ele>2</ele>
        <time>2019-12-31T18:30:48Z</time>
      </trkpt>
      <trkpt lat="46.85801" lon="-1.96094">
        <ele>2</ele>
        <time>2019-12-31T18:30:51Z</time>
      </trkpt>
      <trkpt lat="46.85775" lon="-1.96148">
        <ele>2</ele>
        <time>2019-12-31T18:30:59Z</time>
      </trkpt>
      <trkpt lat="46.85766" lon="-1.96164">
        <ele>2</ele>
        <time>2019-12-31T18:31:02Z</time>
      </trkpt>
      <trkpt lat="46.85753" lon="-1.9619">
        <ele>1</ele>
        <time>2019-12-31T18:31:06Z</time>
      </trkpt>
      <trkpt lat="46.85748" lon="-1.96197">
        <ele>1</ele>
        <time>2019-12-31T18:31:07Z</time>
      </trkpt>
      <trkpt lat="46.85748" lon="-1.96197">
        <ele>1</ele>
        <time>2019-12-31T18:31:07Z</time>
      </trkpt>
      <trkpt lat="46.85722" lon="-1.96182">
        <ele>1</ele>
        <time>2019-12-31T18:31:12Z</time>
      </trkpt>
      <trkpt lat="46.85645" lon="-1.96132">
        <ele>1</ele>
        <time>2019-12-31T18:31:27Z</time>
      </trkpt>
      <trkpt lat="46.85543" lon="-1.96069">
        <ele>1</ele>
        <time>2019-12-31T18:31:46Z</time>
      </trkpt>
      <trkpt lat="46.8545" lon="-1.96009">
        <ele>1</ele>
        <time>2019-12-31T18:32:05Z</time>
      </trkpt>
      <trkpt lat="46.85346" lon="-1.95943">
        <ele>1</ele>
        <time>2019-12-31T18:32:25Z</time>
      </trkpt>
      <trkpt lat="46.85204" lon="-1.95852">
        <ele>1</ele>
        <time>2019-12-31T18:32:52Z</time>
      </trkpt>
      <trkpt lat="46.85185" lon="-1.9584">
        <ele>1</ele>
        <time>2019-12-31T18:32:56Z</time>
      </trkpt>
      <trkpt lat="46.85067" lon="-1.95766">
        <ele>1</ele>
        <time>2019-12-31T18:33:19Z</time>
      </trkpt>
      <trkpt lat="46.84912" lon="-1.95668">
        <ele>2</ele>
        <time>2019-12-31T18:33:49Z</time>
      </trkpt>
      <trkpt lat="46.8477" lon="-1.95577">
        <ele>2</ele>
        <time>2019-12-31T18:34:16Z</time>
      </trkpt>
      <trkpt lat="46.84675" lon="-1.95517">
        <ele>1</ele>
        <time>2019-12-31T18:34:35Z</time>
      </trkpt>
      <trkpt lat="46.84623" lon="-1.95482">
        <ele>1.8</ele>
        <time>2019-12-31T18:34:45Z</time>
      </trkpt>
      <trkpt lat="46.84618" lon="-1.95479">
        <ele>1.8</ele>
        <time>2019-12-31T18:34:46Z</time>
      </trkpt>
      <trkpt lat="46.84332" lon="-1.95299">
        <ele>2</ele>
        <time>2019-12-31T18:35:41Z</time>
      </trkpt>
      <trkpt lat="46.84195" lon="-1.95212">
        <ele>2</ele>
        <time>2019-12-31T18:36:08Z</time>
      </trkpt>
      <trkpt lat="46.84074" lon="-1.95135">
        <ele>1</ele>
        <time>2019-12-31T18:36:31Z</time>
      </trkpt>
      <trkpt lat="46.84038" lon="-1.95112">
        <ele>1</ele>
        <time>2019-12-31T18:36:38Z</time>
      </trkpt>
      <trkpt lat="46.83933" lon="-1.95048">
        <ele>1</ele>
        <time>2019-12-31T18:36:59Z</time>
      </trkpt>
      <trkpt lat="46.83925" lon="-1.95042">
        <ele>1</ele>
        <time>2019-12-31T18:37:00Z</time>
      </trkpt>
      <trkpt lat="46.8391" lon="-1.95031">
        <ele>1</ele>
        <time>2019-12-31T18:37:03Z</time>
      </trkpt>
      <trkpt lat="46.83847" lon="-1.94993">
        <ele>1</ele>
        <time>2019-12-31T18:37:15Z</time>
      </trkpt>
      <trkpt lat="46.83765" lon="-1.94942">
        <ele>1</ele>
        <time>2019-12-31T18:37:31Z</time>
      </trkpt>
      <trkpt lat="46.83735" lon="-1.94923">
        <ele>1</ele>
        <time>2019-12-31T18:37:37Z</time>
      </trkpt>
      <trkpt lat="46.83685" lon="-1.94894">
        <ele>1</ele>
        <time>2019-12-31T18:37:47Z</time>
      </trkpt>
      <trkpt lat="46.83618" lon="-1.94851">
        <ele>1</ele>
        <time>2019-12-31T18:38:00Z</time>
      </trkpt>
      <trkpt lat="46.8355" lon="-1.94809">
        <ele>1</ele>
        <time>2019-12-31T18:38:13Z</time>
      </trkpt>
      <trkpt lat="46.83547" lon="-1.94807">
        <ele>1</ele>
        <time>2019-12-31T18:38:13Z</time>
      </trkpt>
      <trkpt lat="46.83516" lon="-1.94788">
        <ele>1</ele>
        <time>2019-12-31T18:38:19Z</time>
      </trkpt>
      <trkpt lat="46.83462" lon="-1.94754">
        <ele>2</ele>
        <time>2019-12-31T18:38:30Z</time>
      </trkpt>
      <trkpt lat="46.83414" lon="-1.94726">
        <ele>2</ele>
        <time>2019-12-31T18:38:39Z</time>
      </trkpt>
      <trkpt lat="46.83355" lon="-1.9469">
        <ele>2</ele>
        <time>2019-12-31T18:38:50Z</time>
      </trkpt>
      <trkpt lat="46.83302" lon="-1.94658">
        <ele>1</ele>
        <time>2019-12-31T18:39:01Z</time>
      </trkpt>
      <trkpt lat="46.83242" lon="-1.9462">
        <ele>1</ele>
        <time>2019-12-31T18:39:12Z</time>
      </trkpt>
      <trkpt lat="46.83168" lon="-1.94574">
        <ele>1.7</ele>
        <time>2019-12-31T18:39:27Z</time>
      </trkpt>
      <trkpt lat="46.83057" lon="-1.94509">
        <ele>2</ele>
        <time>2019-12-31T18:39:48Z</time>
      </trkpt>
      <trkpt lat="46.83045" lon="-1.94504">
        <ele>2</ele>
        <time>2019-12-31T18:39:50Z</time>
      </trkpt>
      <trkpt lat="46.82981" lon="-1.94473">
        <ele>1</ele>
        <time>2019-12-31T18:40:02Z</time>
      </trkpt>
      <trkpt lat="46.82835" lon="-1.94402">
        <ele>1</ele>
        <time>2019-12-31T18:40:29Z</time>
      </trkpt>
      <trkpt lat="46.8283" lon="-1.94402">
        <ele>1</ele>
        <time>2019-12-31T18:40:30Z</time>
      </trkpt>
      <trkpt lat="46.82828" lon="-1.94402">
        <ele>1</ele>
        <time>2019-12-31T18:40:31Z</time>
      </trkpt>
      <trkpt lat="46.82823" lon="-1.94402">
        <ele>1</ele>
        <time>2019-12-31T18:40:32Z</time>
      </trkpt>
      <trkpt lat="46.82823" lon="-1.94403">
        <ele>1</ele>
        <time>2019-12-31T18:40:32Z</time>
      </trkpt>
      <trkpt lat="46.82822" lon="-1.94403">
        <ele>1</ele>
        <time>2019-12-31T18:40:32Z</time>
      </trkpt>
      <trkpt lat="46.82822" lon="-1.94404">
        <ele>1</ele>
        <time>2019-12-31T18:40:32Z</time>
      </trkpt>
      <trkpt lat="46.82821" lon="-1.94404">
        <ele>1</ele>
        <time>2019-12-31T18:40:32Z</time>
      </trkpt>
      <trkpt lat="46.82821" lon="-1.94405">
        <ele>1</ele>
        <time>2019-12-31T18:40:32Z</time>
      </trkpt>
      <trkpt lat="46.8282" lon="-1.94406">
        <ele>1</ele>
        <time>2019-12-31T18:40:33Z</time>
      </trkpt>
      <trkpt lat="46.82819" lon="-1.94406">
        <ele>1</ele>
        <time>2019-12-31T18:40:33Z</time>
      </trkpt>
      <trkpt lat="46.82818" lon="-1.94407">
        <ele>1</ele>
        <time>2019-12-31T18:40:33Z</time>
      </trkpt>
      <trkpt lat="46.82817" lon="-1.94407">
        <ele>1</ele>
        <time>2019-12-31T18:40:33Z</time>
      </trkpt>
      <trkpt lat="46.82816" lon="-1.94407">
        <ele>1</ele>
        <time>2019-12-31T18:40:33Z</time>
      </trkpt>
      <trkpt lat="46.82815" lon="-1.94407">
        <ele>1</ele>
        <time>2019-12-31T18:40:33Z</time>
      </trkpt>
      <trkpt lat="46.82814" lon="-1.94407">
        <ele>1</ele>
        <time>2019-12-31T18:40:34Z</time>
      </trkpt>
      <trkpt lat="46.82813" lon="-1.94407">
        <ele>1</ele>
        <time>2019-12-31T18:40:34Z</time>
      </trkpt>
      <trkpt lat="46.82812" lon="-1.94407">
        <ele>1</ele>
        <time>2019-12-31T18:40:34Z</time>
      </trkpt>
      <trkpt lat="46.82812" lon="-1.94406">
        <ele>1</ele>
        <time>2019-12-31T18:40:34Z</time>
      </trkpt>
      <trkpt lat="46.82811" lon="-1.94406">
        <ele>1</ele>
        <time>2019-12-31T18:40:34Z</time>
      </trkpt>
      <trkpt lat="46.8281" lon="-1.94406">
        <ele>1</ele>
        <time>2019-12-31T18:40:34Z</time>
      </trkpt>
      <trkpt lat="46.8281" lon="-1.94405">
        <ele>1</ele>
        <time>2019-12-31T18:40:35Z</time>
      </trkpt>
      <trkpt lat="46.82809" lon="-1.94405">
        <ele>1</ele>
        <time>2019-12-31T18:40:35Z</time>
      </trkpt>
      <trkpt lat="46.82809" lon="-1.94404">
        <ele>1</ele>
        <time>2019-12-31T18:40:35Z</time>
      </trkpt>
      <trkpt lat="46.82808" lon="-1.94403">
        <ele>1</ele>
        <time>2019-12-31T18:40:35Z</time>
      </trkpt>
      <trkpt lat="46.82808" lon="-1.94402">
        <ele>1</ele>
        <time>2019-12-31T18:40:35Z</time>
      </trkpt>
      <trkpt lat="46.82807" lon="-1.94402">
        <ele>1</ele>
        <time>2019-12-31T18:40:35Z</time>
      </trkpt>
      <trkpt lat="46.82807" lon="-1.94401">
        <ele>1</ele>
        <time>2019-12-31T18:40:36Z</time>
      </trkpt>
      <trkpt lat="46.82807" lon="-1.944">
        <ele>1</ele>
        <time>2019-12-31T18:40:36Z</time>
      </trkpt>
      <trkpt lat="46.82806" lon="-1.944">
        <ele>1</ele>
        <time>2019-12-31T18:40:36Z</time>
      </trkpt>
      <trkpt lat="46.82806" lon="-1.94399">
        <ele>1</ele>
        <time>2019-12-31T18:40:36Z</time>
      </trkpt>
      <trkpt lat="46.82806" lon="-1.94398">
        <ele>1</ele>
        <time>2019-12-31T18:40:36Z</time>
      </trkpt>
      <trkpt lat="46.82806" lon="-1.94397">
        <ele>1</ele>
        <time>2019-12-31T18:40:36Z</time>
      </trkpt>
      <trkpt lat="46.82792" lon="-1.94388">
        <ele>1</ele>
        <time>2019-12-31T18:40:39Z</time>
      </trkpt>
      <trkpt lat="46.8278" lon="-1.94381">
        <ele>1</ele>
        <time>2019-12-31T18:40:41Z</time>
      </trkpt>
      <trkpt lat="46.82772" lon="-1.94378">
        <ele>1</ele>
        <time>2019-12-31T18:40:43Z</time>
      </trkpt>
      <trkpt lat="46.82743" lon="-1.94367">
        <ele>1.4</ele>
        <time>2019-12-31T18:40:48Z</time>
      </trkpt>
      <trkpt lat="46.82697" lon="-1.9435">
        <ele>1</ele>
        <time>2019-12-31T18:40:56Z</time>
      </trkpt>
      <trkpt lat="46.8265" lon="-1.94333">
        <ele>1</ele>
        <time>2019-12-31T18:41:05Z</time>
      </trkpt>
      <trkpt lat="46.8256" lon="-1.94299">
        <ele>2</ele>
        <time>2019-12-31T18:41:22Z</time>
      </trkpt>
      <trkpt lat="46.8252" lon="-1.94284">
        <ele>1</ele>
        <time>2019-12-31T18:41:29Z</time>
      </trkpt>
      <trkpt lat="46.82504" lon="-1.94279">
        <ele>2</ele>
        <time>2019-12-31T18:41:32Z</time>
      </trkpt>
      <trkpt lat="46.82457" lon="-1.94261">
        <ele>1</ele>
        <time>2019-12-31T18:41:40Z</time>
      </trkpt>
      <trkpt lat="46.82415" lon="-1.94244">
        <ele>1</ele>
        <time>2019-12-31T18:41:48Z</time>
      </trkpt>
      <trkpt lat="46.82402" lon="-1.94238">
        <ele>1</ele>
        <time>2019-12-31T18:41:51Z</time>
      </trkpt>
      <trkpt lat="46.82393" lon="-1.94234">
        <ele>1</ele>
        <time>2019-12-31T18:41:52Z</time>
      </trkpt>
      <trkpt lat="46.82369" lon="-1.94222">
        <ele>1</ele>
        <time>2019-12-31T18:41:57Z</time>
      </trkpt>
      <trkpt lat="46.82363" lon="-1.9422">
        <ele>1</ele>
        <time>2019-12-31T18:41:58Z</time>
      </trkpt>
      <trkpt lat="46.82362" lon="-1.94219">
        <ele>1</ele>
        <time>2019-12-31T18:41:58Z</time>
      </trkpt>
      <trkpt lat="46.8232" lon="-1.94199">
        <ele>1</ele>
        <time>2019-12-31T18:42:06Z</time>
      </trkpt>
      <trkpt lat="46.82261" lon="-1.94172">
        <ele>1</ele>
        <time>2019-12-31T18:42:17Z</time>
      </trkpt>
      <trkpt lat="46.82214" lon="-1.94147">
        <ele>1</ele>
        <time>2019-12-31T18:42:26Z</time>
      </trkpt>
      <trkpt lat="46.82196" lon="-1.94138">
        <ele>1</ele>
        <time>2019-12-31T18:42:29Z</time>
      </trkpt>
      <trkpt lat="46.82174" lon="-1.94124">
        <ele>1</ele>
        <time>2019-12-31T18:42:34Z</time>
      </trkpt>
      <trkpt lat="46.82158" lon="-1.94113">
        <ele>1</ele>
        <time>2019-12-31T18:42:37Z</time>
      </trkpt>
      <trkpt lat="46.82148" lon="-1.94105">
        <ele>1</ele>
        <time>2019-12-31T18:42:39Z</time>
      </trkpt>
      <trkpt lat="46.8211" lon="-1.94072">
        <ele>1</ele>
        <time>2019-12-31T18:42:47Z</time>
      </trkpt>
      <trkpt lat="46.82077" lon="-1.94037">
        <ele>1</ele>
        <time>2019-12-31T18:42:54Z</time>
      </trkpt>
      <trkpt lat="46.82066" lon="-1.94025">
        <ele>1</ele>
        <time>2019-12-31T18:42:56Z</time>
      </trkpt>
      <trkpt lat="46.8204" lon="-1.94003">
        <ele>1</ele>
        <time>2019-12-31T18:43:02Z</time>
      </trkpt>
      <trkpt lat="46.82038" lon="-1.94004">
        <ele>1</ele>
        <time>2019-12-31T18:43:02Z</time>
      </trkpt>
      <trkpt lat="46.82037" lon="-1.94004">
        <ele>1</ele>
        <time>2019-12-31T18:43:02Z</time>
      </trkpt>
      <trkpt lat="46.82036" lon="-1.94004">
        <ele>1</ele>
        <time>2019-12-31T18:43:02Z</time>
      </trkpt>
      <trkpt lat="46.82035" lon="-1.94005">
        <ele>1</ele>
        <time>2019-12-31T18:43:03Z</time>
      </trkpt>
      <trkpt lat="46.82034" lon="-1.94005">
        <ele>1</ele>
        <time>2019-12-31T18:43:03Z</time>
      </trkpt>
      <trkpt lat="46.82033" lon="-1.94005">
        <ele>1</ele>
        <time>2019-12-31T18:43:03Z</time>
      </trkpt>
      <trkpt lat="46.82032" lon="-1.94005">
        <ele>1</ele>
        <time>2019-12-31T18:43:03Z</time>
      </trkpt>
      <trkpt lat="46.82031" lon="-1.94005">
        <ele>1</ele>
        <time>2019-12-31T18:43:03Z</time>
      </trkpt>
      <trkpt lat="46.8203" lon="-1.94005">
        <ele>1</ele>
        <time>2019-12-31T18:43:04Z</time>
      </trkpt>
      <trkpt lat="46.82029" lon="-1.94004">
        <ele>1</ele>
        <time>2019-12-31T18:43:04Z</time>
      </trkpt>
      <trkpt lat="46.82028" lon="-1.94004">
        <ele>1</ele>
        <time>2019-12-31T18:43:04Z</time>
      </trkpt>
      <trkpt lat="46.82027" lon="-1.94004">
        <ele>1</ele>
        <time>2019-12-31T18:43:04Z</time>
      </trkpt>
      <trkpt lat="46.82026" lon="-1.94003">
        <ele>1</ele>
        <time>2019-12-31T18:43:04Z</time>
      </trkpt>
      <trkpt lat="46.82025" lon="-1.94002">
        <ele>1</ele>
        <time>2019-12-31T18:43:05Z</time>
      </trkpt>
      <trkpt lat="46.82024" lon="-1.94001">
        <ele>1</ele>
        <time>2019-12-31T18:43:05Z</time>
      </trkpt>
      <trkpt lat="46.82023" lon="-1.94001">
        <ele>1</ele>
        <time>2019-12-31T18:43:05Z</time>
      </trkpt>
      <trkpt lat="46.82023" lon="-1.94">
        <ele>4.2</ele>
        <time>2019-12-31T18:43:05Z</time>
      </trkpt>
      <trkpt lat="46.82022" lon="-1.93998">
        <ele>4.2</ele>
        <time>2019-12-31T18:43:05Z</time>
      </trkpt>
      <trkpt lat="46.82021" lon="-1.93997">
        <ele>4.2</ele>
        <time>2019-12-31T18:43:06Z</time>
      </trkpt>
      <trkpt lat="46.8202" lon="-1.93996">
        <ele>4.2</ele>
        <time>2019-12-31T18:43:06Z</time>
      </trkpt>
      <trkpt lat="46.82019" lon="-1.93995">
        <ele>4.3</ele>
        <time>2019-12-31T18:43:06Z</time>
      </trkpt>
      <trkpt lat="46.82019" lon="-1.93993">
        <ele>4.2</ele>
        <time>2019-12-31T18:43:06Z</time>
      </trkpt>
      <trkpt lat="46.82018" lon="-1.93991">
        <ele>4.2</ele>
        <time>2019-12-31T18:43:07Z</time>
      </trkpt>
      <trkpt lat="46.82018" lon="-1.9399">
        <ele>4.2</ele>
        <time>2019-12-31T18:43:07Z</time>
      </trkpt>
      <trkpt lat="46.82018" lon="-1.93989">
        <ele>4.2</ele>
        <time>2019-12-31T18:43:07Z</time>
      </trkpt>
      <trkpt lat="46.82018" lon="-1.93987">
        <ele>4.2</ele>
        <time>2019-12-31T18:43:07Z</time>
      </trkpt>
      <trkpt lat="46.82017" lon="-1.93986">
        <ele>4.2</ele>
        <time>2019-12-31T18:43:07Z</time>
      </trkpt>
      <trkpt lat="46.82017" lon="-1.93984">
        <ele>4.2</ele>
        <time>2019-12-31T18:43:07Z</time>
      </trkpt>
      <trkpt lat="46.82017" lon="-1.93982">
        <ele>4.1</ele>
        <time>2019-12-31T18:43:08Z</time>
      </trkpt>
      <trkpt lat="46.82017" lon="-1.93981">
        <ele>4.1</ele>
        <time>2019-12-31T18:43:08Z</time>
      </trkpt>
      <trkpt lat="46.82017" lon="-1.93979">
        <ele>4.1</ele>
        <time>2019-12-31T18:43:08Z</time>
      </trkpt>
      <trkpt lat="46.82003" lon="-1.93951">
        <ele>1</ele>
        <time>2019-12-31T18:43:12Z</time>
      </trkpt>
      <trkpt lat="46.81996" lon="-1.9394">
        <ele>1</ele>
        <time>2019-12-31T18:43:14Z</time>
      </trkpt>
      <trkpt lat="46.81995" lon="-1.93934">
        <ele>1</ele>
        <time>2019-12-31T18:43:15Z</time>
      </trkpt>
      <trkpt lat="46.81991" lon="-1.9393">
        <ele>1</ele>
        <time>2019-12-31T18:43:16Z</time>
      </trkpt>
      <trkpt lat="46.81869" lon="-1.93765">
        <ele>1.6</ele>
        <time>2019-12-31T18:43:45Z</time>
      </trkpt>
      <trkpt lat="46.81865" lon="-1.93758">
        <ele>1.8</ele>
        <time>2019-12-31T18:43:46Z</time>
      </trkpt>
      <trkpt lat="46.8186" lon="-1.9375">
        <ele>2</ele>
        <time>2019-12-31T18:43:48Z</time>
      </trkpt>
      <trkpt lat="46.81856" lon="-1.93741">
        <ele>2</ele>
        <time>2019-12-31T18:43:49Z</time>
      </trkpt>
      <trkpt lat="46.81851" lon="-1.93729">
        <ele>2</ele>
        <time>2019-12-31T18:43:51Z</time>
      </trkpt>
      <trkpt lat="46.81843" lon="-1.93711">
        <ele>2</ele>
        <time>2019-12-31T18:43:53Z</time>
      </trkpt>
      <trkpt lat="46.81811" lon="-1.93596">
        <ele>1</ele>
        <time>2019-12-31T18:44:08Z</time>
      </trkpt>
      <trkpt lat="46.81806" lon="-1.93584">
        <ele>1</ele>
        <time>2019-12-31T18:44:10Z</time>
      </trkpt>
      <trkpt lat="46.81801" lon="-1.93572">
        <ele>1</ele>
        <time>2019-12-31T18:44:12Z</time>
      </trkpt>
      <trkpt lat="46.81795" lon="-1.9356">
        <ele>1</ele>
        <time>2019-12-31T18:44:14Z</time>
      </trkpt>
      <trkpt lat="46.81787" lon="-1.93545">
        <ele>1</ele>
        <time>2019-12-31T18:44:16Z</time>
      </trkpt>
      <trkpt lat="46.81778" lon="-1.93531">
        <ele>1</ele>
        <time>2019-12-31T18:44:18Z</time>
      </trkpt>
      <trkpt lat="46.81715" lon="-1.93433">
        <ele>1</ele>
        <time>2019-12-31T18:44:35Z</time>
      </trkpt>
      <trkpt lat="46.81694" lon="-1.93401">
        <ele>1</ele>
        <time>2019-12-31T18:44:40Z</time>
      </trkpt>
      <trkpt lat="46.81674" lon="-1.93376">
        <ele>1</ele>
        <time>2019-12-31T18:44:45Z</time>
      </trkpt>
      <trkpt lat="46.81664" lon="-1.93363">
        <ele>1</ele>
        <time>2019-12-31T18:44:47Z</time>
      </trkpt>
      <trkpt lat="46.81652" lon="-1.93351">
        <ele>1</ele>
        <time>2019-12-31T18:44:50Z</time>
      </trkpt>
      <trkpt lat="46.81629" lon="-1.93329">
        <ele>2</ele>
        <time>2019-12-31T18:44:55Z</time>
      </trkpt>
      <trkpt lat="46.81583" lon="-1.93291">
        <ele>1</ele>
        <time>2019-12-31T18:45:04Z</time>
      </trkpt>
      <trkpt lat="46.81559" lon="-1.9327">
        <ele>1</ele>
        <time>2019-12-31T18:45:09Z</time>
      </trkpt>
      <trkpt lat="46.81551" lon="-1.93261">
        <ele>1</ele>
        <time>2019-12-31T18:45:11Z</time>
      </trkpt>
      <trkpt lat="46.81543" lon="-1.93252">
        <ele>1</ele>
        <time>2019-12-31T18:45:13Z</time>
      </trkpt>
      <trkpt lat="46.81534" lon="-1.93239">
        <ele>1</ele>
        <time>2019-12-31T18:45:15Z</time>
      </trkpt>
      <trkpt lat="46.81527" lon="-1.93227">
        <ele>1</ele>
        <time>2019-12-31T18:45:17Z</time>
      </trkpt>
      <trkpt lat="46.81519" lon="-1.93214">
        <ele>1</ele>
        <time>2019-12-31T18:45:19Z</time>
      </trkpt>
      <trkpt lat="46.81512" lon="-1.93195">
        <ele>1</ele>
        <time>2019-12-31T18:45:22Z</time>
      </trkpt>
      <trkpt lat="46.81506" lon="-1.93178">
        <ele>1</ele>
        <time>2019-12-31T18:45:24Z</time>
      </trkpt>
      <trkpt lat="46.81498" lon="-1.93149">
        <ele>1</ele>
        <time>2019-12-31T18:45:28Z</time>
      </trkpt>
      <trkpt lat="46.81464" lon="-1.93005">
        <ele>2</ele>
        <time>2019-12-31T18:45:46Z</time>
      </trkpt>
      <trkpt lat="46.81453" lon="-1.92962">
        <ele>1</ele>
        <time>2019-12-31T18:45:52Z</time>
      </trkpt>
      <trkpt lat="46.81449" lon="-1.92948">
        <ele>1</ele>
        <time>2019-12-31T18:45:54Z</time>
      </trkpt>
      <trkpt lat="46.81444" lon="-1.92937">
        <ele>2</ele>
        <time>2019-12-31T18:45:55Z</time>
      </trkpt>
      <trkpt lat="46.8144" lon="-1.92927">
        <ele>2</ele>
        <time>2019-12-31T18:45:57Z</time>
      </trkpt>
      <trkpt lat="46.81435" lon="-1.92918">
        <ele>2</ele>
        <time>2019-12-31T18:45:58Z</time>
      </trkpt>
      <trkpt lat="46.8143" lon="-1.9291">
        <ele>2</ele>
        <time>2019-12-31T18:45:59Z</time>
      </trkpt>
      <trkpt lat="46.81423" lon="-1.929">
        <ele>2</ele>
        <time>2019-12-31T18:46:01Z</time>
      </trkpt>
      <trkpt lat="46.8141" lon="-1.92884">
        <ele>1</ele>
        <time>2019-12-31T18:46:04Z</time>
      </trkpt>
      <trkpt lat="46.81401" lon="-1.92874">
        <ele>1</ele>
        <time>2019-12-31T18:46:06Z</time>
      </trkpt>
      <trkpt lat="46.81394" lon="-1.92867">
        <ele>1</ele>
        <time>2019-12-31T18:46:08Z</time>
      </trkpt>
      <trkpt lat="46.81351" lon="-1.92824">
        <ele>2</ele>
        <time>2019-12-31T18:46:17Z</time>
      </trkpt>
      <trkpt lat="46.81317" lon="-1.92792">
        <ele>2</ele>
        <time>2019-12-31T18:46:24Z</time>
      </trkpt>
      <trkpt lat="46.81237" lon="-1.92713">
        <ele>2</ele>
        <time>2019-12-31T18:46:41Z</time>
      </trkpt>
      <trkpt lat="46.81211" lon="-1.92688">
        <ele>1</ele>
        <time>2019-12-31T18:46:47Z</time>
      </trkpt>
      <trkpt lat="46.81151" lon="-1.92628">
        <ele>1</ele>
        <time>2019-12-31T18:47:00Z</time>
      </trkpt>
      <trkpt lat="46.81115" lon="-1.92593">
        <ele>1</ele>
        <time>2019-12-31T18:47:08Z</time>
      </trkpt>
      <trkpt lat="46.81072" lon="-1.92552">
        <ele>1</ele>
        <time>2019-12-31T18:47:17Z</time>
      </trkpt>
      <trkpt lat="46.80982" lon="-1.92464">
        <ele>1</ele>
        <time>2019-12-31T18:47:36Z</time>
      </trkpt>
      <trkpt lat="46.80914" lon="-1.92396">
        <ele>3</ele>
        <time>2019-12-31T18:47:51Z</time>
      </trkpt>
      <trkpt lat="46.80849" lon="-1.92331">
        <ele>5</ele>
        <time>2019-12-31T18:48:05Z</time>
      </trkpt>
      <trkpt lat="46.80837" lon="-1.9232">
        <ele>5</ele>
        <time>2019-12-31T18:48:07Z</time>
      </trkpt>
      <trkpt lat="46.8083" lon="-1.92316">
        <ele>5</ele>
        <time>2019-12-31T18:48:08Z</time>
      </trkpt>
      <trkpt lat="46.80824" lon="-1.92313">
        <ele>5</ele>
        <time>2019-12-31T18:48:10Z</time>
      </trkpt>
      <trkpt lat="46.80824" lon="-1.92313">
        <ele>5</ele>
        <time>2019-12-31T18:48:10Z</time>
      </trkpt>
      <trkpt lat="46.80818" lon="-1.92297">
        <ele>5</ele>
        <time>2019-12-31T18:48:12Z</time>
      </trkpt>
      <trkpt lat="46.8081" lon="-1.92272">
        <ele>5</ele>
        <time>2019-12-31T18:48:15Z</time>
      </trkpt>
      <trkpt lat="46.80802" lon="-1.92248">
        <ele>5</ele>
        <time>2019-12-31T18:48:18Z</time>
      </trkpt>
      <trkpt lat="46.80796" lon="-1.92232">
        <ele>5</ele>
        <time>2019-12-31T18:48:21Z</time>
      </trkpt>
      <trkpt lat="46.80789" lon="-1.92216">
        <ele>4</ele>
        <time>2019-12-31T18:48:23Z</time>
      </trkpt>
      <trkpt lat="46.80781" lon="-1.92196">
        <ele>4</ele>
        <time>2019-12-31T18:48:26Z</time>
      </trkpt>
      <trkpt lat="46.80775" lon="-1.9218">
        <ele>4</ele>
        <time>2019-12-31T18:48:28Z</time>
      </trkpt>
      <trkpt lat="46.80773" lon="-1.92177">
        <ele>4</ele>
        <time>2019-12-31T18:48:29Z</time>
      </trkpt>
      <trkpt lat="46.80767" lon="-1.92165">
        <ele>4</ele>
        <time>2019-12-31T18:48:30Z</time>
      </trkpt>
      <trkpt lat="46.80734" lon="-1.92103">
        <ele>4</ele>
        <time>2019-12-31T18:48:40Z</time>
      </trkpt>
      <trkpt lat="46.807" lon="-1.92035">
        <ele>4</ele>
        <time>2019-12-31T18:48:50Z</time>
      </trkpt>
      <trkpt lat="46.80676" lon="-1.91991">
        <ele>4</ele>
        <time>2019-12-31T18:48:57Z</time>
      </trkpt>
      <trkpt lat="46.80652" lon="-1.91948">
        <ele>5</ele>
        <time>2019-12-31T18:49:04Z</time>
      </trkpt>
      <trkpt lat="46.8064" lon="-1.91921">
        <ele>5</ele>
        <time>2019-12-31T18:49:08Z</time>
      </trkpt>
      <trkpt lat="46.80634" lon="-1.91902">
        <ele>5</ele>
        <time>2019-12-31T18:49:10Z</time>
      </trkpt>
      <trkpt lat="46.80627" lon="-1.91883">
        <ele>5</ele>
        <time>2019-12-31T18:49:13Z</time>
      </trkpt>
      <trkpt lat="46.80621" lon="-1.91862">
        <ele>5</ele>
        <time>2019-12-31T18:49:16Z</time>
      </trkpt>
      <trkpt lat="46.8062" lon="-1.91857">
        <ele>5</ele>
        <time>2019-12-31T18:49:16Z</time>
      </trkpt>
      <trkpt lat="46.80617" lon="-1.91842">
        <ele>5</ele>
        <time>2019-12-31T18:49:18Z</time>
      </trkpt>
      <trkpt lat="46.80613" lon="-1.91824">
        <ele>5</ele>
        <time>2019-12-31T18:49:20Z</time>
      </trkpt>
      <trkpt lat="46.8061" lon="-1.91803">
        <ele>5</ele>
        <time>2019-12-31T18:49:23Z</time>
      </trkpt>
      <trkpt lat="46.80607" lon="-1.91785">
        <ele>5</ele>
        <time>2019-12-31T18:49:25Z</time>
      </trkpt>
      <trkpt lat="46.80604" lon="-1.91749">
        <ele>5</ele>
        <time>2019-12-31T18:49:30Z</time>
      </trkpt>
      <trkpt lat="46.806" lon="-1.91717">
        <ele>5</ele>
        <time>2019-12-31T18:49:34Z</time>
      </trkpt>
      <trkpt lat="46.80596" lon="-1.91699">
        <ele>5</ele>
        <time>2019-12-31T18:49:36Z</time>
      </trkpt>
      <trkpt lat="46.80591" lon="-1.91683">
        <ele>6</ele>
        <time>2019-12-31T18:49:38Z</time>
      </trkpt>
      <trkpt lat="46.80585" lon="-1.91669">
        <ele>6</ele>
        <time>2019-12-31T18:49:40Z</time>
      </trkpt>
      <trkpt lat="46.80582" lon="-1.91662">
        <ele>6</ele>
        <time>2019-12-31T18:49:41Z</time>
      </trkpt>
      <trkpt lat="46.80575" lon="-1.91647">
        <ele>6</ele>
        <time>2019-12-31T18:49:43Z</time>
      </trkpt>
      <trkpt lat="46.80569" lon="-1.91638">
        <ele>6</ele>
        <time>2019-12-31T18:49:45Z</time>
      </trkpt>
      <trkpt lat="46.80555" lon="-1.91623">
        <ele>7</ele>
        <time>2019-12-31T18:49:48Z</time>
      </trkpt>
      <trkpt lat="46.80542" lon="-1.91609">
        <ele>7</ele>
        <time>2019-12-31T18:49:51Z</time>
      </trkpt>
      <trkpt lat="46.8051" lon="-1.91583">
        <ele>8</ele>
        <time>2019-12-31T18:49:57Z</time>
      </trkpt>
      <trkpt lat="46.80488" lon="-1.91562">
        <ele>8</ele>
        <time>2019-12-31T18:50:02Z</time>
      </trkpt>
      <trkpt lat="46.80475" lon="-1.91547">
        <ele>8</ele>
        <time>2019-12-31T18:50:05Z</time>
      </trkpt>
      <trkpt lat="46.80458" lon="-1.91527">
        <ele>8</ele>
        <time>2019-12-31T18:50:09Z</time>
      </trkpt>
      <trkpt lat="46.80412" lon="-1.91464">
        <ele>8</ele>
        <time>2019-12-31T18:50:20Z</time>
      </trkpt>
      <trkpt lat="46.80398" lon="-1.91445">
        <ele>8</ele>
        <time>2019-12-31T18:50:24Z</time>
      </trkpt>
      <trkpt lat="46.80384" lon="-1.91425">
        <ele>8</ele>
        <time>2019-12-31T18:50:27Z</time>
      </trkpt>
      <trkpt lat="46.80366" lon="-1.91399">
        <ele>8</ele>
        <time>2019-12-31T18:50:32Z</time>
      </trkpt>
      <trkpt lat="46.80354" lon="-1.91379">
        <ele>8</ele>
        <time>2019-12-31T18:50:35Z</time>
      </trkpt>
      <trkpt lat="46.80351" lon="-1.91372">
        <ele>8</ele>
        <time>2019-12-31T18:50:36Z</time>
      </trkpt>
      <trkpt lat="46.80346" lon="-1.91361">
        <ele>8</ele>
        <time>2019-12-31T18:50:37Z</time>
      </trkpt>
      <trkpt lat="46.80339" lon="-1.91346">
        <ele>8</ele>
        <time>2019-12-31T18:50:40Z</time>
      </trkpt>
      <trkpt lat="46.80333" lon="-1.91328">
        <ele>8</ele>
        <time>2019-12-31T18:50:42Z</time>
      </trkpt>
      <trkpt lat="46.80327" lon="-1.9131">
        <ele>8</ele>
        <time>2019-12-31T18:50:44Z</time>
      </trkpt>
      <trkpt lat="46.80323" lon="-1.91291">
        <ele>8</ele>
        <time>2019-12-31T18:50:47Z</time>
      </trkpt>
      <trkpt lat="46.80321" lon="-1.91277">
        <ele>8</ele>
        <time>2019-12-31T18:50:49Z</time>
      </trkpt>
      <trkpt lat="46.80318" lon="-1.91265">
        <ele>8</ele>
        <time>2019-12-31T18:50:50Z</time>
      </trkpt>
      <trkpt lat="46.80318" lon="-1.9126">
        <ele>8</ele>
        <time>2019-12-31T18:50:51Z</time>
      </trkpt>
      <trkpt lat="46.80315" lon="-1.91235">
        <ele>8</ele>
        <time>2019-12-31T18:50:54Z</time>
      </trkpt>
      <trkpt lat="46.80307" lon="-1.9116">
        <ele>8</ele>
        <time>2019-12-31T18:51:03Z</time>
      </trkpt>
      <trkpt lat="46.80298" lon="-1.91077">
        <ele>9</ele>
        <time>2019-12-31T18:51:13Z</time>
      </trkpt>
      <trkpt lat="46.80298" lon="-1.91076">
        <ele>9</ele>
        <time>2019-12-31T18:51:14Z</time>
      </trkpt>
      <trkpt lat="46.80295" lon="-1.91048">
        <ele>10</ele>
        <time>2019-12-31T18:51:17Z</time>
      </trkpt>
      <trkpt lat="46.80292" lon="-1.91027">
        <ele>11</ele>
        <time>2019-12-31T18:51:20Z</time>
      </trkpt>
      <trkpt lat="46.80288" lon="-1.90998">
        <ele>11</ele>
        <time>2019-12-31T18:51:23Z</time>
      </trkpt>
      <trkpt lat="46.80288" lon="-1.90996">
        <ele>12</ele>
        <time>2019-12-31T18:51:23Z</time>
      </trkpt>
      <trkpt lat="46.80285" lon="-1.9098">
        <ele>12</ele>
        <time>2019-12-31T18:51:25Z</time>
      </trkpt>
      <trkpt lat="46.8028" lon="-1.90962">
        <ele>12</ele>
        <time>2019-12-31T18:51:28Z</time>
      </trkpt>
      <trkpt lat="46.80276" lon="-1.90948">
        <ele>12</ele>
        <time>2019-12-31T18:51:30Z</time>
      </trkpt>
      <trkpt lat="46.80273" lon="-1.9094">
        <ele>12</ele>
        <time>2019-12-31T18:51:31Z</time>
      </trkpt>
      <trkpt lat="46.80272" lon="-1.90939">
        <ele>12</ele>
        <time>2019-12-31T18:51:31Z</time>
      </trkpt>
      <trkpt lat="46.80267" lon="-1.90923">
        <ele>12</ele>
        <time>2019-12-31T18:51:33Z</time>
      </trkpt>
      <trkpt lat="46.80249" lon="-1.90878">
        <ele>12</ele>
        <time>2019-12-31T18:51:39Z</time>
      </trkpt>
      <trkpt lat="46.80213" lon="-1.90784">
        <ele>11</ele>
        <time>2019-12-31T18:51:53Z</time>
      </trkpt>
      <trkpt lat="46.80178" lon="-1.90696">
        <ele>12</ele>
        <time>2019-12-31T18:52:05Z</time>
      </trkpt>
      <trkpt lat="46.80157" lon="-1.90641">
        <ele>13</ele>
        <time>2019-12-31T18:52:13Z</time>
      </trkpt>
      <trkpt lat="46.80139" lon="-1.90599">
        <ele>13</ele>
        <time>2019-12-31T18:52:19Z</time>
      </trkpt>
      <trkpt lat="46.80112" lon="-1.90537">
        <ele>13</ele>
        <time>2019-12-31T18:52:28Z</time>
      </trkpt>
      <trkpt lat="46.80102" lon="-1.90519">
        <ele>12</ele>
        <time>2019-12-31T18:52:30Z</time>
      </trkpt>
      <trkpt lat="46.80088" lon="-1.90502">
        <ele>12</ele>
        <time>2019-12-31T18:52:34Z</time>
      </trkpt>
      <trkpt lat="46.80054" lon="-1.9046">
        <ele>13</ele>
        <time>2019-12-31T18:52:42Z</time>
      </trkpt>
      <trkpt lat="46.80043" lon="-1.90446">
        <ele>13</ele>
        <time>2019-12-31T18:52:44Z</time>
      </trkpt>
      <trkpt lat="46.80005" lon="-1.90401">
        <ele>13</ele>
        <time>2019-12-31T18:52:53Z</time>
      </trkpt>
      <trkpt lat="46.79971" lon="-1.9036">
        <ele>12</ele>
        <time>2019-12-31T18:53:01Z</time>
      </trkpt>
      <trkpt lat="46.79965" lon="-1.90355">
        <ele>12</ele>
        <time>2019-12-31T18:53:02Z</time>
      </trkpt>
      <trkpt lat="46.79953" lon="-1.90345">
        <ele>11</ele>
        <time>2019-12-31T18:53:04Z</time>
      </trkpt>
      <trkpt lat="46.79943" lon="-1.90336">
        <ele>11</ele>
        <time>2019-12-31T18:53:07Z</time>
      </trkpt>
      <trkpt lat="46.79921" lon="-1.90317">
        <ele>11</ele>
        <time>2019-12-31T18:53:11Z</time>
      </trkpt>
      <trkpt lat="46.7988" lon="-1.90284">
        <ele>10</ele>
        <time>2019-12-31T18:53:19Z</time>
      </trkpt>
      <trkpt lat="46.79827" lon="-1.90242">
        <ele>10</ele>
        <time>2019-12-31T18:53:30Z</time>
      </trkpt>
      <trkpt lat="46.79765" lon="-1.90195">
        <ele>9</ele>
        <time>2019-12-31T18:53:43Z</time>
      </trkpt>
      <trkpt lat="46.79736" lon="-1.90172">
        <ele>10</ele>
        <time>2019-12-31T18:53:48Z</time>
      </trkpt>
      <trkpt lat="46.79672" lon="-1.90123">
        <ele>10</ele>
        <time>2019-12-31T18:54:01Z</time>
      </trkpt>
      <trkpt lat="46.79626" lon="-1.90085">
        <ele>10</ele>
        <time>2019-12-31T18:54:11Z</time>
      </trkpt>
      <trkpt lat="46.7962" lon="-1.90078">
        <ele>11</ele>
        <time>2019-12-31T18:54:12Z</time>
      </trkpt>
      <trkpt lat="46.79616" lon="-1.90068">
        <ele>11</ele>
        <time>2019-12-31T18:54:13Z</time>
      </trkpt>
      <trkpt lat="46.79613" lon="-1.9006">
        <ele>11</ele>
        <time>2019-12-31T18:54:15Z</time>
      </trkpt>
      <trkpt lat="46.79609" lon="-1.90046">
        <ele>11</ele>
        <time>2019-12-31T18:54:16Z</time>
      </trkpt>
      <trkpt lat="46.79604" lon="-1.90035">
        <ele>11</ele>
        <time>2019-12-31T18:54:18Z</time>
      </trkpt>
      <trkpt lat="46.79593" lon="-1.90002">
        <ele>12</ele>
        <time>2019-12-31T18:54:23Z</time>
      </trkpt>
      <trkpt lat="46.79588" lon="-1.89986">
        <ele>12</ele>
        <time>2019-12-31T18:54:25Z</time>
      </trkpt>
      <trkpt lat="46.79585" lon="-1.89972">
        <ele>12</ele>
        <time>2019-12-31T18:54:26Z</time>
      </trkpt>
      <trkpt lat="46.7958" lon="-1.89955">
        <ele>12</ele>
        <time>2019-12-31T18:54:29Z</time>
      </trkpt>
      <trkpt lat="46.79568" lon="-1.89907">
        <ele>12</ele>
        <time>2019-12-31T18:54:35Z</time>
      </trkpt>
      <trkpt lat="46.79558" lon="-1.89861">
        <ele>11</ele>
        <time>2019-12-31T18:54:41Z</time>
      </trkpt>
      <trkpt lat="46.79553" lon="-1.89834">
        <ele>11</ele>
        <time>2019-12-31T18:54:44Z</time>
      </trkpt>
      <trkpt lat="46.79549" lon="-1.89822">
        <ele>11</ele>
        <time>2019-12-31T18:54:46Z</time>
      </trkpt>
      <trkpt lat="46.79543" lon="-1.89811">
        <ele>11</ele>
        <time>2019-12-31T18:54:48Z</time>
      </trkpt>
      <trkpt lat="46.79539" lon="-1.89802">
        <ele>11</ele>
        <time>2019-12-31T18:54:49Z</time>
      </trkpt>
      <trkpt lat="46.79512" lon="-1.8975">
        <ele>12</ele>
        <time>2019-12-31T18:54:57Z</time>
      </trkpt>
      <trkpt lat="46.79499" lon="-1.89725">
        <ele>12</ele>
        <time>2019-12-31T18:55:01Z</time>
      </trkpt>
      <trkpt lat="46.79489" lon="-1.89707">
        <ele>12</ele>
        <time>2019-12-31T18:55:03Z</time>
      </trkpt>
      <trkpt lat="46.79468" lon="-1.89665">
        <ele>11</ele>
        <time>2019-12-31T18:55:10Z</time>
      </trkpt>
      <trkpt lat="46.79461" lon="-1.89653">
        <ele>11</ele>
        <time>2019-12-31T18:55:12Z</time>
      </trkpt>
      <trkpt lat="46.7946" lon="-1.8965">
        <ele>11</ele>
        <time>2019-12-31T18:55:12Z</time>
      </trkpt>
      <trkpt lat="46.79431" lon="-1.89596">
        <ele>10</ele>
        <time>2019-12-31T18:55:20Z</time>
      </trkpt>
      <trkpt lat="46.79422" lon="-1.89578">
        <ele>10</ele>
        <time>2019-12-31T18:55:23Z</time>
      </trkpt>
      <trkpt lat="46.79402" lon="-1.89541">
        <ele>10</ele>
        <time>2019-12-31T18:55:29Z</time>
      </trkpt>
      <trkpt lat="46.79394" lon="-1.89527">
        <ele>10</ele>
        <time>2019-12-31T18:55:31Z</time>
      </trkpt>
      <trkpt lat="46.79378" lon="-1.89497">
        <ele>11</ele>
        <time>2019-12-31T18:55:36Z</time>
      </trkpt>
      <trkpt lat="46.79371" lon="-1.89482">
        <ele>11</ele>
        <time>2019-12-31T18:55:38Z</time>
      </trkpt>
      <trkpt lat="46.79367" lon="-1.89473">
        <ele>11</ele>
        <time>2019-12-31T18:55:39Z</time>
      </trkpt>
      <trkpt lat="46.79366" lon="-1.89468">
        <ele>11</ele>
        <time>2019-12-31T18:55:40Z</time>
      </trkpt>
      <trkpt lat="46.79359" lon="-1.89451">
        <ele>10</ele>
        <time>2019-12-31T18:55:42Z</time>
      </trkpt>
      <trkpt lat="46.79353" lon="-1.89434">
        <ele>10</ele>
        <time>2019-12-31T18:55:45Z</time>
      </trkpt>
      <trkpt lat="46.79347" lon="-1.89416">
        <ele>10</ele>
        <time>2019-12-31T18:55:47Z</time>
      </trkpt>
      <trkpt lat="46.7934" lon="-1.89395">
        <ele>10</ele>
        <time>2019-12-31T18:55:50Z</time>
      </trkpt>
      <trkpt lat="46.79338" lon="-1.8939">
        <ele>10</ele>
        <time>2019-12-31T18:55:51Z</time>
      </trkpt>
      <trkpt lat="46.79335" lon="-1.89378">
        <ele>10</ele>
        <time>2019-12-31T18:55:52Z</time>
      </trkpt>
      <trkpt lat="46.79327" lon="-1.89346">
        <ele>10</ele>
        <time>2019-12-31T18:55:56Z</time>
      </trkpt>
      <trkpt lat="46.79316" lon="-1.89292">
        <ele>11</ele>
        <time>2019-12-31T18:56:03Z</time>
      </trkpt>
      <trkpt lat="46.79303" lon="-1.89211">
        <ele>11</ele>
        <time>2019-12-31T18:56:13Z</time>
      </trkpt>
      <trkpt lat="46.79293" lon="-1.8915">
        <ele>11</ele>
        <time>2019-12-31T18:56:21Z</time>
      </trkpt>
      <trkpt lat="46.79287" lon="-1.89116">
        <ele>11</ele>
        <time>2019-12-31T18:56:25Z</time>
      </trkpt>
      <trkpt lat="46.79281" lon="-1.8909">
        <ele>11</ele>
        <time>2019-12-31T18:56:29Z</time>
      </trkpt>
      <trkpt lat="46.79275" lon="-1.89069">
        <ele>11</ele>
        <time>2019-12-31T18:56:31Z</time>
      </trkpt>
      <trkpt lat="46.79269" lon="-1.89045">
        <ele>11</ele>
        <time>2019-12-31T18:56:35Z</time>
      </trkpt>
      <trkpt lat="46.79259" lon="-1.89011">
        <ele>10</ele>
        <time>2019-12-31T18:56:39Z</time>
      </trkpt>
      <trkpt lat="46.79251" lon="-1.88988">
        <ele>10</ele>
        <time>2019-12-31T18:56:42Z</time>
      </trkpt>
      <trkpt lat="46.79246" lon="-1.88972">
        <ele>10</ele>
        <time>2019-12-31T18:56:44Z</time>
      </trkpt>
      <trkpt lat="46.79242" lon="-1.8896">
        <ele>10</ele>
        <time>2019-12-31T18:56:46Z</time>
      </trkpt>
      <trkpt lat="46.7924" lon="-1.88954">
        <ele>10</ele>
        <time>2019-12-31T18:56:47Z</time>
      </trkpt>
      <trkpt lat="46.79238" lon="-1.88948">
        <ele>10</ele>
        <time>2019-12-31T18:56:48Z</time>
      </trkpt>
      <trkpt lat="46.79223" lon="-1.88898">
        <ele>10</ele>
        <time>2019-12-31T18:56:54Z</time>
      </trkpt>
      <trkpt lat="46.79195" lon="-1.88812">
        <ele>10</ele>
        <time>2019-12-31T18:57:06Z</time>
      </trkpt>
      <trkpt lat="46.79191" lon="-1.888">
        <ele>10</ele>
        <time>2019-12-31T18:57:07Z</time>
      </trkpt>
      <trkpt lat="46.79168" lon="-1.88728">
        <ele>11</ele>
        <time>2019-12-31T18:57:17Z</time>
      </trkpt>
      <trkpt lat="46.79155" lon="-1.88689">
        <ele>11</ele>
        <time>2019-12-31T18:57:22Z</time>
      </trkpt>
      <trkpt lat="46.79137" lon="-1.88636">
        <ele>10</ele>
        <time>2019-12-31T18:57:30Z</time>
      </trkpt>
      <trkpt lat="46.79126" lon="-1.88601">
        <ele>10</ele>
        <time>2019-12-31T18:57:34Z</time>
      </trkpt>
      <trkpt lat="46.79109" lon="-1.88552">
        <ele>9</ele>
        <time>2019-12-31T18:57:41Z</time>
      </trkpt>
      <trkpt lat="46.79103" lon="-1.88534">
        <ele>9</ele>
        <time>2019-12-31T18:57:43Z</time>
      </trkpt>
      <trkpt lat="46.79096" lon="-1.88516">
        <ele>9</ele>
        <time>2019-12-31T18:57:46Z</time>
      </trkpt>
      <trkpt lat="46.79087" lon="-1.88497">
        <ele>9</ele>
        <time>2019-12-31T18:57:49Z</time>
      </trkpt>
      <trkpt lat="46.79073" lon="-1.88466">
        <ele>8</ele>
        <time>2019-12-31T18:57:53Z</time>
      </trkpt>
      <trkpt lat="46.79064" lon="-1.88447">
        <ele>8</ele>
        <time>2019-12-31T18:57:56Z</time>
      </trkpt>
      <trkpt lat="46.79063" lon="-1.88445">
        <ele>8</ele>
        <time>2019-12-31T18:57:56Z</time>
      </trkpt>
      <trkpt lat="46.79056" lon="-1.88431">
        <ele>8</ele>
        <time>2019-12-31T18:57:59Z</time>
      </trkpt>
      <trkpt lat="46.79048" lon="-1.88418">
        <ele>8</ele>
        <time>2019-12-31T18:58:01Z</time>
      </trkpt>
      <trkpt lat="46.79039" lon="-1.88404">
        <ele>7</ele>
        <time>2019-12-31T18:58:03Z</time>
      </trkpt>
      <trkpt lat="46.79029" lon="-1.88391">
        <ele>7</ele>
        <time>2019-12-31T18:58:05Z</time>
      </trkpt>
      <trkpt lat="46.7901" lon="-1.88365">
        <ele>7</ele>
        <time>2019-12-31T18:58:10Z</time>
      </trkpt>
      <trkpt lat="46.78978" lon="-1.88325">
        <ele>6</ele>
        <time>2019-12-31T18:58:18Z</time>
      </trkpt>
      <trkpt lat="46.78971" lon="-1.88317">
        <ele>6</ele>
        <time>2019-12-31T18:58:19Z</time>
      </trkpt>
      <trkpt lat="46.78939" lon="-1.88278">
        <ele>5</ele>
        <time>2019-12-31T18:58:27Z</time>
      </trkpt>
      <trkpt lat="46.78918" lon="-1.88252">
        <ele>4</ele>
        <time>2019-12-31T18:58:31Z</time>
      </trkpt>
      <trkpt lat="46.78904" lon="-1.88232">
        <ele>4</ele>
        <time>2019-12-31T18:58:35Z</time>
      </trkpt>
      <trkpt lat="46.78894" lon="-1.88219">
        <ele>3</ele>
        <time>2019-12-31T18:58:37Z</time>
      </trkpt>
      <trkpt lat="46.78893" lon="-1.88216">
        <ele>3</ele>
        <time>2019-12-31T18:58:38Z</time>
      </trkpt>
      <trkpt lat="46.78894" lon="-1.88213">
        <ele>3</ele>
        <time>2019-12-31T18:58:38Z</time>
      </trkpt>
      <trkpt lat="46.78894" lon="-1.88211">
        <ele>3</ele>
        <time>2019-12-31T18:58:38Z</time>
      </trkpt>
      <trkpt lat="46.78894" lon="-1.88211">
        <ele>3</ele>
        <time>2019-12-31T18:58:38Z</time>
      </trkpt>
      <trkpt lat="46.78888" lon="-1.88208">
        <ele>3</ele>
        <time>2019-12-31T18:58:39Z</time>
      </trkpt>
      <trkpt lat="46.78882" lon="-1.88204">
        <ele>3</ele>
        <time>2019-12-31T18:58:41Z</time>
      </trkpt>
      <trkpt lat="46.78879" lon="-1.88202">
        <ele>3</ele>
        <time>2019-12-31T18:58:41Z</time>
      </trkpt>
      <trkpt lat="46.78875" lon="-1.88199">
        <ele>3</ele>
        <time>2019-12-31T18:58:42Z</time>
      </trkpt>
      <trkpt lat="46.78867" lon="-1.88191">
        <ele>3</ele>
        <time>2019-12-31T18:58:44Z</time>
      </trkpt>
      <trkpt lat="46.78856" lon="-1.88178">
        <ele>4</ele>
        <time>2019-12-31T18:58:46Z</time>
      </trkpt>
      <trkpt lat="46.78832" lon="-1.88151">
        <ele>4</ele>
        <time>2019-12-31T18:58:52Z</time>
      </trkpt>
      <trkpt lat="46.78821" lon="-1.88134">
        <ele>4</ele>
        <time>2019-12-31T18:58:55Z</time>
      </trkpt>
      <trkpt lat="46.78808" lon="-1.88119">
        <ele>5</ele>
        <time>2019-12-31T18:58:57Z</time>
      </trkpt>
      <trkpt lat="46.78798" lon="-1.88106">
        <ele>5</ele>
        <time>2019-12-31T18:59:00Z</time>
      </trkpt>
      <trkpt lat="46.7878" lon="-1.88085">
        <ele>5</ele>
        <time>2019-12-31T18:59:04Z</time>
      </trkpt>
      <trkpt lat="46.78771" lon="-1.88075">
        <ele>5</ele>
        <time>2019-12-31T18:59:06Z</time>
      </trkpt>
      <trkpt lat="46.78764" lon="-1.88068">
        <ele>5</ele>
        <time>2019-12-31T18:59:07Z</time>
      </trkpt>
      <trkpt lat="46.78757" lon="-1.88061">
        <ele>5</ele>
        <time>2019-12-31T18:59:09Z</time>
      </trkpt>
      <trkpt lat="46.78749" lon="-1.88056">
        <ele>4</ele>
        <time>2019-12-31T18:59:11Z</time>
      </trkpt>
      <trkpt lat="46.78741" lon="-1.88051">
        <ele>4</ele>
        <time>2019-12-31T18:59:12Z</time>
      </trkpt>
      <trkpt lat="46.78733" lon="-1.88048">
        <ele>4</ele>
        <time>2019-12-31T18:59:14Z</time>
      </trkpt>
      <trkpt lat="46.78706" lon="-1.88037">
        <ele>4</ele>
        <time>2019-12-31T18:59:19Z</time>
      </trkpt>
      <trkpt lat="46.78669" lon="-1.88024">
        <ele>5</ele>
        <time>2019-12-31T18:59:25Z</time>
      </trkpt>
      <trkpt lat="46.786" lon="-1.87996">
        <ele>6</ele>
        <time>2019-12-31T18:59:38Z</time>
      </trkpt>
      <trkpt lat="46.78582" lon="-1.8799">
        <ele>6</ele>
        <time>2019-12-31T18:59:41Z</time>
      </trkpt>
      <trkpt lat="46.78526" lon="-1.87967">
        <ele>6</ele>
        <time>2019-12-31T18:59:52Z</time>
      </trkpt>
      <trkpt lat="46.78501" lon="-1.87957">
        <ele>6</ele>
        <time>2019-12-31T18:59:56Z</time>
      </trkpt>
      <trkpt lat="46.78475" lon="-1.87947">
        <ele>6</ele>
        <time>2019-12-31T19:00:01Z</time>
      </trkpt>
      <trkpt lat="46.78421" lon="-1.87928">
        <ele>8</ele>
        <time>2019-12-31T19:00:11Z</time>
      </trkpt>
      <trkpt lat="46.78401" lon="-1.87921">
        <ele>7</ele>
        <time>2019-12-31T19:00:15Z</time>
      </trkpt>
      <trkpt lat="46.78367" lon="-1.87908">
        <ele>6</ele>
        <time>2019-12-31T19:00:21Z</time>
      </trkpt>
      <trkpt lat="46.7831" lon="-1.87887">
        <ele>5</ele>
        <time>2019-12-31T19:00:31Z</time>
      </trkpt>
      <trkpt lat="46.78302" lon="-1.87884">
        <ele>5</ele>
        <time>2019-12-31T19:00:33Z</time>
      </trkpt>
      <trkpt lat="46.7826" lon="-1.8787">
        <ele>5</ele>
        <time>2019-12-31T19:00:40Z</time>
      </trkpt>
      <trkpt lat="46.78246" lon="-1.87865">
        <ele>5</ele>
        <time>2019-12-31T19:00:43Z</time>
      </trkpt>
      <trkpt lat="46.78184" lon="-1.87842">
        <ele>6</ele>
        <time>2019-12-31T19:00:54Z</time>
      </trkpt>
      <trkpt lat="46.78109" lon="-1.87813">
        <ele>5</ele>
        <time>2019-12-31T19:01:08Z</time>
      </trkpt>
      <trkpt lat="46.78107" lon="-1.87813">
        <ele>5</ele>
        <time>2019-12-31T19:01:09Z</time>
      </trkpt>
      <trkpt lat="46.78082" lon="-1.87805">
        <ele>4</ele>
        <time>2019-12-31T19:01:13Z</time>
      </trkpt>
      <trkpt lat="46.78068" lon="-1.87799">
        <ele>4</ele>
        <time>2019-12-31T19:01:16Z</time>
      </trkpt>
      <trkpt lat="46.78059" lon="-1.87794">
        <ele>4</ele>
        <time>2019-12-31T19:01:17Z</time>
      </trkpt>
      <trkpt lat="46.78034" lon="-1.87785">
        <ele>3</ele>
        <time>2019-12-31T19:01:22Z</time>
      </trkpt>
      <trkpt lat="46.77999" lon="-1.87771">
        <ele>2</ele>
        <time>2019-12-31T19:01:28Z</time>
      </trkpt>
      <trkpt lat="46.77967" lon="-1.87758">
        <ele>3</ele>
        <time>2019-12-31T19:01:34Z</time>
      </trkpt>
      <trkpt lat="46.77912" lon="-1.87736">
        <ele>5</ele>
        <time>2019-12-31T19:01:45Z</time>
      </trkpt>
      <trkpt lat="46.77865" lon="-1.87718">
        <ele>4</ele>
        <time>2019-12-31T19:01:53Z</time>
      </trkpt>
      <trkpt lat="46.77856" lon="-1.87714">
        <ele>4</ele>
        <time>2019-12-31T19:01:55Z</time>
      </trkpt>
      <trkpt lat="46.77791" lon="-1.87691">
        <ele>4</ele>
        <time>2019-12-31T19:02:07Z</time>
      </trkpt>
      <trkpt lat="46.77774" lon="-1.87689">
        <ele>4</ele>
        <time>2019-12-31T19:02:10Z</time>
      </trkpt>
      <trkpt lat="46.77763" lon="-1.8769">
        <ele>4</ele>
        <time>2019-12-31T19:02:12Z</time>
      </trkpt>
      <trkpt lat="46.77763" lon="-1.8769">
        <ele>4</ele>
        <time>2019-12-31T19:02:12Z</time>
      </trkpt>
      <trkpt lat="46.77761" lon="-1.87693">
        <ele>4</ele>
        <time>2019-12-31T19:02:12Z</time>
      </trkpt>
      <trkpt lat="46.7776" lon="-1.87694">
        <ele>4</ele>
        <time>2019-12-31T19:02:12Z</time>
      </trkpt>
      <trkpt lat="46.77759" lon="-1.87695">
        <ele>4</ele>
        <time>2019-12-31T19:02:13Z</time>
      </trkpt>
      <trkpt lat="46.77758" lon="-1.87697">
        <ele>4</ele>
        <time>2019-12-31T19:02:13Z</time>
      </trkpt>
      <trkpt lat="46.77757" lon="-1.87698">
        <ele>4</ele>
        <time>2019-12-31T19:02:13Z</time>
      </trkpt>
      <trkpt lat="46.77756" lon="-1.87698">
        <ele>4</ele>
        <time>2019-12-31T19:02:13Z</time>
      </trkpt>
      <trkpt lat="46.77754" lon="-1.87699">
        <ele>4</ele>
        <time>2019-12-31T19:02:14Z</time>
      </trkpt>
      <trkpt lat="46.77753" lon="-1.877">
        <ele>4</ele>
        <time>2019-12-31T19:02:14Z</time>
      </trkpt>
      <trkpt lat="46.77752" lon="-1.877">
        <ele>4</ele>
        <time>2019-12-31T19:02:14Z</time>
      </trkpt>
      <trkpt lat="46.7775" lon="-1.877">
        <ele>4</ele>
        <time>2019-12-31T19:02:14Z</time>
      </trkpt>
      <trkpt lat="46.77749" lon="-1.877">
        <ele>4</ele>
        <time>2019-12-31T19:02:15Z</time>
      </trkpt>
      <trkpt lat="46.77748" lon="-1.877">
        <ele>4</ele>
        <time>2019-12-31T19:02:15Z</time>
      </trkpt>
      <trkpt lat="46.77746" lon="-1.877">
        <ele>4</ele>
        <time>2019-12-31T19:02:15Z</time>
      </trkpt>
      <trkpt lat="46.77745" lon="-1.877">
        <ele>4</ele>
        <time>2019-12-31T19:02:15Z</time>
      </trkpt>
      <trkpt lat="46.77744" lon="-1.87699">
        <ele>4</ele>
        <time>2019-12-31T19:02:16Z</time>
      </trkpt>
      <trkpt lat="46.77742" lon="-1.87699">
        <ele>4</ele>
        <time>2019-12-31T19:02:16Z</time>
      </trkpt>
      <trkpt lat="46.77741" lon="-1.87698">
        <ele>4</ele>
        <time>2019-12-31T19:02:16Z</time>
      </trkpt>
      <trkpt lat="46.7774" lon="-1.87697">
        <ele>4</ele>
        <time>2019-12-31T19:02:16Z</time>
      </trkpt>
      <trkpt lat="46.77739" lon="-1.87696">
        <ele>4</ele>
        <time>2019-12-31T19:02:17Z</time>
      </trkpt>
      <trkpt lat="46.77738" lon="-1.87694">
        <ele>4</ele>
        <time>2019-12-31T19:02:17Z</time>
      </trkpt>
      <trkpt lat="46.77737" lon="-1.87693">
        <ele>4</ele>
        <time>2019-12-31T19:02:17Z</time>
      </trkpt>
      <trkpt lat="46.77736" lon="-1.87692">
        <ele>4</ele>
        <time>2019-12-31T19:02:17Z</time>
      </trkpt>
      <trkpt lat="46.77735" lon="-1.8769">
        <ele>4</ele>
        <time>2019-12-31T19:02:18Z</time>
      </trkpt>
      <trkpt lat="46.77734" lon="-1.87688">
        <ele>4</ele>
        <time>2019-12-31T19:02:18Z</time>
      </trkpt>
      <trkpt lat="46.77734" lon="-1.87687">
        <ele>4</ele>
        <time>2019-12-31T19:02:18Z</time>
      </trkpt>
      <trkpt lat="46.77733" lon="-1.87685">
        <ele>4</ele>
        <time>2019-12-31T19:02:18Z</time>
      </trkpt>
      <trkpt lat="46.77733" lon="-1.87683">
        <ele>4</ele>
        <time>2019-12-31T19:02:19Z</time>
      </trkpt>
      <trkpt lat="46.77732" lon="-1.87681">
        <ele>4</ele>
        <time>2019-12-31T19:02:19Z</time>
      </trkpt>
      <trkpt lat="46.77732" lon="-1.87679">
        <ele>4</ele>
        <time>2019-12-31T19:02:19Z</time>
      </trkpt>
      <trkpt lat="46.77732" lon="-1.87677">
        <ele>4</ele>
        <time>2019-12-31T19:02:19Z</time>
      </trkpt>
      <trkpt lat="46.77732" lon="-1.87675">
        <ele>4</ele>
        <time>2019-12-31T19:02:20Z</time>
      </trkpt>
      <trkpt lat="46.77732" lon="-1.87673">
        <ele>4</ele>
        <time>2019-12-31T19:02:20Z</time>
      </trkpt>
      <trkpt lat="46.77732" lon="-1.87671">
        <ele>4</ele>
        <time>2019-12-31T19:02:20Z</time>
      </trkpt>
      <trkpt lat="46.77732" lon="-1.87669">
        <ele>4</ele>
        <time>2019-12-31T19:02:20Z</time>
      </trkpt>
      <trkpt lat="46.77733" lon="-1.87667">
        <ele>4</ele>
        <time>2019-12-31T19:02:21Z</time>
      </trkpt>
      <trkpt lat="46.77733" lon="-1.87666">
        <ele>4</ele>
        <time>2019-12-31T19:02:21Z</time>
      </trkpt>
      <trkpt lat="46.77734" lon="-1.87664">
        <ele>4</ele>
        <time>2019-12-31T19:02:21Z</time>
      </trkpt>
      <trkpt lat="46.77734" lon="-1.87662">
        <ele>4</ele>
        <time>2019-12-31T19:02:21Z</time>
      </trkpt>
      <trkpt lat="46.77735" lon="-1.87661">
        <ele>4</ele>
        <time>2019-12-31T19:02:22Z</time>
      </trkpt>
      <trkpt lat="46.77736" lon="-1.87659">
        <ele>4</ele>
        <time>2019-12-31T19:02:22Z</time>
      </trkpt>
      <trkpt lat="46.77737" lon="-1.87658">
        <ele>4</ele>
        <time>2019-12-31T19:02:22Z</time>
      </trkpt>
      <trkpt lat="46.77737" lon="-1.87656">
        <ele>4</ele>
        <time>2019-12-31T19:02:22Z</time>
      </trkpt>
      <trkpt lat="46.77738" lon="-1.87655">
        <ele>4</ele>
        <time>2019-12-31T19:02:23Z</time>
      </trkpt>
      <trkpt lat="46.77739" lon="-1.87654">
        <ele>4</ele>
        <time>2019-12-31T19:02:23Z</time>
      </trkpt>
      <trkpt lat="46.7774" lon="-1.87653">
        <ele>4</ele>
        <time>2019-12-31T19:02:23Z</time>
      </trkpt>
      <trkpt lat="46.77741" lon="-1.87653">
        <ele>4</ele>
        <time>2019-12-31T19:02:23Z</time>
      </trkpt>
      <trkpt lat="46.77743" lon="-1.87652">
        <ele>4</ele>
        <time>2019-12-31T19:02:24Z</time>
      </trkpt>
      <trkpt lat="46.77744" lon="-1.87651">
        <ele>4</ele>
        <time>2019-12-31T19:02:24Z</time>
      </trkpt>
      <trkpt lat="46.77745" lon="-1.87651">
        <ele>4</ele>
        <time>2019-12-31T19:02:24Z</time>
      </trkpt>
      <trkpt lat="46.77752" lon="-1.87616">
        <ele>5</ele>
        <time>2019-12-31T19:02:28Z</time>
      </trkpt>
      <trkpt lat="46.7775" lon="-1.87601">
        <ele>5</ele>
        <time>2019-12-31T19:02:30Z</time>
      </trkpt>
      <trkpt lat="46.77739" lon="-1.87534">
        <ele>4</ele>
        <time>2019-12-31T19:02:39Z</time>
      </trkpt>
      <trkpt lat="46.77731" lon="-1.87481">
        <ele>5</ele>
        <time>2019-12-31T19:02:45Z</time>
      </trkpt>
      <trkpt lat="46.77716" lon="-1.87374">
        <ele>5</ele>
        <time>2019-12-31T19:02:59Z</time>
      </trkpt>
      <trkpt lat="46.77705" lon="-1.87303">
        <ele>4</ele>
        <time>2019-12-31T19:03:07Z</time>
      </trkpt>
      <trkpt lat="46.77696" lon="-1.87244">
        <ele>4</ele>
        <time>2019-12-31T19:03:15Z</time>
      </trkpt>
      <trkpt lat="46.77696" lon="-1.8724">
        <ele>4</ele>
        <time>2019-12-31T19:03:15Z</time>
      </trkpt>
      <trkpt lat="46.77691" lon="-1.87204">
        <ele>5</ele>
        <time>2019-12-31T19:03:20Z</time>
      </trkpt>
      <trkpt lat="46.77686" lon="-1.87156">
        <ele>5</ele>
        <time>2019-12-31T19:03:26Z</time>
      </trkpt>
      <trkpt lat="46.77673" lon="-1.87067">
        <ele>5</ele>
        <time>2019-12-31T19:03:37Z</time>
      </trkpt>
      <trkpt lat="46.7766" lon="-1.86961">
        <ele>6</ele>
        <time>2019-12-31T19:03:50Z</time>
      </trkpt>
      <trkpt lat="46.7765" lon="-1.86891">
        <ele>7</ele>
        <time>2019-12-31T19:03:59Z</time>
      </trkpt>
      <trkpt lat="46.77641" lon="-1.86822">
        <ele>7</ele>
        <time>2019-12-31T19:04:07Z</time>
      </trkpt>
      <trkpt lat="46.77632" lon="-1.86756">
        <ele>7</ele>
        <time>2019-12-31T19:04:15Z</time>
      </trkpt>
      <trkpt lat="46.77628" lon="-1.86731">
        <ele>7</ele>
        <time>2019-12-31T19:04:18Z</time>
      </trkpt>
      <trkpt lat="46.77625" lon="-1.86715">
        <ele>7</ele>
        <time>2019-12-31T19:04:20Z</time>
      </trkpt>
      <trkpt lat="46.77622" lon="-1.86702">
        <ele>7</ele>
        <time>2019-12-31T19:04:22Z</time>
      </trkpt>
      <trkpt lat="46.77618" lon="-1.86688">
        <ele>7</ele>
        <time>2019-12-31T19:04:24Z</time>
      </trkpt>
      <trkpt lat="46.77614" lon="-1.86675">
        <ele>7</ele>
        <time>2019-12-31T19:04:26Z</time>
      </trkpt>
      <trkpt lat="46.77609" lon="-1.8666">
        <ele>7</ele>
        <time>2019-12-31T19:04:28Z</time>
      </trkpt>
      <trkpt lat="46.77604" lon="-1.86646">
        <ele>7</ele>
        <time>2019-12-31T19:04:30Z</time>
      </trkpt>
      <trkpt lat="46.77599" lon="-1.86633">
        <ele>7</ele>
        <time>2019-12-31T19:04:32Z</time>
      </trkpt>
      <trkpt lat="46.77594" lon="-1.86622">
        <ele>7</ele>
        <time>2019-12-31T19:04:33Z</time>
      </trkpt>
      <trkpt lat="46.77587" lon="-1.86608">
        <ele>7</ele>
        <time>2019-12-31T19:04:35Z</time>
      </trkpt>
      <trkpt lat="46.77578" lon="-1.86596">
        <ele>7</ele>
        <time>2019-12-31T19:04:37Z</time>
      </trkpt>
      <trkpt lat="46.77568" lon="-1.86583">
        <ele>7</ele>
        <time>2019-12-31T19:04:40Z</time>
      </trkpt>
      <trkpt lat="46.77537" lon="-1.86549">
        <ele>7</ele>
        <time>2019-12-31T19:04:47Z</time>
      </trkpt>
      <trkpt lat="46.77481" lon="-1.86487">
        <ele>7</ele>
        <time>2019-12-31T19:04:59Z</time>
      </trkpt>
      <trkpt lat="46.7742" lon="-1.86419">
        <ele>8</ele>
        <time>2019-12-31T19:05:13Z</time>
      </trkpt>
      <trkpt lat="46.77327" lon="-1.86318">
        <ele>8</ele>
        <time>2019-12-31T19:05:33Z</time>
      </trkpt>
      <trkpt lat="46.77318" lon="-1.86308">
        <ele>8</ele>
        <time>2019-12-31T19:05:35Z</time>
      </trkpt>
      <trkpt lat="46.77314" lon="-1.86303">
        <ele>8</ele>
        <time>2019-12-31T19:05:36Z</time>
      </trkpt>
      <trkpt lat="46.77305" lon="-1.86293">
        <ele>8</ele>
        <time>2019-12-31T19:05:38Z</time>
      </trkpt>
      <trkpt lat="46.77298" lon="-1.86284">
        <ele>9</ele>
        <time>2019-12-31T19:05:40Z</time>
      </trkpt>
      <trkpt lat="46.7729" lon="-1.86274">
        <ele>9</ele>
        <time>2019-12-31T19:05:42Z</time>
      </trkpt>
      <trkpt lat="46.77284" lon="-1.86265">
        <ele>9</ele>
        <time>2019-12-31T19:05:43Z</time>
      </trkpt>
      <trkpt lat="46.77277" lon="-1.86254">
        <ele>9</ele>
        <time>2019-12-31T19:05:45Z</time>
      </trkpt>
      <trkpt lat="46.7727" lon="-1.86244">
        <ele>9</ele>
        <time>2019-12-31T19:05:47Z</time>
      </trkpt>
      <trkpt lat="46.77263" lon="-1.86232">
        <ele>9</ele>
        <time>2019-12-31T19:05:49Z</time>
      </trkpt>
      <trkpt lat="46.77255" lon="-1.86217">
        <ele>9</ele>
        <time>2019-12-31T19:05:51Z</time>
      </trkpt>
      <trkpt lat="46.77248" lon="-1.86204">
        <ele>9</ele>
        <time>2019-12-31T19:05:53Z</time>
      </trkpt>
      <trkpt lat="46.77242" lon="-1.86193">
        <ele>9</ele>
        <time>2019-12-31T19:05:55Z</time>
      </trkpt>
      <trkpt lat="46.77215" lon="-1.8614">
        <ele>9</ele>
        <time>2019-12-31T19:06:03Z</time>
      </trkpt>
      <trkpt lat="46.77179" lon="-1.86071">
        <ele>9</ele>
        <time>2019-12-31T19:06:14Z</time>
      </trkpt>
      <trkpt lat="46.77146" lon="-1.86007">
        <ele>9</ele>
        <time>2019-12-31T19:06:23Z</time>
      </trkpt>
      <trkpt lat="46.77097" lon="-1.85912">
        <ele>12</ele>
        <time>2019-12-31T19:06:38Z</time>
      </trkpt>
      <trkpt lat="46.77069" lon="-1.85859">
        <ele>12</ele>
        <time>2019-12-31T19:06:46Z</time>
      </trkpt>
      <trkpt lat="46.77037" lon="-1.85796">
        <ele>12</ele>
        <time>2019-12-31T19:06:56Z</time>
      </trkpt>
      <trkpt lat="46.77025" lon="-1.85775">
        <ele>12</ele>
        <time>2019-12-31T19:06:59Z</time>
      </trkpt>
      <trkpt lat="46.7702" lon="-1.85765">
        <ele>13</ele>
        <time>2019-12-31T19:07:00Z</time>
      </trkpt>
      <trkpt lat="46.7701" lon="-1.85744">
        <ele>13</ele>
        <time>2019-12-31T19:07:04Z</time>
      </trkpt>
      <trkpt lat="46.77" lon="-1.85725">
        <ele>12</ele>
        <time>2019-12-31T19:07:07Z</time>
      </trkpt>
      <trkpt lat="46.76981" lon="-1.8569">
        <ele>12</ele>
        <time>2019-12-31T19:07:12Z</time>
      </trkpt>
      <trkpt lat="46.76963" lon="-1.85656">
        <ele>12</ele>
        <time>2019-12-31T19:07:17Z</time>
      </trkpt>
      <trkpt lat="46.76961" lon="-1.85652">
        <ele>12</ele>
        <time>2019-12-31T19:07:18Z</time>
      </trkpt>
      <trkpt lat="46.76936" lon="-1.856">
        <ele>12</ele>
        <time>2019-12-31T19:07:26Z</time>
      </trkpt>
      <trkpt lat="46.76932" lon="-1.85591">
        <ele>13</ele>
        <time>2019-12-31T19:07:27Z</time>
      </trkpt>
      <trkpt lat="46.76928" lon="-1.85584">
        <ele>13</ele>
        <time>2019-12-31T19:07:28Z</time>
      </trkpt>
      <trkpt lat="46.76922" lon="-1.8557">
        <ele>13</ele>
        <time>2019-12-31T19:07:30Z</time>
      </trkpt>
      <trkpt lat="46.76915" lon="-1.85553">
        <ele>13</ele>
        <time>2019-12-31T19:07:32Z</time>
      </trkpt>
      <trkpt lat="46.76909" lon="-1.85537">
        <ele>14</ele>
        <time>2019-12-31T19:07:35Z</time>
      </trkpt>
      <trkpt lat="46.76902" lon="-1.85518">
        <ele>14</ele>
        <time>2019-12-31T19:07:37Z</time>
      </trkpt>
      <trkpt lat="46.76894" lon="-1.85495">
        <ele>14</ele>
        <time>2019-12-31T19:07:40Z</time>
      </trkpt>
      <trkpt lat="46.76874" lon="-1.85433">
        <ele>14</ele>
        <time>2019-12-31T19:07:49Z</time>
      </trkpt>
      <trkpt lat="46.76866" lon="-1.85412">
        <ele>14</ele>
        <time>2019-12-31T19:07:52Z</time>
      </trkpt>
      <trkpt lat="46.76857" lon="-1.85383">
        <ele>13</ele>
        <time>2019-12-31T19:07:56Z</time>
      </trkpt>
      <trkpt lat="46.76851" lon="-1.85366">
        <ele>13</ele>
        <time>2019-12-31T19:07:58Z</time>
      </trkpt>
      <trkpt lat="46.76835" lon="-1.85316">
        <ele>13</ele>
        <time>2019-12-31T19:08:05Z</time>
      </trkpt>
      <trkpt lat="46.76828" lon="-1.85291">
        <ele>13</ele>
        <time>2019-12-31T19:08:08Z</time>
      </trkpt>
      <trkpt lat="46.76822" lon="-1.85266">
        <ele>13</ele>
        <time>2019-12-31T19:08:11Z</time>
      </trkpt>
      <trkpt lat="46.76818" lon="-1.85242">
        <ele>13</ele>
        <time>2019-12-31T19:08:14Z</time>
      </trkpt>
      <trkpt lat="46.76818" lon="-1.85241">
        <ele>13</ele>
        <time>2019-12-31T19:08:14Z</time>
      </trkpt>
      <trkpt lat="46.76816" lon="-1.85221">
        <ele>13</ele>
        <time>2019-12-31T19:08:17Z</time>
      </trkpt>
      <trkpt lat="46.76815" lon="-1.85199">
        <ele>13</ele>
        <time>2019-12-31T19:08:19Z</time>
      </trkpt>
      <trkpt lat="46.76815" lon="-1.85176">
        <ele>13</ele>
        <time>2019-12-31T19:08:22Z</time>
      </trkpt>
      <trkpt lat="46.76815" lon="-1.85142">
        <ele>14</ele>
        <time>2019-12-31T19:08:26Z</time>
      </trkpt>
      <trkpt lat="46.76817" lon="-1.8509">
        <ele>15</ele>
        <time>2019-12-31T19:08:33Z</time>
      </trkpt>
      <trkpt lat="46.76817" lon="-1.85053">
        <ele>15</ele>
        <time>2019-12-31T19:08:37Z</time>
      </trkpt>
      <trkpt lat="46.76816" lon="-1.85032">
        <ele>15</ele>
        <time>2019-12-31T19:08:40Z</time>
      </trkpt>
      <trkpt lat="46.76815" lon="-1.85012">
        <ele>15</ele>
        <time>2019-12-31T19:08:42Z</time>
      </trkpt>
      <trkpt lat="46.76814" lon="-1.84994">
        <ele>15</ele>
        <time>2019-12-31T19:08:44Z</time>
      </trkpt>
      <trkpt lat="46.76812" lon="-1.84973">
        <ele>15</ele>
        <time>2019-12-31T19:08:47Z</time>
      </trkpt>
      <trkpt lat="46.76809" lon="-1.8495">
        <ele>15</ele>
        <time>2019-12-31T19:08:50Z</time>
      </trkpt>
      <trkpt lat="46.76802" lon="-1.84914">
        <ele>15</ele>
        <time>2019-12-31T19:08:54Z</time>
      </trkpt>
      <trkpt lat="46.76799" lon="-1.84895">
        <ele>15</ele>
        <time>2019-12-31T19:08:57Z</time>
      </trkpt>
      <trkpt lat="46.7679" lon="-1.84848">
        <ele>15</ele>
        <time>2019-12-31T19:09:03Z</time>
      </trkpt>
      <trkpt lat="46.76777" lon="-1.84769">
        <ele>16</ele>
        <time>2019-12-31T19:09:13Z</time>
      </trkpt>
      <trkpt lat="46.76765" lon="-1.84703">
        <ele>17</ele>
        <time>2019-12-31T19:09:21Z</time>
      </trkpt>
      <trkpt lat="46.76751" lon="-1.84624">
        <ele>17</ele>
        <time>2019-12-31T19:09:31Z</time>
      </trkpt>
      <trkpt lat="46.76749" lon="-1.84613">
        <ele>18</ele>
        <time>2019-12-31T19:09:32Z</time>
      </trkpt>
      <trkpt lat="46.7674" lon="-1.84558">
        <ele>18</ele>
        <time>2019-12-31T19:09:39Z</time>
      </trkpt>
      <trkpt lat="46.76737" lon="-1.84537">
        <ele>18</ele>
        <time>2019-12-31T19:09:42Z</time>
      </trkpt>
      <trkpt lat="46.7673" lon="-1.84503">
        <ele>18</ele>
        <time>2019-12-31T19:09:46Z</time>
      </trkpt>
      <trkpt lat="46.76724" lon="-1.84468">
        <ele>18</ele>
        <time>2019-12-31T19:09:51Z</time>
      </trkpt>
      <trkpt lat="46.7672" lon="-1.84438">
        <ele>18</ele>
        <time>2019-12-31T19:09:54Z</time>
      </trkpt>
      <trkpt lat="46.76718" lon="-1.84424">
        <ele>18</ele>
        <time>2019-12-31T19:09:56Z</time>
      </trkpt>
      <trkpt lat="46.76716" lon="-1.84404">
        <ele>18</ele>
        <time>2019-12-31T19:09:58Z</time>
      </trkpt>
      <trkpt lat="46.76714" lon="-1.84385">
        <ele>19</ele>
        <time>2019-12-31T19:10:01Z</time>
      </trkpt>
      <trkpt lat="46.76714" lon="-1.84368">
        <ele>19</ele>
        <time>2019-12-31T19:10:03Z</time>
      </trkpt>
      <trkpt lat="46.76714" lon="-1.84361">
        <ele>19</ele>
        <time>2019-12-31T19:10:04Z</time>
      </trkpt>
      <trkpt lat="46.76714" lon="-1.84317">
        <ele>19</ele>
        <time>2019-12-31T19:10:09Z</time>
      </trkpt>
      <trkpt lat="46.76713" lon="-1.84291">
        <ele>19</ele>
        <time>2019-12-31T19:10:12Z</time>
      </trkpt>
      <trkpt lat="46.76712" lon="-1.84267">
        <ele>19</ele>
        <time>2019-12-31T19:10:15Z</time>
      </trkpt>
      <trkpt lat="46.7671" lon="-1.84253">
        <ele>19</ele>
        <time>2019-12-31T19:10:17Z</time>
      </trkpt>
      <trkpt lat="46.76707" lon="-1.84237">
        <ele>20</ele>
        <time>2019-12-31T19:10:19Z</time>
      </trkpt>
      <trkpt lat="46.76705" lon="-1.84226">
        <ele>20</ele>
        <time>2019-12-31T19:10:20Z</time>
      </trkpt>
      <trkpt lat="46.76702" lon="-1.84212">
        <ele>20</ele>
        <time>2019-12-31T19:10:22Z</time>
      </trkpt>
      <trkpt lat="46.76698" lon="-1.84199">
        <ele>20</ele>
        <time>2019-12-31T19:10:24Z</time>
      </trkpt>
      <trkpt lat="46.76693" lon="-1.84184">
        <ele>20</ele>
        <time>2019-12-31T19:10:26Z</time>
      </trkpt>
      <trkpt lat="46.76687" lon="-1.84167">
        <ele>20</ele>
        <time>2019-12-31T19:10:28Z</time>
      </trkpt>
      <trkpt lat="46.76682" lon="-1.84155">
        <ele>20</ele>
        <time>2019-12-31T19:10:30Z</time>
      </trkpt>
      <trkpt lat="46.7666" lon="-1.841">
        <ele>20</ele>
        <time>2019-12-31T19:10:38Z</time>
      </trkpt>
      <trkpt lat="46.7665" lon="-1.84074">
        <ele>20</ele>
        <time>2019-12-31T19:10:41Z</time>
      </trkpt>
      <trkpt lat="46.76649" lon="-1.84071">
        <ele>20</ele>
        <time>2019-12-31T19:10:42Z</time>
      </trkpt>
      <trkpt lat="46.76613" lon="-1.8398">
        <ele>21</ele>
        <time>2019-12-31T19:10:55Z</time>
      </trkpt>
      <trkpt lat="46.76591" lon="-1.83927">
        <ele>21</ele>
        <time>2019-12-31T19:11:02Z</time>
      </trkpt>
      <trkpt lat="46.76588" lon="-1.8392">
        <ele>21</ele>
        <time>2019-12-31T19:11:03Z</time>
      </trkpt>
      <trkpt lat="46.76584" lon="-1.83912">
        <ele>21</ele>
        <time>2019-12-31T19:11:04Z</time>
      </trkpt>
      <trkpt lat="46.7658" lon="-1.83907">
        <ele>21</ele>
        <time>2019-12-31T19:11:05Z</time>
      </trkpt>
      <trkpt lat="46.76577" lon="-1.83903">
        <ele>21</ele>
        <time>2019-12-31T19:11:06Z</time>
      </trkpt>
      <trkpt lat="46.76573" lon="-1.83897">
        <ele>21</ele>
        <time>2019-12-31T19:11:07Z</time>
      </trkpt>
      <trkpt lat="46.76566" lon="-1.8389">
        <ele>20</ele>
        <time>2019-12-31T19:11:09Z</time>
      </trkpt>
      <trkpt lat="46.76562" lon="-1.83888">
        <ele>20</ele>
        <time>2019-12-31T19:11:09Z</time>
      </trkpt>
      <trkpt lat="46.76551" lon="-1.83884">
        <ele>20</ele>
        <time>2019-12-31T19:11:11Z</time>
      </trkpt>
      <trkpt lat="46.76545" lon="-1.83882">
        <ele>20</ele>
        <time>2019-12-31T19:11:12Z</time>
      </trkpt>
      <trkpt lat="46.76541" lon="-1.8388">
        <ele>20</ele>
        <time>2019-12-31T19:11:13Z</time>
      </trkpt>
      <trkpt lat="46.76534" lon="-1.83878">
        <ele>20</ele>
        <time>2019-12-31T19:11:14Z</time>
      </trkpt>
      <trkpt lat="46.76529" lon="-1.83876">
        <ele>20</ele>
        <time>2019-12-31T19:11:15Z</time>
      </trkpt>
      <trkpt lat="46.76523" lon="-1.83874">
        <ele>20</ele>
        <time>2019-12-31T19:11:16Z</time>
      </trkpt>
      <trkpt lat="46.76517" lon="-1.83872">
        <ele>20</ele>
        <time>2019-12-31T19:11:18Z</time>
      </trkpt>
      <trkpt lat="46.76503" lon="-1.83869">
        <ele>20</ele>
        <time>2019-12-31T19:11:20Z</time>
      </trkpt>
      <trkpt lat="46.76485" lon="-1.83866">
        <ele>19</ele>
        <time>2019-12-31T19:11:23Z</time>
      </trkpt>
      <trkpt lat="46.76463" lon="-1.83864">
        <ele>19</ele>
        <time>2019-12-31T19:11:27Z</time>
      </trkpt>
      <trkpt lat="46.76446" lon="-1.83862">
        <ele>19</ele>
        <time>2019-12-31T19:11:30Z</time>
      </trkpt>
      <trkpt lat="46.76442" lon="-1.83862">
        <ele>19</ele>
        <time>2019-12-31T19:11:31Z</time>
      </trkpt>
      <trkpt lat="46.76437" lon="-1.83861">
        <ele>19</ele>
        <time>2019-12-31T19:11:32Z</time>
      </trkpt>
      <trkpt lat="46.76429" lon="-1.8386">
        <ele>19</ele>
        <time>2019-12-31T19:11:33Z</time>
      </trkpt>
      <trkpt lat="46.76426" lon="-1.83862">
        <ele>19</ele>
        <time>2019-12-31T19:11:34Z</time>
      </trkpt>
      <trkpt lat="46.76419" lon="-1.83861">
        <ele>19</ele>
        <time>2019-12-31T19:11:35Z</time>
      </trkpt>
      <trkpt lat="46.76399" lon="-1.8386">
        <ele>18</ele>
        <time>2019-12-31T19:11:39Z</time>
      </trkpt>
      <trkpt lat="46.76387" lon="-1.83859">
        <ele>18</ele>
        <time>2019-12-31T19:11:41Z</time>
      </trkpt>
      <trkpt lat="46.76381" lon="-1.83858">
        <ele>18</ele>
        <time>2019-12-31T19:11:42Z</time>
      </trkpt>
      <trkpt lat="46.76376" lon="-1.83855">
        <ele>18</ele>
        <time>2019-12-31T19:11:43Z</time>
      </trkpt>
      <trkpt lat="46.76371" lon="-1.83854">
        <ele>18</ele>
        <time>2019-12-31T19:11:44Z</time>
      </trkpt>
      <trkpt lat="46.76361" lon="-1.83852">
        <ele>18</ele>
        <time>2019-12-31T19:11:46Z</time>
      </trkpt>
      <trkpt lat="46.76352" lon="-1.83849">
        <ele>18</ele>
        <time>2019-12-31T19:11:47Z</time>
      </trkpt>
      <trkpt lat="46.76339" lon="-1.83843">
        <ele>18</ele>
        <time>2019-12-31T19:11:50Z</time>
      </trkpt>
      <trkpt lat="46.76308" lon="-1.8383">
        <ele>18</ele>
        <time>2019-12-31T19:11:55Z</time>
      </trkpt>
      <trkpt lat="46.76284" lon="-1.83821">
        <ele>19</ele>
        <time>2019-12-31T19:12:00Z</time>
      </trkpt>
      <trkpt lat="46.7626" lon="-1.83813">
        <ele>19</ele>
        <time>2019-12-31T19:12:04Z</time>
      </trkpt>
      <trkpt lat="46.7625" lon="-1.83809">
        <ele>19</ele>
        <time>2019-12-31T19:12:06Z</time>
      </trkpt>
      <trkpt lat="46.76246" lon="-1.83807">
        <ele>19</ele>
        <time>2019-12-31T19:12:07Z</time>
      </trkpt>
      <trkpt lat="46.76234" lon="-1.83801">
        <ele>19</ele>
        <time>2019-12-31T19:12:09Z</time>
      </trkpt>
      <trkpt lat="46.76223" lon="-1.83795">
        <ele>19</ele>
        <time>2019-12-31T19:12:11Z</time>
      </trkpt>
      <trkpt lat="46.76219" lon="-1.83793">
        <ele>20</ele>
        <time>2019-12-31T19:12:12Z</time>
      </trkpt>
      <trkpt lat="46.76213" lon="-1.83788">
        <ele>20</ele>
        <time>2019-12-31T19:12:13Z</time>
      </trkpt>
      <trkpt lat="46.76205" lon="-1.8378">
        <ele>20</ele>
        <time>2019-12-31T19:12:15Z</time>
      </trkpt>
      <trkpt lat="46.76202" lon="-1.83774">
        <ele>20</ele>
        <time>2019-12-31T19:12:16Z</time>
      </trkpt>
      <trkpt lat="46.762" lon="-1.8377">
        <ele>20</ele>
        <time>2019-12-31T19:12:16Z</time>
      </trkpt>
      <trkpt lat="46.76198" lon="-1.83765">
        <ele>20</ele>
        <time>2019-12-31T19:12:17Z</time>
      </trkpt>
      <trkpt lat="46.76196" lon="-1.8376">
        <ele>20</ele>
        <time>2019-12-31T19:12:18Z</time>
      </trkpt>
      <trkpt lat="46.76194" lon="-1.83752">
        <ele>20</ele>
        <time>2019-12-31T19:12:19Z</time>
      </trkpt>
      <trkpt lat="46.76192" lon="-1.83748">
        <ele>20</ele>
        <time>2019-12-31T19:12:19Z</time>
      </trkpt>
      <trkpt lat="46.76192" lon="-1.83748">
        <ele>20</ele>
        <time>2019-12-31T19:12:19Z</time>
      </trkpt>
      <trkpt lat="46.76191" lon="-1.83745">
        <ele>20</ele>
        <time>2019-12-31T19:12:20Z</time>
      </trkpt>
      <trkpt lat="46.76187" lon="-1.83737">
        <ele>20</ele>
        <time>2019-12-31T19:12:21Z</time>
      </trkpt>
      <trkpt lat="46.76184" lon="-1.8373">
        <ele>20</ele>
        <time>2019-12-31T19:12:22Z</time>
      </trkpt>
      <trkpt lat="46.76182" lon="-1.83724">
        <ele>20</ele>
        <time>2019-12-31T19:12:23Z</time>
      </trkpt>
      <trkpt lat="46.76182" lon="-1.83724">
        <ele>20</ele>
        <time>2019-12-31T19:12:23Z</time>
      </trkpt>
      <trkpt lat="46.76186" lon="-1.83718">
        <ele>19</ele>
        <time>2019-12-31T19:12:24Z</time>
      </trkpt>
      <trkpt lat="46.76191" lon="-1.8371">
        <ele>19</ele>
        <time>2019-12-31T19:12:25Z</time>
      </trkpt>
      <trkpt lat="46.76195" lon="-1.83703">
        <ele>19</ele>
        <time>2019-12-31T19:12:26Z</time>
      </trkpt>
      <trkpt lat="46.762" lon="-1.83696">
        <ele>19</ele>
        <time>2019-12-31T19:12:27Z</time>
      </trkpt>
      <trkpt lat="46.76207" lon="-1.83687">
        <ele>19</ele>
        <time>2019-12-31T19:12:29Z</time>
      </trkpt>
      <trkpt lat="46.7621" lon="-1.83684">
        <ele>19</ele>
        <time>2019-12-31T19:12:30Z</time>
      </trkpt>
      <trkpt lat="46.76212" lon="-1.83682">
        <ele>19</ele>
        <time>2019-12-31T19:12:30Z</time>
      </trkpt>
      <trkpt lat="46.76218" lon="-1.83677">
        <ele>19</ele>
        <time>2019-12-31T19:12:31Z</time>
      </trkpt>
      <trkpt lat="46.76226" lon="-1.83672">
        <ele>19</ele>
        <time>2019-12-31T19:12:33Z</time>
      </trkpt>
      <trkpt lat="46.76234" lon="-1.83668">
        <ele>19</ele>
        <time>2019-12-31T19:12:34Z</time>
      </trkpt>
      <trkpt lat="46.7624" lon="-1.83666">
        <ele>19</ele>
        <time>2019-12-31T19:12:36Z</time>
      </trkpt>
      <trkpt lat="46.76247" lon="-1.83667">
        <ele>19</ele>
        <time>2019-12-31T19:12:37Z</time>
      </trkpt>
      <trkpt lat="46.76247" lon="-1.83667">
        <ele>19</ele>
        <time>2019-12-31T19:12:37Z</time>
      </trkpt>
      <trkpt lat="46.76245" lon="-1.83656">
        <ele>19</ele>
        <time>2019-12-31T19:12:38Z</time>
      </trkpt>
      <trkpt lat="46.76244" lon="-1.83645">
        <ele>18</ele>
        <time>2019-12-31T19:12:40Z</time>
      </trkpt>
      <trkpt lat="46.76242" lon="-1.83635">
        <ele>18</ele>
        <time>2019-12-31T19:12:41Z</time>
      </trkpt>
      <trkpt lat="46.76241" lon="-1.83628">
        <ele>18</ele>
        <time>2019-12-31T19:12:42Z</time>
      </trkpt>
      <trkpt lat="46.76236" lon="-1.83607">
        <ele>18</ele>
        <time>2019-12-31T19:12:44Z</time>
      </trkpt>
      <trkpt lat="46.76235" lon="-1.83602">
        <ele>18</ele>
        <time>2019-12-31T19:12:45Z</time>
      </trkpt>
      <trkpt lat="46.76232" lon="-1.83593">
        <ele>17</ele>
        <time>2019-12-31T19:12:46Z</time>
      </trkpt>
      <trkpt lat="46.76229" lon="-1.83581">
        <ele>17</ele>
        <time>2019-12-31T19:12:48Z</time>
      </trkpt>
      <trkpt lat="46.76223" lon="-1.83558">
        <ele>17</ele>
        <time>2019-12-31T19:12:51Z</time>
      </trkpt>
      <trkpt lat="46.76221" lon="-1.83549">
        <ele>17</ele>
        <time>2019-12-31T19:12:52Z</time>
      </trkpt>
      <trkpt lat="46.76211" lon="-1.8351">
        <ele>17</ele>
        <time>2019-12-31T19:12:57Z</time>
      </trkpt>
      <trkpt lat="46.76199" lon="-1.83463">
        <ele>17</ele>
        <time>2019-12-31T19:13:03Z</time>
      </trkpt>
      <trkpt lat="46.76187" lon="-1.83416">
        <ele>17</ele>
        <time>2019-12-31T19:13:09Z</time>
      </trkpt>
      <trkpt lat="46.76182" lon="-1.834">
        <ele>17</ele>
        <time>2019-12-31T19:13:11Z</time>
      </trkpt>
      <trkpt lat="46.76165" lon="-1.83332">
        <ele>16</ele>
        <time>2019-12-31T19:13:20Z</time>
      </trkpt>
      <trkpt lat="46.76155" lon="-1.83296">
        <ele>15</ele>
        <time>2019-12-31T19:13:25Z</time>
      </trkpt>
      <trkpt lat="46.76147" lon="-1.83267">
        <ele>15</ele>
        <time>2019-12-31T19:13:29Z</time>
      </trkpt>
      <trkpt lat="46.76137" lon="-1.83226">
        <ele>14</ele>
        <time>2019-12-31T19:13:34Z</time>
      </trkpt>
      <trkpt lat="46.76134" lon="-1.83214">
        <ele>14</ele>
        <time>2019-12-31T19:13:36Z</time>
      </trkpt>
      <trkpt lat="46.76126" lon="-1.83183">
        <ele>13</ele>
        <time>2019-12-31T19:13:40Z</time>
      </trkpt>
      <trkpt lat="46.76113" lon="-1.83134">
        <ele>13</ele>
        <time>2019-12-31T19:13:46Z</time>
      </trkpt>
      <trkpt lat="46.76103" lon="-1.83097">
        <ele>13</ele>
        <time>2019-12-31T19:13:51Z</time>
      </trkpt>
      <trkpt lat="46.76093" lon="-1.83059">
        <ele>12</ele>
        <time>2019-12-31T19:13:56Z</time>
      </trkpt>
      <trkpt lat="46.76083" lon="-1.8302">
        <ele>11</ele>
        <time>2019-12-31T19:14:01Z</time>
      </trkpt>
      <trkpt lat="46.76069" lon="-1.82964">
        <ele>9</ele>
        <time>2019-12-31T19:14:08Z</time>
      </trkpt>
      <trkpt lat="46.76062" lon="-1.82937">
        <ele>8</ele>
        <time>2019-12-31T19:14:12Z</time>
      </trkpt>
      <trkpt lat="46.76055" lon="-1.82908">
        <ele>7</ele>
        <time>2019-12-31T19:14:15Z</time>
      </trkpt>
      <trkpt lat="46.76041" lon="-1.82855">
        <ele>8</ele>
        <time>2019-12-31T19:14:22Z</time>
      </trkpt>
      <trkpt lat="46.76032" lon="-1.82816">
        <ele>8</ele>
        <time>2019-12-31T19:14:27Z</time>
      </trkpt>
      <trkpt lat="46.76023" lon="-1.82781">
        <ele>8</ele>
        <time>2019-12-31T19:14:32Z</time>
      </trkpt>
      <trkpt lat="46.76021" lon="-1.82775">
        <ele>8</ele>
        <time>2019-12-31T19:14:33Z</time>
      </trkpt>
      <trkpt lat="46.7601" lon="-1.82731">
        <ele>8</ele>
        <time>2019-12-31T19:14:39Z</time>
      </trkpt>
      <trkpt lat="46.76007" lon="-1.8272">
        <ele>8</ele>
        <time>2019-12-31T19:14:40Z</time>
      </trkpt>
      <trkpt lat="46.75996" lon="-1.82677">
        <ele>8</ele>
        <time>2019-12-31T19:14:46Z</time>
      </trkpt>
      <trkpt lat="46.7598" lon="-1.82616">
        <ele>8</ele>
        <time>2019-12-31T19:14:54Z</time>
      </trkpt>
      <trkpt lat="46.75964" lon="-1.82552">
        <ele>8</ele>
        <time>2019-12-31T19:15:02Z</time>
      </trkpt>
      <trkpt lat="46.75946" lon="-1.82477">
        <ele>7</ele>
        <time>2019-12-31T19:15:12Z</time>
      </trkpt>
      <trkpt lat="46.75923" lon="-1.82387">
        <ele>7</ele>
        <time>2019-12-31T19:15:23Z</time>
      </trkpt>
      <trkpt lat="46.75913" lon="-1.82347">
        <ele>7</ele>
        <time>2019-12-31T19:15:28Z</time>
      </trkpt>
      <trkpt lat="46.75908" lon="-1.82329">
        <ele>7</ele>
        <time>2019-12-31T19:15:31Z</time>
      </trkpt>
      <trkpt lat="46.75905" lon="-1.82318">
        <ele>7</ele>
        <time>2019-12-31T19:15:32Z</time>
      </trkpt>
      <trkpt lat="46.759" lon="-1.82298">
        <ele>7</ele>
        <time>2019-12-31T19:15:35Z</time>
      </trkpt>
      <trkpt lat="46.75897" lon="-1.82285">
        <ele>7</ele>
        <time>2019-12-31T19:15:36Z</time>
      </trkpt>
      <trkpt lat="46.75893" lon="-1.82273">
        <ele>7</ele>
        <time>2019-12-31T19:15:38Z</time>
      </trkpt>
      <trkpt lat="46.75889" lon="-1.82262">
        <ele>7</ele>
        <time>2019-12-31T19:15:40Z</time>
      </trkpt>
      <trkpt lat="46.75886" lon="-1.82253">
        <ele>7</ele>
        <time>2019-12-31T19:15:41Z</time>
      </trkpt>
      <trkpt lat="46.75884" lon="-1.82249">
        <ele>7</ele>
        <time>2019-12-31T19:15:41Z</time>
      </trkpt>
      <trkpt lat="46.75883" lon="-1.82246">
        <ele>7</ele>
        <time>2019-12-31T19:15:42Z</time>
      </trkpt>
      <trkpt lat="46.75877" lon="-1.8223">
        <ele>7</ele>
        <time>2019-12-31T19:15:44Z</time>
      </trkpt>
      <trkpt lat="46.75867" lon="-1.82208">
        <ele>7</ele>
        <time>2019-12-31T19:15:47Z</time>
      </trkpt>
      <trkpt lat="46.75858" lon="-1.82191">
        <ele>7</ele>
        <time>2019-12-31T19:15:50Z</time>
      </trkpt>
      <trkpt lat="46.7585" lon="-1.82177">
        <ele>7</ele>
        <time>2019-12-31T19:15:52Z</time>
      </trkpt>
      <trkpt lat="46.7584" lon="-1.82159">
        <ele>7</ele>
        <time>2019-12-31T19:15:55Z</time>
      </trkpt>
      <trkpt lat="46.7583" lon="-1.82144">
        <ele>7</ele>
        <time>2019-12-31T19:15:58Z</time>
      </trkpt>
      <trkpt lat="46.75824" lon="-1.82136">
        <ele>7</ele>
        <time>2019-12-31T19:15:59Z</time>
      </trkpt>
      <trkpt lat="46.75815" lon="-1.82124">
        <ele>7</ele>
        <time>2019-12-31T19:16:01Z</time>
      </trkpt>
      <trkpt lat="46.75806" lon="-1.82114">
        <ele>7</ele>
        <time>2019-12-31T19:16:03Z</time>
      </trkpt>
      <trkpt lat="46.75796" lon="-1.82103">
        <ele>7</ele>
        <time>2019-12-31T19:16:05Z</time>
      </trkpt>
      <trkpt lat="46.75783" lon="-1.8209">
        <ele>7</ele>
        <time>2019-12-31T19:16:08Z</time>
      </trkpt>
      <trkpt lat="46.75767" lon="-1.82077">
        <ele>7</ele>
        <time>2019-12-31T19:16:11Z</time>
      </trkpt>
      <trkpt lat="46.75739" lon="-1.82054">
        <ele>7</ele>
        <time>2019-12-31T19:16:17Z</time>
      </trkpt>
      <trkpt lat="46.75704" lon="-1.82024">
        <ele>6</ele>
        <time>2019-12-31T19:16:24Z</time>
      </trkpt>
      <trkpt lat="46.75644" lon="-1.81975">
        <ele>6</ele>
        <time>2019-12-31T19:16:37Z</time>
      </trkpt>
      <trkpt lat="46.75614" lon="-1.81951">
        <ele>6</ele>
        <time>2019-12-31T19:16:43Z</time>
      </trkpt>
      <trkpt lat="46.75582" lon="-1.81925">
        <ele>7</ele>
        <time>2019-12-31T19:16:49Z</time>
      </trkpt>
      <trkpt lat="46.7555" lon="-1.81896">
        <ele>8</ele>
        <time>2019-12-31T19:16:56Z</time>
      </trkpt>
      <trkpt lat="46.75541" lon="-1.81887">
        <ele>8</ele>
        <time>2019-12-31T19:16:58Z</time>
      </trkpt>
      <trkpt lat="46.75533" lon="-1.81879">
        <ele>8</ele>
        <time>2019-12-31T19:17:00Z</time>
      </trkpt>
      <trkpt lat="46.75525" lon="-1.81869">
        <ele>8</ele>
        <time>2019-12-31T19:17:01Z</time>
      </trkpt>
      <trkpt lat="46.75516" lon="-1.81858">
        <ele>9</ele>
        <time>2019-12-31T19:17:04Z</time>
      </trkpt>
      <trkpt lat="46.75509" lon="-1.8185">
        <ele>9</ele>
        <time>2019-12-31T19:17:05Z</time>
      </trkpt>
      <trkpt lat="46.75502" lon="-1.8184">
        <ele>9</ele>
        <time>2019-12-31T19:17:07Z</time>
      </trkpt>
      <trkpt lat="46.75493" lon="-1.81829">
        <ele>9</ele>
        <time>2019-12-31T19:17:09Z</time>
      </trkpt>
      <trkpt lat="46.75484" lon="-1.81816">
        <ele>9</ele>
        <time>2019-12-31T19:17:11Z</time>
      </trkpt>
      <trkpt lat="46.75474" lon="-1.81802">
        <ele>9</ele>
        <time>2019-12-31T19:17:14Z</time>
      </trkpt>
      <trkpt lat="46.75467" lon="-1.8179">
        <ele>9</ele>
        <time>2019-12-31T19:17:16Z</time>
      </trkpt>
      <trkpt lat="46.7546" lon="-1.81778">
        <ele>9</ele>
        <time>2019-12-31T19:17:18Z</time>
      </trkpt>
      <trkpt lat="46.75456" lon="-1.81772">
        <ele>9</ele>
        <time>2019-12-31T19:17:19Z</time>
      </trkpt>
      <trkpt lat="46.75447" lon="-1.81754">
        <ele>9</ele>
        <time>2019-12-31T19:17:21Z</time>
      </trkpt>
      <trkpt lat="46.75429" lon="-1.81716">
        <ele>9</ele>
        <time>2019-12-31T19:17:27Z</time>
      </trkpt>
      <trkpt lat="46.75399" lon="-1.81648">
        <ele>9</ele>
        <time>2019-12-31T19:17:37Z</time>
      </trkpt>
      <trkpt lat="46.75378" lon="-1.81599">
        <ele>9</ele>
        <time>2019-12-31T19:17:44Z</time>
      </trkpt>
      <trkpt lat="46.75354" lon="-1.81545">
        <ele>8</ele>
        <time>2019-12-31T19:17:52Z</time>
      </trkpt>
      <trkpt lat="46.7533" lon="-1.81491">
        <ele>9</ele>
        <time>2019-12-31T19:17:59Z</time>
      </trkpt>
      <trkpt lat="46.75311" lon="-1.81446">
        <ele>9</ele>
        <time>2019-12-31T19:18:06Z</time>
      </trkpt>
      <trkpt lat="46.75278" lon="-1.81373">
        <ele>10</ele>
        <time>2019-12-31T19:18:17Z</time>
      </trkpt>
      <trkpt lat="46.75272" lon="-1.81358">
        <ele>10</ele>
        <time>2019-12-31T19:18:19Z</time>
      </trkpt>
      <trkpt lat="46.75256" lon="-1.81322">
        <ele>10</ele>
        <time>2019-12-31T19:18:24Z</time>
      </trkpt>
      <trkpt lat="46.75244" lon="-1.81293">
        <ele>10</ele>
        <time>2019-12-31T19:18:28Z</time>
      </trkpt>
      <trkpt lat="46.75226" lon="-1.81242">
        <ele>10</ele>
        <time>2019-12-31T19:18:35Z</time>
      </trkpt>
      <trkpt lat="46.7522" lon="-1.81224">
        <ele>10</ele>
        <time>2019-12-31T19:18:37Z</time>
      </trkpt>
      <trkpt lat="46.75215" lon="-1.81201">
        <ele>10</ele>
        <time>2019-12-31T19:18:40Z</time>
      </trkpt>
      <trkpt lat="46.7521" lon="-1.81184">
        <ele>10</ele>
        <time>2019-12-31T19:18:43Z</time>
      </trkpt>
      <trkpt lat="46.75207" lon="-1.81169">
        <ele>10</ele>
        <time>2019-12-31T19:18:45Z</time>
      </trkpt>
      <trkpt lat="46.75204" lon="-1.81152">
        <ele>10</ele>
        <time>2019-12-31T19:18:47Z</time>
      </trkpt>
      <trkpt lat="46.752" lon="-1.81132">
        <ele>10</ele>
        <time>2019-12-31T19:18:49Z</time>
      </trkpt>
      <trkpt lat="46.75195" lon="-1.81098">
        <ele>10</ele>
        <time>2019-12-31T19:18:54Z</time>
      </trkpt>
      <trkpt lat="46.75185" lon="-1.81037">
        <ele>10</ele>
        <time>2019-12-31T19:19:01Z</time>
      </trkpt>
      <trkpt lat="46.75169" lon="-1.80939">
        <ele>11</ele>
        <time>2019-12-31T19:19:13Z</time>
      </trkpt>
      <trkpt lat="46.75157" lon="-1.80862">
        <ele>11</ele>
        <time>2019-12-31T19:19:23Z</time>
      </trkpt>
      <trkpt lat="46.75144" lon="-1.80784">
        <ele>11</ele>
        <time>2019-12-31T19:19:33Z</time>
      </trkpt>
      <trkpt lat="46.75135" lon="-1.8073">
        <ele>11</ele>
        <time>2019-12-31T19:19:40Z</time>
      </trkpt>
      <trkpt lat="46.7513" lon="-1.80699">
        <ele>11</ele>
        <time>2019-12-31T19:19:44Z</time>
      </trkpt>
      <trkpt lat="46.75127" lon="-1.80676">
        <ele>11</ele>
        <time>2019-12-31T19:19:46Z</time>
      </trkpt>
      <trkpt lat="46.75115" lon="-1.80604">
        <ele>13</ele>
        <time>2019-12-31T19:19:55Z</time>
      </trkpt>
      <trkpt lat="46.75113" lon="-1.80589">
        <ele>14</ele>
        <time>2019-12-31T19:19:57Z</time>
      </trkpt>
      <trkpt lat="46.75102" lon="-1.80526">
        <ele>14</ele>
        <time>2019-12-31T19:20:05Z</time>
      </trkpt>
      <trkpt lat="46.75097" lon="-1.80489">
        <ele>15</ele>
        <time>2019-12-31T19:20:10Z</time>
      </trkpt>
      <trkpt lat="46.75088" lon="-1.80437">
        <ele>14</ele>
        <time>2019-12-31T19:20:16Z</time>
      </trkpt>
      <trkpt lat="46.75079" lon="-1.8038">
        <ele>15</ele>
        <time>2019-12-31T19:20:23Z</time>
      </trkpt>
      <trkpt lat="46.75066" lon="-1.803">
        <ele>16</ele>
        <time>2019-12-31T19:20:33Z</time>
      </trkpt>
      <trkpt lat="46.75066" lon="-1.80298">
        <ele>16</ele>
        <time>2019-12-31T19:20:34Z</time>
      </trkpt>
      <trkpt lat="46.75059" lon="-1.80247">
        <ele>16</ele>
        <time>2019-12-31T19:20:40Z</time>
      </trkpt>
      <trkpt lat="46.75055" lon="-1.80218">
        <ele>15</ele>
        <time>2019-12-31T19:20:44Z</time>
      </trkpt>
      <trkpt lat="46.75048" lon="-1.8018">
        <ele>13</ele>
        <time>2019-12-31T19:20:48Z</time>
      </trkpt>
      <trkpt lat="46.75039" lon="-1.80127">
        <ele>12</ele>
        <time>2019-12-31T19:20:55Z</time>
      </trkpt>
      <trkpt lat="46.75039" lon="-1.80125">
        <ele>12</ele>
        <time>2019-12-31T19:20:55Z</time>
      </trkpt>
      <trkpt lat="46.75034" lon="-1.80092">
        <ele>12</ele>
        <time>2019-12-31T19:20:59Z</time>
      </trkpt>
      <trkpt lat="46.75026" lon="-1.80044">
        <ele>13</ele>
        <time>2019-12-31T19:21:06Z</time>
      </trkpt>
      <trkpt lat="46.75021" lon="-1.80014">
        <ele>13</ele>
        <time>2019-12-31T19:21:09Z</time>
      </trkpt>
      <trkpt lat="46.75017" lon="-1.79991">
        <ele>13</ele>
        <time>2019-12-31T19:21:12Z</time>
      </trkpt>
      <trkpt lat="46.75011" lon="-1.79963">
        <ele>12</ele>
        <time>2019-12-31T19:21:16Z</time>
      </trkpt>
      <trkpt lat="46.75004" lon="-1.79943">
        <ele>12</ele>
        <time>2019-12-31T19:21:18Z</time>
      </trkpt>
      <trkpt lat="46.74997" lon="-1.79926">
        <ele>11</ele>
        <time>2019-12-31T19:21:21Z</time>
      </trkpt>
      <trkpt lat="46.74988" lon="-1.79908">
        <ele>10</ele>
        <time>2019-12-31T19:21:24Z</time>
      </trkpt>
      <trkpt lat="46.74981" lon="-1.79895">
        <ele>10</ele>
        <time>2019-12-31T19:21:26Z</time>
      </trkpt>
      <trkpt lat="46.74974" lon="-1.79884">
        <ele>9</ele>
        <time>2019-12-31T19:21:27Z</time>
      </trkpt>
      <trkpt lat="46.74954" lon="-1.79854">
        <ele>7</ele>
        <time>2019-12-31T19:21:33Z</time>
      </trkpt>
      <trkpt lat="46.74927" lon="-1.79817">
        <ele>6</ele>
        <time>2019-12-31T19:21:39Z</time>
      </trkpt>
      <trkpt lat="46.74895" lon="-1.79771">
        <ele>6</ele>
        <time>2019-12-31T19:21:47Z</time>
      </trkpt>
      <trkpt lat="46.74887" lon="-1.79761">
        <ele>6</ele>
        <time>2019-12-31T19:21:49Z</time>
      </trkpt>
      <trkpt lat="46.7488" lon="-1.79751">
        <ele>6</ele>
        <time>2019-12-31T19:21:51Z</time>
      </trkpt>
      <trkpt lat="46.74873" lon="-1.79744">
        <ele>6</ele>
        <time>2019-12-31T19:21:52Z</time>
      </trkpt>
      <trkpt lat="46.74866" lon="-1.79737">
        <ele>6</ele>
        <time>2019-12-31T19:21:54Z</time>
      </trkpt>
      <trkpt lat="46.74857" lon="-1.79731">
        <ele>6</ele>
        <time>2019-12-31T19:21:56Z</time>
      </trkpt>
      <trkpt lat="46.74849" lon="-1.79726">
        <ele>6</ele>
        <time>2019-12-31T19:21:57Z</time>
      </trkpt>
      <trkpt lat="46.74838" lon="-1.79723">
        <ele>6</ele>
        <time>2019-12-31T19:21:59Z</time>
      </trkpt>
      <trkpt lat="46.74836" lon="-1.79722">
        <ele>6</ele>
        <time>2019-12-31T19:21:59Z</time>
      </trkpt>
      <trkpt lat="46.74831" lon="-1.7972">
        <ele>6</ele>
        <time>2019-12-31T19:22:00Z</time>
      </trkpt>
      <trkpt lat="46.74825" lon="-1.79719">
        <ele>7</ele>
        <time>2019-12-31T19:22:01Z</time>
      </trkpt>
      <trkpt lat="46.74816" lon="-1.79716">
        <ele>7</ele>
        <time>2019-12-31T19:22:03Z</time>
      </trkpt>
      <trkpt lat="46.74807" lon="-1.79714">
        <ele>7</ele>
        <time>2019-12-31T19:22:05Z</time>
      </trkpt>
      <trkpt lat="46.74801" lon="-1.79712">
        <ele>7</ele>
        <time>2019-12-31T19:22:06Z</time>
      </trkpt>
      <trkpt lat="46.74785" lon="-1.79706">
        <ele>8</ele>
        <time>2019-12-31T19:22:09Z</time>
      </trkpt>
      <trkpt lat="46.74784" lon="-1.79705">
        <ele>8</ele>
        <time>2019-12-31T19:22:09Z</time>
      </trkpt>
      <trkpt lat="46.74774" lon="-1.79701">
        <ele>8</ele>
        <time>2019-12-31T19:22:11Z</time>
      </trkpt>
      <trkpt lat="46.74766" lon="-1.79697">
        <ele>9</ele>
        <time>2019-12-31T19:22:12Z</time>
      </trkpt>
      <trkpt lat="46.74757" lon="-1.79692">
        <ele>9</ele>
        <time>2019-12-31T19:22:14Z</time>
      </trkpt>
      <trkpt lat="46.74751" lon="-1.79688">
        <ele>9</ele>
        <time>2019-12-31T19:22:15Z</time>
      </trkpt>
      <trkpt lat="46.74738" lon="-1.79679">
        <ele>10</ele>
        <time>2019-12-31T19:22:18Z</time>
      </trkpt>
      <trkpt lat="46.74714" lon="-1.79662">
        <ele>12</ele>
        <time>2019-12-31T19:22:23Z</time>
      </trkpt>
      <trkpt lat="46.74687" lon="-1.79641">
        <ele>13</ele>
        <time>2019-12-31T19:22:28Z</time>
      </trkpt>
      <trkpt lat="46.74682" lon="-1.79636">
        <ele>13</ele>
        <time>2019-12-31T19:22:29Z</time>
      </trkpt>
      <trkpt lat="46.74653" lon="-1.79613">
        <ele>14</ele>
        <time>2019-12-31T19:22:35Z</time>
      </trkpt>
      <trkpt lat="46.74636" lon="-1.79599">
        <ele>14</ele>
        <time>2019-12-31T19:22:38Z</time>
      </trkpt>
      <trkpt lat="46.74636" lon="-1.79599">
        <ele>14</ele>
        <time>2019-12-31T19:22:38Z</time>
      </trkpt>
      <trkpt lat="46.74635" lon="-1.79626">
        <ele>15</ele>
        <time>2019-12-31T19:22:42Z</time>
      </trkpt>
      <trkpt lat="46.74633" lon="-1.79673">
        <ele>15</ele>
        <time>2019-12-31T19:22:47Z</time>
      </trkpt>
      <trkpt lat="46.74629" lon="-1.79734">
        <ele>14</ele>
        <time>2019-12-31T19:22:55Z</time>
      </trkpt>
      <trkpt lat="46.74628" lon="-1.79751">
        <ele>13</ele>
        <time>2019-12-31T19:22:57Z</time>
      </trkpt>
      <trkpt lat="46.74628" lon="-1.79758">
        <ele>13</ele>
        <time>2019-12-31T19:22:58Z</time>
      </trkpt>
      <trkpt lat="46.74627" lon="-1.79761">
        <ele>14</ele>
        <time>2019-12-31T19:22:58Z</time>
      </trkpt>
      <trkpt lat="46.74624" lon="-1.79768">
        <ele>14</ele>
        <time>2019-12-31T19:22:59Z</time>
      </trkpt>
      <trkpt lat="46.74622" lon="-1.79774">
        <ele>14</ele>
        <time>2019-12-31T19:23:00Z</time>
      </trkpt>
      <trkpt lat="46.74621" lon="-1.79775">
        <ele>14</ele>
        <time>2019-12-31T19:23:00Z</time>
      </trkpt>
      <trkpt lat="46.74616" lon="-1.79788">
        <ele>14</ele>
        <time>2019-12-31T19:23:02Z</time>
      </trkpt>
      <trkpt lat="46.74612" lon="-1.79796">
        <ele>15</ele>
        <time>2019-12-31T19:23:03Z</time>
      </trkpt>
      <trkpt lat="46.74612" lon="-1.79796">
        <ele>15</ele>
        <time>2019-12-31T19:23:03Z</time>
      </trkpt>
      <trkpt lat="46.74619" lon="-1.79836">
        <ele>15</ele>
        <time>2019-12-31T19:23:08Z</time>
      </trkpt>
      <trkpt lat="46.74621" lon="-1.79854">
        <ele>15</ele>
        <time>2019-12-31T19:23:11Z</time>
      </trkpt>
      <trkpt lat="46.74621" lon="-1.79856">
        <ele>15</ele>
        <time>2019-12-31T19:23:11Z</time>
      </trkpt>
      <trkpt lat="46.74621" lon="-1.79869">
        <ele>15</ele>
        <time>2019-12-31T19:23:12Z</time>
      </trkpt>
      <trkpt lat="46.74621" lon="-1.79889">
        <ele>15</ele>
        <time>2019-12-31T19:23:15Z</time>
      </trkpt>
      <trkpt lat="46.74618" lon="-1.79939">
        <ele>15</ele>
        <time>2019-12-31T19:23:21Z</time>
      </trkpt>
      <trkpt lat="46.74613" lon="-1.80001">
        <ele>16</ele>
        <time>2019-12-31T19:23:29Z</time>
      </trkpt>
      <trkpt lat="46.74608" lon="-1.80068">
        <ele>17</ele>
        <time>2019-12-31T19:23:37Z</time>
      </trkpt>
      <trkpt lat="46.74606" lon="-1.80097">
        <ele>17</ele>
        <time>2019-12-31T19:23:40Z</time>
      </trkpt>
      <trkpt lat="46.74603" lon="-1.80116">
        <ele>17</ele>
        <time>2019-12-31T19:23:43Z</time>
      </trkpt>
      <trkpt lat="46.74601" lon="-1.80134">
        <ele>17</ele>
        <time>2019-12-31T19:23:45Z</time>
      </trkpt>
      <trkpt lat="46.74599" lon="-1.80149">
        <ele>17</ele>
        <time>2019-12-31T19:23:47Z</time>
      </trkpt>
      <trkpt lat="46.74598" lon="-1.80155">
        <ele>17</ele>
        <time>2019-12-31T19:23:48Z</time>
      </trkpt>
      <trkpt lat="46.74594" lon="-1.8017">
        <ele>17</ele>
        <time>2019-12-31T19:23:50Z</time>
      </trkpt>
      <trkpt lat="46.74591" lon="-1.80184">
        <ele>17</ele>
        <time>2019-12-31T19:23:51Z</time>
      </trkpt>
      <trkpt lat="46.74587" lon="-1.80197">
        <ele>17</ele>
        <time>2019-12-31T19:23:53Z</time>
      </trkpt>
      <trkpt lat="46.74582" lon="-1.80208">
        <ele>18</ele>
        <time>2019-12-31T19:23:55Z</time>
      </trkpt>
      <trkpt lat="46.74576" lon="-1.80223">
        <ele>18</ele>
        <time>2019-12-31T19:23:57Z</time>
      </trkpt>
      <trkpt lat="46.74569" lon="-1.80237">
        <ele>18</ele>
        <time>2019-12-31T19:23:59Z</time>
      </trkpt>
      <trkpt lat="46.74557" lon="-1.80255">
        <ele>18</ele>
        <time>2019-12-31T19:24:02Z</time>
      </trkpt>
      <trkpt lat="46.7454" lon="-1.80281">
        <ele>18</ele>
        <time>2019-12-31T19:24:06Z</time>
      </trkpt>
      <trkpt lat="46.74516" lon="-1.80316">
        <ele>18</ele>
        <time>2019-12-31T19:24:12Z</time>
      </trkpt>
      <trkpt lat="46.74508" lon="-1.80327">
        <ele>18</ele>
        <time>2019-12-31T19:24:14Z</time>
      </trkpt>
      <trkpt lat="46.7448" lon="-1.80369">
        <ele>19</ele>
        <time>2019-12-31T19:24:21Z</time>
      </trkpt>
      <trkpt lat="46.7445" lon="-1.80413">
        <ele>20</ele>
        <time>2019-12-31T19:24:29Z</time>
      </trkpt>
      <trkpt lat="46.74446" lon="-1.80418">
        <ele>20</ele>
        <time>2019-12-31T19:24:30Z</time>
      </trkpt>
      <trkpt lat="46.74401" lon="-1.80483">
        <ele>20</ele>
        <time>2019-12-31T19:24:41Z</time>
      </trkpt>
      <trkpt lat="46.7435" lon="-1.80557">
        <ele>20</ele>
        <time>2019-12-31T19:24:54Z</time>
      </trkpt>
      <trkpt lat="46.74303" lon="-1.80624">
        <ele>19</ele>
        <time>2019-12-31T19:25:06Z</time>
      </trkpt>
      <trkpt lat="46.74295" lon="-1.80636">
        <ele>19</ele>
        <time>2019-12-31T19:25:08Z</time>
      </trkpt>
      <trkpt lat="46.74281" lon="-1.80656">
        <ele>19</ele>
        <time>2019-12-31T19:25:11Z</time>
      </trkpt>
      <trkpt lat="46.74254" lon="-1.80694">
        <ele>19</ele>
        <time>2019-12-31T19:25:18Z</time>
      </trkpt>
      <trkpt lat="46.74233" lon="-1.80727">
        <ele>19</ele>
        <time>2019-12-31T19:25:23Z</time>
      </trkpt>
      <trkpt lat="46.74226" lon="-1.8074">
        <ele>19</ele>
        <time>2019-12-31T19:25:25Z</time>
      </trkpt>
      <trkpt lat="46.7422" lon="-1.80751">
        <ele>19</ele>
        <time>2019-12-31T19:25:27Z</time>
      </trkpt>
      <trkpt lat="46.74215" lon="-1.80761">
        <ele>19</ele>
        <time>2019-12-31T19:25:29Z</time>
      </trkpt>
      <trkpt lat="46.7421" lon="-1.80775">
        <ele>20</ele>
        <time>2019-12-31T19:25:31Z</time>
      </trkpt>
      <trkpt lat="46.74204" lon="-1.80789">
        <ele>20</ele>
        <time>2019-12-31T19:25:33Z</time>
      </trkpt>
      <trkpt lat="46.74198" lon="-1.80806">
        <ele>20</ele>
        <time>2019-12-31T19:25:35Z</time>
      </trkpt>
      <trkpt lat="46.74191" lon="-1.80825">
        <ele>20</ele>
        <time>2019-12-31T19:25:38Z</time>
      </trkpt>
      <trkpt lat="46.74185" lon="-1.80851">
        <ele>21</ele>
        <time>2019-12-31T19:25:41Z</time>
      </trkpt>
      <trkpt lat="46.74183" lon="-1.8086">
        <ele>21</ele>
        <time>2019-12-31T19:25:42Z</time>
      </trkpt>
      <trkpt lat="46.74182" lon="-1.80866">
        <ele>21</ele>
        <time>2019-12-31T19:25:43Z</time>
      </trkpt>
      <trkpt lat="46.7417" lon="-1.80911">
        <ele>21</ele>
        <time>2019-12-31T19:25:49Z</time>
      </trkpt>
      <trkpt lat="46.74158" lon="-1.8096">
        <ele>21</ele>
        <time>2019-12-31T19:25:55Z</time>
      </trkpt>
      <trkpt lat="46.74145" lon="-1.81014">
        <ele>21</ele>
        <time>2019-12-31T19:26:02Z</time>
      </trkpt>
      <trkpt lat="46.74133" lon="-1.81068">
        <ele>22</ele>
        <time>2019-12-31T19:26:09Z</time>
      </trkpt>
      <trkpt lat="46.74123" lon="-1.8111">
        <ele>22</ele>
        <time>2019-12-31T19:26:14Z</time>
      </trkpt>
      <trkpt lat="46.74112" lon="-1.8116">
        <ele>22</ele>
        <time>2019-12-31T19:26:21Z</time>
      </trkpt>
      <trkpt lat="46.74099" lon="-1.81217">
        <ele>22</ele>
        <time>2019-12-31T19:26:28Z</time>
      </trkpt>
      <trkpt lat="46.7409" lon="-1.81255">
        <ele>23</ele>
        <time>2019-12-31T19:26:33Z</time>
      </trkpt>
      <trkpt lat="46.74084" lon="-1.8128">
        <ele>23</ele>
        <time>2019-12-31T19:26:36Z</time>
      </trkpt>
      <trkpt lat="46.74078" lon="-1.81305">
        <ele>23</ele>
        <time>2019-12-31T19:26:39Z</time>
      </trkpt>
      <trkpt lat="46.74074" lon="-1.8132">
        <ele>23</ele>
        <time>2019-12-31T19:26:41Z</time>
      </trkpt>
      <trkpt lat="46.74072" lon="-1.81333">
        <ele>23</ele>
        <time>2019-12-31T19:26:43Z</time>
      </trkpt>
      <trkpt lat="46.7407" lon="-1.81348">
        <ele>23</ele>
        <time>2019-12-31T19:26:45Z</time>
      </trkpt>
      <trkpt lat="46.74069" lon="-1.81362">
        <ele>23</ele>
        <time>2019-12-31T19:26:47Z</time>
      </trkpt>
      <trkpt lat="46.74068" lon="-1.81377">
        <ele>23</ele>
        <time>2019-12-31T19:26:48Z</time>
      </trkpt>
      <trkpt lat="46.74068" lon="-1.81396">
        <ele>22</ele>
        <time>2019-12-31T19:26:51Z</time>
      </trkpt>
      <trkpt lat="46.74069" lon="-1.81428">
        <ele>22</ele>
        <time>2019-12-31T19:26:55Z</time>
      </trkpt>
      <trkpt lat="46.74075" lon="-1.8158">
        <ele>21</ele>
        <time>2019-12-31T19:27:13Z</time>
      </trkpt>
      <trkpt lat="46.7408" lon="-1.81702">
        <ele>20</ele>
        <time>2019-12-31T19:27:28Z</time>
      </trkpt>
      <trkpt lat="46.74083" lon="-1.81811">
        <ele>18</ele>
        <time>2019-12-31T19:27:41Z</time>
      </trkpt>
      <trkpt lat="46.74083" lon="-1.81834">
        <ele>18</ele>
        <time>2019-12-31T19:27:44Z</time>
      </trkpt>
      <trkpt lat="46.74084" lon="-1.81849">
        <ele>18</ele>
        <time>2019-12-31T19:27:46Z</time>
      </trkpt>
      <trkpt lat="46.74085" lon="-1.81863">
        <ele>17</ele>
        <time>2019-12-31T19:27:48Z</time>
      </trkpt>
      <trkpt lat="46.74086" lon="-1.81876">
        <ele>17</ele>
        <time>2019-12-31T19:27:49Z</time>
      </trkpt>
      <trkpt lat="46.74089" lon="-1.81896">
        <ele>16</ele>
        <time>2019-12-31T19:27:52Z</time>
      </trkpt>
      <trkpt lat="46.74092" lon="-1.81917">
        <ele>16</ele>
        <time>2019-12-31T19:27:54Z</time>
      </trkpt>
      <trkpt lat="46.74096" lon="-1.81936">
        <ele>16</ele>
        <time>2019-12-31T19:27:57Z</time>
      </trkpt>
      <trkpt lat="46.74099" lon="-1.81956">
        <ele>16</ele>
        <time>2019-12-31T19:27:59Z</time>
      </trkpt>
      <trkpt lat="46.74109" lon="-1.8201">
        <ele>16</ele>
        <time>2019-12-31T19:28:06Z</time>
      </trkpt>
      <trkpt lat="46.74113" lon="-1.82032">
        <ele>16</ele>
        <time>2019-12-31T19:28:09Z</time>
      </trkpt>
      <trkpt lat="46.74115" lon="-1.82049">
        <ele>16</ele>
        <time>2019-12-31T19:28:11Z</time>
      </trkpt>
      <trkpt lat="46.74116" lon="-1.82065">
        <ele>16</ele>
        <time>2019-12-31T19:28:13Z</time>
      </trkpt>
      <trkpt lat="46.74115" lon="-1.82078">
        <ele>16</ele>
        <time>2019-12-31T19:28:15Z</time>
      </trkpt>
      <trkpt lat="46.74114" lon="-1.82089">
        <ele>16</ele>
        <time>2019-12-31T19:28:16Z</time>
      </trkpt>
      <trkpt lat="46.74114" lon="-1.82089">
        <ele>16</ele>
        <time>2019-12-31T19:28:16Z</time>
      </trkpt>
      <trkpt lat="46.74115" lon="-1.8209">
        <ele>16</ele>
        <time>2019-12-31T19:28:16Z</time>
      </trkpt>
      <trkpt lat="46.74116" lon="-1.82091">
        <ele>16</ele>
        <time>2019-12-31T19:28:16Z</time>
      </trkpt>
      <trkpt lat="46.74117" lon="-1.82093">
        <ele>16</ele>
        <time>2019-12-31T19:28:17Z</time>
      </trkpt>
      <trkpt lat="46.74118" lon="-1.82094">
        <ele>16</ele>
        <time>2019-12-31T19:28:17Z</time>
      </trkpt>
      <trkpt lat="46.74118" lon="-1.82096">
        <ele>16</ele>
        <time>2019-12-31T19:28:17Z</time>
      </trkpt>
      <trkpt lat="46.74118" lon="-1.82098">
        <ele>16</ele>
        <time>2019-12-31T19:28:17Z</time>
      </trkpt>
      <trkpt lat="46.74117" lon="-1.82101">
        <ele>16</ele>
        <time>2019-12-31T19:28:18Z</time>
      </trkpt>
      <trkpt lat="46.74117" lon="-1.82102">
        <ele>16</ele>
        <time>2019-12-31T19:28:18Z</time>
      </trkpt>
      <trkpt lat="46.74116" lon="-1.82104">
        <ele>16</ele>
        <time>2019-12-31T19:28:18Z</time>
      </trkpt>
      <trkpt lat="46.74115" lon="-1.82105">
        <ele>16</ele>
        <time>2019-12-31T19:28:19Z</time>
      </trkpt>
      <trkpt lat="46.74114" lon="-1.82106">
        <ele>16</ele>
        <time>2019-12-31T19:28:19Z</time>
      </trkpt>
      <trkpt lat="46.74113" lon="-1.82107">
        <ele>16</ele>
        <time>2019-12-31T19:28:19Z</time>
      </trkpt>
      <trkpt lat="46.74111" lon="-1.82107">
        <ele>16</ele>
        <time>2019-12-31T19:28:19Z</time>
      </trkpt>
      <trkpt lat="46.7411" lon="-1.82106">
        <ele>16</ele>
        <time>2019-12-31T19:28:20Z</time>
      </trkpt>
      <trkpt lat="46.74109" lon="-1.82105">
        <ele>16</ele>
        <time>2019-12-31T19:28:20Z</time>
      </trkpt>
      <trkpt lat="46.74108" lon="-1.82104">
        <ele>16</ele>
        <time>2019-12-31T19:28:20Z</time>
      </trkpt>
      <trkpt lat="46.74107" lon="-1.82102">
        <ele>16</ele>
        <time>2019-12-31T19:28:20Z</time>
      </trkpt>
      <trkpt lat="46.74104" lon="-1.82105">
        <ele>17</ele>
        <time>2019-12-31T19:28:21Z</time>
      </trkpt>
      <trkpt lat="46.74099" lon="-1.82108">
        <ele>17</ele>
        <time>2019-12-31T19:28:22Z</time>
      </trkpt>
      <trkpt lat="46.74094" lon="-1.8211">
        <ele>17</ele>
        <time>2019-12-31T19:28:23Z</time>
      </trkpt>
      <trkpt lat="46.74078" lon="-1.82118">
        <ele>17</ele>
        <time>2019-12-31T19:28:26Z</time>
      </trkpt>
      <trkpt lat="46.74074" lon="-1.82121">
        <ele>17</ele>
        <time>2019-12-31T19:28:27Z</time>
      </trkpt>
      <trkpt lat="46.74057" lon="-1.8213">
        <ele>17</ele>
        <time>2019-12-31T19:28:30Z</time>
      </trkpt>
      <trkpt lat="46.74033" lon="-1.82145">
        <ele>17</ele>
        <time>2019-12-31T19:28:34Z</time>
      </trkpt>
      <trkpt lat="46.74029" lon="-1.82148">
        <ele>17</ele>
        <time>2019-12-31T19:28:35Z</time>
      </trkpt>
      <trkpt lat="46.74019" lon="-1.82154">
        <ele>17</ele>
        <time>2019-12-31T19:28:37Z</time>
      </trkpt>
      <trkpt lat="46.74012" lon="-1.8216">
        <ele>17</ele>
        <time>2019-12-31T19:28:39Z</time>
      </trkpt>
      <trkpt lat="46.74009" lon="-1.82164">
        <ele>17</ele>
        <time>2019-12-31T19:28:39Z</time>
      </trkpt>
      <trkpt lat="46.74007" lon="-1.82171">
        <ele>17</ele>
        <time>2019-12-31T19:28:40Z</time>
      </trkpt>
      <trkpt lat="46.73997" lon="-1.82214">
        <ele>16</ele>
        <time>2019-12-31T19:28:46Z</time>
      </trkpt>
      <trkpt lat="46.73986" lon="-1.82257">
        <ele>16</ele>
        <time>2019-12-31T19:28:51Z</time>
      </trkpt>
      <trkpt lat="46.73982" lon="-1.82273">
        <ele>15</ele>
        <time>2019-12-31T19:28:53Z</time>
      </trkpt>
      <trkpt lat="46.73978" lon="-1.82285">
        <ele>15</ele>
        <time>2019-12-31T19:28:55Z</time>
      </trkpt>
      <trkpt lat="46.73974" lon="-1.82298">
        <ele>15</ele>
        <time>2019-12-31T19:28:57Z</time>
      </trkpt>
      <trkpt lat="46.73972" lon="-1.82302">
        <ele>15</ele>
        <time>2019-12-31T19:28:57Z</time>
      </trkpt>
      <trkpt lat="46.73971" lon="-1.82307">
        <ele>15</ele>
        <time>2019-12-31T19:28:58Z</time>
      </trkpt>
      <trkpt lat="46.7397" lon="-1.82309">
        <ele>15</ele>
        <time>2019-12-31T19:28:58Z</time>
      </trkpt>
      <trkpt lat="46.73968" lon="-1.82314">
        <ele>15</ele>
        <time>2019-12-31T19:28:59Z</time>
      </trkpt>
      <trkpt lat="46.73966" lon="-1.82319">
        <ele>14</ele>
        <time>2019-12-31T19:29:00Z</time>
      </trkpt>
      <trkpt lat="46.73964" lon="-1.82325">
        <ele>14</ele>
        <time>2019-12-31T19:29:01Z</time>
      </trkpt>
      <trkpt lat="46.73964" lon="-1.82325">
        <ele>14</ele>
        <time>2019-12-31T19:29:01Z</time>
      </trkpt>
      <trkpt lat="46.73964" lon="-1.82326">
        <ele>14</ele>
        <time>2019-12-31T19:29:01Z</time>
      </trkpt>
      <trkpt lat="46.73964" lon="-1.82329">
        <ele>14</ele>
        <time>2019-12-31T19:29:01Z</time>
      </trkpt>
      <trkpt lat="46.73964" lon="-1.82332">
        <ele>14</ele>
        <time>2019-12-31T19:29:01Z</time>
      </trkpt>
      <trkpt lat="46.73963" lon="-1.82335">
        <ele>14</ele>
        <time>2019-12-31T19:29:02Z</time>
      </trkpt>
      <trkpt lat="46.73962" lon="-1.82337">
        <ele>14</ele>
        <time>2019-12-31T19:29:02Z</time>
      </trkpt>
      <trkpt lat="46.73961" lon="-1.82339">
        <ele>14</ele>
        <time>2019-12-31T19:29:02Z</time>
      </trkpt>
      <trkpt lat="46.73959" lon="-1.8234">
        <ele>14</ele>
        <time>2019-12-31T19:29:03Z</time>
      </trkpt>
      <trkpt lat="46.73959" lon="-1.8235">
        <ele>14</ele>
        <time>2019-12-31T19:29:04Z</time>
      </trkpt>
      <trkpt lat="46.73958" lon="-1.82361">
        <ele>14</ele>
        <time>2019-12-31T19:29:05Z</time>
      </trkpt>
      <trkpt lat="46.73955" lon="-1.82374">
        <ele>13</ele>
        <time>2019-12-31T19:29:07Z</time>
      </trkpt>
      <trkpt lat="46.73951" lon="-1.82393">
        <ele>13</ele>
        <time>2019-12-31T19:29:10Z</time>
      </trkpt>
      <trkpt lat="46.73945" lon="-1.82415">
        <ele>13</ele>
        <time>2019-12-31T19:29:12Z</time>
      </trkpt>
      <trkpt lat="46.73936" lon="-1.82451">
        <ele>12</ele>
        <time>2019-12-31T19:29:17Z</time>
      </trkpt>
      <trkpt lat="46.73926" lon="-1.82489">
        <ele>11</ele>
        <time>2019-12-31T19:29:22Z</time>
      </trkpt>
      <trkpt lat="46.73911" lon="-1.82546">
        <ele>10</ele>
        <time>2019-12-31T19:29:29Z</time>
      </trkpt>
      <trkpt lat="46.73903" lon="-1.82577">
        <ele>9</ele>
        <time>2019-12-31T19:29:34Z</time>
      </trkpt>
      <trkpt lat="46.73897" lon="-1.82601">
        <ele>9</ele>
        <time>2019-12-31T19:29:37Z</time>
      </trkpt>
      <trkpt lat="46.73889" lon="-1.82629">
        <ele>10</ele>
        <time>2019-12-31T19:29:40Z</time>
      </trkpt>
      <trkpt lat="46.73878" lon="-1.82674">
        <ele>11</ele>
        <time>2019-12-31T19:29:46Z</time>
      </trkpt>
      <trkpt lat="46.7386" lon="-1.82741">
        <ele>12</ele>
        <time>2019-12-31T19:29:55Z</time>
      </trkpt>
      <trkpt lat="46.73848" lon="-1.82786">
        <ele>14</ele>
        <time>2019-12-31T19:30:01Z</time>
      </trkpt>
      <trkpt lat="46.73847" lon="-1.82788">
        <ele>14</ele>
        <time>2019-12-31T19:30:01Z</time>
      </trkpt>
      <trkpt lat="46.73839" lon="-1.82823">
        <ele>16</ele>
        <time>2019-12-31T19:30:06Z</time>
      </trkpt>
      <trkpt lat="46.73835" lon="-1.82839">
        <ele>16</ele>
        <time>2019-12-31T19:30:08Z</time>
      </trkpt>
      <trkpt lat="46.7383" lon="-1.82855">
        <ele>16</ele>
        <time>2019-12-31T19:30:10Z</time>
      </trkpt>
      <trkpt lat="46.73826" lon="-1.82869">
        <ele>17</ele>
        <time>2019-12-31T19:30:12Z</time>
      </trkpt>
      <trkpt lat="46.73822" lon="-1.82882">
        <ele>17</ele>
        <time>2019-12-31T19:30:13Z</time>
      </trkpt>
      <trkpt lat="46.73818" lon="-1.82893">
        <ele>17</ele>
        <time>2019-12-31T19:30:15Z</time>
      </trkpt>
      <trkpt lat="46.73814" lon="-1.82901">
        <ele>17</ele>
        <time>2019-12-31T19:30:16Z</time>
      </trkpt>
      <trkpt lat="46.73807" lon="-1.82914">
        <ele>17</ele>
        <time>2019-12-31T19:30:18Z</time>
      </trkpt>
      <trkpt lat="46.73799" lon="-1.82926">
        <ele>17</ele>
        <time>2019-12-31T19:30:20Z</time>
      </trkpt>
      <trkpt lat="46.73788" lon="-1.82939">
        <ele>18</ele>
        <time>2019-12-31T19:30:23Z</time>
      </trkpt>
      <trkpt lat="46.73776" lon="-1.82951">
        <ele>18</ele>
        <time>2019-12-31T19:30:25Z</time>
      </trkpt>
      <trkpt lat="46.73751" lon="-1.82972">
        <ele>19</ele>
        <time>2019-12-31T19:30:30Z</time>
      </trkpt>
      <trkpt lat="46.73715" lon="-1.83">
        <ele>20</ele>
        <time>2019-12-31T19:30:38Z</time>
      </trkpt>
      <trkpt lat="46.73676" lon="-1.83028">
        <ele>21</ele>
        <time>2019-12-31T19:30:45Z</time>
      </trkpt>
      <trkpt lat="46.73658" lon="-1.8304">
        <ele>21</ele>
        <time>2019-12-31T19:30:49Z</time>
      </trkpt>
      <trkpt lat="46.73647" lon="-1.83048">
        <ele>21</ele>
        <time>2019-12-31T19:30:51Z</time>
      </trkpt>
      <trkpt lat="46.73637" lon="-1.83058">
        <ele>21</ele>
        <time>2019-12-31T19:30:53Z</time>
      </trkpt>
      <trkpt lat="46.73632" lon="-1.83063">
        <ele>21</ele>
        <time>2019-12-31T19:30:54Z</time>
      </trkpt>
      <trkpt lat="46.73629" lon="-1.83067">
        <ele>21</ele>
        <time>2019-12-31T19:30:55Z</time>
      </trkpt>
      <trkpt lat="46.73622" lon="-1.83077">
        <ele>21</ele>
        <time>2019-12-31T19:30:57Z</time>
      </trkpt>
      <trkpt lat="46.73615" lon="-1.83087">
        <ele>20</ele>
        <time>2019-12-31T19:30:59Z</time>
      </trkpt>
      <trkpt lat="46.7361" lon="-1.83097">
        <ele>20</ele>
        <time>2019-12-31T19:31:00Z</time>
      </trkpt>
      <trkpt lat="46.73608" lon="-1.83101">
        <ele>20</ele>
        <time>2019-12-31T19:31:01Z</time>
      </trkpt>
      <trkpt lat="46.73603" lon="-1.83115">
        <ele>20</ele>
        <time>2019-12-31T19:31:03Z</time>
      </trkpt>
      <trkpt lat="46.73597" lon="-1.8313">
        <ele>20</ele>
        <time>2019-12-31T19:31:05Z</time>
      </trkpt>
      <trkpt lat="46.73594" lon="-1.83142">
        <ele>20</ele>
        <time>2019-12-31T19:31:06Z</time>
      </trkpt>
      <trkpt lat="46.73591" lon="-1.83152">
        <ele>20</ele>
        <time>2019-12-31T19:31:08Z</time>
      </trkpt>
      <trkpt lat="46.73586" lon="-1.83173">
        <ele>20</ele>
        <time>2019-12-31T19:31:10Z</time>
      </trkpt>
      <trkpt lat="46.73579" lon="-1.83201">
        <ele>20</ele>
        <time>2019-12-31T19:31:14Z</time>
      </trkpt>
      <trkpt lat="46.73578" lon="-1.83204">
        <ele>20</ele>
        <time>2019-12-31T19:31:14Z</time>
      </trkpt>
      <trkpt lat="46.73568" lon="-1.83245">
        <ele>21</ele>
        <time>2019-12-31T19:31:20Z</time>
      </trkpt>
      <trkpt lat="46.73563" lon="-1.83266">
        <ele>21</ele>
        <time>2019-12-31T19:31:22Z</time>
      </trkpt>
      <trkpt lat="46.7356" lon="-1.83276">
        <ele>21</ele>
        <time>2019-12-31T19:31:24Z</time>
      </trkpt>
      <trkpt lat="46.73559" lon="-1.83282">
        <ele>21</ele>
        <time>2019-12-31T19:31:25Z</time>
      </trkpt>
      <trkpt lat="46.73554" lon="-1.83296">
        <ele>21</ele>
        <time>2019-12-31T19:31:26Z</time>
      </trkpt>
      <trkpt lat="46.73548" lon="-1.83311">
        <ele>21</ele>
        <time>2019-12-31T19:31:29Z</time>
      </trkpt>
      <trkpt lat="46.7354" lon="-1.83328">
        <ele>21</ele>
        <time>2019-12-31T19:31:31Z</time>
      </trkpt>
      <trkpt lat="46.73532" lon="-1.83342">
        <ele>21</ele>
        <time>2019-12-31T19:31:33Z</time>
      </trkpt>
      <trkpt lat="46.73522" lon="-1.83358">
        <ele>21</ele>
        <time>2019-12-31T19:31:36Z</time>
      </trkpt>
      <trkpt lat="46.73478" lon="-1.83413">
        <ele>22</ele>
        <time>2019-12-31T19:31:46Z</time>
      </trkpt>
      <trkpt lat="46.73451" lon="-1.83447">
        <ele>22</ele>
        <time>2019-12-31T19:31:53Z</time>
      </trkpt>
      <trkpt lat="46.73438" lon="-1.83464">
        <ele>22</ele>
        <time>2019-12-31T19:31:56Z</time>
      </trkpt>
      <trkpt lat="46.73428" lon="-1.83479">
        <ele>22</ele>
        <time>2019-12-31T19:31:58Z</time>
      </trkpt>
      <trkpt lat="46.73422" lon="-1.83491">
        <ele>22</ele>
        <time>2019-12-31T19:32:00Z</time>
      </trkpt>
      <trkpt lat="46.73419" lon="-1.83496">
        <ele>22</ele>
        <time>2019-12-31T19:32:01Z</time>
      </trkpt>
      <trkpt lat="46.73413" lon="-1.83508">
        <ele>22</ele>
        <time>2019-12-31T19:32:03Z</time>
      </trkpt>
      <trkpt lat="46.73408" lon="-1.83521">
        <ele>22</ele>
        <time>2019-12-31T19:32:04Z</time>
      </trkpt>
      <trkpt lat="46.73404" lon="-1.83535">
        <ele>22</ele>
        <time>2019-12-31T19:32:06Z</time>
      </trkpt>
      <trkpt lat="46.73398" lon="-1.83555">
        <ele>21</ele>
        <time>2019-12-31T19:32:09Z</time>
      </trkpt>
      <trkpt lat="46.73395" lon="-1.83571">
        <ele>21</ele>
        <time>2019-12-31T19:32:11Z</time>
      </trkpt>
      <trkpt lat="46.73391" lon="-1.83594">
        <ele>21</ele>
        <time>2019-12-31T19:32:14Z</time>
      </trkpt>
      <trkpt lat="46.73391" lon="-1.83596">
        <ele>21</ele>
        <time>2019-12-31T19:32:14Z</time>
      </trkpt>
      <trkpt lat="46.73388" lon="-1.83618">
        <ele>21</ele>
        <time>2019-12-31T19:32:17Z</time>
      </trkpt>
      <trkpt lat="46.73387" lon="-1.83626">
        <ele>21</ele>
        <time>2019-12-31T19:32:18Z</time>
      </trkpt>
      <trkpt lat="46.73382" lon="-1.83667">
        <ele>21</ele>
        <time>2019-12-31T19:32:23Z</time>
      </trkpt>
      <trkpt lat="46.73375" lon="-1.8372">
        <ele>20</ele>
        <time>2019-12-31T19:32:30Z</time>
      </trkpt>
      <trkpt lat="46.73374" lon="-1.83726">
        <ele>20</ele>
        <time>2019-12-31T19:32:30Z</time>
      </trkpt>
      <trkpt lat="46.73368" lon="-1.83778">
        <ele>20</ele>
        <time>2019-12-31T19:32:37Z</time>
      </trkpt>
      <trkpt lat="46.73364" lon="-1.83811">
        <ele>20</ele>
        <time>2019-12-31T19:32:41Z</time>
      </trkpt>
      <trkpt lat="46.73361" lon="-1.83842">
        <ele>20</ele>
        <time>2019-12-31T19:32:45Z</time>
      </trkpt>
      <trkpt lat="46.7336" lon="-1.83867">
        <ele>20</ele>
        <time>2019-12-31T19:32:48Z</time>
      </trkpt>
      <trkpt lat="46.73359" lon="-1.8389">
        <ele>20</ele>
        <time>2019-12-31T19:32:51Z</time>
      </trkpt>
      <trkpt lat="46.73359" lon="-1.83933">
        <ele>20</ele>
        <time>2019-12-31T19:32:56Z</time>
      </trkpt>
      <trkpt lat="46.7336" lon="-1.83992">
        <ele>20</ele>
        <time>2019-12-31T19:33:03Z</time>
      </trkpt>
      <trkpt lat="46.73361" lon="-1.84068">
        <ele>21</ele>
        <time>2019-12-31T19:33:12Z</time>
      </trkpt>
      <trkpt lat="46.73362" lon="-1.84127">
        <ele>21</ele>
        <time>2019-12-31T19:33:19Z</time>
      </trkpt>
      <trkpt lat="46.73363" lon="-1.84201">
        <ele>21</ele>
        <time>2019-12-31T19:33:28Z</time>
      </trkpt>
      <trkpt lat="46.73363" lon="-1.84237">
        <ele>21</ele>
        <time>2019-12-31T19:33:33Z</time>
      </trkpt>
      <trkpt lat="46.73363" lon="-1.84257">
        <ele>21</ele>
        <time>2019-12-31T19:33:35Z</time>
      </trkpt>
      <trkpt lat="46.73363" lon="-1.8428">
        <ele>21</ele>
        <time>2019-12-31T19:33:38Z</time>
      </trkpt>
      <trkpt lat="46.73363" lon="-1.84294">
        <ele>20</ele>
        <time>2019-12-31T19:33:40Z</time>
      </trkpt>
      <trkpt lat="46.73362" lon="-1.8431">
        <ele>20</ele>
        <time>2019-12-31T19:33:42Z</time>
      </trkpt>
      <trkpt lat="46.73362" lon="-1.84325">
        <ele>20</ele>
        <time>2019-12-31T19:33:44Z</time>
      </trkpt>
      <trkpt lat="46.7336" lon="-1.84337">
        <ele>20</ele>
        <time>2019-12-31T19:33:45Z</time>
      </trkpt>
      <trkpt lat="46.73358" lon="-1.84353">
        <ele>20</ele>
        <time>2019-12-31T19:33:47Z</time>
      </trkpt>
      <trkpt lat="46.73356" lon="-1.84369">
        <ele>20</ele>
        <time>2019-12-31T19:33:49Z</time>
      </trkpt>
      <trkpt lat="46.73351" lon="-1.84399">
        <ele>19</ele>
        <time>2019-12-31T19:33:53Z</time>
      </trkpt>
      <trkpt lat="46.73346" lon="-1.84431">
        <ele>19</ele>
        <time>2019-12-31T19:33:57Z</time>
      </trkpt>
      <trkpt lat="46.73337" lon="-1.84483">
        <ele>20</ele>
        <time>2019-12-31T19:34:03Z</time>
      </trkpt>
      <trkpt lat="46.73324" lon="-1.84555">
        <ele>21</ele>
        <time>2019-12-31T19:34:12Z</time>
      </trkpt>
      <trkpt lat="46.73311" lon="-1.84629">
        <ele>21</ele>
        <time>2019-12-31T19:34:22Z</time>
      </trkpt>
      <trkpt lat="46.73306" lon="-1.84653">
        <ele>20</ele>
        <time>2019-12-31T19:34:25Z</time>
      </trkpt>
      <trkpt lat="46.73301" lon="-1.84673">
        <ele>20</ele>
        <time>2019-12-31T19:34:27Z</time>
      </trkpt>
      <trkpt lat="46.73296" lon="-1.84697">
        <ele>20</ele>
        <time>2019-12-31T19:34:30Z</time>
      </trkpt>
      <trkpt lat="46.7329" lon="-1.84716">
        <ele>19</ele>
        <time>2019-12-31T19:34:33Z</time>
      </trkpt>
      <trkpt lat="46.73281" lon="-1.84742">
        <ele>19</ele>
        <time>2019-12-31T19:34:37Z</time>
      </trkpt>
      <trkpt lat="46.73257" lon="-1.84813">
        <ele>20</ele>
        <time>2019-12-31T19:34:46Z</time>
      </trkpt>
      <trkpt lat="46.73232" lon="-1.84885">
        <ele>20</ele>
        <time>2019-12-31T19:34:56Z</time>
      </trkpt>
      <trkpt lat="46.73206" lon="-1.8496">
        <ele>19</ele>
        <time>2019-12-31T19:35:06Z</time>
      </trkpt>
      <trkpt lat="46.73182" lon="-1.85028">
        <ele>19</ele>
        <time>2019-12-31T19:35:16Z</time>
      </trkpt>
      <trkpt lat="46.73165" lon="-1.85077">
        <ele>18</ele>
        <time>2019-12-31T19:35:22Z</time>
      </trkpt>
      <trkpt lat="46.73153" lon="-1.85112">
        <ele>18</ele>
        <time>2019-12-31T19:35:27Z</time>
      </trkpt>
      <trkpt lat="46.73125" lon="-1.85192">
        <ele>17</ele>
        <time>2019-12-31T19:35:38Z</time>
      </trkpt>
      <trkpt lat="46.73106" lon="-1.85246">
        <ele>14</ele>
        <time>2019-12-31T19:35:45Z</time>
      </trkpt>
      <trkpt lat="46.73094" lon="-1.8528">
        <ele>13</ele>
        <time>2019-12-31T19:35:50Z</time>
      </trkpt>
      <trkpt lat="46.73076" lon="-1.85329">
        <ele>11</ele>
        <time>2019-12-31T19:35:57Z</time>
      </trkpt>
      <trkpt lat="46.73066" lon="-1.85362">
        <ele>11</ele>
        <time>2019-12-31T19:36:01Z</time>
      </trkpt>
      <trkpt lat="46.73059" lon="-1.85384">
        <ele>11</ele>
        <time>2019-12-31T19:36:04Z</time>
      </trkpt>
      <trkpt lat="46.73056" lon="-1.85399">
        <ele>11</ele>
        <time>2019-12-31T19:36:06Z</time>
      </trkpt>
      <trkpt lat="46.73054" lon="-1.85413">
        <ele>11</ele>
        <time>2019-12-31T19:36:08Z</time>
      </trkpt>
      <trkpt lat="46.73053" lon="-1.85427">
        <ele>11</ele>
        <time>2019-12-31T19:36:10Z</time>
      </trkpt>
      <trkpt lat="46.73051" lon="-1.85439">
        <ele>11</ele>
        <time>2019-12-31T19:36:11Z</time>
      </trkpt>
      <trkpt lat="46.73051" lon="-1.85456">
        <ele>12</ele>
        <time>2019-12-31T19:36:13Z</time>
      </trkpt>
      <trkpt lat="46.7305" lon="-1.85471">
        <ele>12</ele>
        <time>2019-12-31T19:36:15Z</time>
      </trkpt>
      <trkpt lat="46.73051" lon="-1.85486">
        <ele>12</ele>
        <time>2019-12-31T19:36:17Z</time>
      </trkpt>
      <trkpt lat="46.73051" lon="-1.85501">
        <ele>12</ele>
        <time>2019-12-31T19:36:19Z</time>
      </trkpt>
      <trkpt lat="46.73053" lon="-1.85515">
        <ele>12</ele>
        <time>2019-12-31T19:36:20Z</time>
      </trkpt>
      <trkpt lat="46.73055" lon="-1.85538">
        <ele>12</ele>
        <time>2019-12-31T19:36:23Z</time>
      </trkpt>
      <trkpt lat="46.73056" lon="-1.85546">
        <ele>12</ele>
        <time>2019-12-31T19:36:24Z</time>
      </trkpt>
      <trkpt lat="46.7306" lon="-1.85579">
        <ele>12</ele>
        <time>2019-12-31T19:36:28Z</time>
      </trkpt>
      <trkpt lat="46.73061" lon="-1.85588">
        <ele>12</ele>
        <time>2019-12-31T19:36:29Z</time>
      </trkpt>
      <trkpt lat="46.73067" lon="-1.85628">
        <ele>12</ele>
        <time>2019-12-31T19:36:34Z</time>
      </trkpt>
      <trkpt lat="46.73071" lon="-1.85665">
        <ele>11</ele>
        <time>2019-12-31T19:36:39Z</time>
      </trkpt>
      <trkpt lat="46.73075" lon="-1.85694">
        <ele>12</ele>
        <time>2019-12-31T19:36:43Z</time>
      </trkpt>
      <trkpt lat="46.73079" lon="-1.85723">
        <ele>12</ele>
        <time>2019-12-31T19:36:46Z</time>
      </trkpt>
      <trkpt lat="46.73081" lon="-1.85738">
        <ele>12</ele>
        <time>2019-12-31T19:36:48Z</time>
      </trkpt>
      <trkpt lat="46.73084" lon="-1.85756">
        <ele>12</ele>
        <time>2019-12-31T19:36:50Z</time>
      </trkpt>
      <trkpt lat="46.73087" lon="-1.85769">
        <ele>12</ele>
        <time>2019-12-31T19:36:52Z</time>
      </trkpt>
      <trkpt lat="46.7309" lon="-1.85791">
        <ele>11</ele>
        <time>2019-12-31T19:36:55Z</time>
      </trkpt>
      <trkpt lat="46.73101" lon="-1.85837">
        <ele>10</ele>
        <time>2019-12-31T19:37:01Z</time>
      </trkpt>
      <trkpt lat="46.73119" lon="-1.85908">
        <ele>10</ele>
        <time>2019-12-31T19:37:10Z</time>
      </trkpt>
      <trkpt lat="46.73131" lon="-1.85958">
        <ele>10</ele>
        <time>2019-12-31T19:37:16Z</time>
      </trkpt>
      <trkpt lat="46.73136" lon="-1.85988">
        <ele>11</ele>
        <time>2019-12-31T19:37:20Z</time>
      </trkpt>
      <trkpt lat="46.73139" lon="-1.86009">
        <ele>11</ele>
        <time>2019-12-31T19:37:23Z</time>
      </trkpt>
      <trkpt lat="46.73141" lon="-1.8603">
        <ele>11</ele>
        <time>2019-12-31T19:37:25Z</time>
      </trkpt>
      <trkpt lat="46.73142" lon="-1.86052">
        <ele>11</ele>
        <time>2019-12-31T19:37:28Z</time>
      </trkpt>
      <trkpt lat="46.73142" lon="-1.86074">
        <ele>11</ele>
        <time>2019-12-31T19:37:31Z</time>
      </trkpt>
      <trkpt lat="46.73142" lon="-1.86101">
        <ele>11</ele>
        <time>2019-12-31T19:37:34Z</time>
      </trkpt>
      <trkpt lat="46.73141" lon="-1.86123">
        <ele>11</ele>
        <time>2019-12-31T19:37:37Z</time>
      </trkpt>
      <trkpt lat="46.7314" lon="-1.86155">
        <ele>11</ele>
        <time>2019-12-31T19:37:41Z</time>
      </trkpt>
      <trkpt lat="46.73137" lon="-1.86284">
        <ele>10</ele>
        <time>2019-12-31T19:37:56Z</time>
      </trkpt>
      <trkpt lat="46.73136" lon="-1.86309">
        <ele>10</ele>
        <time>2019-12-31T19:37:59Z</time>
      </trkpt>
      <trkpt lat="46.73134" lon="-1.86386">
        <ele>9</ele>
        <time>2019-12-31T19:38:09Z</time>
      </trkpt>
      <trkpt lat="46.73133" lon="-1.86467">
        <ele>10</ele>
        <time>2019-12-31T19:38:19Z</time>
      </trkpt>
      <trkpt lat="46.73133" lon="-1.86486">
        <ele>10</ele>
        <time>2019-12-31T19:38:21Z</time>
      </trkpt>
      <trkpt lat="46.73133" lon="-1.8651">
        <ele>10</ele>
        <time>2019-12-31T19:38:24Z</time>
      </trkpt>
      <trkpt lat="46.73133" lon="-1.86528">
        <ele>11</ele>
        <time>2019-12-31T19:38:26Z</time>
      </trkpt>
      <trkpt lat="46.73135" lon="-1.86543">
        <ele>11</ele>
        <time>2019-12-31T19:38:28Z</time>
      </trkpt>
      <trkpt lat="46.73136" lon="-1.86555">
        <ele>11</ele>
        <time>2019-12-31T19:38:30Z</time>
      </trkpt>
      <trkpt lat="46.73139" lon="-1.86573">
        <ele>11</ele>
        <time>2019-12-31T19:38:32Z</time>
      </trkpt>
      <trkpt lat="46.73145" lon="-1.86608">
        <ele>10</ele>
        <time>2019-12-31T19:38:36Z</time>
      </trkpt>
      <trkpt lat="46.73154" lon="-1.86672">
        <ele>8</ele>
        <time>2019-12-31T19:38:44Z</time>
      </trkpt>
      <trkpt lat="46.73162" lon="-1.86716">
        <ele>7</ele>
        <time>2019-12-31T19:38:50Z</time>
      </trkpt>
      <trkpt lat="46.73167" lon="-1.86748">
        <ele>6</ele>
        <time>2019-12-31T19:38:54Z</time>
      </trkpt>
      <trkpt lat="46.7318" lon="-1.86831">
        <ele>7</ele>
        <time>2019-12-31T19:39:04Z</time>
      </trkpt>
      <trkpt lat="46.73191" lon="-1.86902">
        <ele>8</ele>
        <time>2019-12-31T19:39:13Z</time>
      </trkpt>
      <trkpt lat="46.73198" lon="-1.86945">
        <ele>8</ele>
        <time>2019-12-31T19:39:18Z</time>
      </trkpt>
      <trkpt lat="46.73202" lon="-1.86972">
        <ele>9</ele>
        <time>2019-12-31T19:39:22Z</time>
      </trkpt>
      <trkpt lat="46.73203" lon="-1.86984">
        <ele>9</ele>
        <time>2019-12-31T19:39:23Z</time>
      </trkpt>
      <trkpt lat="46.73204" lon="-1.87006">
        <ele>10</ele>
        <time>2019-12-31T19:39:26Z</time>
      </trkpt>
      <trkpt lat="46.73206" lon="-1.87034">
        <ele>10</ele>
        <time>2019-12-31T19:39:29Z</time>
      </trkpt>
      <trkpt lat="46.73208" lon="-1.87069">
        <ele>10</ele>
        <time>2019-12-31T19:39:34Z</time>
      </trkpt>
      <trkpt lat="46.7321" lon="-1.871">
        <ele>11</ele>
        <time>2019-12-31T19:39:37Z</time>
      </trkpt>
      <trkpt lat="46.73211" lon="-1.87109">
        <ele>11</ele>
        <time>2019-12-31T19:39:38Z</time>
      </trkpt>
      <trkpt lat="46.73212" lon="-1.87121">
        <ele>11</ele>
        <time>2019-12-31T19:39:40Z</time>
      </trkpt>
      <trkpt lat="46.73213" lon="-1.87129">
        <ele>11</ele>
        <time>2019-12-31T19:39:41Z</time>
      </trkpt>
      <trkpt lat="46.73214" lon="-1.87142">
        <ele>11</ele>
        <time>2019-12-31T19:39:43Z</time>
      </trkpt>
      <trkpt lat="46.73213" lon="-1.87152">
        <ele>11</ele>
        <time>2019-12-31T19:39:44Z</time>
      </trkpt>
      <trkpt lat="46.73213" lon="-1.87152">
        <ele>11</ele>
        <time>2019-12-31T19:39:44Z</time>
      </trkpt>
      <trkpt lat="46.73214" lon="-1.87152">
        <ele>11</ele>
        <time>2019-12-31T19:39:44Z</time>
      </trkpt>
      <trkpt lat="46.73214" lon="-1.87153">
        <ele>11</ele>
        <time>2019-12-31T19:39:44Z</time>
      </trkpt>
      <trkpt lat="46.73215" lon="-1.87154">
        <ele>11</ele>
        <time>2019-12-31T19:39:44Z</time>
      </trkpt>
      <trkpt lat="46.73215" lon="-1.87155">
        <ele>11</ele>
        <time>2019-12-31T19:39:44Z</time>
      </trkpt>
      <trkpt lat="46.73216" lon="-1.87156">
        <ele>11</ele>
        <time>2019-12-31T19:39:45Z</time>
      </trkpt>
      <trkpt lat="46.73216" lon="-1.87157">
        <ele>11</ele>
        <time>2019-12-31T19:39:45Z</time>
      </trkpt>
      <trkpt lat="46.73217" lon="-1.87158">
        <ele>11</ele>
        <time>2019-12-31T19:39:45Z</time>
      </trkpt>
      <trkpt lat="46.73217" lon="-1.87159">
        <ele>11</ele>
        <time>2019-12-31T19:39:45Z</time>
      </trkpt>
      <trkpt lat="46.73218" lon="-1.87162">
        <ele>11</ele>
        <time>2019-12-31T19:39:46Z</time>
      </trkpt>
      <trkpt lat="46.73219" lon="-1.87165">
        <ele>11</ele>
        <time>2019-12-31T19:39:46Z</time>
      </trkpt>
      <trkpt lat="46.7322" lon="-1.87168">
        <ele>11</ele>
        <time>2019-12-31T19:39:46Z</time>
      </trkpt>
      <trkpt lat="46.7322" lon="-1.87171">
        <ele>11</ele>
        <time>2019-12-31T19:39:47Z</time>
      </trkpt>
      <trkpt lat="46.7322" lon="-1.87174">
        <ele>11</ele>
        <time>2019-12-31T19:39:47Z</time>
      </trkpt>
      <trkpt lat="46.7322" lon="-1.87177">
        <ele>11</ele>
        <time>2019-12-31T19:39:47Z</time>
      </trkpt>
      <trkpt lat="46.7322" lon="-1.8718">
        <ele>11</ele>
        <time>2019-12-31T19:39:48Z</time>
      </trkpt>
      <trkpt lat="46.7322" lon="-1.87183">
        <ele>11</ele>
        <time>2019-12-31T19:39:48Z</time>
      </trkpt>
      <trkpt lat="46.73218" lon="-1.87188">
        <ele>11</ele>
        <time>2019-12-31T19:39:49Z</time>
      </trkpt>
      <trkpt lat="46.73217" lon="-1.87191">
        <ele>11</ele>
        <time>2019-12-31T19:39:49Z</time>
      </trkpt>
      <trkpt lat="46.73215" lon="-1.87193">
        <ele>11</ele>
        <time>2019-12-31T19:39:50Z</time>
      </trkpt>
      <trkpt lat="46.73214" lon="-1.87195">
        <ele>11</ele>
        <time>2019-12-31T19:39:50Z</time>
      </trkpt>
      <trkpt lat="46.73212" lon="-1.87197">
        <ele>11</ele>
        <time>2019-12-31T19:39:50Z</time>
      </trkpt>
      <trkpt lat="46.7321" lon="-1.87198">
        <ele>11</ele>
        <time>2019-12-31T19:39:51Z</time>
      </trkpt>
      <trkpt lat="46.73209" lon="-1.872">
        <ele>11</ele>
        <time>2019-12-31T19:39:51Z</time>
      </trkpt>
      <trkpt lat="46.73207" lon="-1.87201">
        <ele>11</ele>
        <time>2019-12-31T19:39:51Z</time>
      </trkpt>
      <trkpt lat="46.73205" lon="-1.87202">
        <ele>11</ele>
        <time>2019-12-31T19:39:52Z</time>
      </trkpt>
      <trkpt lat="46.73201" lon="-1.87202">
        <ele>12</ele>
        <time>2019-12-31T19:39:53Z</time>
      </trkpt>
      <trkpt lat="46.73198" lon="-1.87205">
        <ele>12</ele>
        <time>2019-12-31T19:39:53Z</time>
      </trkpt>
      <trkpt lat="46.73196" lon="-1.8721">
        <ele>12</ele>
        <time>2019-12-31T19:39:54Z</time>
      </trkpt>
      <trkpt lat="46.73193" lon="-1.87216">
        <ele>12</ele>
        <time>2019-12-31T19:39:55Z</time>
      </trkpt>
      <trkpt lat="46.7319" lon="-1.87223">
        <ele>12</ele>
        <time>2019-12-31T19:39:56Z</time>
      </trkpt>
      <trkpt lat="46.73187" lon="-1.87232">
        <ele>12</ele>
        <time>2019-12-31T19:39:57Z</time>
      </trkpt>
      <trkpt lat="46.73181" lon="-1.87246">
        <ele>12</ele>
        <time>2019-12-31T19:39:59Z</time>
      </trkpt>
      <trkpt lat="46.73176" lon="-1.87254">
        <ele>12</ele>
        <time>2019-12-31T19:40:00Z</time>
      </trkpt>
      <trkpt lat="46.73159" lon="-1.87307">
        <ele>12</ele>
        <time>2019-12-31T19:40:08Z</time>
      </trkpt>
      <trkpt lat="46.73132" lon="-1.87393">
        <ele>12</ele>
        <time>2019-12-31T19:40:19Z</time>
      </trkpt>
      <trkpt lat="46.73092" lon="-1.87524">
        <ele>11</ele>
        <time>2019-12-31T19:40:37Z</time>
      </trkpt>
      <trkpt lat="46.73084" lon="-1.87547">
        <ele>11</ele>
        <time>2019-12-31T19:40:40Z</time>
      </trkpt>
      <trkpt lat="46.73071" lon="-1.87591">
        <ele>11</ele>
        <time>2019-12-31T19:40:46Z</time>
      </trkpt>
      <trkpt lat="46.73069" lon="-1.87597">
        <ele>11</ele>
        <time>2019-12-31T19:40:46Z</time>
      </trkpt>
      <trkpt lat="46.73065" lon="-1.87612">
        <ele>11</ele>
        <time>2019-12-31T19:40:48Z</time>
      </trkpt>
      <trkpt lat="46.73054" lon="-1.87646">
        <ele>11</ele>
        <time>2019-12-31T19:40:53Z</time>
      </trkpt>
      <trkpt lat="46.73053" lon="-1.87652">
        <ele>11</ele>
        <time>2019-12-31T19:40:54Z</time>
      </trkpt>
      <trkpt lat="46.73035" lon="-1.87711">
        <ele>11</ele>
        <time>2019-12-31T19:41:02Z</time>
      </trkpt>
      <trkpt lat="46.73029" lon="-1.87731">
        <ele>11</ele>
        <time>2019-12-31T19:41:04Z</time>
      </trkpt>
      <trkpt lat="46.73023" lon="-1.87749">
        <ele>11</ele>
        <time>2019-12-31T19:41:07Z</time>
      </trkpt>
      <trkpt lat="46.73014" lon="-1.87779">
        <ele>11</ele>
        <time>2019-12-31T19:41:11Z</time>
      </trkpt>
      <trkpt lat="46.73004" lon="-1.87808">
        <ele>11</ele>
        <time>2019-12-31T19:41:15Z</time>
      </trkpt>
      <trkpt lat="46.73" lon="-1.87814">
        <ele>11</ele>
        <time>2019-12-31T19:41:16Z</time>
      </trkpt>
      <trkpt lat="46.7299" lon="-1.87843">
        <ele>11</ele>
        <time>2019-12-31T19:41:20Z</time>
      </trkpt>
      <trkpt lat="46.72982" lon="-1.87863">
        <ele>11</ele>
        <time>2019-12-31T19:41:22Z</time>
      </trkpt>
      <trkpt lat="46.72971" lon="-1.8789">
        <ele>11</ele>
        <time>2019-12-31T19:41:26Z</time>
      </trkpt>
      <trkpt lat="46.72957" lon="-1.87915">
        <ele>12</ele>
        <time>2019-12-31T19:41:30Z</time>
      </trkpt>
      <trkpt lat="46.72942" lon="-1.87939">
        <ele>12</ele>
        <time>2019-12-31T19:41:34Z</time>
      </trkpt>
      <trkpt lat="46.72931" lon="-1.87954">
        <ele>12</ele>
        <time>2019-12-31T19:41:37Z</time>
      </trkpt>
      <trkpt lat="46.72915" lon="-1.87978">
        <ele>12</ele>
        <time>2019-12-31T19:41:41Z</time>
      </trkpt>
      <trkpt lat="46.72903" lon="-1.87993">
        <ele>12</ele>
        <time>2019-12-31T19:41:44Z</time>
      </trkpt>
      <trkpt lat="46.72901" lon="-1.87996">
        <ele>12</ele>
        <time>2019-12-31T19:41:44Z</time>
      </trkpt>
      <trkpt lat="46.72877" lon="-1.88029">
        <ele>12</ele>
        <time>2019-12-31T19:41:50Z</time>
      </trkpt>
      <trkpt lat="46.72857" lon="-1.88056">
        <ele>12</ele>
        <time>2019-12-31T19:41:55Z</time>
      </trkpt>
      <trkpt lat="46.72845" lon="-1.88074">
        <ele>12</ele>
        <time>2019-12-31T19:41:58Z</time>
      </trkpt>
      <trkpt lat="46.72822" lon="-1.88105">
        <ele>12</ele>
        <time>2019-12-31T19:42:04Z</time>
      </trkpt>
      <trkpt lat="46.72797" lon="-1.88139">
        <ele>10</ele>
        <time>2019-12-31T19:42:10Z</time>
      </trkpt>
      <trkpt lat="46.7278" lon="-1.88165">
        <ele>9</ele>
        <time>2019-12-31T19:42:14Z</time>
      </trkpt>
      <trkpt lat="46.72774" lon="-1.88175">
        <ele>9</ele>
        <time>2019-12-31T19:42:16Z</time>
      </trkpt>
      <trkpt lat="46.72758" lon="-1.88205">
        <ele>8</ele>
        <time>2019-12-31T19:42:20Z</time>
      </trkpt>
      <trkpt lat="46.72753" lon="-1.88214">
        <ele>8</ele>
        <time>2019-12-31T19:42:22Z</time>
      </trkpt>
      <trkpt lat="46.72743" lon="-1.88234">
        <ele>8</ele>
        <time>2019-12-31T19:42:25Z</time>
      </trkpt>
      <trkpt lat="46.72729" lon="-1.88265">
        <ele>7</ele>
        <time>2019-12-31T19:42:29Z</time>
      </trkpt>
      <trkpt lat="46.72718" lon="-1.88298">
        <ele>6</ele>
        <time>2019-12-31T19:42:34Z</time>
      </trkpt>
      <trkpt lat="46.72708" lon="-1.88329">
        <ele>5</ele>
        <time>2019-12-31T19:42:38Z</time>
      </trkpt>
      <trkpt lat="46.72701" lon="-1.88354">
        <ele>5</ele>
        <time>2019-12-31T19:42:41Z</time>
      </trkpt>
      <trkpt lat="46.72694" lon="-1.88384">
        <ele>5</ele>
        <time>2019-12-31T19:42:45Z</time>
      </trkpt>
      <trkpt lat="46.72689" lon="-1.88405">
        <ele>5</ele>
        <time>2019-12-31T19:42:48Z</time>
      </trkpt>
      <trkpt lat="46.72688" lon="-1.88414">
        <ele>5</ele>
        <time>2019-12-31T19:42:49Z</time>
      </trkpt>
      <trkpt lat="46.72687" lon="-1.88419">
        <ele>5</ele>
        <time>2019-12-31T19:42:50Z</time>
      </trkpt>
      <trkpt lat="46.72686" lon="-1.88428">
        <ele>5</ele>
        <time>2019-12-31T19:42:51Z</time>
      </trkpt>
      <trkpt lat="46.72682" lon="-1.88474">
        <ele>4</ele>
        <time>2019-12-31T19:42:56Z</time>
      </trkpt>
      <trkpt lat="46.72678" lon="-1.88523">
        <ele>4</ele>
        <time>2019-12-31T19:43:02Z</time>
      </trkpt>
      <trkpt lat="46.72673" lon="-1.88584">
        <ele>5</ele>
        <time>2019-12-31T19:43:10Z</time>
      </trkpt>
      <trkpt lat="46.72669" lon="-1.88627">
        <ele>5</ele>
        <time>2019-12-31T19:43:15Z</time>
      </trkpt>
      <trkpt lat="46.72667" lon="-1.88649">
        <ele>6</ele>
        <time>2019-12-31T19:43:18Z</time>
      </trkpt>
      <trkpt lat="46.72657" lon="-1.88762">
        <ele>6</ele>
        <time>2019-12-31T19:43:32Z</time>
      </trkpt>
      <trkpt lat="46.7265" lon="-1.88821">
        <ele>6</ele>
        <time>2019-12-31T19:43:39Z</time>
      </trkpt>
      <trkpt lat="46.72641" lon="-1.88904">
        <ele>6</ele>
        <time>2019-12-31T19:43:49Z</time>
      </trkpt>
      <trkpt lat="46.72634" lon="-1.88962">
        <ele>6</ele>
        <time>2019-12-31T19:43:56Z</time>
      </trkpt>
      <trkpt lat="46.72624" lon="-1.89045">
        <ele>6</ele>
        <time>2019-12-31T19:44:07Z</time>
      </trkpt>
      <trkpt lat="46.72615" lon="-1.89119">
        <ele>6</ele>
        <time>2019-12-31T19:44:16Z</time>
      </trkpt>
      <trkpt lat="46.72611" lon="-1.89151">
        <ele>6</ele>
        <time>2019-12-31T19:44:20Z</time>
      </trkpt>
      <trkpt lat="46.72603" lon="-1.89203">
        <ele>6</ele>
        <time>2019-12-31T19:44:26Z</time>
      </trkpt>
      <trkpt lat="46.72595" lon="-1.89253">
        <ele>5</ele>
        <time>2019-12-31T19:44:33Z</time>
      </trkpt>
      <trkpt lat="46.72586" lon="-1.89297">
        <ele>5</ele>
        <time>2019-12-31T19:44:38Z</time>
      </trkpt>
      <trkpt lat="46.72578" lon="-1.89344">
        <ele>5</ele>
        <time>2019-12-31T19:44:44Z</time>
      </trkpt>
      <trkpt lat="46.72573" lon="-1.89367">
        <ele>5</ele>
        <time>2019-12-31T19:44:47Z</time>
      </trkpt>
      <trkpt lat="46.72573" lon="-1.89373">
        <ele>5</ele>
        <time>2019-12-31T19:44:48Z</time>
      </trkpt>
      <trkpt lat="46.72559" lon="-1.89419">
        <ele>4</ele>
        <time>2019-12-31T19:44:54Z</time>
      </trkpt>
      <trkpt lat="46.72558" lon="-1.89421">
        <ele>4</ele>
        <time>2019-12-31T19:44:54Z</time>
      </trkpt>
      <trkpt lat="46.72554" lon="-1.89428">
        <ele>4</ele>
        <time>2019-12-31T19:44:55Z</time>
      </trkpt>
      <trkpt lat="46.72545" lon="-1.89447">
        <ele>4</ele>
        <time>2019-12-31T19:44:58Z</time>
      </trkpt>
      <trkpt lat="46.72526" lon="-1.89486">
        <ele>4</ele>
        <time>2019-12-31T19:45:04Z</time>
      </trkpt>
      <trkpt lat="46.72523" lon="-1.89491">
        <ele>4</ele>
        <time>2019-12-31T19:45:05Z</time>
      </trkpt>
      <trkpt lat="46.72505" lon="-1.89518">
        <ele>4</ele>
        <time>2019-12-31T19:45:09Z</time>
      </trkpt>
      <trkpt lat="46.72502" lon="-1.89523">
        <ele>4</ele>
        <time>2019-12-31T19:45:10Z</time>
      </trkpt>
      <trkpt lat="46.72488" lon="-1.89543">
        <ele>4</ele>
        <time>2019-12-31T19:45:14Z</time>
      </trkpt>
      <trkpt lat="46.72488" lon="-1.89544">
        <ele>4</ele>
        <time>2019-12-31T19:45:14Z</time>
      </trkpt>
      <trkpt lat="46.72488" lon="-1.89545">
        <ele>4</ele>
        <time>2019-12-31T19:45:14Z</time>
      </trkpt>
      <trkpt lat="46.72488" lon="-1.89546">
        <ele>4</ele>
        <time>2019-12-31T19:45:14Z</time>
      </trkpt>
      <trkpt lat="46.72487" lon="-1.89546">
        <ele>4</ele>
        <time>2019-12-31T19:45:14Z</time>
      </trkpt>
      <trkpt lat="46.72487" lon="-1.89547">
        <ele>4</ele>
        <time>2019-12-31T19:45:14Z</time>
      </trkpt>
      <trkpt lat="46.72487" lon="-1.89548">
        <ele>4</ele>
        <time>2019-12-31T19:45:14Z</time>
      </trkpt>
      <trkpt lat="46.72486" lon="-1.89549">
        <ele>4</ele>
        <time>2019-12-31T19:45:15Z</time>
      </trkpt>
      <trkpt lat="46.72486" lon="-1.8955">
        <ele>4</ele>
        <time>2019-12-31T19:45:15Z</time>
      </trkpt>
      <trkpt lat="46.72485" lon="-1.8955">
        <ele>4</ele>
        <time>2019-12-31T19:45:15Z</time>
      </trkpt>
      <trkpt lat="46.72485" lon="-1.89551">
        <ele>4</ele>
        <time>2019-12-31T19:45:15Z</time>
      </trkpt>
      <trkpt lat="46.72484" lon="-1.89551">
        <ele>4</ele>
        <time>2019-12-31T19:45:15Z</time>
      </trkpt>
      <trkpt lat="46.72483" lon="-1.89552">
        <ele>4</ele>
        <time>2019-12-31T19:45:16Z</time>
      </trkpt>
      <trkpt lat="46.72482" lon="-1.89552">
        <ele>4</ele>
        <time>2019-12-31T19:45:16Z</time>
      </trkpt>
      <trkpt lat="46.7248" lon="-1.89555">
        <ele>4</ele>
        <time>2019-12-31T19:45:16Z</time>
      </trkpt>
      <trkpt lat="46.7247" lon="-1.8957">
        <ele>4</ele>
        <time>2019-12-31T19:45:19Z</time>
      </trkpt>
      <trkpt lat="46.72462" lon="-1.89583">
        <ele>4</ele>
        <time>2019-12-31T19:45:21Z</time>
      </trkpt>
      <trkpt lat="46.7246" lon="-1.89586">
        <ele>3</ele>
        <time>2019-12-31T19:45:21Z</time>
      </trkpt>
      <trkpt lat="46.72455" lon="-1.89591">
        <ele>3</ele>
        <time>2019-12-31T19:45:22Z</time>
      </trkpt>
      <trkpt lat="46.72442" lon="-1.89608">
        <ele>3</ele>
        <time>2019-12-31T19:45:26Z</time>
      </trkpt>
      <trkpt lat="46.72427" lon="-1.89625">
        <ele>3</ele>
        <time>2019-12-31T19:45:29Z</time>
      </trkpt>
      <trkpt lat="46.72424" lon="-1.89628">
        <ele>3</ele>
        <time>2019-12-31T19:45:30Z</time>
      </trkpt>
      <trkpt lat="46.72402" lon="-1.89652">
        <ele>3</ele>
        <time>2019-12-31T19:45:34Z</time>
      </trkpt>
      <trkpt lat="46.72372" lon="-1.89674">
        <ele>4</ele>
        <time>2019-12-31T19:45:40Z</time>
      </trkpt>
      <trkpt lat="46.72253" lon="-1.8977">
        <ele>7</ele>
        <time>2019-12-31T19:46:05Z</time>
      </trkpt>
      <trkpt lat="46.72225" lon="-1.89792">
        <ele>7</ele>
        <time>2019-12-31T19:46:10Z</time>
      </trkpt>
      <trkpt lat="46.72203" lon="-1.89809">
        <ele>8</ele>
        <time>2019-12-31T19:46:15Z</time>
      </trkpt>
      <trkpt lat="46.72178" lon="-1.8983">
        <ele>9</ele>
        <time>2019-12-31T19:46:20Z</time>
      </trkpt>
      <trkpt lat="46.72143" lon="-1.89859">
        <ele>9</ele>
        <time>2019-12-31T19:46:27Z</time>
      </trkpt>
      <trkpt lat="46.72119" lon="-1.89878">
        <ele>8</ele>
        <time>2019-12-31T19:46:32Z</time>
      </trkpt>
      <trkpt lat="46.72084" lon="-1.89908">
        <ele>7</ele>
        <time>2019-12-31T19:46:39Z</time>
      </trkpt>
      <trkpt lat="46.72056" lon="-1.8993">
        <ele>7</ele>
        <time>2019-12-31T19:46:45Z</time>
      </trkpt>
      <trkpt lat="46.72042" lon="-1.89942">
        <ele>7</ele>
        <time>2019-12-31T19:46:48Z</time>
      </trkpt>
      <trkpt lat="46.72037" lon="-1.89948">
        <ele>7</ele>
        <time>2019-12-31T19:46:49Z</time>
      </trkpt>
      <trkpt lat="46.72029" lon="-1.8996">
        <ele>7</ele>
        <time>2019-12-31T19:46:51Z</time>
      </trkpt>
      <trkpt lat="46.7202" lon="-1.89975">
        <ele>7</ele>
        <time>2019-12-31T19:46:53Z</time>
      </trkpt>
      <trkpt lat="46.72013" lon="-1.89987">
        <ele>6</ele>
        <time>2019-12-31T19:46:55Z</time>
      </trkpt>
      <trkpt lat="46.72002" lon="-1.90007">
        <ele>6</ele>
        <time>2019-12-31T19:46:58Z</time>
      </trkpt>
      <trkpt lat="46.7199" lon="-1.90031">
        <ele>6</ele>
        <time>2019-12-31T19:47:02Z</time>
      </trkpt>
      <trkpt lat="46.71979" lon="-1.9005">
        <ele>6</ele>
        <time>2019-12-31T19:47:05Z</time>
      </trkpt>
      <trkpt lat="46.71973" lon="-1.90062">
        <ele>6</ele>
        <time>2019-12-31T19:47:07Z</time>
      </trkpt>
      <trkpt lat="46.71968" lon="-1.9008">
        <ele>6</ele>
        <time>2019-12-31T19:47:09Z</time>
      </trkpt>
      <trkpt lat="46.71965" lon="-1.90106">
        <ele>6</ele>
        <time>2019-12-31T19:47:12Z</time>
      </trkpt>
      <trkpt lat="46.71962" lon="-1.90125">
        <ele>6</ele>
        <time>2019-12-31T19:47:15Z</time>
      </trkpt>
      <trkpt lat="46.71959" lon="-1.90153">
        <ele>6</ele>
        <time>2019-12-31T19:47:18Z</time>
      </trkpt>
      <trkpt lat="46.71958" lon="-1.90176">
        <ele>6</ele>
        <time>2019-12-31T19:47:21Z</time>
      </trkpt>
      <trkpt lat="46.71956" lon="-1.90191">
        <ele>6</ele>
        <time>2019-12-31T19:47:23Z</time>
      </trkpt>
      <trkpt lat="46.71953" lon="-1.90201">
        <ele>6</ele>
        <time>2019-12-31T19:47:24Z</time>
      </trkpt>
      <trkpt lat="46.71953" lon="-1.90203">
        <ele>6</ele>
        <time>2019-12-31T19:47:24Z</time>
      </trkpt>
      <trkpt lat="46.71949" lon="-1.90211">
        <ele>6</ele>
        <time>2019-12-31T19:47:26Z</time>
      </trkpt>
      <trkpt lat="46.71946" lon="-1.90218">
        <ele>6</ele>
        <time>2019-12-31T19:47:27Z</time>
      </trkpt>
      <trkpt lat="46.71941" lon="-1.90227">
        <ele>6</ele>
        <time>2019-12-31T19:47:28Z</time>
      </trkpt>
      <trkpt lat="46.71934" lon="-1.90235">
        <ele>6</ele>
        <time>2019-12-31T19:47:30Z</time>
      </trkpt>
      <trkpt lat="46.71927" lon="-1.9024">
        <ele>6</ele>
        <time>2019-12-31T19:47:31Z</time>
      </trkpt>
      <trkpt lat="46.71914" lon="-1.90248">
        <ele>6</ele>
        <time>2019-12-31T19:47:34Z</time>
      </trkpt>
      <trkpt lat="46.719" lon="-1.90254">
        <ele>7</ele>
        <time>2019-12-31T19:47:36Z</time>
      </trkpt>
      <trkpt lat="46.71896" lon="-1.90256">
        <ele>7</ele>
        <time>2019-12-31T19:47:37Z</time>
      </trkpt>
      <trkpt lat="46.7189" lon="-1.9026">
        <ele>7</ele>
        <time>2019-12-31T19:47:38Z</time>
      </trkpt>
      <trkpt lat="46.71886" lon="-1.90263">
        <ele>7</ele>
        <time>2019-12-31T19:47:39Z</time>
      </trkpt>
      <trkpt lat="46.71883" lon="-1.90267">
        <ele>7</ele>
        <time>2019-12-31T19:47:40Z</time>
      </trkpt>
      <trkpt lat="46.71879" lon="-1.90274">
        <ele>7</ele>
        <time>2019-12-31T19:47:41Z</time>
      </trkpt>
      <trkpt lat="46.71876" lon="-1.90283">
        <ele>7</ele>
        <time>2019-12-31T19:47:42Z</time>
      </trkpt>
      <trkpt lat="46.71872" lon="-1.90301">
        <ele>6</ele>
        <time>2019-12-31T19:47:44Z</time>
      </trkpt>
      <trkpt lat="46.71869" lon="-1.90308">
        <ele>6</ele>
        <time>2019-12-31T19:47:45Z</time>
      </trkpt>
      <trkpt lat="46.71865" lon="-1.90316">
        <ele>6</ele>
        <time>2019-12-31T19:47:47Z</time>
      </trkpt>
      <trkpt lat="46.71839" lon="-1.90349">
        <ele>6</ele>
        <time>2019-12-31T19:47:53Z</time>
      </trkpt>
      <trkpt lat="46.7179" lon="-1.90406">
        <ele>6</ele>
        <time>2019-12-31T19:48:04Z</time>
      </trkpt>
      <trkpt lat="46.71783" lon="-1.90415">
        <ele>6</ele>
        <time>2019-12-31T19:48:05Z</time>
      </trkpt>
      <trkpt lat="46.71764" lon="-1.90437">
        <ele>7</ele>
        <time>2019-12-31T19:48:10Z</time>
      </trkpt>
      <trkpt lat="46.71729" lon="-1.90479">
        <ele>7</ele>
        <time>2019-12-31T19:48:18Z</time>
      </trkpt>
      <trkpt lat="46.71702" lon="-1.90512">
        <ele>8</ele>
        <time>2019-12-31T19:48:24Z</time>
      </trkpt>
      <trkpt lat="46.71687" lon="-1.9053">
        <ele>8</ele>
        <time>2019-12-31T19:48:28Z</time>
      </trkpt>
      <trkpt lat="46.71673" lon="-1.90547">
        <ele>8</ele>
        <time>2019-12-31T19:48:31Z</time>
      </trkpt>
      <trkpt lat="46.71651" lon="-1.90574">
        <ele>9</ele>
        <time>2019-12-31T19:48:36Z</time>
      </trkpt>
      <trkpt lat="46.71615" lon="-1.90615">
        <ele>9</ele>
        <time>2019-12-31T19:48:44Z</time>
      </trkpt>
      <trkpt lat="46.71615" lon="-1.90616">
        <ele>9</ele>
        <time>2019-12-31T19:48:44Z</time>
      </trkpt>
      <trkpt lat="46.7161" lon="-1.90622">
        <ele>9</ele>
        <time>2019-12-31T19:48:45Z</time>
      </trkpt>
      <trkpt lat="46.71589" lon="-1.90649">
        <ele>9</ele>
        <time>2019-12-31T19:48:50Z</time>
      </trkpt>
      <trkpt lat="46.71557" lon="-1.90688">
        <ele>10</ele>
        <time>2019-12-31T19:48:58Z</time>
      </trkpt>
      <trkpt lat="46.71554" lon="-1.90691">
        <ele>10</ele>
        <time>2019-12-31T19:48:58Z</time>
      </trkpt>
      <trkpt lat="46.71544" lon="-1.90706">
        <ele>10</ele>
        <time>2019-12-31T19:49:01Z</time>
      </trkpt>
      <trkpt lat="46.71545" lon="-1.90706">
        <ele>10</ele>
        <time>2019-12-31T19:49:01Z</time>
      </trkpt>
      <trkpt lat="46.71545" lon="-1.90707">
        <ele>10</ele>
        <time>2019-12-31T19:49:01Z</time>
      </trkpt>
      <trkpt lat="46.71545" lon="-1.90708">
        <ele>10</ele>
        <time>2019-12-31T19:49:01Z</time>
      </trkpt>
      <trkpt lat="46.71546" lon="-1.90708">
        <ele>10</ele>
        <time>2019-12-31T19:49:02Z</time>
      </trkpt>
      <trkpt lat="46.71546" lon="-1.90709">
        <ele>10</ele>
        <time>2019-12-31T19:49:02Z</time>
      </trkpt>
      <trkpt lat="46.71546" lon="-1.9071">
        <ele>10</ele>
        <time>2019-12-31T19:49:02Z</time>
      </trkpt>
      <trkpt lat="46.71546" lon="-1.90711">
        <ele>10</ele>
        <time>2019-12-31T19:49:02Z</time>
      </trkpt>
      <trkpt lat="46.71546" lon="-1.90712">
        <ele>10</ele>
        <time>2019-12-31T19:49:02Z</time>
      </trkpt>
      <trkpt lat="46.71546" lon="-1.90713">
        <ele>10</ele>
        <time>2019-12-31T19:49:02Z</time>
      </trkpt>
      <trkpt lat="46.71546" lon="-1.90714">
        <ele>10</ele>
        <time>2019-12-31T19:49:02Z</time>
      </trkpt>
      <trkpt lat="46.71546" lon="-1.90715">
        <ele>10</ele>
        <time>2019-12-31T19:49:02Z</time>
      </trkpt>
      <trkpt lat="46.71546" lon="-1.90716">
        <ele>10</ele>
        <time>2019-12-31T19:49:02Z</time>
      </trkpt>
      <trkpt lat="46.71546" lon="-1.90717">
        <ele>10</ele>
        <time>2019-12-31T19:49:03Z</time>
      </trkpt>
      <trkpt lat="46.71545" lon="-1.90717">
        <ele>10</ele>
        <time>2019-12-31T19:49:03Z</time>
      </trkpt>
      <trkpt lat="46.71545" lon="-1.90718">
        <ele>10</ele>
        <time>2019-12-31T19:49:03Z</time>
      </trkpt>
      <trkpt lat="46.71545" lon="-1.90719">
        <ele>10</ele>
        <time>2019-12-31T19:49:03Z</time>
      </trkpt>
      <trkpt lat="46.71544" lon="-1.90719">
        <ele>10</ele>
        <time>2019-12-31T19:49:03Z</time>
      </trkpt>
      <trkpt lat="46.71544" lon="-1.9072">
        <ele>10</ele>
        <time>2019-12-31T19:49:03Z</time>
      </trkpt>
      <trkpt lat="46.71543" lon="-1.9072">
        <ele>10</ele>
        <time>2019-12-31T19:49:04Z</time>
      </trkpt>
      <trkpt lat="46.71542" lon="-1.9072">
        <ele>10</ele>
        <time>2019-12-31T19:49:04Z</time>
      </trkpt>
      <trkpt lat="46.71541" lon="-1.9072">
        <ele>10</ele>
        <time>2019-12-31T19:49:04Z</time>
      </trkpt>
      <trkpt lat="46.71541" lon="-1.90721">
        <ele>10</ele>
        <time>2019-12-31T19:49:04Z</time>
      </trkpt>
      <trkpt lat="46.71541" lon="-1.9072">
        <ele>10</ele>
        <time>2019-12-31T19:49:04Z</time>
      </trkpt>
      <trkpt lat="46.7154" lon="-1.9072">
        <ele>10</ele>
        <time>2019-12-31T19:49:04Z</time>
      </trkpt>
      <trkpt lat="46.71539" lon="-1.9072">
        <ele>10</ele>
        <time>2019-12-31T19:49:04Z</time>
      </trkpt>
      <trkpt lat="46.71538" lon="-1.9072">
        <ele>10</ele>
        <time>2019-12-31T19:49:05Z</time>
      </trkpt>
      <trkpt lat="46.71538" lon="-1.90719">
        <ele>10</ele>
        <time>2019-12-31T19:49:05Z</time>
      </trkpt>
      <trkpt lat="46.71537" lon="-1.90719">
        <ele>10</ele>
        <time>2019-12-31T19:49:05Z</time>
      </trkpt>
      <trkpt lat="46.71537" lon="-1.90718">
        <ele>10</ele>
        <time>2019-12-31T19:49:05Z</time>
      </trkpt>
      <trkpt lat="46.71537" lon="-1.90717">
        <ele>10</ele>
        <time>2019-12-31T19:49:05Z</time>
      </trkpt>
      <trkpt lat="46.71504" lon="-1.90753">
        <ele>11</ele>
        <time>2019-12-31T19:49:13Z</time>
      </trkpt>
      <trkpt lat="46.71468" lon="-1.90796">
        <ele>11</ele>
        <time>2019-12-31T19:49:21Z</time>
      </trkpt>
      <trkpt lat="46.71449" lon="-1.90818">
        <ele>12</ele>
        <time>2019-12-31T19:49:25Z</time>
      </trkpt>
      <trkpt lat="46.71439" lon="-1.9083">
        <ele>12</ele>
        <time>2019-12-31T19:49:27Z</time>
      </trkpt>
      <trkpt lat="46.71414" lon="-1.90862">
        <ele>13</ele>
        <time>2019-12-31T19:49:33Z</time>
      </trkpt>
      <trkpt lat="46.71394" lon="-1.90886">
        <ele>13</ele>
        <time>2019-12-31T19:49:38Z</time>
      </trkpt>
      <trkpt lat="46.71377" lon="-1.90906">
        <ele>13</ele>
        <time>2019-12-31T19:49:42Z</time>
      </trkpt>
      <trkpt lat="46.71372" lon="-1.90912">
        <ele>13</ele>
        <time>2019-12-31T19:49:43Z</time>
      </trkpt>
      <trkpt lat="46.71354" lon="-1.90933">
        <ele>12</ele>
        <time>2019-12-31T19:49:47Z</time>
      </trkpt>
      <trkpt lat="46.71332" lon="-1.90962">
        <ele>12</ele>
        <time>2019-12-31T19:49:52Z</time>
      </trkpt>
      <trkpt lat="46.7131" lon="-1.90988">
        <ele>12</ele>
        <time>2019-12-31T19:49:57Z</time>
      </trkpt>
      <trkpt lat="46.713" lon="-1.91004">
        <ele>12</ele>
        <time>2019-12-31T19:50:00Z</time>
      </trkpt>
      <trkpt lat="46.71289" lon="-1.9102">
        <ele>12</ele>
        <time>2019-12-31T19:50:03Z</time>
      </trkpt>
      <trkpt lat="46.71277" lon="-1.9104">
        <ele>12</ele>
        <time>2019-12-31T19:50:06Z</time>
      </trkpt>
      <trkpt lat="46.71264" lon="-1.91064">
        <ele>12</ele>
        <time>2019-12-31T19:50:10Z</time>
      </trkpt>
      <trkpt lat="46.71255" lon="-1.91084">
        <ele>12</ele>
        <time>2019-12-31T19:50:13Z</time>
      </trkpt>
      <trkpt lat="46.71244" lon="-1.91108">
        <ele>12</ele>
        <time>2019-12-31T19:50:16Z</time>
      </trkpt>
      <trkpt lat="46.71231" lon="-1.91139">
        <ele>11</ele>
        <time>2019-12-31T19:50:21Z</time>
      </trkpt>
      <trkpt lat="46.71227" lon="-1.91147">
        <ele>11</ele>
        <time>2019-12-31T19:50:22Z</time>
      </trkpt>
      <trkpt lat="46.71216" lon="-1.91174">
        <ele>11</ele>
        <time>2019-12-31T19:50:26Z</time>
      </trkpt>
      <trkpt lat="46.712" lon="-1.9121">
        <ele>11</ele>
        <time>2019-12-31T19:50:31Z</time>
      </trkpt>
      <trkpt lat="46.71185" lon="-1.91246">
        <ele>11</ele>
        <time>2019-12-31T19:50:36Z</time>
      </trkpt>
      <trkpt lat="46.71175" lon="-1.91271">
        <ele>11</ele>
        <time>2019-12-31T19:50:40Z</time>
      </trkpt>
      <trkpt lat="46.71164" lon="-1.91298">
        <ele>11</ele>
        <time>2019-12-31T19:50:43Z</time>
      </trkpt>
      <trkpt lat="46.71152" lon="-1.91328">
        <ele>12</ele>
        <time>2019-12-31T19:50:48Z</time>
      </trkpt>
      <trkpt lat="46.7115" lon="-1.91334">
        <ele>12</ele>
        <time>2019-12-31T19:50:48Z</time>
      </trkpt>
      <trkpt lat="46.71148" lon="-1.91339">
        <ele>12</ele>
        <time>2019-12-31T19:50:49Z</time>
      </trkpt>
      <trkpt lat="46.71136" lon="-1.91372">
        <ele>12</ele>
        <time>2019-12-31T19:50:54Z</time>
      </trkpt>
      <trkpt lat="46.71122" lon="-1.91407">
        <ele>13</ele>
        <time>2019-12-31T19:50:59Z</time>
      </trkpt>
      <trkpt lat="46.71113" lon="-1.91429">
        <ele>14</ele>
        <time>2019-12-31T19:51:02Z</time>
      </trkpt>
      <trkpt lat="46.71106" lon="-1.91442">
        <ele>14</ele>
        <time>2019-12-31T19:51:04Z</time>
      </trkpt>
      <trkpt lat="46.71103" lon="-1.91449">
        <ele>14</ele>
        <time>2019-12-31T19:51:05Z</time>
      </trkpt>
      <trkpt lat="46.71102" lon="-1.91452">
        <ele>14</ele>
        <time>2019-12-31T19:51:05Z</time>
      </trkpt>
      <trkpt lat="46.71099" lon="-1.91459">
        <ele>14</ele>
        <time>2019-12-31T19:51:06Z</time>
      </trkpt>
      <trkpt lat="46.71097" lon="-1.91462">
        <ele>15</ele>
        <time>2019-12-31T19:51:07Z</time>
      </trkpt>
      <trkpt lat="46.71096" lon="-1.91463">
        <ele>15</ele>
        <time>2019-12-31T19:51:07Z</time>
      </trkpt>
      <trkpt lat="46.71095" lon="-1.91465">
        <ele>15</ele>
        <time>2019-12-31T19:51:07Z</time>
      </trkpt>
      <trkpt lat="46.71085" lon="-1.91481">
        <ele>15</ele>
        <time>2019-12-31T19:51:10Z</time>
      </trkpt>
      <trkpt lat="46.7107" lon="-1.91503">
        <ele>15</ele>
        <time>2019-12-31T19:51:14Z</time>
      </trkpt>
      <trkpt lat="46.71064" lon="-1.91509">
        <ele>15</ele>
        <time>2019-12-31T19:51:15Z</time>
      </trkpt>
      <trkpt lat="46.71054" lon="-1.91523">
        <ele>16</ele>
        <time>2019-12-31T19:51:17Z</time>
      </trkpt>
      <trkpt lat="46.71042" lon="-1.91539">
        <ele>16</ele>
        <time>2019-12-31T19:51:20Z</time>
      </trkpt>
      <trkpt lat="46.71022" lon="-1.91567">
        <ele>16</ele>
        <time>2019-12-31T19:51:25Z</time>
      </trkpt>
      <trkpt lat="46.7102" lon="-1.9157">
        <ele>17</ele>
        <time>2019-12-31T19:51:26Z</time>
      </trkpt>
      <trkpt lat="46.71018" lon="-1.91572">
        <ele>17</ele>
        <time>2019-12-31T19:51:26Z</time>
      </trkpt>
      <trkpt lat="46.70999" lon="-1.91598">
        <ele>17</ele>
        <time>2019-12-31T19:51:31Z</time>
      </trkpt>
      <trkpt lat="46.70971" lon="-1.91634">
        <ele>17</ele>
        <time>2019-12-31T19:51:38Z</time>
      </trkpt>
      <trkpt lat="46.70954" lon="-1.91659">
        <ele>18</ele>
        <time>2019-12-31T19:51:42Z</time>
      </trkpt>
      <trkpt lat="46.70951" lon="-1.91664">
        <ele>18</ele>
        <time>2019-12-31T19:51:43Z</time>
      </trkpt>
      <trkpt lat="46.70946" lon="-1.91669">
        <ele>18</ele>
        <time>2019-12-31T19:51:44Z</time>
      </trkpt>
      <trkpt lat="46.70932" lon="-1.91688">
        <ele>18</ele>
        <time>2019-12-31T19:51:47Z</time>
      </trkpt>
      <trkpt lat="46.70913" lon="-1.91714">
        <ele>18</ele>
        <time>2019-12-31T19:51:52Z</time>
      </trkpt>
      <trkpt lat="46.70894" lon="-1.91739">
        <ele>18</ele>
        <time>2019-12-31T19:51:56Z</time>
      </trkpt>
      <trkpt lat="46.70883" lon="-1.91753">
        <ele>18</ele>
        <time>2019-12-31T19:51:59Z</time>
      </trkpt>
      <trkpt lat="46.7087" lon="-1.91769">
        <ele>19</ele>
        <time>2019-12-31T19:52:02Z</time>
      </trkpt>
      <trkpt lat="46.7087" lon="-1.9177">
        <ele>19</ele>
        <time>2019-12-31T19:52:02Z</time>
      </trkpt>
      <trkpt lat="46.7087" lon="-1.91771">
        <ele>19</ele>
        <time>2019-12-31T19:52:02Z</time>
      </trkpt>
      <trkpt lat="46.70871" lon="-1.91771">
        <ele>19</ele>
        <time>2019-12-31T19:52:02Z</time>
      </trkpt>
      <trkpt lat="46.70871" lon="-1.91772">
        <ele>19</ele>
        <time>2019-12-31T19:52:02Z</time>
      </trkpt>
      <trkpt lat="46.70871" lon="-1.91773">
        <ele>19</ele>
        <time>2019-12-31T19:52:03Z</time>
      </trkpt>
      <trkpt lat="46.70871" lon="-1.91774">
        <ele>19</ele>
        <time>2019-12-31T19:52:03Z</time>
      </trkpt>
      <trkpt lat="46.70871" lon="-1.91775">
        <ele>19</ele>
        <time>2019-12-31T19:52:03Z</time>
      </trkpt>
      <trkpt lat="46.70871" lon="-1.91776">
        <ele>19</ele>
        <time>2019-12-31T19:52:03Z</time>
      </trkpt>
      <trkpt lat="46.70871" lon="-1.91777">
        <ele>19</ele>
        <time>2019-12-31T19:52:03Z</time>
      </trkpt>
      <trkpt lat="46.70871" lon="-1.91778">
        <ele>19</ele>
        <time>2019-12-31T19:52:03Z</time>
      </trkpt>
      <trkpt lat="46.70871" lon="-1.91779">
        <ele>19</ele>
        <time>2019-12-31T19:52:03Z</time>
      </trkpt>
      <trkpt lat="46.7087" lon="-1.91779">
        <ele>19</ele>
        <time>2019-12-31T19:52:04Z</time>
      </trkpt>
      <trkpt lat="46.7087" lon="-1.9178">
        <ele>19</ele>
        <time>2019-12-31T19:52:04Z</time>
      </trkpt>
      <trkpt lat="46.7087" lon="-1.91781">
        <ele>19</ele>
        <time>2019-12-31T19:52:04Z</time>
      </trkpt>
      <trkpt lat="46.7087" lon="-1.91782">
        <ele>19</ele>
        <time>2019-12-31T19:52:04Z</time>
      </trkpt>
      <trkpt lat="46.70869" lon="-1.91782">
        <ele>19</ele>
        <time>2019-12-31T19:52:04Z</time>
      </trkpt>
      <trkpt lat="46.70869" lon="-1.91783">
        <ele>19</ele>
        <time>2019-12-31T19:52:04Z</time>
      </trkpt>
      <trkpt lat="46.70868" lon="-1.91784">
        <ele>19</ele>
        <time>2019-12-31T19:52:04Z</time>
      </trkpt>
      <trkpt lat="46.70868" lon="-1.91785">
        <ele>19</ele>
        <time>2019-12-31T19:52:05Z</time>
      </trkpt>
      <trkpt lat="46.70867" lon="-1.91785">
        <ele>19</ele>
        <time>2019-12-31T19:52:05Z</time>
      </trkpt>
      <trkpt lat="46.70866" lon="-1.91786">
        <ele>19</ele>
        <time>2019-12-31T19:52:05Z</time>
      </trkpt>
      <trkpt lat="46.70865" lon="-1.91786">
        <ele>19</ele>
        <time>2019-12-31T19:52:05Z</time>
      </trkpt>
      <trkpt lat="46.70864" lon="-1.91786">
        <ele>19</ele>
        <time>2019-12-31T19:52:05Z</time>
      </trkpt>
      <trkpt lat="46.70864" lon="-1.91787">
        <ele>19</ele>
        <time>2019-12-31T19:52:05Z</time>
      </trkpt>
      <trkpt lat="46.70863" lon="-1.91787">
        <ele>19</ele>
        <time>2019-12-31T19:52:06Z</time>
      </trkpt>
      <trkpt lat="46.70862" lon="-1.91787">
        <ele>19</ele>
        <time>2019-12-31T19:52:06Z</time>
      </trkpt>
      <trkpt lat="46.70861" lon="-1.91787">
        <ele>19</ele>
        <time>2019-12-31T19:52:06Z</time>
      </trkpt>
      <trkpt lat="46.70861" lon="-1.91786">
        <ele>19</ele>
        <time>2019-12-31T19:52:06Z</time>
      </trkpt>
      <trkpt lat="46.7086" lon="-1.91786">
        <ele>19</ele>
        <time>2019-12-31T19:52:06Z</time>
      </trkpt>
      <trkpt lat="46.70859" lon="-1.91786">
        <ele>19</ele>
        <time>2019-12-31T19:52:06Z</time>
      </trkpt>
      <trkpt lat="46.70859" lon="-1.91785">
        <ele>19</ele>
        <time>2019-12-31T19:52:07Z</time>
      </trkpt>
      <trkpt lat="46.70858" lon="-1.91785">
        <ele>19</ele>
        <time>2019-12-31T19:52:07Z</time>
      </trkpt>
      <trkpt lat="46.70858" lon="-1.91784">
        <ele>19</ele>
        <time>2019-12-31T19:52:07Z</time>
      </trkpt>
      <trkpt lat="46.70836" lon="-1.9181">
        <ele>20</ele>
        <time>2019-12-31T19:52:12Z</time>
      </trkpt>
      <trkpt lat="46.70799" lon="-1.91849">
        <ele>20</ele>
        <time>2019-12-31T19:52:20Z</time>
      </trkpt>
      <trkpt lat="46.70793" lon="-1.91854">
        <ele>20</ele>
        <time>2019-12-31T19:52:21Z</time>
      </trkpt>
      <trkpt lat="46.70789" lon="-1.91861">
        <ele>19</ele>
        <time>2019-12-31T19:52:22Z</time>
      </trkpt>
      <trkpt lat="46.70758" lon="-1.91893">
        <ele>19</ele>
        <time>2019-12-31T19:52:29Z</time>
      </trkpt>
      <trkpt lat="46.7073" lon="-1.91923">
        <ele>18</ele>
        <time>2019-12-31T19:52:35Z</time>
      </trkpt>
      <trkpt lat="46.70726" lon="-1.91928">
        <ele>19</ele>
        <time>2019-12-31T19:52:36Z</time>
      </trkpt>
      <trkpt lat="46.70721" lon="-1.9193">
        <ele>19</ele>
        <time>2019-12-31T19:52:37Z</time>
      </trkpt>
      <trkpt lat="46.70684" lon="-1.91967">
        <ele>19</ele>
        <time>2019-12-31T19:52:45Z</time>
      </trkpt>
      <trkpt lat="46.70677" lon="-1.91974">
        <ele>19</ele>
        <time>2019-12-31T19:52:47Z</time>
      </trkpt>
      <trkpt lat="46.70671" lon="-1.91985">
        <ele>19</ele>
        <time>2019-12-31T19:52:48Z</time>
      </trkpt>
      <trkpt lat="46.70655" lon="-1.92006">
        <ele>19</ele>
        <time>2019-12-31T19:52:52Z</time>
      </trkpt>
      <trkpt lat="46.70655" lon="-1.92006">
        <ele>19</ele>
        <time>2019-12-31T19:52:52Z</time>
      </trkpt>
      <trkpt lat="46.70655" lon="-1.92007">
        <ele>19</ele>
        <time>2019-12-31T19:52:52Z</time>
      </trkpt>
      <trkpt lat="46.70655" lon="-1.92008">
        <ele>19</ele>
        <time>2019-12-31T19:52:52Z</time>
      </trkpt>
      <trkpt lat="46.70655" lon="-1.92009">
        <ele>19</ele>
        <time>2019-12-31T19:52:53Z</time>
      </trkpt>
      <trkpt lat="46.70655" lon="-1.9201">
        <ele>19</ele>
        <time>2019-12-31T19:52:53Z</time>
      </trkpt>
      <trkpt lat="46.70655" lon="-1.92011">
        <ele>19</ele>
        <time>2019-12-31T19:52:53Z</time>
      </trkpt>
      <trkpt lat="46.70655" lon="-1.92012">
        <ele>19</ele>
        <time>2019-12-31T19:52:53Z</time>
      </trkpt>
      <trkpt lat="46.70655" lon="-1.92013">
        <ele>19</ele>
        <time>2019-12-31T19:52:53Z</time>
      </trkpt>
      <trkpt lat="46.70655" lon="-1.92014">
        <ele>19</ele>
        <time>2019-12-31T19:52:53Z</time>
      </trkpt>
      <trkpt lat="46.70655" lon="-1.92015">
        <ele>19</ele>
        <time>2019-12-31T19:52:53Z</time>
      </trkpt>
      <trkpt lat="46.70654" lon="-1.92015">
        <ele>19</ele>
        <time>2019-12-31T19:52:53Z</time>
      </trkpt>
      <trkpt lat="46.70654" lon="-1.92016">
        <ele>19</ele>
        <time>2019-12-31T19:52:54Z</time>
      </trkpt>
      <trkpt lat="46.70654" lon="-1.92017">
        <ele>19</ele>
        <time>2019-12-31T19:52:54Z</time>
      </trkpt>
      <trkpt lat="46.70654" lon="-1.92018">
        <ele>19</ele>
        <time>2019-12-31T19:52:54Z</time>
      </trkpt>
      <trkpt lat="46.70653" lon="-1.92019">
        <ele>19</ele>
        <time>2019-12-31T19:52:54Z</time>
      </trkpt>
      <trkpt lat="46.70653" lon="-1.9202">
        <ele>19</ele>
        <time>2019-12-31T19:52:54Z</time>
      </trkpt>
      <trkpt lat="46.70652" lon="-1.92021">
        <ele>19</ele>
        <time>2019-12-31T19:52:54Z</time>
      </trkpt>
      <trkpt lat="46.70652" lon="-1.92022">
        <ele>19</ele>
        <time>2019-12-31T19:52:54Z</time>
      </trkpt>
      <trkpt lat="46.70651" lon="-1.92022">
        <ele>19</ele>
        <time>2019-12-31T19:52:55Z</time>
      </trkpt>
      <trkpt lat="46.70651" lon="-1.92023">
        <ele>19</ele>
        <time>2019-12-31T19:52:55Z</time>
      </trkpt>
      <trkpt lat="46.7065" lon="-1.92023">
        <ele>19</ele>
        <time>2019-12-31T19:52:55Z</time>
      </trkpt>
      <trkpt lat="46.70649" lon="-1.92024">
        <ele>19</ele>
        <time>2019-12-31T19:52:55Z</time>
      </trkpt>
      <trkpt lat="46.70644" lon="-1.92039">
        <ele>19</ele>
        <time>2019-12-31T19:52:57Z</time>
      </trkpt>
      <trkpt lat="46.70642" lon="-1.9205">
        <ele>19</ele>
        <time>2019-12-31T19:52:59Z</time>
      </trkpt>
      <trkpt lat="46.70642" lon="-1.92056">
        <ele>19</ele>
        <time>2019-12-31T19:52:59Z</time>
      </trkpt>
      <trkpt lat="46.7064" lon="-1.92095">
        <ele>20</ele>
        <time>2019-12-31T19:53:04Z</time>
      </trkpt>
      <trkpt lat="46.7064" lon="-1.92109">
        <ele>20</ele>
        <time>2019-12-31T19:53:06Z</time>
      </trkpt>
      <trkpt lat="46.70639" lon="-1.92134">
        <ele>19</ele>
        <time>2019-12-31T19:53:09Z</time>
      </trkpt>
      <trkpt lat="46.70637" lon="-1.92186">
        <ele>19</ele>
        <time>2019-12-31T19:53:15Z</time>
      </trkpt>
      <trkpt lat="46.70634" lon="-1.92221">
        <ele>19</ele>
        <time>2019-12-31T19:53:20Z</time>
      </trkpt>
      <trkpt lat="46.70628" lon="-1.92248">
        <ele>20</ele>
        <time>2019-12-31T19:53:23Z</time>
      </trkpt>
      <trkpt lat="46.70619" lon="-1.92271">
        <ele>19</ele>
        <time>2019-12-31T19:53:26Z</time>
      </trkpt>
      <trkpt lat="46.7061" lon="-1.92289">
        <ele>19</ele>
        <time>2019-12-31T19:53:29Z</time>
      </trkpt>
      <trkpt lat="46.70602" lon="-1.92304">
        <ele>18</ele>
        <time>2019-12-31T19:53:31Z</time>
      </trkpt>
      <trkpt lat="46.70586" lon="-1.92327">
        <ele>18</ele>
        <time>2019-12-31T19:53:35Z</time>
      </trkpt>
      <trkpt lat="46.70582" lon="-1.92333">
        <ele>18</ele>
        <time>2019-12-31T19:53:36Z</time>
      </trkpt>
      <trkpt lat="46.70571" lon="-1.92356">
        <ele>17</ele>
        <time>2019-12-31T19:53:40Z</time>
      </trkpt>
      <trkpt lat="46.70562" lon="-1.92377">
        <ele>17</ele>
        <time>2019-12-31T19:53:43Z</time>
      </trkpt>
      <trkpt lat="46.70559" lon="-1.92387">
        <ele>16</ele>
        <time>2019-12-31T19:53:44Z</time>
      </trkpt>
      <trkpt lat="46.70555" lon="-1.92398">
        <ele>16</ele>
        <time>2019-12-31T19:53:46Z</time>
      </trkpt>
      <trkpt lat="46.70552" lon="-1.92414">
        <ele>16</ele>
        <time>2019-12-31T19:53:48Z</time>
      </trkpt>
      <trkpt lat="46.70546" lon="-1.92441">
        <ele>15</ele>
        <time>2019-12-31T19:53:51Z</time>
      </trkpt>
      <trkpt lat="46.70541" lon="-1.92464">
        <ele>15</ele>
        <time>2019-12-31T19:53:54Z</time>
      </trkpt>
      <trkpt lat="46.7054" lon="-1.92472">
        <ele>15</ele>
        <time>2019-12-31T19:53:55Z</time>
      </trkpt>
      <trkpt lat="46.70535" lon="-1.92496">
        <ele>14</ele>
        <time>2019-12-31T19:53:58Z</time>
      </trkpt>
      <trkpt lat="46.70534" lon="-1.925">
        <ele>14</ele>
        <time>2019-12-31T19:53:59Z</time>
      </trkpt>
      <trkpt lat="46.70533" lon="-1.92502">
        <ele>14</ele>
        <time>2019-12-31T19:53:59Z</time>
      </trkpt>
      <trkpt lat="46.70527" lon="-1.92538">
        <ele>13</ele>
        <time>2019-12-31T19:54:03Z</time>
      </trkpt>
      <trkpt lat="46.70523" lon="-1.92561">
        <ele>12</ele>
        <time>2019-12-31T19:54:06Z</time>
      </trkpt>
      <trkpt lat="46.70524" lon="-1.92565">
        <ele>12</ele>
        <time>2019-12-31T19:54:07Z</time>
      </trkpt>
      <trkpt lat="46.70525" lon="-1.92575">
        <ele>12</ele>
        <time>2019-12-31T19:54:08Z</time>
      </trkpt>
      <trkpt lat="46.70525" lon="-1.92582">
        <ele>12</ele>
        <time>2019-12-31T19:54:09Z</time>
      </trkpt>
      <trkpt lat="46.70525" lon="-1.92582">
        <ele>12</ele>
        <time>2019-12-31T19:54:09Z</time>
      </trkpt>
      <trkpt lat="46.70529" lon="-1.92587">
        <ele>12</ele>
        <time>2019-12-31T19:54:10Z</time>
      </trkpt>
      <trkpt lat="46.7053" lon="-1.92592">
        <ele>12</ele>
        <time>2019-12-31T19:54:10Z</time>
      </trkpt>
      <trkpt lat="46.70531" lon="-1.92598">
        <ele>12</ele>
        <time>2019-12-31T19:54:11Z</time>
      </trkpt>
      <trkpt lat="46.7053" lon="-1.92602">
        <ele>12</ele>
        <time>2019-12-31T19:54:12Z</time>
      </trkpt>
      <trkpt lat="46.70528" lon="-1.92606">
        <ele>12</ele>
        <time>2019-12-31T19:54:12Z</time>
      </trkpt>
      <trkpt lat="46.70527" lon="-1.92607">
        <ele>12</ele>
        <time>2019-12-31T19:54:13Z</time>
      </trkpt>
      <trkpt lat="46.70525" lon="-1.92609">
        <ele>12</ele>
        <time>2019-12-31T19:54:13Z</time>
      </trkpt>
      <trkpt lat="46.70523" lon="-1.92609">
        <ele>11</ele>
        <time>2019-12-31T19:54:13Z</time>
      </trkpt>
      <trkpt lat="46.70512" lon="-1.92624">
        <ele>11</ele>
        <time>2019-12-31T19:54:16Z</time>
      </trkpt>
      <trkpt lat="46.70507" lon="-1.92632">
        <ele>11</ele>
        <time>2019-12-31T19:54:17Z</time>
      </trkpt>
      <trkpt lat="46.70504" lon="-1.92634">
        <ele>11</ele>
        <time>2019-12-31T19:54:18Z</time>
      </trkpt>
      <trkpt lat="46.70499" lon="-1.9265">
        <ele>11</ele>
        <time>2019-12-31T19:54:20Z</time>
      </trkpt>
      <trkpt lat="46.70496" lon="-1.9267">
        <ele>11</ele>
        <time>2019-12-31T19:54:23Z</time>
      </trkpt>
      <trkpt lat="46.70489" lon="-1.92701">
        <ele>10</ele>
        <time>2019-12-31T19:54:27Z</time>
      </trkpt>
      <trkpt lat="46.70484" lon="-1.9273">
        <ele>9</ele>
        <time>2019-12-31T19:54:30Z</time>
      </trkpt>
      <trkpt lat="46.70482" lon="-1.92747">
        <ele>8</ele>
        <time>2019-12-31T19:54:32Z</time>
      </trkpt>
      <trkpt lat="46.70478" lon="-1.92796">
        <ele>8</ele>
        <time>2019-12-31T19:54:38Z</time>
      </trkpt>
      <trkpt lat="46.70475" lon="-1.92841">
        <ele>8</ele>
        <time>2019-12-31T19:54:44Z</time>
      </trkpt>
      <trkpt lat="46.70472" lon="-1.92898">
        <ele>8</ele>
        <time>2019-12-31T19:54:51Z</time>
      </trkpt>
      <trkpt lat="46.70468" lon="-1.92952">
        <ele>7</ele>
        <time>2019-12-31T19:54:57Z</time>
      </trkpt>
      <trkpt lat="46.70465" lon="-1.93009">
        <ele>6</ele>
        <time>2019-12-31T19:55:04Z</time>
      </trkpt>
      <trkpt lat="46.70462" lon="-1.93045">
        <ele>6</ele>
        <time>2019-12-31T19:55:09Z</time>
      </trkpt>
      <trkpt lat="46.70458" lon="-1.93108">
        <ele>5</ele>
        <time>2019-12-31T19:55:17Z</time>
      </trkpt>
      <trkpt lat="46.70455" lon="-1.93156">
        <ele>5</ele>
        <time>2019-12-31T19:55:22Z</time>
      </trkpt>
      <trkpt lat="46.70452" lon="-1.93209">
        <ele>4</ele>
        <time>2019-12-31T19:55:29Z</time>
      </trkpt>
      <trkpt lat="46.70449" lon="-1.93254">
        <ele>3</ele>
        <time>2019-12-31T19:55:34Z</time>
      </trkpt>
      <trkpt lat="46.70449" lon="-1.93267">
        <ele>3</ele>
        <time>2019-12-31T19:55:36Z</time>
      </trkpt>
      <trkpt lat="46.70449" lon="-1.93267">
        <ele>3</ele>
        <time>2019-12-31T19:55:36Z</time>
      </trkpt>
      <trkpt lat="46.70439" lon="-1.93265">
        <ele>3</ele>
        <time>2019-12-31T19:55:38Z</time>
      </trkpt>
      <trkpt lat="46.70429" lon="-1.93262">
        <ele>3</ele>
        <time>2019-12-31T19:55:40Z</time>
      </trkpt>
      <trkpt lat="46.70419" lon="-1.93258">
        <ele>3</ele>
        <time>2019-12-31T19:55:42Z</time>
      </trkpt>
      <trkpt lat="46.70398" lon="-1.93249">
        <ele>3</ele>
        <time>2019-12-31T19:55:45Z</time>
      </trkpt>
      <trkpt lat="46.70362" lon="-1.9324">
        <ele>2</ele>
        <time>2019-12-31T19:55:52Z</time>
      </trkpt>
      <trkpt lat="46.70328" lon="-1.93232">
        <ele>2</ele>
        <time>2019-12-31T19:55:58Z</time>
      </trkpt>
      <trkpt lat="46.70304" lon="-1.9323">
        <ele>2</ele>
        <time>2019-12-31T19:56:02Z</time>
      </trkpt>
      <trkpt lat="46.70304" lon="-1.9323">
        <ele>2</ele>
        <time>2019-12-31T19:56:02Z</time>
      </trkpt>
      <trkpt lat="46.70295" lon="-1.93245">
        <ele>2</ele>
        <time>2019-12-31T19:56:05Z</time>
      </trkpt>
      <trkpt lat="46.70288" lon="-1.93253">
        <ele>2</ele>
        <time>2019-12-31T19:56:06Z</time>
      </trkpt>
      <trkpt lat="46.7028" lon="-1.9326">
        <ele>2</ele>
        <time>2019-12-31T19:56:08Z</time>
      </trkpt>
      <trkpt lat="46.70276" lon="-1.93263">
        <ele>2</ele>
        <time>2019-12-31T19:56:09Z</time>
      </trkpt>
      <trkpt lat="46.70263" lon="-1.93271">
        <ele>2</ele>
        <time>2019-12-31T19:56:11Z</time>
      </trkpt>
      <trkpt lat="46.70251" lon="-1.9328">
        <ele>2</ele>
        <time>2019-12-31T19:56:14Z</time>
      </trkpt>
      <trkpt lat="46.70239" lon="-1.93295">
        <ele>2</ele>
        <time>2019-12-31T19:56:16Z</time>
      </trkpt>
      <trkpt lat="46.70224" lon="-1.9332">
        <ele>1</ele>
        <time>2019-12-31T19:56:21Z</time>
      </trkpt>
      <trkpt lat="46.70216" lon="-1.93332">
        <ele>1</ele>
        <time>2019-12-31T19:56:23Z</time>
      </trkpt>
      <trkpt lat="46.70211" lon="-1.9334">
        <ele>1</ele>
        <time>2019-12-31T19:56:24Z</time>
      </trkpt>
      <trkpt lat="46.70205" lon="-1.93347">
        <ele>1</ele>
        <time>2019-12-31T19:56:25Z</time>
      </trkpt>
      <trkpt lat="46.70194" lon="-1.93356">
        <ele>1</ele>
        <time>2019-12-31T19:56:28Z</time>
      </trkpt>
      <trkpt lat="46.70181" lon="-1.93366">
        <ele>2</ele>
        <time>2019-12-31T19:56:30Z</time>
      </trkpt>
      <trkpt lat="46.70173" lon="-1.93372">
        <ele>1</ele>
        <time>2019-12-31T19:56:32Z</time>
      </trkpt>
      <trkpt lat="46.7017" lon="-1.93374">
        <ele>1</ele>
        <time>2019-12-31T19:56:32Z</time>
      </trkpt>
      <trkpt lat="46.70166" lon="-1.9338">
        <ele>1</ele>
        <time>2019-12-31T19:56:33Z</time>
      </trkpt>
      <trkpt lat="46.70161" lon="-1.93382">
        <ele>1</ele>
        <time>2019-12-31T19:56:34Z</time>
      </trkpt>
      <trkpt lat="46.70152" lon="-1.93386">
        <ele>1</ele>
        <time>2019-12-31T19:56:36Z</time>
      </trkpt>
      <trkpt lat="46.70141" lon="-1.93391">
        <ele>1</ele>
        <time>2019-12-31T19:56:38Z</time>
      </trkpt>
      <trkpt lat="46.70141" lon="-1.93391">
        <ele>1</ele>
        <time>2019-12-31T19:56:38Z</time>
      </trkpt>
      <trkpt lat="46.70141" lon="-1.93393">
        <ele>1</ele>
        <time>2019-12-31T19:56:38Z</time>
      </trkpt>
      <trkpt lat="46.70141" lon="-1.93394">
        <ele>1</ele>
        <time>2019-12-31T19:56:38Z</time>
      </trkpt>
      <trkpt lat="46.70141" lon="-1.93395">
        <ele>1</ele>
        <time>2019-12-31T19:56:38Z</time>
      </trkpt>
      <trkpt lat="46.7014" lon="-1.93396">
        <ele>1</ele>
        <time>2019-12-31T19:56:39Z</time>
      </trkpt>
      <trkpt lat="46.7014" lon="-1.93397">
        <ele>1</ele>
        <time>2019-12-31T19:56:39Z</time>
      </trkpt>
      <trkpt lat="46.7014" lon="-1.93398">
        <ele>1</ele>
        <time>2019-12-31T19:56:39Z</time>
      </trkpt>
      <trkpt lat="46.70139" lon="-1.93399">
        <ele>1</ele>
        <time>2019-12-31T19:56:39Z</time>
      </trkpt>
      <trkpt lat="46.70139" lon="-1.93401">
        <ele>1</ele>
        <time>2019-12-31T19:56:39Z</time>
      </trkpt>
      <trkpt lat="46.70138" lon="-1.93402">
        <ele>1</ele>
        <time>2019-12-31T19:56:40Z</time>
      </trkpt>
      <trkpt lat="46.70138" lon="-1.93403">
        <ele>1</ele>
        <time>2019-12-31T19:56:40Z</time>
      </trkpt>
      <trkpt lat="46.70137" lon="-1.93403">
        <ele>1</ele>
        <time>2019-12-31T19:56:40Z</time>
      </trkpt>
      <trkpt lat="46.70136" lon="-1.93404">
        <ele>1</ele>
        <time>2019-12-31T19:56:40Z</time>
      </trkpt>
      <trkpt lat="46.70136" lon="-1.93405">
        <ele>1</ele>
        <time>2019-12-31T19:56:40Z</time>
      </trkpt>
      <trkpt lat="46.70135" lon="-1.93406">
        <ele>1</ele>
        <time>2019-12-31T19:56:40Z</time>
      </trkpt>
      <trkpt lat="46.70134" lon="-1.93406">
        <ele>1</ele>
        <time>2019-12-31T19:56:41Z</time>
      </trkpt>
      <trkpt lat="46.70133" lon="-1.93407">
        <ele>1</ele>
        <time>2019-12-31T19:56:41Z</time>
      </trkpt>
      <trkpt lat="46.70132" lon="-1.93408">
        <ele>1</ele>
        <time>2019-12-31T19:56:41Z</time>
      </trkpt>
      <trkpt lat="46.70131" lon="-1.93408">
        <ele>1</ele>
        <time>2019-12-31T19:56:41Z</time>
      </trkpt>
      <trkpt lat="46.7013" lon="-1.93409">
        <ele>1</ele>
        <time>2019-12-31T19:56:41Z</time>
      </trkpt>
      <trkpt lat="46.70129" lon="-1.93409">
        <ele>1</ele>
        <time>2019-12-31T19:56:42Z</time>
      </trkpt>
      <trkpt lat="46.70128" lon="-1.93409">
        <ele>1</ele>
        <time>2019-12-31T19:56:42Z</time>
      </trkpt>
      <trkpt lat="46.70127" lon="-1.93409">
        <ele>1</ele>
        <time>2019-12-31T19:56:42Z</time>
      </trkpt>
      <trkpt lat="46.70126" lon="-1.93409">
        <ele>1</ele>
        <time>2019-12-31T19:56:42Z</time>
      </trkpt>
      <trkpt lat="46.70125" lon="-1.93409">
        <ele>1</ele>
        <time>2019-12-31T19:56:42Z</time>
      </trkpt>
      <trkpt lat="46.70124" lon="-1.93408">
        <ele>2</ele>
        <time>2019-12-31T19:56:43Z</time>
      </trkpt>
      <trkpt lat="46.70123" lon="-1.93408">
        <ele>2</ele>
        <time>2019-12-31T19:56:43Z</time>
      </trkpt>
      <trkpt lat="46.70122" lon="-1.93407">
        <ele>2</ele>
        <time>2019-12-31T19:56:43Z</time>
      </trkpt>
      <trkpt lat="46.70121" lon="-1.93407">
        <ele>2</ele>
        <time>2019-12-31T19:56:43Z</time>
      </trkpt>
      <trkpt lat="46.7012" lon="-1.93406">
        <ele>2</ele>
        <time>2019-12-31T19:56:43Z</time>
      </trkpt>
      <trkpt lat="46.7012" lon="-1.93405">
        <ele>2</ele>
        <time>2019-12-31T19:56:43Z</time>
      </trkpt>
      <trkpt lat="46.70119" lon="-1.93405">
        <ele>2</ele>
        <time>2019-12-31T19:56:44Z</time>
      </trkpt>
      <trkpt lat="46.70107" lon="-1.93404">
        <ele>2</ele>
        <time>2019-12-31T19:56:46Z</time>
      </trkpt>
      <trkpt lat="46.701" lon="-1.93405">
        <ele>2</ele>
        <time>2019-12-31T19:56:47Z</time>
      </trkpt>
      <trkpt lat="46.70092" lon="-1.93406">
        <ele>2</ele>
        <time>2019-12-31T19:56:48Z</time>
      </trkpt>
      <trkpt lat="46.70088" lon="-1.93406">
        <ele>2</ele>
        <time>2019-12-31T19:56:49Z</time>
      </trkpt>
      <trkpt lat="46.70085" lon="-1.93405">
        <ele>2</ele>
        <time>2019-12-31T19:56:50Z</time>
      </trkpt>
      <trkpt lat="46.70083" lon="-1.93405">
        <ele>2</ele>
        <time>2019-12-31T19:56:50Z</time>
      </trkpt>
      <trkpt lat="46.70062" lon="-1.93405">
        <ele>2</ele>
        <time>2019-12-31T19:56:54Z</time>
      </trkpt>
      <trkpt lat="46.70062" lon="-1.93406">
        <ele>2</ele>
        <time>2019-12-31T19:56:54Z</time>
      </trkpt>
      <trkpt lat="46.70062" lon="-1.93407">
        <ele>2</ele>
        <time>2019-12-31T19:56:54Z</time>
      </trkpt>
      <trkpt lat="46.70062" lon="-1.93408">
        <ele>2</ele>
        <time>2019-12-31T19:56:54Z</time>
      </trkpt>
      <trkpt lat="46.70062" lon="-1.93409">
        <ele>2</ele>
        <time>2019-12-31T19:56:54Z</time>
      </trkpt>
      <trkpt lat="46.70062" lon="-1.9341">
        <ele>2</ele>
        <time>2019-12-31T19:56:54Z</time>
      </trkpt>
      <trkpt lat="46.70061" lon="-1.9341">
        <ele>2</ele>
        <time>2019-12-31T19:56:55Z</time>
      </trkpt>
      <trkpt lat="46.70061" lon="-1.93411">
        <ele>2</ele>
        <time>2019-12-31T19:56:55Z</time>
      </trkpt>
      <trkpt lat="46.7006" lon="-1.93411">
        <ele>2</ele>
        <time>2019-12-31T19:56:55Z</time>
      </trkpt>
      <trkpt lat="46.7006" lon="-1.93412">
        <ele>2</ele>
        <time>2019-12-31T19:56:55Z</time>
      </trkpt>
      <trkpt lat="46.70059" lon="-1.93412">
        <ele>2</ele>
        <time>2019-12-31T19:56:55Z</time>
      </trkpt>
      <trkpt lat="46.70059" lon="-1.93413">
        <ele>2</ele>
        <time>2019-12-31T19:56:55Z</time>
      </trkpt>
      <trkpt lat="46.70058" lon="-1.93413">
        <ele>2</ele>
        <time>2019-12-31T19:56:56Z</time>
      </trkpt>
      <trkpt lat="46.70057" lon="-1.93413">
        <ele>2</ele>
        <time>2019-12-31T19:56:56Z</time>
      </trkpt>
      <trkpt lat="46.70056" lon="-1.93413">
        <ele>2</ele>
        <time>2019-12-31T19:56:56Z</time>
      </trkpt>
      <trkpt lat="46.70055" lon="-1.93413">
        <ele>2</ele>
        <time>2019-12-31T19:56:56Z</time>
      </trkpt>
      <trkpt lat="46.70055" lon="-1.93412">
        <ele>2</ele>
        <time>2019-12-31T19:56:56Z</time>
      </trkpt>
      <trkpt lat="46.70054" lon="-1.93412">
        <ele>2</ele>
        <time>2019-12-31T19:56:56Z</time>
      </trkpt>
      <trkpt lat="46.70054" lon="-1.93411">
        <ele>2</ele>
        <time>2019-12-31T19:56:56Z</time>
      </trkpt>
      <trkpt lat="46.70053" lon="-1.93411">
        <ele>2</ele>
        <time>2019-12-31T19:56:57Z</time>
      </trkpt>
      <trkpt lat="46.70053" lon="-1.9341">
        <ele>2</ele>
        <time>2019-12-31T19:56:57Z</time>
      </trkpt>
      <trkpt lat="46.70053" lon="-1.93409">
        <ele>2</ele>
        <time>2019-12-31T19:56:57Z</time>
      </trkpt>
      <trkpt lat="46.70052" lon="-1.93409">
        <ele>2</ele>
        <time>2019-12-31T19:56:57Z</time>
      </trkpt>
      <trkpt lat="46.70052" lon="-1.93408">
        <ele>2</ele>
        <time>2019-12-31T19:56:57Z</time>
      </trkpt>
      <trkpt lat="46.70052" lon="-1.93407">
        <ele>2</ele>
        <time>2019-12-31T19:56:57Z</time>
      </trkpt>
      <trkpt lat="46.70052" lon="-1.93406">
        <ele>2</ele>
        <time>2019-12-31T19:56:57Z</time>
      </trkpt>
      <trkpt lat="46.70052" lon="-1.93405">
        <ele>2</ele>
        <time>2019-12-31T19:56:58Z</time>
      </trkpt>
      <trkpt lat="46.70046" lon="-1.93402">
        <ele>2</ele>
        <time>2019-12-31T19:56:59Z</time>
      </trkpt>
      <trkpt lat="46.70043" lon="-1.93401">
        <ele>2</ele>
        <time>2019-12-31T19:56:59Z</time>
      </trkpt>
      <trkpt lat="46.70041" lon="-1.934">
        <ele>2</ele>
        <time>2019-12-31T19:57:00Z</time>
      </trkpt>
      <trkpt lat="46.70038" lon="-1.93398">
        <ele>2</ele>
        <time>2019-12-31T19:57:00Z</time>
      </trkpt>
      <trkpt lat="46.70036" lon="-1.93397">
        <ele>2</ele>
        <time>2019-12-31T19:57:01Z</time>
      </trkpt>
      <trkpt lat="46.70033" lon="-1.93394">
        <ele>2</ele>
        <time>2019-12-31T19:57:01Z</time>
      </trkpt>
      <trkpt lat="46.7003" lon="-1.93391">
        <ele>3</ele>
        <time>2019-12-31T19:57:02Z</time>
      </trkpt>
      <trkpt lat="46.70028" lon="-1.93388">
        <ele>3</ele>
        <time>2019-12-31T19:57:02Z</time>
      </trkpt>
      <trkpt lat="46.70025" lon="-1.93386">
        <ele>3</ele>
        <time>2019-12-31T19:57:03Z</time>
      </trkpt>
      <trkpt lat="46.70023" lon="-1.93384">
        <ele>3</ele>
        <time>2019-12-31T19:57:03Z</time>
      </trkpt>
      <trkpt lat="46.7002" lon="-1.93382">
        <ele>3</ele>
        <time>2019-12-31T19:57:04Z</time>
      </trkpt>
      <trkpt lat="46.70015" lon="-1.9338">
        <ele>3</ele>
        <time>2019-12-31T19:57:05Z</time>
      </trkpt>
      <trkpt lat="46.70002" lon="-1.93375">
        <ele>3</ele>
        <time>2019-12-31T19:57:07Z</time>
      </trkpt>
      <trkpt lat="46.69987" lon="-1.93369">
        <ele>3</ele>
        <time>2019-12-31T19:57:10Z</time>
      </trkpt>
      <trkpt lat="46.69982" lon="-1.93367">
        <ele>3</ele>
        <time>2019-12-31T19:57:11Z</time>
      </trkpt>
      <trkpt lat="46.69979" lon="-1.93366">
        <ele>3</ele>
        <time>2019-12-31T19:57:12Z</time>
      </trkpt>
      <trkpt lat="46.69978" lon="-1.93366">
        <ele>3</ele>
        <time>2019-12-31T19:57:12Z</time>
      </trkpt>
      <trkpt lat="46.69976" lon="-1.93367">
        <ele>4</ele>
        <time>2019-12-31T19:57:12Z</time>
      </trkpt>
      <trkpt lat="46.69973" lon="-1.93367">
        <ele>4</ele>
        <time>2019-12-31T19:57:13Z</time>
      </trkpt>
      <trkpt lat="46.69969" lon="-1.9337">
        <ele>4</ele>
        <time>2019-12-31T19:57:13Z</time>
      </trkpt>
      <trkpt lat="46.69963" lon="-1.93373">
        <ele>4</ele>
        <time>2019-12-31T19:57:15Z</time>
      </trkpt>
      <trkpt lat="46.69958" lon="-1.93375">
        <ele>4</ele>
        <time>2019-12-31T19:57:15Z</time>
      </trkpt>
      <trkpt lat="46.69953" lon="-1.93377">
        <ele>4</ele>
        <time>2019-12-31T19:57:16Z</time>
      </trkpt>
      <trkpt lat="46.69949" lon="-1.93379">
        <ele>4</ele>
        <time>2019-12-31T19:57:17Z</time>
      </trkpt>
      <trkpt lat="46.69944" lon="-1.93381">
        <ele>4</ele>
        <time>2019-12-31T19:57:18Z</time>
      </trkpt>
      <trkpt lat="46.69935" lon="-1.93382">
        <ele>4</ele>
        <time>2019-12-31T19:57:20Z</time>
      </trkpt>
      <trkpt lat="46.69925" lon="-1.93383">
        <ele>4</ele>
        <time>2019-12-31T19:57:21Z</time>
      </trkpt>
      <trkpt lat="46.69922" lon="-1.93383">
        <ele>4</ele>
        <time>2019-12-31T19:57:22Z</time>
      </trkpt>
      <trkpt lat="46.69915" lon="-1.93383">
        <ele>4</ele>
        <time>2019-12-31T19:57:23Z</time>
      </trkpt>
    </trkseg>
  </trk>
</gpx>